<?xml version="1.0" encoding="UTF-8" standalone="no" ?>
<gpx xmlns="http://www.topografix.com/GPX/1/1" xmlns:xsi="http://www.w3.org/2001/XMLSchema-instance" xsi:schemaLocation="http://www.topografix.com/GPX/1/1 http://www.topografix.com/GPX/1/1/gpx.xsd" version="1.1" creator="VisuGPX - https://www.visugpx.com">
  <metadata>
    <name>sortie paques</name>
    <desc><![CDATA[Sortie tranquille]]></desc>
  </metadata>
  <trk>
    <name><![CDATA[Sortie à vélo matinale]]></name>
    <trkseg>
      <trkpt lat="43.18477" lon="5.71414">
        <ele>29.8</ele>
        <time>2016-03-28T08:26:22Z</time>
      </trkpt>
      <trkpt lat="43.18506" lon="5.71441">
        <ele>31.5</ele>
        <time>2016-03-28T08:26:37Z</time>
      </trkpt>
      <trkpt lat="43.18503" lon="5.71443">
        <ele>31.4</ele>
        <time>2016-03-28T08:26:39Z</time>
      </trkpt>
      <trkpt lat="43.185" lon="5.71447">
        <ele>31.3</ele>
        <time>2016-03-28T08:26:41Z</time>
      </trkpt>
      <trkpt lat="43.18497" lon="5.71452">
        <ele>31.2</ele>
        <time>2016-03-28T08:26:43Z</time>
      </trkpt>
      <trkpt lat="43.18493" lon="5.71456">
        <ele>31</ele>
        <time>2016-03-28T08:26:45Z</time>
      </trkpt>
      <trkpt lat="43.18489" lon="5.7146">
        <ele>30.8</ele>
        <time>2016-03-28T08:26:47Z</time>
      </trkpt>
      <trkpt lat="43.18487" lon="5.71462">
        <ele>30.7</ele>
        <time>2016-03-28T08:26:48Z</time>
      </trkpt>
      <trkpt lat="43.18484" lon="5.71464">
        <ele>30.6</ele>
        <time>2016-03-28T08:26:49Z</time>
      </trkpt>
      <trkpt lat="43.18481" lon="5.71466">
        <ele>30.4</ele>
        <time>2016-03-28T08:26:50Z</time>
      </trkpt>
      <trkpt lat="43.18478" lon="5.71466">
        <ele>30.2</ele>
        <time>2016-03-28T08:26:51Z</time>
      </trkpt>
      <trkpt lat="43.18474" lon="5.71466">
        <ele>30</ele>
        <time>2016-03-28T08:26:52Z</time>
      </trkpt>
      <trkpt lat="43.18471" lon="5.71464">
        <ele>29.8</ele>
        <time>2016-03-28T08:26:53Z</time>
      </trkpt>
      <trkpt lat="43.18468" lon="5.71461">
        <ele>29.6</ele>
        <time>2016-03-28T08:26:54Z</time>
      </trkpt>
      <trkpt lat="43.18466" lon="5.71458">
        <ele>29.4</ele>
        <time>2016-03-28T08:26:55Z</time>
      </trkpt>
      <trkpt lat="43.18463" lon="5.71455">
        <ele>29.2</ele>
        <time>2016-03-28T08:26:56Z</time>
      </trkpt>
      <trkpt lat="43.18459" lon="5.71451">
        <ele>29</ele>
        <time>2016-03-28T08:26:57Z</time>
      </trkpt>
      <trkpt lat="43.18456" lon="5.71447">
        <ele>28.9</ele>
        <time>2016-03-28T08:26:58Z</time>
      </trkpt>
      <trkpt lat="43.18452" lon="5.7144">
        <ele>28.8</ele>
        <time>2016-03-28T08:26:59Z</time>
      </trkpt>
      <trkpt lat="43.18447" lon="5.71436">
        <ele>28.6</ele>
        <time>2016-03-28T08:27:00Z</time>
      </trkpt>
      <trkpt lat="43.18443" lon="5.71431">
        <ele>28.5</ele>
        <time>2016-03-28T08:27:01Z</time>
      </trkpt>
      <trkpt lat="43.18438" lon="5.71428">
        <ele>28.3</ele>
        <time>2016-03-28T08:27:02Z</time>
      </trkpt>
      <trkpt lat="43.18435" lon="5.71421">
        <ele>28.2</ele>
        <time>2016-03-28T08:27:03Z</time>
      </trkpt>
      <trkpt lat="43.1843" lon="5.71415">
        <ele>28</ele>
        <time>2016-03-28T08:27:04Z</time>
      </trkpt>
      <trkpt lat="43.18424" lon="5.71411">
        <ele>27.8</ele>
        <time>2016-03-28T08:27:05Z</time>
      </trkpt>
      <trkpt lat="43.18417" lon="5.71406">
        <ele>27.5</ele>
        <time>2016-03-28T08:27:06Z</time>
      </trkpt>
      <trkpt lat="43.18412" lon="5.714">
        <ele>27.3</ele>
        <time>2016-03-28T08:27:07Z</time>
      </trkpt>
      <trkpt lat="43.18407" lon="5.71394">
        <ele>27.1</ele>
        <time>2016-03-28T08:27:08Z</time>
      </trkpt>
      <trkpt lat="43.18401" lon="5.71389">
        <ele>26.9</ele>
        <time>2016-03-28T08:27:09Z</time>
      </trkpt>
      <trkpt lat="43.18396" lon="5.71383">
        <ele>26.7</ele>
        <time>2016-03-28T08:27:10Z</time>
      </trkpt>
      <trkpt lat="43.1839" lon="5.71378">
        <ele>26.5</ele>
        <time>2016-03-28T08:27:11Z</time>
      </trkpt>
      <trkpt lat="43.18384" lon="5.71373">
        <ele>26.3</ele>
        <time>2016-03-28T08:27:12Z</time>
      </trkpt>
      <trkpt lat="43.18378" lon="5.71368">
        <ele>26</ele>
        <time>2016-03-28T08:27:13Z</time>
      </trkpt>
      <trkpt lat="43.18373" lon="5.71361">
        <ele>25.8</ele>
        <time>2016-03-28T08:27:14Z</time>
      </trkpt>
      <trkpt lat="43.18367" lon="5.71355">
        <ele>25.6</ele>
        <time>2016-03-28T08:27:15Z</time>
      </trkpt>
      <trkpt lat="43.18361" lon="5.71349">
        <ele>25.5</ele>
        <time>2016-03-28T08:27:16Z</time>
      </trkpt>
      <trkpt lat="43.18354" lon="5.71343">
        <ele>25.3</ele>
        <time>2016-03-28T08:27:17Z</time>
      </trkpt>
      <trkpt lat="43.18348" lon="5.71337">
        <ele>25.1</ele>
        <time>2016-03-28T08:27:18Z</time>
      </trkpt>
      <trkpt lat="43.18341" lon="5.71331">
        <ele>24.9</ele>
        <time>2016-03-28T08:27:19Z</time>
      </trkpt>
      <trkpt lat="43.18333" lon="5.71325">
        <ele>24.6</ele>
        <time>2016-03-28T08:27:20Z</time>
      </trkpt>
      <trkpt lat="43.18327" lon="5.7132">
        <ele>24.4</ele>
        <time>2016-03-28T08:27:21Z</time>
      </trkpt>
      <trkpt lat="43.1832" lon="5.71315">
        <ele>24.2</ele>
        <time>2016-03-28T08:27:22Z</time>
      </trkpt>
      <trkpt lat="43.18314" lon="5.71309">
        <ele>23.9</ele>
        <time>2016-03-28T08:27:23Z</time>
      </trkpt>
      <trkpt lat="43.18308" lon="5.71302">
        <ele>23.6</ele>
        <time>2016-03-28T08:27:24Z</time>
      </trkpt>
      <trkpt lat="43.18302" lon="5.71296">
        <ele>23.3</ele>
        <time>2016-03-28T08:27:25Z</time>
      </trkpt>
      <trkpt lat="43.18296" lon="5.71289">
        <ele>23.1</ele>
        <time>2016-03-28T08:27:26Z</time>
      </trkpt>
      <trkpt lat="43.18291" lon="5.71283">
        <ele>23</ele>
        <time>2016-03-28T08:27:27Z</time>
      </trkpt>
      <trkpt lat="43.18286" lon="5.71277">
        <ele>23</ele>
        <time>2016-03-28T08:27:28Z</time>
      </trkpt>
      <trkpt lat="43.18285" lon="5.71273">
        <ele>23</ele>
        <time>2016-03-28T08:27:29Z</time>
      </trkpt>
      <trkpt lat="43.18282" lon="5.71269">
        <ele>23</ele>
        <time>2016-03-28T08:27:30Z</time>
      </trkpt>
      <trkpt lat="43.18281" lon="5.71264">
        <ele>23</ele>
        <time>2016-03-28T08:27:32Z</time>
      </trkpt>
      <trkpt lat="43.18278" lon="5.71263">
        <ele>23.1</ele>
        <time>2016-03-28T08:27:33Z</time>
      </trkpt>
      <trkpt lat="43.18275" lon="5.71259">
        <ele>23.1</ele>
        <time>2016-03-28T08:27:34Z</time>
      </trkpt>
      <trkpt lat="43.18273" lon="5.71255">
        <ele>23.1</ele>
        <time>2016-03-28T08:27:35Z</time>
      </trkpt>
      <trkpt lat="43.18271" lon="5.71252">
        <ele>23.1</ele>
        <time>2016-03-28T08:27:36Z</time>
      </trkpt>
      <trkpt lat="43.18268" lon="5.71249">
        <ele>23.1</ele>
        <time>2016-03-28T08:27:37Z</time>
      </trkpt>
      <trkpt lat="43.18264" lon="5.71244">
        <ele>23.2</ele>
        <time>2016-03-28T08:27:38Z</time>
      </trkpt>
      <trkpt lat="43.18261" lon="5.71241">
        <ele>23.2</ele>
        <time>2016-03-28T08:27:39Z</time>
      </trkpt>
      <trkpt lat="43.18259" lon="5.71237">
        <ele>23.3</ele>
        <time>2016-03-28T08:27:40Z</time>
      </trkpt>
      <trkpt lat="43.18256" lon="5.71233">
        <ele>23.3</ele>
        <time>2016-03-28T08:27:41Z</time>
      </trkpt>
      <trkpt lat="43.18253" lon="5.7123">
        <ele>23.3</ele>
        <time>2016-03-28T08:27:49Z</time>
      </trkpt>
      <trkpt lat="43.18251" lon="5.71227">
        <ele>23.4</ele>
        <time>2016-03-28T08:27:50Z</time>
      </trkpt>
      <trkpt lat="43.18249" lon="5.71223">
        <ele>23.4</ele>
        <time>2016-03-28T08:27:51Z</time>
      </trkpt>
      <trkpt lat="43.18248" lon="5.71218">
        <ele>23.5</ele>
        <time>2016-03-28T08:27:52Z</time>
      </trkpt>
      <trkpt lat="43.18244" lon="5.71211">
        <ele>23.6</ele>
        <time>2016-03-28T08:27:53Z</time>
      </trkpt>
      <trkpt lat="43.18241" lon="5.71207">
        <ele>23.6</ele>
        <time>2016-03-28T08:27:54Z</time>
      </trkpt>
      <trkpt lat="43.18238" lon="5.71202">
        <ele>23.7</ele>
        <time>2016-03-28T08:27:55Z</time>
      </trkpt>
      <trkpt lat="43.18236" lon="5.71196">
        <ele>23.8</ele>
        <time>2016-03-28T08:27:56Z</time>
      </trkpt>
      <trkpt lat="43.18233" lon="5.7119">
        <ele>23.9</ele>
        <time>2016-03-28T08:27:57Z</time>
      </trkpt>
      <trkpt lat="43.18233" lon="5.71182">
        <ele>24</ele>
        <time>2016-03-28T08:27:58Z</time>
      </trkpt>
      <trkpt lat="43.18228" lon="5.71175">
        <ele>24.2</ele>
        <time>2016-03-28T08:27:59Z</time>
      </trkpt>
      <trkpt lat="43.18225" lon="5.71168">
        <ele>24.3</ele>
        <time>2016-03-28T08:28:00Z</time>
      </trkpt>
      <trkpt lat="43.18227" lon="5.71157">
        <ele>24.4</ele>
        <time>2016-03-28T08:28:01Z</time>
      </trkpt>
      <trkpt lat="43.18226" lon="5.71148">
        <ele>24.5</ele>
        <time>2016-03-28T08:28:02Z</time>
      </trkpt>
      <trkpt lat="43.18224" lon="5.7114">
        <ele>24.6</ele>
        <time>2016-03-28T08:28:03Z</time>
      </trkpt>
      <trkpt lat="43.1822" lon="5.71139">
        <ele>24.7</ele>
        <time>2016-03-28T08:28:04Z</time>
      </trkpt>
      <trkpt lat="43.18216" lon="5.71134">
        <ele>24.8</ele>
        <time>2016-03-28T08:28:05Z</time>
      </trkpt>
      <trkpt lat="43.18213" lon="5.71128">
        <ele>24.9</ele>
        <time>2016-03-28T08:28:06Z</time>
      </trkpt>
      <trkpt lat="43.18212" lon="5.71117">
        <ele>24.9</ele>
        <time>2016-03-28T08:28:07Z</time>
      </trkpt>
      <trkpt lat="43.18208" lon="5.71107">
        <ele>25</ele>
        <time>2016-03-28T08:28:08Z</time>
      </trkpt>
      <trkpt lat="43.18203" lon="5.71107">
        <ele>24.9</ele>
        <time>2016-03-28T08:28:09Z</time>
      </trkpt>
      <trkpt lat="43.182" lon="5.71103">
        <ele>24.9</ele>
        <time>2016-03-28T08:28:11Z</time>
      </trkpt>
      <trkpt lat="43.18201" lon="5.7109">
        <ele>24.9</ele>
        <time>2016-03-28T08:28:13Z</time>
      </trkpt>
      <trkpt lat="43.18198" lon="5.71083">
        <ele>24.9</ele>
        <time>2016-03-28T08:28:14Z</time>
      </trkpt>
      <trkpt lat="43.18196" lon="5.71077">
        <ele>24.8</ele>
        <time>2016-03-28T08:28:15Z</time>
      </trkpt>
      <trkpt lat="43.18193" lon="5.7107">
        <ele>24.8</ele>
        <time>2016-03-28T08:28:16Z</time>
      </trkpt>
      <trkpt lat="43.18191" lon="5.71065">
        <ele>24.8</ele>
        <time>2016-03-28T08:28:17Z</time>
      </trkpt>
      <trkpt lat="43.1819" lon="5.71056">
        <ele>24.8</ele>
        <time>2016-03-28T08:28:18Z</time>
      </trkpt>
      <trkpt lat="43.18189" lon="5.71047">
        <ele>24.8</ele>
        <time>2016-03-28T08:28:19Z</time>
      </trkpt>
      <trkpt lat="43.18187" lon="5.7104">
        <ele>24.7</ele>
        <time>2016-03-28T08:28:20Z</time>
      </trkpt>
      <trkpt lat="43.18186" lon="5.71031">
        <ele>24.6</ele>
        <time>2016-03-28T08:28:21Z</time>
      </trkpt>
      <trkpt lat="43.18183" lon="5.71025">
        <ele>24.4</ele>
        <time>2016-03-28T08:28:22Z</time>
      </trkpt>
      <trkpt lat="43.1818" lon="5.71018">
        <ele>24.3</ele>
        <time>2016-03-28T08:28:23Z</time>
      </trkpt>
      <trkpt lat="43.18178" lon="5.71009">
        <ele>24.1</ele>
        <time>2016-03-28T08:28:24Z</time>
      </trkpt>
      <trkpt lat="43.18176" lon="5.71001">
        <ele>23.9</ele>
        <time>2016-03-28T08:28:25Z</time>
      </trkpt>
      <trkpt lat="43.18174" lon="5.70993">
        <ele>23.8</ele>
        <time>2016-03-28T08:28:26Z</time>
      </trkpt>
      <trkpt lat="43.18171" lon="5.70985">
        <ele>23.6</ele>
        <time>2016-03-28T08:28:27Z</time>
      </trkpt>
      <trkpt lat="43.18167" lon="5.7098">
        <ele>23.4</ele>
        <time>2016-03-28T08:28:28Z</time>
      </trkpt>
      <trkpt lat="43.18163" lon="5.70972">
        <ele>23.2</ele>
        <time>2016-03-28T08:28:29Z</time>
      </trkpt>
      <trkpt lat="43.18169" lon="5.70953">
        <ele>22.8</ele>
        <time>2016-03-28T08:28:30Z</time>
      </trkpt>
      <trkpt lat="43.18166" lon="5.70945">
        <ele>22.4</ele>
        <time>2016-03-28T08:28:31Z</time>
      </trkpt>
      <trkpt lat="43.18164" lon="5.70938">
        <ele>22.1</ele>
        <time>2016-03-28T08:28:32Z</time>
      </trkpt>
      <trkpt lat="43.18164" lon="5.70926">
        <ele>21.6</ele>
        <time>2016-03-28T08:28:33Z</time>
      </trkpt>
      <trkpt lat="43.18162" lon="5.70918">
        <ele>21.2</ele>
        <time>2016-03-28T08:28:34Z</time>
      </trkpt>
      <trkpt lat="43.18158" lon="5.70911">
        <ele>20.8</ele>
        <time>2016-03-28T08:28:35Z</time>
      </trkpt>
      <trkpt lat="43.18157" lon="5.70903">
        <ele>20.3</ele>
        <time>2016-03-28T08:28:36Z</time>
      </trkpt>
      <trkpt lat="43.18157" lon="5.70891">
        <ele>19.9</ele>
        <time>2016-03-28T08:28:37Z</time>
      </trkpt>
      <trkpt lat="43.18157" lon="5.70882">
        <ele>19.5</ele>
        <time>2016-03-28T08:28:38Z</time>
      </trkpt>
      <trkpt lat="43.18159" lon="5.70871">
        <ele>19.1</ele>
        <time>2016-03-28T08:28:39Z</time>
      </trkpt>
      <trkpt lat="43.18159" lon="5.70858">
        <ele>18.7</ele>
        <time>2016-03-28T08:28:40Z</time>
      </trkpt>
      <trkpt lat="43.18159" lon="5.70846">
        <ele>18.4</ele>
        <time>2016-03-28T08:28:41Z</time>
      </trkpt>
      <trkpt lat="43.1816" lon="5.70834">
        <ele>18.1</ele>
        <time>2016-03-28T08:28:42Z</time>
      </trkpt>
      <trkpt lat="43.18165" lon="5.70819">
        <ele>17.8</ele>
        <time>2016-03-28T08:28:43Z</time>
      </trkpt>
      <trkpt lat="43.18165" lon="5.70809">
        <ele>17.5</ele>
        <time>2016-03-28T08:28:44Z</time>
      </trkpt>
      <trkpt lat="43.18165" lon="5.70797">
        <ele>17.1</ele>
        <time>2016-03-28T08:28:45Z</time>
      </trkpt>
      <trkpt lat="43.18167" lon="5.70785">
        <ele>16.9</ele>
        <time>2016-03-28T08:28:46Z</time>
      </trkpt>
      <trkpt lat="43.18167" lon="5.70773">
        <ele>16.7</ele>
        <time>2016-03-28T08:28:47Z</time>
      </trkpt>
      <trkpt lat="43.18168" lon="5.70762">
        <ele>16.5</ele>
        <time>2016-03-28T08:28:48Z</time>
      </trkpt>
      <trkpt lat="43.18169" lon="5.70751">
        <ele>16.3</ele>
        <time>2016-03-28T08:28:49Z</time>
      </trkpt>
      <trkpt lat="43.1817" lon="5.7074">
        <ele>16.1</ele>
        <time>2016-03-28T08:28:50Z</time>
      </trkpt>
      <trkpt lat="43.1817" lon="5.70729">
        <ele>15.9</ele>
        <time>2016-03-28T08:28:51Z</time>
      </trkpt>
      <trkpt lat="43.1817" lon="5.70718">
        <ele>15.7</ele>
        <time>2016-03-28T08:28:52Z</time>
      </trkpt>
      <trkpt lat="43.1817" lon="5.70705">
        <ele>15.5</ele>
        <time>2016-03-28T08:28:53Z</time>
      </trkpt>
      <trkpt lat="43.18171" lon="5.70693">
        <ele>15.3</ele>
        <time>2016-03-28T08:28:54Z</time>
      </trkpt>
      <trkpt lat="43.18171" lon="5.70681">
        <ele>15.1</ele>
        <time>2016-03-28T08:28:55Z</time>
      </trkpt>
      <trkpt lat="43.1817" lon="5.70671">
        <ele>14.9</ele>
        <time>2016-03-28T08:28:56Z</time>
      </trkpt>
      <trkpt lat="43.18169" lon="5.70658">
        <ele>14.6</ele>
        <time>2016-03-28T08:28:57Z</time>
      </trkpt>
      <trkpt lat="43.1817" lon="5.70647">
        <ele>14.4</ele>
        <time>2016-03-28T08:28:58Z</time>
      </trkpt>
      <trkpt lat="43.18171" lon="5.70634">
        <ele>14.2</ele>
        <time>2016-03-28T08:28:59Z</time>
      </trkpt>
      <trkpt lat="43.18172" lon="5.70621">
        <ele>14.1</ele>
        <time>2016-03-28T08:29:00Z</time>
      </trkpt>
      <trkpt lat="43.18173" lon="5.70611">
        <ele>14.3</ele>
        <time>2016-03-28T08:29:01Z</time>
      </trkpt>
      <trkpt lat="43.18176" lon="5.70598">
        <ele>14.6</ele>
        <time>2016-03-28T08:29:02Z</time>
      </trkpt>
      <trkpt lat="43.18177" lon="5.70586">
        <ele>14.9</ele>
        <time>2016-03-28T08:29:03Z</time>
      </trkpt>
      <trkpt lat="43.18178" lon="5.70575">
        <ele>15.2</ele>
        <time>2016-03-28T08:29:04Z</time>
      </trkpt>
      <trkpt lat="43.18181" lon="5.70563">
        <ele>15.5</ele>
        <time>2016-03-28T08:29:05Z</time>
      </trkpt>
      <trkpt lat="43.18182" lon="5.70551">
        <ele>15.8</ele>
        <time>2016-03-28T08:29:06Z</time>
      </trkpt>
      <trkpt lat="43.18181" lon="5.70541">
        <ele>16</ele>
        <time>2016-03-28T08:29:07Z</time>
      </trkpt>
      <trkpt lat="43.18181" lon="5.7053">
        <ele>16</ele>
        <time>2016-03-28T08:29:08Z</time>
      </trkpt>
      <trkpt lat="43.1818" lon="5.70519">
        <ele>15.9</ele>
        <time>2016-03-28T08:29:09Z</time>
      </trkpt>
      <trkpt lat="43.1818" lon="5.70508">
        <ele>15.9</ele>
        <time>2016-03-28T08:29:10Z</time>
      </trkpt>
      <trkpt lat="43.18179" lon="5.70498">
        <ele>15.8</ele>
        <time>2016-03-28T08:29:11Z</time>
      </trkpt>
      <trkpt lat="43.18177" lon="5.70488">
        <ele>15.8</ele>
        <time>2016-03-28T08:29:12Z</time>
      </trkpt>
      <trkpt lat="43.18175" lon="5.70476">
        <ele>15.7</ele>
        <time>2016-03-28T08:29:13Z</time>
      </trkpt>
      <trkpt lat="43.18173" lon="5.70465">
        <ele>15.6</ele>
        <time>2016-03-28T08:29:14Z</time>
      </trkpt>
      <trkpt lat="43.18171" lon="5.70453">
        <ele>15.6</ele>
        <time>2016-03-28T08:29:15Z</time>
      </trkpt>
      <trkpt lat="43.18169" lon="5.70442">
        <ele>15.5</ele>
        <time>2016-03-28T08:29:16Z</time>
      </trkpt>
      <trkpt lat="43.18168" lon="5.70431">
        <ele>15.5</ele>
        <time>2016-03-28T08:29:17Z</time>
      </trkpt>
      <trkpt lat="43.18165" lon="5.70421">
        <ele>15.5</ele>
        <time>2016-03-28T08:29:18Z</time>
      </trkpt>
      <trkpt lat="43.18164" lon="5.7041">
        <ele>15.5</ele>
        <time>2016-03-28T08:29:19Z</time>
      </trkpt>
      <trkpt lat="43.18159" lon="5.70402">
        <ele>15.4</ele>
        <time>2016-03-28T08:29:20Z</time>
      </trkpt>
      <trkpt lat="43.18158" lon="5.70388">
        <ele>15.4</ele>
        <time>2016-03-28T08:29:21Z</time>
      </trkpt>
      <trkpt lat="43.18156" lon="5.70377">
        <ele>15.4</ele>
        <time>2016-03-28T08:29:22Z</time>
      </trkpt>
      <trkpt lat="43.18154" lon="5.70367">
        <ele>15.1</ele>
        <time>2016-03-28T08:29:23Z</time>
      </trkpt>
      <trkpt lat="43.18153" lon="5.70356">
        <ele>14.9</ele>
        <time>2016-03-28T08:29:24Z</time>
      </trkpt>
      <trkpt lat="43.1815" lon="5.70344">
        <ele>14.6</ele>
        <time>2016-03-28T08:29:25Z</time>
      </trkpt>
      <trkpt lat="43.18149" lon="5.70334">
        <ele>14.3</ele>
        <time>2016-03-28T08:29:26Z</time>
      </trkpt>
      <trkpt lat="43.18143" lon="5.70326">
        <ele>14.1</ele>
        <time>2016-03-28T08:29:27Z</time>
      </trkpt>
      <trkpt lat="43.18143" lon="5.70314">
        <ele>13.7</ele>
        <time>2016-03-28T08:29:28Z</time>
      </trkpt>
      <trkpt lat="43.18141" lon="5.70302">
        <ele>13.4</ele>
        <time>2016-03-28T08:29:29Z</time>
      </trkpt>
      <trkpt lat="43.1814" lon="5.70291">
        <ele>13.2</ele>
        <time>2016-03-28T08:29:30Z</time>
      </trkpt>
      <trkpt lat="43.1814" lon="5.70279">
        <ele>13</ele>
        <time>2016-03-28T08:29:31Z</time>
      </trkpt>
      <trkpt lat="43.18139" lon="5.70267">
        <ele>12.9</ele>
        <time>2016-03-28T08:29:32Z</time>
      </trkpt>
      <trkpt lat="43.18139" lon="5.70256">
        <ele>12.7</ele>
        <time>2016-03-28T08:29:33Z</time>
      </trkpt>
      <trkpt lat="43.1814" lon="5.70245">
        <ele>12.6</ele>
        <time>2016-03-28T08:29:34Z</time>
      </trkpt>
      <trkpt lat="43.18142" lon="5.70234">
        <ele>12.5</ele>
        <time>2016-03-28T08:29:35Z</time>
      </trkpt>
      <trkpt lat="43.18142" lon="5.70224">
        <ele>12.4</ele>
        <time>2016-03-28T08:29:36Z</time>
      </trkpt>
      <trkpt lat="43.18144" lon="5.70213">
        <ele>12.3</ele>
        <time>2016-03-28T08:29:37Z</time>
      </trkpt>
      <trkpt lat="43.18151" lon="5.70196">
        <ele>12.3</ele>
        <time>2016-03-28T08:29:38Z</time>
      </trkpt>
      <trkpt lat="43.18153" lon="5.70185">
        <ele>12.3</ele>
        <time>2016-03-28T08:29:39Z</time>
      </trkpt>
      <trkpt lat="43.18156" lon="5.70172">
        <ele>12.4</ele>
        <time>2016-03-28T08:29:40Z</time>
      </trkpt>
      <trkpt lat="43.18161" lon="5.70159">
        <ele>12.4</ele>
        <time>2016-03-28T08:29:41Z</time>
      </trkpt>
      <trkpt lat="43.18162" lon="5.70148">
        <ele>12.4</ele>
        <time>2016-03-28T08:29:42Z</time>
      </trkpt>
      <trkpt lat="43.18165" lon="5.70137">
        <ele>12.5</ele>
        <time>2016-03-28T08:29:43Z</time>
      </trkpt>
      <trkpt lat="43.18164" lon="5.70126">
        <ele>12.5</ele>
        <time>2016-03-28T08:29:44Z</time>
      </trkpt>
      <trkpt lat="43.18165" lon="5.70115">
        <ele>12.4</ele>
        <time>2016-03-28T08:29:45Z</time>
      </trkpt>
      <trkpt lat="43.18167" lon="5.70102">
        <ele>12.2</ele>
        <time>2016-03-28T08:29:46Z</time>
      </trkpt>
      <trkpt lat="43.18168" lon="5.70091">
        <ele>12.1</ele>
        <time>2016-03-28T08:29:47Z</time>
      </trkpt>
      <trkpt lat="43.18169" lon="5.70079">
        <ele>12</ele>
        <time>2016-03-28T08:29:48Z</time>
      </trkpt>
      <trkpt lat="43.18171" lon="5.70068">
        <ele>11.9</ele>
        <time>2016-03-28T08:29:49Z</time>
      </trkpt>
      <trkpt lat="43.18173" lon="5.70057">
        <ele>11.9</ele>
        <time>2016-03-28T08:29:50Z</time>
      </trkpt>
      <trkpt lat="43.18174" lon="5.70046">
        <ele>11.8</ele>
        <time>2016-03-28T08:29:51Z</time>
      </trkpt>
      <trkpt lat="43.18175" lon="5.70034">
        <ele>11.6</ele>
        <time>2016-03-28T08:29:52Z</time>
      </trkpt>
      <trkpt lat="43.18175" lon="5.70022">
        <ele>11.4</ele>
        <time>2016-03-28T08:29:53Z</time>
      </trkpt>
      <trkpt lat="43.18175" lon="5.7001">
        <ele>11.2</ele>
        <time>2016-03-28T08:29:54Z</time>
      </trkpt>
      <trkpt lat="43.18174" lon="5.69999">
        <ele>10.9</ele>
        <time>2016-03-28T08:29:55Z</time>
      </trkpt>
      <trkpt lat="43.18174" lon="5.69987">
        <ele>10.7</ele>
        <time>2016-03-28T08:29:56Z</time>
      </trkpt>
      <trkpt lat="43.18174" lon="5.69976">
        <ele>10.5</ele>
        <time>2016-03-28T08:29:57Z</time>
      </trkpt>
      <trkpt lat="43.18173" lon="5.69965">
        <ele>10.3</ele>
        <time>2016-03-28T08:29:58Z</time>
      </trkpt>
      <trkpt lat="43.18172" lon="5.69954">
        <ele>10.1</ele>
        <time>2016-03-28T08:29:59Z</time>
      </trkpt>
      <trkpt lat="43.18171" lon="5.69942">
        <ele>10.2</ele>
        <time>2016-03-28T08:30:00Z</time>
      </trkpt>
      <trkpt lat="43.18167" lon="5.69932">
        <ele>10.2</ele>
        <time>2016-03-28T08:30:01Z</time>
      </trkpt>
      <trkpt lat="43.18165" lon="5.69921">
        <ele>10.2</ele>
        <time>2016-03-28T08:30:02Z</time>
      </trkpt>
      <trkpt lat="43.18163" lon="5.6991">
        <ele>10.2</ele>
        <time>2016-03-28T08:30:03Z</time>
      </trkpt>
      <trkpt lat="43.18161" lon="5.69899">
        <ele>10.2</ele>
        <time>2016-03-28T08:30:04Z</time>
      </trkpt>
      <trkpt lat="43.18159" lon="5.69889">
        <ele>10.1</ele>
        <time>2016-03-28T08:30:05Z</time>
      </trkpt>
      <trkpt lat="43.18155" lon="5.69878">
        <ele>10.1</ele>
        <time>2016-03-28T08:30:06Z</time>
      </trkpt>
      <trkpt lat="43.18153" lon="5.69867">
        <ele>9.9</ele>
        <time>2016-03-28T08:30:07Z</time>
      </trkpt>
      <trkpt lat="43.18151" lon="5.69857">
        <ele>9.8</ele>
        <time>2016-03-28T08:30:08Z</time>
      </trkpt>
      <trkpt lat="43.18148" lon="5.69847">
        <ele>9.6</ele>
        <time>2016-03-28T08:30:09Z</time>
      </trkpt>
      <trkpt lat="43.18146" lon="5.69836">
        <ele>9.4</ele>
        <time>2016-03-28T08:30:10Z</time>
      </trkpt>
      <trkpt lat="43.18144" lon="5.69826">
        <ele>9.2</ele>
        <time>2016-03-28T08:30:11Z</time>
      </trkpt>
      <trkpt lat="43.18142" lon="5.69815">
        <ele>9</ele>
        <time>2016-03-28T08:30:12Z</time>
      </trkpt>
      <trkpt lat="43.18138" lon="5.69805">
        <ele>8.8</ele>
        <time>2016-03-28T08:30:13Z</time>
      </trkpt>
      <trkpt lat="43.18135" lon="5.69796">
        <ele>8.5</ele>
        <time>2016-03-28T08:30:14Z</time>
      </trkpt>
      <trkpt lat="43.18132" lon="5.69786">
        <ele>8.5</ele>
        <time>2016-03-28T08:30:15Z</time>
      </trkpt>
      <trkpt lat="43.1813" lon="5.69773">
        <ele>8.9</ele>
        <time>2016-03-28T08:30:16Z</time>
      </trkpt>
      <trkpt lat="43.18125" lon="5.69764">
        <ele>9</ele>
        <time>2016-03-28T08:30:17Z</time>
      </trkpt>
      <trkpt lat="43.1812" lon="5.69757">
        <ele>9.2</ele>
        <time>2016-03-28T08:30:18Z</time>
      </trkpt>
      <trkpt lat="43.18113" lon="5.69751">
        <ele>9.4</ele>
        <time>2016-03-28T08:30:19Z</time>
      </trkpt>
      <trkpt lat="43.18107" lon="5.69745">
        <ele>9.5</ele>
        <time>2016-03-28T08:30:20Z</time>
      </trkpt>
      <trkpt lat="43.18102" lon="5.69737">
        <ele>9.7</ele>
        <time>2016-03-28T08:30:21Z</time>
      </trkpt>
      <trkpt lat="43.18098" lon="5.69729">
        <ele>9.9</ele>
        <time>2016-03-28T08:30:22Z</time>
      </trkpt>
      <trkpt lat="43.18098" lon="5.69719">
        <ele>10.1</ele>
        <time>2016-03-28T08:30:23Z</time>
      </trkpt>
      <trkpt lat="43.18101" lon="5.69711">
        <ele>10.3</ele>
        <time>2016-03-28T08:30:24Z</time>
      </trkpt>
      <trkpt lat="43.18104" lon="5.69707">
        <ele>10.5</ele>
        <time>2016-03-28T08:30:25Z</time>
      </trkpt>
      <trkpt lat="43.18109" lon="5.69705">
        <ele>10.7</ele>
        <time>2016-03-28T08:30:26Z</time>
      </trkpt>
      <trkpt lat="43.18113" lon="5.697">
        <ele>10.9</ele>
        <time>2016-03-28T08:30:27Z</time>
      </trkpt>
      <trkpt lat="43.18119" lon="5.69695">
        <ele>11</ele>
        <time>2016-03-28T08:30:28Z</time>
      </trkpt>
      <trkpt lat="43.18123" lon="5.69688">
        <ele>11.2</ele>
        <time>2016-03-28T08:30:29Z</time>
      </trkpt>
      <trkpt lat="43.18127" lon="5.6968">
        <ele>11.4</ele>
        <time>2016-03-28T08:30:30Z</time>
      </trkpt>
      <trkpt lat="43.18128" lon="5.69672">
        <ele>11.5</ele>
        <time>2016-03-28T08:30:31Z</time>
      </trkpt>
      <trkpt lat="43.18127" lon="5.69663">
        <ele>11.6</ele>
        <time>2016-03-28T08:30:32Z</time>
      </trkpt>
      <trkpt lat="43.18127" lon="5.69653">
        <ele>11.7</ele>
        <time>2016-03-28T08:30:33Z</time>
      </trkpt>
      <trkpt lat="43.18128" lon="5.69646">
        <ele>11.8</ele>
        <time>2016-03-28T08:30:34Z</time>
      </trkpt>
      <trkpt lat="43.18134" lon="5.69635">
        <ele>12.1</ele>
        <time>2016-03-28T08:30:35Z</time>
      </trkpt>
      <trkpt lat="43.18138" lon="5.69629">
        <ele>12.3</ele>
        <time>2016-03-28T08:30:36Z</time>
      </trkpt>
      <trkpt lat="43.18143" lon="5.69624">
        <ele>12.5</ele>
        <time>2016-03-28T08:30:37Z</time>
      </trkpt>
      <trkpt lat="43.18148" lon="5.69618">
        <ele>12.7</ele>
        <time>2016-03-28T08:30:38Z</time>
      </trkpt>
      <trkpt lat="43.18155" lon="5.69611">
        <ele>13.1</ele>
        <time>2016-03-28T08:30:39Z</time>
      </trkpt>
      <trkpt lat="43.1816" lon="5.69607">
        <ele>13.3</ele>
        <time>2016-03-28T08:30:40Z</time>
      </trkpt>
      <trkpt lat="43.18166" lon="5.69601">
        <ele>13.6</ele>
        <time>2016-03-28T08:30:41Z</time>
      </trkpt>
      <trkpt lat="43.18171" lon="5.69594">
        <ele>13.8</ele>
        <time>2016-03-28T08:30:42Z</time>
      </trkpt>
      <trkpt lat="43.18176" lon="5.69589">
        <ele>14.1</ele>
        <time>2016-03-28T08:30:43Z</time>
      </trkpt>
      <trkpt lat="43.1818" lon="5.69584">
        <ele>14.3</ele>
        <time>2016-03-28T08:30:44Z</time>
      </trkpt>
      <trkpt lat="43.18184" lon="5.69581">
        <ele>14.5</ele>
        <time>2016-03-28T08:30:45Z</time>
      </trkpt>
      <trkpt lat="43.18189" lon="5.69577">
        <ele>14.7</ele>
        <time>2016-03-28T08:30:46Z</time>
      </trkpt>
      <trkpt lat="43.18193" lon="5.69572">
        <ele>14.9</ele>
        <time>2016-03-28T08:30:47Z</time>
      </trkpt>
      <trkpt lat="43.18196" lon="5.69569">
        <ele>15</ele>
        <time>2016-03-28T08:30:48Z</time>
      </trkpt>
      <trkpt lat="43.18201" lon="5.69564">
        <ele>15.3</ele>
        <time>2016-03-28T08:30:49Z</time>
      </trkpt>
      <trkpt lat="43.18205" lon="5.69558">
        <ele>15.5</ele>
        <time>2016-03-28T08:30:50Z</time>
      </trkpt>
      <trkpt lat="43.18209" lon="5.69553">
        <ele>15.7</ele>
        <time>2016-03-28T08:30:51Z</time>
      </trkpt>
      <trkpt lat="43.18215" lon="5.69547">
        <ele>16</ele>
        <time>2016-03-28T08:30:52Z</time>
      </trkpt>
      <trkpt lat="43.18219" lon="5.69542">
        <ele>16.1</ele>
        <time>2016-03-28T08:30:53Z</time>
      </trkpt>
      <trkpt lat="43.18223" lon="5.69536">
        <ele>16.1</ele>
        <time>2016-03-28T08:30:54Z</time>
      </trkpt>
      <trkpt lat="43.18226" lon="5.6953">
        <ele>16.1</ele>
        <time>2016-03-28T08:30:55Z</time>
      </trkpt>
      <trkpt lat="43.18229" lon="5.69524">
        <ele>16.1</ele>
        <time>2016-03-28T08:30:56Z</time>
      </trkpt>
      <trkpt lat="43.18232" lon="5.69521">
        <ele>16.1</ele>
        <time>2016-03-28T08:30:57Z</time>
      </trkpt>
      <trkpt lat="43.18234" lon="5.69513">
        <ele>16.1</ele>
        <time>2016-03-28T08:30:58Z</time>
      </trkpt>
      <trkpt lat="43.18238" lon="5.69507">
        <ele>16.1</ele>
        <time>2016-03-28T08:30:59Z</time>
      </trkpt>
      <trkpt lat="43.18241" lon="5.69501">
        <ele>16.1</ele>
        <time>2016-03-28T08:31:00Z</time>
      </trkpt>
      <trkpt lat="43.18245" lon="5.69494">
        <ele>16.1</ele>
        <time>2016-03-28T08:31:01Z</time>
      </trkpt>
      <trkpt lat="43.18249" lon="5.69491">
        <ele>16.2</ele>
        <time>2016-03-28T08:31:02Z</time>
      </trkpt>
      <trkpt lat="43.18252" lon="5.69485">
        <ele>16.2</ele>
        <time>2016-03-28T08:31:03Z</time>
      </trkpt>
      <trkpt lat="43.18255" lon="5.69479">
        <ele>16.2</ele>
        <time>2016-03-28T08:31:04Z</time>
      </trkpt>
      <trkpt lat="43.1826" lon="5.69468">
        <ele>16.3</ele>
        <time>2016-03-28T08:31:05Z</time>
      </trkpt>
      <trkpt lat="43.18263" lon="5.69462">
        <ele>16.3</ele>
        <time>2016-03-28T08:31:06Z</time>
      </trkpt>
      <trkpt lat="43.18266" lon="5.69455">
        <ele>16.4</ele>
        <time>2016-03-28T08:31:07Z</time>
      </trkpt>
      <trkpt lat="43.18267" lon="5.6945">
        <ele>16.3</ele>
        <time>2016-03-28T08:31:08Z</time>
      </trkpt>
      <trkpt lat="43.1827" lon="5.69443">
        <ele>16.3</ele>
        <time>2016-03-28T08:31:09Z</time>
      </trkpt>
      <trkpt lat="43.18273" lon="5.69435">
        <ele>16.3</ele>
        <time>2016-03-28T08:31:10Z</time>
      </trkpt>
      <trkpt lat="43.18275" lon="5.69428">
        <ele>16.2</ele>
        <time>2016-03-28T08:31:11Z</time>
      </trkpt>
      <trkpt lat="43.18278" lon="5.69422">
        <ele>16.2</ele>
        <time>2016-03-28T08:31:12Z</time>
      </trkpt>
      <trkpt lat="43.1828" lon="5.69415">
        <ele>16.2</ele>
        <time>2016-03-28T08:31:13Z</time>
      </trkpt>
      <trkpt lat="43.18283" lon="5.69408">
        <ele>16.2</ele>
        <time>2016-03-28T08:31:14Z</time>
      </trkpt>
      <trkpt lat="43.18285" lon="5.69401">
        <ele>16.1</ele>
        <time>2016-03-28T08:31:15Z</time>
      </trkpt>
      <trkpt lat="43.18288" lon="5.69393">
        <ele>16.1</ele>
        <time>2016-03-28T08:31:16Z</time>
      </trkpt>
      <trkpt lat="43.18291" lon="5.69386">
        <ele>16.1</ele>
        <time>2016-03-28T08:31:17Z</time>
      </trkpt>
      <trkpt lat="43.18297" lon="5.69377">
        <ele>16.1</ele>
        <time>2016-03-28T08:31:18Z</time>
      </trkpt>
      <trkpt lat="43.18299" lon="5.6937">
        <ele>16.2</ele>
        <time>2016-03-28T08:31:19Z</time>
      </trkpt>
      <trkpt lat="43.18302" lon="5.69361">
        <ele>16.2</ele>
        <time>2016-03-28T08:31:20Z</time>
      </trkpt>
      <trkpt lat="43.18304" lon="5.69355">
        <ele>16.2</ele>
        <time>2016-03-28T08:31:21Z</time>
      </trkpt>
      <trkpt lat="43.18306" lon="5.69348">
        <ele>16.2</ele>
        <time>2016-03-28T08:31:22Z</time>
      </trkpt>
      <trkpt lat="43.18308" lon="5.6934">
        <ele>16.2</ele>
        <time>2016-03-28T08:31:23Z</time>
      </trkpt>
      <trkpt lat="43.1831" lon="5.69334">
        <ele>16.2</ele>
        <time>2016-03-28T08:31:24Z</time>
      </trkpt>
      <trkpt lat="43.18311" lon="5.69326">
        <ele>16.2</ele>
        <time>2016-03-28T08:31:25Z</time>
      </trkpt>
      <trkpt lat="43.18312" lon="5.69319">
        <ele>16.2</ele>
        <time>2016-03-28T08:31:26Z</time>
      </trkpt>
      <trkpt lat="43.18314" lon="5.69312">
        <ele>16.1</ele>
        <time>2016-03-28T08:31:27Z</time>
      </trkpt>
      <trkpt lat="43.18315" lon="5.69303">
        <ele>16.1</ele>
        <time>2016-03-28T08:31:28Z</time>
      </trkpt>
      <trkpt lat="43.18318" lon="5.69295">
        <ele>16</ele>
        <time>2016-03-28T08:31:29Z</time>
      </trkpt>
      <trkpt lat="43.18321" lon="5.69286">
        <ele>15.9</ele>
        <time>2016-03-28T08:31:30Z</time>
      </trkpt>
      <trkpt lat="43.18323" lon="5.69278">
        <ele>15.7</ele>
        <time>2016-03-28T08:31:31Z</time>
      </trkpt>
      <trkpt lat="43.18324" lon="5.69269">
        <ele>15.6</ele>
        <time>2016-03-28T08:31:32Z</time>
      </trkpt>
      <trkpt lat="43.18327" lon="5.6926">
        <ele>15.4</ele>
        <time>2016-03-28T08:31:33Z</time>
      </trkpt>
      <trkpt lat="43.18328" lon="5.69251">
        <ele>15.2</ele>
        <time>2016-03-28T08:31:34Z</time>
      </trkpt>
      <trkpt lat="43.18328" lon="5.69243">
        <ele>15.1</ele>
        <time>2016-03-28T08:31:35Z</time>
      </trkpt>
      <trkpt lat="43.18331" lon="5.6923">
        <ele>14.9</ele>
        <time>2016-03-28T08:31:36Z</time>
      </trkpt>
      <trkpt lat="43.18332" lon="5.6922">
        <ele>14.7</ele>
        <time>2016-03-28T08:31:37Z</time>
      </trkpt>
      <trkpt lat="43.18333" lon="5.69211">
        <ele>14.5</ele>
        <time>2016-03-28T08:31:38Z</time>
      </trkpt>
      <trkpt lat="43.18335" lon="5.69201">
        <ele>14.4</ele>
        <time>2016-03-28T08:31:39Z</time>
      </trkpt>
      <trkpt lat="43.18335" lon="5.69193">
        <ele>14.3</ele>
        <time>2016-03-28T08:31:40Z</time>
      </trkpt>
      <trkpt lat="43.18335" lon="5.69184">
        <ele>14.2</ele>
        <time>2016-03-28T08:31:41Z</time>
      </trkpt>
      <trkpt lat="43.18336" lon="5.69174">
        <ele>14.1</ele>
        <time>2016-03-28T08:31:42Z</time>
      </trkpt>
      <trkpt lat="43.18337" lon="5.69166">
        <ele>14</ele>
        <time>2016-03-28T08:31:43Z</time>
      </trkpt>
      <trkpt lat="43.18339" lon="5.69159">
        <ele>14</ele>
        <time>2016-03-28T08:31:44Z</time>
      </trkpt>
      <trkpt lat="43.18341" lon="5.69153">
        <ele>13.9</ele>
        <time>2016-03-28T08:31:45Z</time>
      </trkpt>
      <trkpt lat="43.18347" lon="5.6915">
        <ele>14</ele>
        <time>2016-03-28T08:31:46Z</time>
      </trkpt>
      <trkpt lat="43.18355" lon="5.69148">
        <ele>14</ele>
        <time>2016-03-28T08:31:47Z</time>
      </trkpt>
      <trkpt lat="43.18361" lon="5.69147">
        <ele>14.1</ele>
        <time>2016-03-28T08:31:48Z</time>
      </trkpt>
      <trkpt lat="43.18367" lon="5.69145">
        <ele>14.1</ele>
        <time>2016-03-28T08:31:49Z</time>
      </trkpt>
      <trkpt lat="43.18373" lon="5.69141">
        <ele>14.2</ele>
        <time>2016-03-28T08:31:50Z</time>
      </trkpt>
      <trkpt lat="43.18379" lon="5.69137">
        <ele>14.2</ele>
        <time>2016-03-28T08:31:51Z</time>
      </trkpt>
      <trkpt lat="43.18384" lon="5.69129">
        <ele>14.2</ele>
        <time>2016-03-28T08:31:52Z</time>
      </trkpt>
      <trkpt lat="43.18389" lon="5.69121">
        <ele>14.2</ele>
        <time>2016-03-28T08:31:53Z</time>
      </trkpt>
      <trkpt lat="43.18394" lon="5.69114">
        <ele>14.4</ele>
        <time>2016-03-28T08:31:54Z</time>
      </trkpt>
      <trkpt lat="43.18392" lon="5.69102">
        <ele>14.6</ele>
        <time>2016-03-28T08:31:55Z</time>
      </trkpt>
      <trkpt lat="43.18393" lon="5.69091">
        <ele>14.8</ele>
        <time>2016-03-28T08:31:56Z</time>
      </trkpt>
      <trkpt lat="43.18389" lon="5.6908">
        <ele>15</ele>
        <time>2016-03-28T08:31:57Z</time>
      </trkpt>
      <trkpt lat="43.18384" lon="5.69073">
        <ele>15.2</ele>
        <time>2016-03-28T08:31:58Z</time>
      </trkpt>
      <trkpt lat="43.18378" lon="5.69064">
        <ele>15.4</ele>
        <time>2016-03-28T08:31:59Z</time>
      </trkpt>
      <trkpt lat="43.18372" lon="5.69057">
        <ele>15.5</ele>
        <time>2016-03-28T08:32:00Z</time>
      </trkpt>
      <trkpt lat="43.18366" lon="5.6905">
        <ele>15.5</ele>
        <time>2016-03-28T08:32:01Z</time>
      </trkpt>
      <trkpt lat="43.18361" lon="5.69043">
        <ele>15.5</ele>
        <time>2016-03-28T08:32:02Z</time>
      </trkpt>
      <trkpt lat="43.18356" lon="5.69034">
        <ele>15.4</ele>
        <time>2016-03-28T08:32:03Z</time>
      </trkpt>
      <trkpt lat="43.18353" lon="5.69024">
        <ele>15.5</ele>
        <time>2016-03-28T08:32:04Z</time>
      </trkpt>
      <trkpt lat="43.18349" lon="5.69013">
        <ele>15.6</ele>
        <time>2016-03-28T08:32:05Z</time>
      </trkpt>
      <trkpt lat="43.18347" lon="5.69003">
        <ele>15.8</ele>
        <time>2016-03-28T08:32:06Z</time>
      </trkpt>
      <trkpt lat="43.18344" lon="5.68992">
        <ele>16</ele>
        <time>2016-03-28T08:32:07Z</time>
      </trkpt>
      <trkpt lat="43.18342" lon="5.68982">
        <ele>16.2</ele>
        <time>2016-03-28T08:32:08Z</time>
      </trkpt>
      <trkpt lat="43.18339" lon="5.68971">
        <ele>16.5</ele>
        <time>2016-03-28T08:32:09Z</time>
      </trkpt>
      <trkpt lat="43.18339" lon="5.68957">
        <ele>16.9</ele>
        <time>2016-03-28T08:32:10Z</time>
      </trkpt>
      <trkpt lat="43.18338" lon="5.68946">
        <ele>17.5</ele>
        <time>2016-03-28T08:32:11Z</time>
      </trkpt>
      <trkpt lat="43.18337" lon="5.68936">
        <ele>18</ele>
        <time>2016-03-28T08:32:12Z</time>
      </trkpt>
      <trkpt lat="43.18338" lon="5.68923">
        <ele>18.6</ele>
        <time>2016-03-28T08:32:13Z</time>
      </trkpt>
      <trkpt lat="43.18338" lon="5.68912">
        <ele>19.1</ele>
        <time>2016-03-28T08:32:14Z</time>
      </trkpt>
      <trkpt lat="43.1834" lon="5.689">
        <ele>19.7</ele>
        <time>2016-03-28T08:32:15Z</time>
      </trkpt>
      <trkpt lat="43.18342" lon="5.68888">
        <ele>20.2</ele>
        <time>2016-03-28T08:32:16Z</time>
      </trkpt>
      <trkpt lat="43.18341" lon="5.68877">
        <ele>20.7</ele>
        <time>2016-03-28T08:32:17Z</time>
      </trkpt>
      <trkpt lat="43.18341" lon="5.68865">
        <ele>20.5</ele>
        <time>2016-03-28T08:32:18Z</time>
      </trkpt>
      <trkpt lat="43.18343" lon="5.68854">
        <ele>20.1</ele>
        <time>2016-03-28T08:32:19Z</time>
      </trkpt>
      <trkpt lat="43.18341" lon="5.68842">
        <ele>19.8</ele>
        <time>2016-03-28T08:32:20Z</time>
      </trkpt>
      <trkpt lat="43.1834" lon="5.68831">
        <ele>19.5</ele>
        <time>2016-03-28T08:32:21Z</time>
      </trkpt>
      <trkpt lat="43.1834" lon="5.6882">
        <ele>19.2</ele>
        <time>2016-03-28T08:32:22Z</time>
      </trkpt>
      <trkpt lat="43.18339" lon="5.68808">
        <ele>18.8</ele>
        <time>2016-03-28T08:32:23Z</time>
      </trkpt>
      <trkpt lat="43.1834" lon="5.68794">
        <ele>18.3</ele>
        <time>2016-03-28T08:32:24Z</time>
      </trkpt>
      <trkpt lat="43.18341" lon="5.68783">
        <ele>17.9</ele>
        <time>2016-03-28T08:32:25Z</time>
      </trkpt>
      <trkpt lat="43.18342" lon="5.68772">
        <ele>17.5</ele>
        <time>2016-03-28T08:32:26Z</time>
      </trkpt>
      <trkpt lat="43.18343" lon="5.68761">
        <ele>17.1</ele>
        <time>2016-03-28T08:32:27Z</time>
      </trkpt>
      <trkpt lat="43.18344" lon="5.6875">
        <ele>16.7</ele>
        <time>2016-03-28T08:32:28Z</time>
      </trkpt>
      <trkpt lat="43.18346" lon="5.68739">
        <ele>16.3</ele>
        <time>2016-03-28T08:32:29Z</time>
      </trkpt>
      <trkpt lat="43.18346" lon="5.68729">
        <ele>16</ele>
        <time>2016-03-28T08:32:30Z</time>
      </trkpt>
      <trkpt lat="43.18345" lon="5.68717">
        <ele>15.6</ele>
        <time>2016-03-28T08:32:31Z</time>
      </trkpt>
      <trkpt lat="43.18344" lon="5.68706">
        <ele>15.3</ele>
        <time>2016-03-28T08:32:32Z</time>
      </trkpt>
      <trkpt lat="43.18345" lon="5.68697">
        <ele>15.5</ele>
        <time>2016-03-28T08:32:33Z</time>
      </trkpt>
      <trkpt lat="43.18345" lon="5.68686">
        <ele>15.8</ele>
        <time>2016-03-28T08:32:34Z</time>
      </trkpt>
      <trkpt lat="43.18345" lon="5.68677">
        <ele>16</ele>
        <time>2016-03-28T08:32:35Z</time>
      </trkpt>
      <trkpt lat="43.18343" lon="5.68667">
        <ele>16.2</ele>
        <time>2016-03-28T08:32:36Z</time>
      </trkpt>
      <trkpt lat="43.18342" lon="5.68657">
        <ele>16.3</ele>
        <time>2016-03-28T08:32:37Z</time>
      </trkpt>
      <trkpt lat="43.18339" lon="5.6865">
        <ele>16.3</ele>
        <time>2016-03-28T08:32:38Z</time>
      </trkpt>
      <trkpt lat="43.18338" lon="5.68639">
        <ele>16.5</ele>
        <time>2016-03-28T08:32:39Z</time>
      </trkpt>
      <trkpt lat="43.18336" lon="5.68629">
        <ele>16.6</ele>
        <time>2016-03-28T08:32:40Z</time>
      </trkpt>
      <trkpt lat="43.18333" lon="5.68621">
        <ele>16.6</ele>
        <time>2016-03-28T08:32:41Z</time>
      </trkpt>
      <trkpt lat="43.18334" lon="5.68606">
        <ele>17</ele>
        <time>2016-03-28T08:32:42Z</time>
      </trkpt>
      <trkpt lat="43.18331" lon="5.68598">
        <ele>17</ele>
        <time>2016-03-28T08:32:43Z</time>
      </trkpt>
      <trkpt lat="43.18328" lon="5.6859">
        <ele>16.9</ele>
        <time>2016-03-28T08:32:44Z</time>
      </trkpt>
      <trkpt lat="43.18325" lon="5.68581">
        <ele>16.9</ele>
        <time>2016-03-28T08:32:45Z</time>
      </trkpt>
      <trkpt lat="43.1832" lon="5.68573">
        <ele>16.6</ele>
        <time>2016-03-28T08:32:46Z</time>
      </trkpt>
      <trkpt lat="43.18317" lon="5.68565">
        <ele>16.4</ele>
        <time>2016-03-28T08:32:47Z</time>
      </trkpt>
      <trkpt lat="43.18313" lon="5.68556">
        <ele>16.1</ele>
        <time>2016-03-28T08:32:48Z</time>
      </trkpt>
      <trkpt lat="43.18309" lon="5.68547">
        <ele>15.8</ele>
        <time>2016-03-28T08:32:49Z</time>
      </trkpt>
      <trkpt lat="43.18306" lon="5.68538">
        <ele>15.7</ele>
        <time>2016-03-28T08:32:50Z</time>
      </trkpt>
      <trkpt lat="43.18304" lon="5.68531">
        <ele>15.9</ele>
        <time>2016-03-28T08:32:51Z</time>
      </trkpt>
      <trkpt lat="43.18298" lon="5.68526">
        <ele>15.5</ele>
        <time>2016-03-28T08:32:52Z</time>
      </trkpt>
      <trkpt lat="43.18293" lon="5.68518">
        <ele>15.6</ele>
        <time>2016-03-28T08:32:53Z</time>
      </trkpt>
      <trkpt lat="43.18287" lon="5.68512">
        <ele>15.5</ele>
        <time>2016-03-28T08:32:54Z</time>
      </trkpt>
      <trkpt lat="43.1828" lon="5.68507">
        <ele>15.5</ele>
        <time>2016-03-28T08:32:55Z</time>
      </trkpt>
      <trkpt lat="43.18275" lon="5.68501">
        <ele>15.7</ele>
        <time>2016-03-28T08:32:56Z</time>
      </trkpt>
      <trkpt lat="43.18271" lon="5.68493">
        <ele>15.9</ele>
        <time>2016-03-28T08:32:57Z</time>
      </trkpt>
      <trkpt lat="43.18267" lon="5.68485">
        <ele>16.1</ele>
        <time>2016-03-28T08:32:58Z</time>
      </trkpt>
      <trkpt lat="43.18262" lon="5.68477">
        <ele>16.3</ele>
        <time>2016-03-28T08:32:59Z</time>
      </trkpt>
      <trkpt lat="43.18258" lon="5.68469">
        <ele>16.5</ele>
        <time>2016-03-28T08:33:00Z</time>
      </trkpt>
      <trkpt lat="43.18254" lon="5.68461">
        <ele>16.7</ele>
        <time>2016-03-28T08:33:01Z</time>
      </trkpt>
      <trkpt lat="43.1825" lon="5.68452">
        <ele>16.8</ele>
        <time>2016-03-28T08:33:02Z</time>
      </trkpt>
      <trkpt lat="43.18247" lon="5.68445">
        <ele>16.9</ele>
        <time>2016-03-28T08:33:03Z</time>
      </trkpt>
      <trkpt lat="43.18243" lon="5.68437">
        <ele>17.1</ele>
        <time>2016-03-28T08:33:04Z</time>
      </trkpt>
      <trkpt lat="43.18238" lon="5.6843">
        <ele>17.1</ele>
        <time>2016-03-28T08:33:05Z</time>
      </trkpt>
      <trkpt lat="43.18234" lon="5.68422">
        <ele>17.1</ele>
        <time>2016-03-28T08:33:06Z</time>
      </trkpt>
      <trkpt lat="43.18229" lon="5.68415">
        <ele>17</ele>
        <time>2016-03-28T08:33:07Z</time>
      </trkpt>
      <trkpt lat="43.18225" lon="5.68408">
        <ele>17.1</ele>
        <time>2016-03-28T08:33:08Z</time>
      </trkpt>
      <trkpt lat="43.18221" lon="5.684">
        <ele>17</ele>
        <time>2016-03-28T08:33:09Z</time>
      </trkpt>
      <trkpt lat="43.18217" lon="5.68391">
        <ele>17.1</ele>
        <time>2016-03-28T08:33:10Z</time>
      </trkpt>
      <trkpt lat="43.18213" lon="5.68383">
        <ele>17.1</ele>
        <time>2016-03-28T08:33:11Z</time>
      </trkpt>
      <trkpt lat="43.18211" lon="5.68375">
        <ele>17.2</ele>
        <time>2016-03-28T08:33:12Z</time>
      </trkpt>
      <trkpt lat="43.18207" lon="5.68367">
        <ele>17.4</ele>
        <time>2016-03-28T08:33:13Z</time>
      </trkpt>
      <trkpt lat="43.18204" lon="5.68358">
        <ele>17.7</ele>
        <time>2016-03-28T08:33:14Z</time>
      </trkpt>
      <trkpt lat="43.18198" lon="5.68353">
        <ele>17.6</ele>
        <time>2016-03-28T08:33:15Z</time>
      </trkpt>
      <trkpt lat="43.18194" lon="5.68345">
        <ele>17.8</ele>
        <time>2016-03-28T08:33:16Z</time>
      </trkpt>
      <trkpt lat="43.18189" lon="5.68337">
        <ele>17.9</ele>
        <time>2016-03-28T08:33:17Z</time>
      </trkpt>
      <trkpt lat="43.18184" lon="5.6833">
        <ele>18</ele>
        <time>2016-03-28T08:33:18Z</time>
      </trkpt>
      <trkpt lat="43.18181" lon="5.68321">
        <ele>18.3</ele>
        <time>2016-03-28T08:33:19Z</time>
      </trkpt>
      <trkpt lat="43.18178" lon="5.68313">
        <ele>18.5</ele>
        <time>2016-03-28T08:33:20Z</time>
      </trkpt>
      <trkpt lat="43.18175" lon="5.68305">
        <ele>18.8</ele>
        <time>2016-03-28T08:33:21Z</time>
      </trkpt>
      <trkpt lat="43.1818" lon="5.68286">
        <ele>20</ele>
        <time>2016-03-28T08:33:22Z</time>
      </trkpt>
      <trkpt lat="43.18176" lon="5.68278">
        <ele>19.9</ele>
        <time>2016-03-28T08:33:23Z</time>
      </trkpt>
      <trkpt lat="43.18173" lon="5.6827">
        <ele>19.8</ele>
        <time>2016-03-28T08:33:24Z</time>
      </trkpt>
      <trkpt lat="43.18169" lon="5.68262">
        <ele>19.5</ele>
        <time>2016-03-28T08:33:25Z</time>
      </trkpt>
      <trkpt lat="43.18165" lon="5.68254">
        <ele>19.3</ele>
        <time>2016-03-28T08:33:26Z</time>
      </trkpt>
      <trkpt lat="43.18162" lon="5.68244">
        <ele>19.2</ele>
        <time>2016-03-28T08:33:27Z</time>
      </trkpt>
      <trkpt lat="43.1816" lon="5.68233">
        <ele>19.1</ele>
        <time>2016-03-28T08:33:28Z</time>
      </trkpt>
      <trkpt lat="43.18153" lon="5.68229">
        <ele>18.6</ele>
        <time>2016-03-28T08:33:29Z</time>
      </trkpt>
      <trkpt lat="43.18148" lon="5.68222">
        <ele>18.1</ele>
        <time>2016-03-28T08:33:30Z</time>
      </trkpt>
      <trkpt lat="43.18144" lon="5.68215">
        <ele>17.8</ele>
        <time>2016-03-28T08:33:31Z</time>
      </trkpt>
      <trkpt lat="43.18139" lon="5.68207">
        <ele>17.4</ele>
        <time>2016-03-28T08:33:32Z</time>
      </trkpt>
      <trkpt lat="43.18134" lon="5.68199">
        <ele>17.3</ele>
        <time>2016-03-28T08:33:33Z</time>
      </trkpt>
      <trkpt lat="43.1813" lon="5.68191">
        <ele>17.3</ele>
        <time>2016-03-28T08:33:34Z</time>
      </trkpt>
      <trkpt lat="43.18126" lon="5.68182">
        <ele>17.4</ele>
        <time>2016-03-28T08:33:35Z</time>
      </trkpt>
      <trkpt lat="43.18122" lon="5.68173">
        <ele>17.3</ele>
        <time>2016-03-28T08:33:36Z</time>
      </trkpt>
      <trkpt lat="43.18118" lon="5.68164">
        <ele>17.2</ele>
        <time>2016-03-28T08:33:37Z</time>
      </trkpt>
      <trkpt lat="43.18113" lon="5.68156">
        <ele>16.9</ele>
        <time>2016-03-28T08:33:38Z</time>
      </trkpt>
      <trkpt lat="43.18106" lon="5.68152">
        <ele>16.1</ele>
        <time>2016-03-28T08:33:39Z</time>
      </trkpt>
      <trkpt lat="43.18107" lon="5.68136">
        <ele>16.8</ele>
        <time>2016-03-28T08:33:40Z</time>
      </trkpt>
      <trkpt lat="43.18103" lon="5.68128">
        <ele>16.5</ele>
        <time>2016-03-28T08:33:41Z</time>
      </trkpt>
      <trkpt lat="43.18098" lon="5.68119">
        <ele>15.8</ele>
        <time>2016-03-28T08:33:42Z</time>
      </trkpt>
      <trkpt lat="43.18093" lon="5.6811">
        <ele>15</ele>
        <time>2016-03-28T08:33:43Z</time>
      </trkpt>
      <trkpt lat="43.18088" lon="5.68102">
        <ele>14.2</ele>
        <time>2016-03-28T08:33:44Z</time>
      </trkpt>
      <trkpt lat="43.18084" lon="5.68093">
        <ele>13.6</ele>
        <time>2016-03-28T08:33:45Z</time>
      </trkpt>
      <trkpt lat="43.18078" lon="5.68086">
        <ele>12.6</ele>
        <time>2016-03-28T08:33:46Z</time>
      </trkpt>
      <trkpt lat="43.18072" lon="5.68078">
        <ele>11.8</ele>
        <time>2016-03-28T08:33:47Z</time>
      </trkpt>
      <trkpt lat="43.18067" lon="5.68069">
        <ele>11</ele>
        <time>2016-03-28T08:33:48Z</time>
      </trkpt>
      <trkpt lat="43.18063" lon="5.68059">
        <ele>10.4</ele>
        <time>2016-03-28T08:33:49Z</time>
      </trkpt>
      <trkpt lat="43.18058" lon="5.6805">
        <ele>9.6</ele>
        <time>2016-03-28T08:33:50Z</time>
      </trkpt>
      <trkpt lat="43.18052" lon="5.68043">
        <ele>8.6</ele>
        <time>2016-03-28T08:33:51Z</time>
      </trkpt>
      <trkpt lat="43.18047" lon="5.68033">
        <ele>7.9</ele>
        <time>2016-03-28T08:33:52Z</time>
      </trkpt>
      <trkpt lat="43.18049" lon="5.68014">
        <ele>8</ele>
        <time>2016-03-28T08:33:53Z</time>
      </trkpt>
      <trkpt lat="43.18042" lon="5.68008">
        <ele>7</ele>
        <time>2016-03-28T08:33:54Z</time>
      </trkpt>
      <trkpt lat="43.18039" lon="5.67996">
        <ele>6.8</ele>
        <time>2016-03-28T08:33:55Z</time>
      </trkpt>
      <trkpt lat="43.18038" lon="5.67983">
        <ele>6.8</ele>
        <time>2016-03-28T08:33:56Z</time>
      </trkpt>
      <trkpt lat="43.18034" lon="5.67974">
        <ele>6.6</ele>
        <time>2016-03-28T08:33:57Z</time>
      </trkpt>
      <trkpt lat="43.18028" lon="5.67964">
        <ele>6.3</ele>
        <time>2016-03-28T08:33:58Z</time>
      </trkpt>
      <trkpt lat="43.18024" lon="5.67954">
        <ele>6.4</ele>
        <time>2016-03-28T08:33:59Z</time>
      </trkpt>
      <trkpt lat="43.18019" lon="5.67944">
        <ele>6.7</ele>
        <time>2016-03-28T08:34:00Z</time>
      </trkpt>
      <trkpt lat="43.18016" lon="5.67933">
        <ele>7.2</ele>
        <time>2016-03-28T08:34:01Z</time>
      </trkpt>
      <trkpt lat="43.18013" lon="5.67921">
        <ele>7.7</ele>
        <time>2016-03-28T08:34:02Z</time>
      </trkpt>
      <trkpt lat="43.18013" lon="5.67909">
        <ele>8.4</ele>
        <time>2016-03-28T08:34:03Z</time>
      </trkpt>
      <trkpt lat="43.18014" lon="5.67896">
        <ele>9.1</ele>
        <time>2016-03-28T08:34:04Z</time>
      </trkpt>
      <trkpt lat="43.18014" lon="5.67884">
        <ele>9.8</ele>
        <time>2016-03-28T08:34:05Z</time>
      </trkpt>
      <trkpt lat="43.18013" lon="5.67873">
        <ele>10.3</ele>
        <time>2016-03-28T08:34:06Z</time>
      </trkpt>
      <trkpt lat="43.18013" lon="5.67863">
        <ele>10.8</ele>
        <time>2016-03-28T08:34:07Z</time>
      </trkpt>
      <trkpt lat="43.18012" lon="5.67852">
        <ele>11.1</ele>
        <time>2016-03-28T08:34:08Z</time>
      </trkpt>
      <trkpt lat="43.18006" lon="5.67845">
        <ele>11</ele>
        <time>2016-03-28T08:34:09Z</time>
      </trkpt>
      <trkpt lat="43.18" lon="5.67839">
        <ele>10.8</ele>
        <time>2016-03-28T08:34:10Z</time>
      </trkpt>
      <trkpt lat="43.17996" lon="5.67832">
        <ele>10.8</ele>
        <time>2016-03-28T08:34:11Z</time>
      </trkpt>
      <trkpt lat="43.17989" lon="5.67826">
        <ele>10.4</ele>
        <time>2016-03-28T08:34:12Z</time>
      </trkpt>
      <trkpt lat="43.17982" lon="5.67822">
        <ele>10.1</ele>
        <time>2016-03-28T08:34:13Z</time>
      </trkpt>
      <trkpt lat="43.17982" lon="5.67811">
        <ele>10.4</ele>
        <time>2016-03-28T08:34:14Z</time>
      </trkpt>
      <trkpt lat="43.1798" lon="5.67803">
        <ele>10.5</ele>
        <time>2016-03-28T08:34:15Z</time>
      </trkpt>
      <trkpt lat="43.17978" lon="5.67793">
        <ele>10.6</ele>
        <time>2016-03-28T08:34:16Z</time>
      </trkpt>
      <trkpt lat="43.17977" lon="5.67783">
        <ele>10.6</ele>
        <time>2016-03-28T08:34:17Z</time>
      </trkpt>
      <trkpt lat="43.17976" lon="5.67776">
        <ele>10.5</ele>
        <time>2016-03-28T08:34:18Z</time>
      </trkpt>
      <trkpt lat="43.17976" lon="5.67768">
        <ele>10.5</ele>
        <time>2016-03-28T08:34:19Z</time>
      </trkpt>
      <trkpt lat="43.17978" lon="5.67754">
        <ele>10.7</ele>
        <time>2016-03-28T08:34:20Z</time>
      </trkpt>
      <trkpt lat="43.17979" lon="5.67745">
        <ele>10.8</ele>
        <time>2016-03-28T08:34:21Z</time>
      </trkpt>
      <trkpt lat="43.17979" lon="5.67737">
        <ele>10.9</ele>
        <time>2016-03-28T08:34:22Z</time>
      </trkpt>
      <trkpt lat="43.1798" lon="5.6773">
        <ele>11</ele>
        <time>2016-03-28T08:34:23Z</time>
      </trkpt>
      <trkpt lat="43.17981" lon="5.67721">
        <ele>11.1</ele>
        <time>2016-03-28T08:34:24Z</time>
      </trkpt>
      <trkpt lat="43.17983" lon="5.67711">
        <ele>11.4</ele>
        <time>2016-03-28T08:34:25Z</time>
      </trkpt>
      <trkpt lat="43.17983" lon="5.67702">
        <ele>11.5</ele>
        <time>2016-03-28T08:34:26Z</time>
      </trkpt>
      <trkpt lat="43.17985" lon="5.67693">
        <ele>11.8</ele>
        <time>2016-03-28T08:34:27Z</time>
      </trkpt>
      <trkpt lat="43.17986" lon="5.67686">
        <ele>12</ele>
        <time>2016-03-28T08:34:28Z</time>
      </trkpt>
      <trkpt lat="43.17987" lon="5.67677">
        <ele>12.3</ele>
        <time>2016-03-28T08:34:29Z</time>
      </trkpt>
      <trkpt lat="43.17987" lon="5.67671">
        <ele>12.3</ele>
        <time>2016-03-28T08:34:30Z</time>
      </trkpt>
      <trkpt lat="43.17989" lon="5.67661">
        <ele>12.6</ele>
        <time>2016-03-28T08:34:31Z</time>
      </trkpt>
      <trkpt lat="43.17992" lon="5.67649">
        <ele>12.9</ele>
        <time>2016-03-28T08:34:32Z</time>
      </trkpt>
      <trkpt lat="43.17993" lon="5.67641">
        <ele>13.1</ele>
        <time>2016-03-28T08:34:33Z</time>
      </trkpt>
      <trkpt lat="43.17994" lon="5.67634">
        <ele>13.2</ele>
        <time>2016-03-28T08:34:34Z</time>
      </trkpt>
      <trkpt lat="43.17992" lon="5.67631">
        <ele>13.1</ele>
        <time>2016-03-28T08:34:35Z</time>
      </trkpt>
      <trkpt lat="43.17997" lon="5.67621">
        <ele>13.6</ele>
        <time>2016-03-28T08:34:36Z</time>
      </trkpt>
      <trkpt lat="43.17999" lon="5.67613">
        <ele>14.1</ele>
        <time>2016-03-28T08:34:37Z</time>
      </trkpt>
      <trkpt lat="43.18002" lon="5.67604">
        <ele>14.7</ele>
        <time>2016-03-28T08:34:38Z</time>
      </trkpt>
      <trkpt lat="43.18003" lon="5.67596">
        <ele>15.1</ele>
        <time>2016-03-28T08:34:39Z</time>
      </trkpt>
      <trkpt lat="43.18004" lon="5.67588">
        <ele>15.6</ele>
        <time>2016-03-28T08:34:40Z</time>
      </trkpt>
      <trkpt lat="43.18006" lon="5.6758">
        <ele>16</ele>
        <time>2016-03-28T08:34:41Z</time>
      </trkpt>
      <trkpt lat="43.18008" lon="5.67571">
        <ele>16.5</ele>
        <time>2016-03-28T08:34:42Z</time>
      </trkpt>
      <trkpt lat="43.18009" lon="5.67563">
        <ele>16.9</ele>
        <time>2016-03-28T08:34:43Z</time>
      </trkpt>
      <trkpt lat="43.1801" lon="5.67556">
        <ele>17.3</ele>
        <time>2016-03-28T08:34:44Z</time>
      </trkpt>
      <trkpt lat="43.18011" lon="5.67548">
        <ele>17.7</ele>
        <time>2016-03-28T08:34:45Z</time>
      </trkpt>
      <trkpt lat="43.18012" lon="5.67542">
        <ele>18</ele>
        <time>2016-03-28T08:34:46Z</time>
      </trkpt>
      <trkpt lat="43.18014" lon="5.67534">
        <ele>18.4</ele>
        <time>2016-03-28T08:34:47Z</time>
      </trkpt>
      <trkpt lat="43.18016" lon="5.67525">
        <ele>18.9</ele>
        <time>2016-03-28T08:34:48Z</time>
      </trkpt>
      <trkpt lat="43.18017" lon="5.67518">
        <ele>19.3</ele>
        <time>2016-03-28T08:34:49Z</time>
      </trkpt>
      <trkpt lat="43.18018" lon="5.67511">
        <ele>19.6</ele>
        <time>2016-03-28T08:34:50Z</time>
      </trkpt>
      <trkpt lat="43.1802" lon="5.67502">
        <ele>20.1</ele>
        <time>2016-03-28T08:34:51Z</time>
      </trkpt>
      <trkpt lat="43.18021" lon="5.67494">
        <ele>20.6</ele>
        <time>2016-03-28T08:34:52Z</time>
      </trkpt>
      <trkpt lat="43.18022" lon="5.67486">
        <ele>21</ele>
        <time>2016-03-28T08:34:53Z</time>
      </trkpt>
      <trkpt lat="43.18023" lon="5.67479">
        <ele>21.5</ele>
        <time>2016-03-28T08:34:54Z</time>
      </trkpt>
      <trkpt lat="43.18024" lon="5.6747">
        <ele>21.9</ele>
        <time>2016-03-28T08:34:55Z</time>
      </trkpt>
      <trkpt lat="43.18025" lon="5.67464">
        <ele>22.3</ele>
        <time>2016-03-28T08:34:56Z</time>
      </trkpt>
      <trkpt lat="43.18027" lon="5.67457">
        <ele>22.6</ele>
        <time>2016-03-28T08:34:57Z</time>
      </trkpt>
      <trkpt lat="43.18028" lon="5.67452">
        <ele>22.7</ele>
        <time>2016-03-28T08:34:58Z</time>
      </trkpt>
      <trkpt lat="43.18028" lon="5.67445">
        <ele>22.7</ele>
        <time>2016-03-28T08:34:59Z</time>
      </trkpt>
      <trkpt lat="43.18029" lon="5.67439">
        <ele>22.7</ele>
        <time>2016-03-28T08:35:00Z</time>
      </trkpt>
      <trkpt lat="43.18029" lon="5.67433">
        <ele>22.7</ele>
        <time>2016-03-28T08:35:01Z</time>
      </trkpt>
      <trkpt lat="43.1803" lon="5.67426">
        <ele>22.8</ele>
        <time>2016-03-28T08:35:02Z</time>
      </trkpt>
      <trkpt lat="43.18031" lon="5.67419">
        <ele>22.9</ele>
        <time>2016-03-28T08:35:03Z</time>
      </trkpt>
      <trkpt lat="43.18032" lon="5.67413">
        <ele>23</ele>
        <time>2016-03-28T08:35:04Z</time>
      </trkpt>
      <trkpt lat="43.18033" lon="5.67406">
        <ele>23.1</ele>
        <time>2016-03-28T08:35:05Z</time>
      </trkpt>
      <trkpt lat="43.18035" lon="5.67396">
        <ele>23.3</ele>
        <time>2016-03-28T08:35:07Z</time>
      </trkpt>
      <trkpt lat="43.18036" lon="5.67389">
        <ele>23.4</ele>
        <time>2016-03-28T08:35:08Z</time>
      </trkpt>
      <trkpt lat="43.18037" lon="5.67382">
        <ele>23.5</ele>
        <time>2016-03-28T08:35:09Z</time>
      </trkpt>
      <trkpt lat="43.18038" lon="5.67375">
        <ele>23.6</ele>
        <time>2016-03-28T08:35:10Z</time>
      </trkpt>
      <trkpt lat="43.18039" lon="5.67366">
        <ele>23.3</ele>
        <time>2016-03-28T08:35:12Z</time>
      </trkpt>
      <trkpt lat="43.18041" lon="5.67357">
        <ele>23</ele>
        <time>2016-03-28T08:35:13Z</time>
      </trkpt>
      <trkpt lat="43.18041" lon="5.6735">
        <ele>22.7</ele>
        <time>2016-03-28T08:35:14Z</time>
      </trkpt>
      <trkpt lat="43.18042" lon="5.67342">
        <ele>22.4</ele>
        <time>2016-03-28T08:35:15Z</time>
      </trkpt>
      <trkpt lat="43.18042" lon="5.67336">
        <ele>22.1</ele>
        <time>2016-03-28T08:35:16Z</time>
      </trkpt>
      <trkpt lat="43.18043" lon="5.6733">
        <ele>21.8</ele>
        <time>2016-03-28T08:35:17Z</time>
      </trkpt>
      <trkpt lat="43.18045" lon="5.67321">
        <ele>21.5</ele>
        <time>2016-03-28T08:35:18Z</time>
      </trkpt>
      <trkpt lat="43.18046" lon="5.67314">
        <ele>21.2</ele>
        <time>2016-03-28T08:35:19Z</time>
      </trkpt>
      <trkpt lat="43.18047" lon="5.67304">
        <ele>20.7</ele>
        <time>2016-03-28T08:35:20Z</time>
      </trkpt>
      <trkpt lat="43.1805" lon="5.67297">
        <ele>20.5</ele>
        <time>2016-03-28T08:35:21Z</time>
      </trkpt>
      <trkpt lat="43.18052" lon="5.67289">
        <ele>20.1</ele>
        <time>2016-03-28T08:35:22Z</time>
      </trkpt>
      <trkpt lat="43.18054" lon="5.67282">
        <ele>19.8</ele>
        <time>2016-03-28T08:35:23Z</time>
      </trkpt>
      <trkpt lat="43.18054" lon="5.67268">
        <ele>19.1</ele>
        <time>2016-03-28T08:35:24Z</time>
      </trkpt>
      <trkpt lat="43.18057" lon="5.67257">
        <ele>18.6</ele>
        <time>2016-03-28T08:35:25Z</time>
      </trkpt>
      <trkpt lat="43.18059" lon="5.67248">
        <ele>18.2</ele>
        <time>2016-03-28T08:35:26Z</time>
      </trkpt>
      <trkpt lat="43.18058" lon="5.67241">
        <ele>17.8</ele>
        <time>2016-03-28T08:35:27Z</time>
      </trkpt>
      <trkpt lat="43.1806" lon="5.67233">
        <ele>17.5</ele>
        <time>2016-03-28T08:35:28Z</time>
      </trkpt>
      <trkpt lat="43.18064" lon="5.67223">
        <ele>17.3</ele>
        <time>2016-03-28T08:35:29Z</time>
      </trkpt>
      <trkpt lat="43.1807" lon="5.67213">
        <ele>17.2</ele>
        <time>2016-03-28T08:35:30Z</time>
      </trkpt>
      <trkpt lat="43.18073" lon="5.67204">
        <ele>17</ele>
        <time>2016-03-28T08:35:31Z</time>
      </trkpt>
      <trkpt lat="43.18079" lon="5.67195">
        <ele>17</ele>
        <time>2016-03-28T08:35:32Z</time>
      </trkpt>
      <trkpt lat="43.18082" lon="5.67186">
        <ele>16.8</ele>
        <time>2016-03-28T08:35:33Z</time>
      </trkpt>
      <trkpt lat="43.18086" lon="5.67175">
        <ele>16.6</ele>
        <time>2016-03-28T08:35:34Z</time>
      </trkpt>
      <trkpt lat="43.18089" lon="5.67164">
        <ele>16.3</ele>
        <time>2016-03-28T08:35:35Z</time>
      </trkpt>
      <trkpt lat="43.18095" lon="5.67154">
        <ele>16.2</ele>
        <time>2016-03-28T08:35:36Z</time>
      </trkpt>
      <trkpt lat="43.18099" lon="5.67144">
        <ele>16</ele>
        <time>2016-03-28T08:35:37Z</time>
      </trkpt>
      <trkpt lat="43.18103" lon="5.67133">
        <ele>15.8</ele>
        <time>2016-03-28T08:35:38Z</time>
      </trkpt>
      <trkpt lat="43.18108" lon="5.67122">
        <ele>15.7</ele>
        <time>2016-03-28T08:35:39Z</time>
      </trkpt>
      <trkpt lat="43.18114" lon="5.67113">
        <ele>15.7</ele>
        <time>2016-03-28T08:35:40Z</time>
      </trkpt>
      <trkpt lat="43.1812" lon="5.67103">
        <ele>15.6</ele>
        <time>2016-03-28T08:35:41Z</time>
      </trkpt>
      <trkpt lat="43.18125" lon="5.67092">
        <ele>15.4</ele>
        <time>2016-03-28T08:35:42Z</time>
      </trkpt>
      <trkpt lat="43.18131" lon="5.67082">
        <ele>15.2</ele>
        <time>2016-03-28T08:35:43Z</time>
      </trkpt>
      <trkpt lat="43.1814" lon="5.67071">
        <ele>15.2</ele>
        <time>2016-03-28T08:35:44Z</time>
      </trkpt>
      <trkpt lat="43.18148" lon="5.67061">
        <ele>15</ele>
        <time>2016-03-28T08:35:45Z</time>
      </trkpt>
      <trkpt lat="43.18155" lon="5.6705">
        <ele>14.9</ele>
        <time>2016-03-28T08:35:46Z</time>
      </trkpt>
      <trkpt lat="43.18161" lon="5.67039">
        <ele>14.8</ele>
        <time>2016-03-28T08:35:47Z</time>
      </trkpt>
      <trkpt lat="43.1817" lon="5.67029">
        <ele>15.4</ele>
        <time>2016-03-28T08:35:48Z</time>
      </trkpt>
      <trkpt lat="43.18178" lon="5.67019">
        <ele>16</ele>
        <time>2016-03-28T08:35:49Z</time>
      </trkpt>
      <trkpt lat="43.18186" lon="5.67011">
        <ele>16.3</ele>
        <time>2016-03-28T08:35:50Z</time>
      </trkpt>
      <trkpt lat="43.18192" lon="5.67003">
        <ele>16.6</ele>
        <time>2016-03-28T08:35:51Z</time>
      </trkpt>
      <trkpt lat="43.182" lon="5.66995">
        <ele>16.8</ele>
        <time>2016-03-28T08:35:52Z</time>
      </trkpt>
      <trkpt lat="43.18208" lon="5.66987">
        <ele>17</ele>
        <time>2016-03-28T08:35:53Z</time>
      </trkpt>
      <trkpt lat="43.18215" lon="5.66981">
        <ele>17</ele>
        <time>2016-03-28T08:35:54Z</time>
      </trkpt>
      <trkpt lat="43.18222" lon="5.66973">
        <ele>17.1</ele>
        <time>2016-03-28T08:35:55Z</time>
      </trkpt>
      <trkpt lat="43.18228" lon="5.66966">
        <ele>17.2</ele>
        <time>2016-03-28T08:35:56Z</time>
      </trkpt>
      <trkpt lat="43.18234" lon="5.66958">
        <ele>17.3</ele>
        <time>2016-03-28T08:35:57Z</time>
      </trkpt>
      <trkpt lat="43.1824" lon="5.66953">
        <ele>17.2</ele>
        <time>2016-03-28T08:35:58Z</time>
      </trkpt>
      <trkpt lat="43.18247" lon="5.66947">
        <ele>17.1</ele>
        <time>2016-03-28T08:35:59Z</time>
      </trkpt>
      <trkpt lat="43.18252" lon="5.66941">
        <ele>17.2</ele>
        <time>2016-03-28T08:36:00Z</time>
      </trkpt>
      <trkpt lat="43.18257" lon="5.66936">
        <ele>17.3</ele>
        <time>2016-03-28T08:36:01Z</time>
      </trkpt>
      <trkpt lat="43.18264" lon="5.6693">
        <ele>17.6</ele>
        <time>2016-03-28T08:36:02Z</time>
      </trkpt>
      <trkpt lat="43.18269" lon="5.66924">
        <ele>17.8</ele>
        <time>2016-03-28T08:36:03Z</time>
      </trkpt>
      <trkpt lat="43.18274" lon="5.66919">
        <ele>18.2</ele>
        <time>2016-03-28T08:36:04Z</time>
      </trkpt>
      <trkpt lat="43.18278" lon="5.66912">
        <ele>18.6</ele>
        <time>2016-03-28T08:36:05Z</time>
      </trkpt>
      <trkpt lat="43.18282" lon="5.66906">
        <ele>19</ele>
        <time>2016-03-28T08:36:06Z</time>
      </trkpt>
      <trkpt lat="43.18284" lon="5.66901">
        <ele>19.3</ele>
        <time>2016-03-28T08:36:07Z</time>
      </trkpt>
      <trkpt lat="43.18287" lon="5.66897">
        <ele>19.7</ele>
        <time>2016-03-28T08:36:08Z</time>
      </trkpt>
      <trkpt lat="43.18289" lon="5.66893">
        <ele>20.1</ele>
        <time>2016-03-28T08:36:09Z</time>
      </trkpt>
      <trkpt lat="43.18294" lon="5.66885">
        <ele>20.7</ele>
        <time>2016-03-28T08:36:10Z</time>
      </trkpt>
      <trkpt lat="43.18297" lon="5.6688">
        <ele>21</ele>
        <time>2016-03-28T08:36:11Z</time>
      </trkpt>
      <trkpt lat="43.18299" lon="5.66874">
        <ele>21.2</ele>
        <time>2016-03-28T08:36:12Z</time>
      </trkpt>
      <trkpt lat="43.18302" lon="5.6687">
        <ele>21.2</ele>
        <time>2016-03-28T08:36:13Z</time>
      </trkpt>
      <trkpt lat="43.18304" lon="5.66865">
        <ele>21.2</ele>
        <time>2016-03-28T08:36:14Z</time>
      </trkpt>
      <trkpt lat="43.18307" lon="5.66861">
        <ele>21.2</ele>
        <time>2016-03-28T08:36:15Z</time>
      </trkpt>
      <trkpt lat="43.1831" lon="5.6686">
        <ele>21.3</ele>
        <time>2016-03-28T08:36:16Z</time>
      </trkpt>
      <trkpt lat="43.18313" lon="5.66855">
        <ele>21.4</ele>
        <time>2016-03-28T08:36:17Z</time>
      </trkpt>
      <trkpt lat="43.18317" lon="5.6685">
        <ele>21.6</ele>
        <time>2016-03-28T08:36:18Z</time>
      </trkpt>
      <trkpt lat="43.18321" lon="5.66845">
        <ele>21.8</ele>
        <time>2016-03-28T08:36:19Z</time>
      </trkpt>
      <trkpt lat="43.18326" lon="5.6684">
        <ele>22</ele>
        <time>2016-03-28T08:36:20Z</time>
      </trkpt>
      <trkpt lat="43.18329" lon="5.66835">
        <ele>22.2</ele>
        <time>2016-03-28T08:36:21Z</time>
      </trkpt>
      <trkpt lat="43.18332" lon="5.66831">
        <ele>22.5</ele>
        <time>2016-03-28T08:36:22Z</time>
      </trkpt>
      <trkpt lat="43.18335" lon="5.66825">
        <ele>22.7</ele>
        <time>2016-03-28T08:36:23Z</time>
      </trkpt>
      <trkpt lat="43.18338" lon="5.66821">
        <ele>23</ele>
        <time>2016-03-28T08:36:24Z</time>
      </trkpt>
      <trkpt lat="43.1834" lon="5.66817">
        <ele>23.2</ele>
        <time>2016-03-28T08:36:25Z</time>
      </trkpt>
      <trkpt lat="43.18343" lon="5.66813">
        <ele>23.5</ele>
        <time>2016-03-28T08:36:26Z</time>
      </trkpt>
      <trkpt lat="43.18346" lon="5.66809">
        <ele>23.8</ele>
        <time>2016-03-28T08:36:27Z</time>
      </trkpt>
      <trkpt lat="43.18348" lon="5.66804">
        <ele>24.1</ele>
        <time>2016-03-28T08:36:28Z</time>
      </trkpt>
      <trkpt lat="43.18351" lon="5.668">
        <ele>24.5</ele>
        <time>2016-03-28T08:36:29Z</time>
      </trkpt>
      <trkpt lat="43.18353" lon="5.66797">
        <ele>24.7</ele>
        <time>2016-03-28T08:36:30Z</time>
      </trkpt>
      <trkpt lat="43.18355" lon="5.66793">
        <ele>25.1</ele>
        <time>2016-03-28T08:36:31Z</time>
      </trkpt>
      <trkpt lat="43.18357" lon="5.66788">
        <ele>25.4</ele>
        <time>2016-03-28T08:36:32Z</time>
      </trkpt>
      <trkpt lat="43.18359" lon="5.66783">
        <ele>25.6</ele>
        <time>2016-03-28T08:36:33Z</time>
      </trkpt>
      <trkpt lat="43.18362" lon="5.66779">
        <ele>26</ele>
        <time>2016-03-28T08:36:34Z</time>
      </trkpt>
      <trkpt lat="43.18364" lon="5.66774">
        <ele>26.4</ele>
        <time>2016-03-28T08:36:35Z</time>
      </trkpt>
      <trkpt lat="43.18366" lon="5.66769">
        <ele>26.8</ele>
        <time>2016-03-28T08:36:36Z</time>
      </trkpt>
      <trkpt lat="43.18368" lon="5.66764">
        <ele>27.1</ele>
        <time>2016-03-28T08:36:37Z</time>
      </trkpt>
      <trkpt lat="43.1837" lon="5.66759">
        <ele>27.5</ele>
        <time>2016-03-28T08:36:38Z</time>
      </trkpt>
      <trkpt lat="43.18372" lon="5.66754">
        <ele>27.9</ele>
        <time>2016-03-28T08:36:39Z</time>
      </trkpt>
      <trkpt lat="43.18373" lon="5.66749">
        <ele>28.3</ele>
        <time>2016-03-28T08:36:40Z</time>
      </trkpt>
      <trkpt lat="43.18375" lon="5.66744">
        <ele>28.7</ele>
        <time>2016-03-28T08:36:41Z</time>
      </trkpt>
      <trkpt lat="43.18377" lon="5.66739">
        <ele>29</ele>
        <time>2016-03-28T08:36:42Z</time>
      </trkpt>
      <trkpt lat="43.18376" lon="5.66734">
        <ele>29.1</ele>
        <time>2016-03-28T08:36:43Z</time>
      </trkpt>
      <trkpt lat="43.18378" lon="5.66729">
        <ele>29.4</ele>
        <time>2016-03-28T08:36:44Z</time>
      </trkpt>
      <trkpt lat="43.18379" lon="5.66723">
        <ele>29.6</ele>
        <time>2016-03-28T08:36:45Z</time>
      </trkpt>
      <trkpt lat="43.18382" lon="5.66719">
        <ele>29.9</ele>
        <time>2016-03-28T08:36:46Z</time>
      </trkpt>
      <trkpt lat="43.18383" lon="5.66713">
        <ele>30.1</ele>
        <time>2016-03-28T08:36:47Z</time>
      </trkpt>
      <trkpt lat="43.18385" lon="5.66706">
        <ele>30.2</ele>
        <time>2016-03-28T08:36:48Z</time>
      </trkpt>
      <trkpt lat="43.18388" lon="5.66702">
        <ele>30</ele>
        <time>2016-03-28T08:36:49Z</time>
      </trkpt>
      <trkpt lat="43.1839" lon="5.66695">
        <ele>29.6</ele>
        <time>2016-03-28T08:36:50Z</time>
      </trkpt>
      <trkpt lat="43.1839" lon="5.66689">
        <ele>29.2</ele>
        <time>2016-03-28T08:36:51Z</time>
      </trkpt>
      <trkpt lat="43.18393" lon="5.66681">
        <ele>28.8</ele>
        <time>2016-03-28T08:36:52Z</time>
      </trkpt>
      <trkpt lat="43.18395" lon="5.66674">
        <ele>28.3</ele>
        <time>2016-03-28T08:36:53Z</time>
      </trkpt>
      <trkpt lat="43.18395" lon="5.66667">
        <ele>27.9</ele>
        <time>2016-03-28T08:36:54Z</time>
      </trkpt>
      <trkpt lat="43.18397" lon="5.66659">
        <ele>27.4</ele>
        <time>2016-03-28T08:36:55Z</time>
      </trkpt>
      <trkpt lat="43.184" lon="5.6665">
        <ele>26.9</ele>
        <time>2016-03-28T08:36:56Z</time>
      </trkpt>
      <trkpt lat="43.18403" lon="5.66642">
        <ele>26.5</ele>
        <time>2016-03-28T08:36:57Z</time>
      </trkpt>
      <trkpt lat="43.18408" lon="5.66634">
        <ele>26.2</ele>
        <time>2016-03-28T08:36:58Z</time>
      </trkpt>
      <trkpt lat="43.1841" lon="5.66625">
        <ele>25.7</ele>
        <time>2016-03-28T08:36:59Z</time>
      </trkpt>
      <trkpt lat="43.18413" lon="5.66616">
        <ele>24.9</ele>
        <time>2016-03-28T08:37:00Z</time>
      </trkpt>
      <trkpt lat="43.18416" lon="5.66608">
        <ele>24.2</ele>
        <time>2016-03-28T08:37:01Z</time>
      </trkpt>
      <trkpt lat="43.18418" lon="5.66598">
        <ele>23.2</ele>
        <time>2016-03-28T08:37:02Z</time>
      </trkpt>
      <trkpt lat="43.18419" lon="5.66588">
        <ele>22.3</ele>
        <time>2016-03-28T08:37:03Z</time>
      </trkpt>
      <trkpt lat="43.18422" lon="5.66578">
        <ele>21.4</ele>
        <time>2016-03-28T08:37:04Z</time>
      </trkpt>
      <trkpt lat="43.18425" lon="5.66567">
        <ele>20.4</ele>
        <time>2016-03-28T08:37:05Z</time>
      </trkpt>
      <trkpt lat="43.18426" lon="5.66557">
        <ele>19.5</ele>
        <time>2016-03-28T08:37:06Z</time>
      </trkpt>
      <trkpt lat="43.18429" lon="5.66548">
        <ele>18.6</ele>
        <time>2016-03-28T08:37:07Z</time>
      </trkpt>
      <trkpt lat="43.18433" lon="5.66539">
        <ele>17.9</ele>
        <time>2016-03-28T08:37:08Z</time>
      </trkpt>
      <trkpt lat="43.18436" lon="5.66527">
        <ele>17.6</ele>
        <time>2016-03-28T08:37:09Z</time>
      </trkpt>
      <trkpt lat="43.1844" lon="5.66515">
        <ele>17.1</ele>
        <time>2016-03-28T08:37:10Z</time>
      </trkpt>
      <trkpt lat="43.18442" lon="5.66505">
        <ele>16.7</ele>
        <time>2016-03-28T08:37:11Z</time>
      </trkpt>
      <trkpt lat="43.18446" lon="5.66492">
        <ele>16.3</ele>
        <time>2016-03-28T08:37:12Z</time>
      </trkpt>
      <trkpt lat="43.1845" lon="5.66479">
        <ele>15.7</ele>
        <time>2016-03-28T08:37:13Z</time>
      </trkpt>
      <trkpt lat="43.18454" lon="5.66467">
        <ele>15.3</ele>
        <time>2016-03-28T08:37:14Z</time>
      </trkpt>
      <trkpt lat="43.18459" lon="5.66451">
        <ele>15.1</ele>
        <time>2016-03-28T08:37:15Z</time>
      </trkpt>
      <trkpt lat="43.18462" lon="5.66438">
        <ele>15.3</ele>
        <time>2016-03-28T08:37:16Z</time>
      </trkpt>
      <trkpt lat="43.18465" lon="5.66425">
        <ele>15.5</ele>
        <time>2016-03-28T08:37:17Z</time>
      </trkpt>
      <trkpt lat="43.18468" lon="5.66412">
        <ele>15.8</ele>
        <time>2016-03-28T08:37:18Z</time>
      </trkpt>
      <trkpt lat="43.18472" lon="5.664">
        <ele>16.1</ele>
        <time>2016-03-28T08:37:19Z</time>
      </trkpt>
      <trkpt lat="43.18475" lon="5.66387">
        <ele>16.4</ele>
        <time>2016-03-28T08:37:20Z</time>
      </trkpt>
      <trkpt lat="43.18479" lon="5.66373">
        <ele>16.7</ele>
        <time>2016-03-28T08:37:21Z</time>
      </trkpt>
      <trkpt lat="43.18482" lon="5.66359">
        <ele>16.3</ele>
        <time>2016-03-28T08:37:22Z</time>
      </trkpt>
      <trkpt lat="43.18487" lon="5.66346">
        <ele>16</ele>
        <time>2016-03-28T08:37:23Z</time>
      </trkpt>
      <trkpt lat="43.18492" lon="5.66332">
        <ele>15.8</ele>
        <time>2016-03-28T08:37:24Z</time>
      </trkpt>
      <trkpt lat="43.18497" lon="5.66316">
        <ele>15.5</ele>
        <time>2016-03-28T08:37:25Z</time>
      </trkpt>
      <trkpt lat="43.185" lon="5.66301">
        <ele>15.3</ele>
        <time>2016-03-28T08:37:26Z</time>
      </trkpt>
      <trkpt lat="43.18506" lon="5.66286">
        <ele>15.8</ele>
        <time>2016-03-28T08:37:27Z</time>
      </trkpt>
      <trkpt lat="43.18508" lon="5.66271">
        <ele>16.9</ele>
        <time>2016-03-28T08:37:28Z</time>
      </trkpt>
      <trkpt lat="43.18512" lon="5.66257">
        <ele>18</ele>
        <time>2016-03-28T08:37:29Z</time>
      </trkpt>
      <trkpt lat="43.18516" lon="5.66241">
        <ele>19.1</ele>
        <time>2016-03-28T08:37:30Z</time>
      </trkpt>
      <trkpt lat="43.18519" lon="5.66225">
        <ele>20.1</ele>
        <time>2016-03-28T08:37:31Z</time>
      </trkpt>
      <trkpt lat="43.18524" lon="5.66211">
        <ele>20.9</ele>
        <time>2016-03-28T08:37:32Z</time>
      </trkpt>
      <trkpt lat="43.18527" lon="5.66197">
        <ele>21.9</ele>
        <time>2016-03-28T08:37:33Z</time>
      </trkpt>
      <trkpt lat="43.1853" lon="5.66183">
        <ele>23.2</ele>
        <time>2016-03-28T08:37:34Z</time>
      </trkpt>
      <trkpt lat="43.18534" lon="5.6617">
        <ele>24.3</ele>
        <time>2016-03-28T08:37:35Z</time>
      </trkpt>
      <trkpt lat="43.18538" lon="5.66156">
        <ele>25.4</ele>
        <time>2016-03-28T08:37:36Z</time>
      </trkpt>
      <trkpt lat="43.18543" lon="5.66142">
        <ele>26.4</ele>
        <time>2016-03-28T08:37:37Z</time>
      </trkpt>
      <trkpt lat="43.18547" lon="5.66129">
        <ele>27.1</ele>
        <time>2016-03-28T08:37:38Z</time>
      </trkpt>
      <trkpt lat="43.18552" lon="5.66116">
        <ele>26.8</ele>
        <time>2016-03-28T08:37:39Z</time>
      </trkpt>
      <trkpt lat="43.18556" lon="5.66103">
        <ele>26.3</ele>
        <time>2016-03-28T08:37:40Z</time>
      </trkpt>
      <trkpt lat="43.18561" lon="5.66092">
        <ele>25.8</ele>
        <time>2016-03-28T08:37:41Z</time>
      </trkpt>
      <trkpt lat="43.18566" lon="5.66081">
        <ele>25.3</ele>
        <time>2016-03-28T08:37:42Z</time>
      </trkpt>
      <trkpt lat="43.1857" lon="5.6607">
        <ele>25</ele>
        <time>2016-03-28T08:37:43Z</time>
      </trkpt>
      <trkpt lat="43.18573" lon="5.66059">
        <ele>24.7</ele>
        <time>2016-03-28T08:37:44Z</time>
      </trkpt>
      <trkpt lat="43.18576" lon="5.66049">
        <ele>24.5</ele>
        <time>2016-03-28T08:37:45Z</time>
      </trkpt>
      <trkpt lat="43.18579" lon="5.66039">
        <ele>24.5</ele>
        <time>2016-03-28T08:37:46Z</time>
      </trkpt>
      <trkpt lat="43.18579" lon="5.66031">
        <ele>24.9</ele>
        <time>2016-03-28T08:37:47Z</time>
      </trkpt>
      <trkpt lat="43.18582" lon="5.66021">
        <ele>25.3</ele>
        <time>2016-03-28T08:37:48Z</time>
      </trkpt>
      <trkpt lat="43.18586" lon="5.66011">
        <ele>25.7</ele>
        <time>2016-03-28T08:37:49Z</time>
      </trkpt>
      <trkpt lat="43.18589" lon="5.66002">
        <ele>26.1</ele>
        <time>2016-03-28T08:37:50Z</time>
      </trkpt>
      <trkpt lat="43.18592" lon="5.65989">
        <ele>26.7</ele>
        <time>2016-03-28T08:37:51Z</time>
      </trkpt>
      <trkpt lat="43.18596" lon="5.6598">
        <ele>27</ele>
        <time>2016-03-28T08:37:52Z</time>
      </trkpt>
      <trkpt lat="43.18599" lon="5.6597">
        <ele>27.5</ele>
        <time>2016-03-28T08:37:53Z</time>
      </trkpt>
      <trkpt lat="43.18602" lon="5.65959">
        <ele>28</ele>
        <time>2016-03-28T08:37:54Z</time>
      </trkpt>
      <trkpt lat="43.18605" lon="5.65948">
        <ele>28.3</ele>
        <time>2016-03-28T08:37:55Z</time>
      </trkpt>
      <trkpt lat="43.18608" lon="5.65938">
        <ele>28.6</ele>
        <time>2016-03-28T08:37:56Z</time>
      </trkpt>
      <trkpt lat="43.1861" lon="5.65931">
        <ele>28.8</ele>
        <time>2016-03-28T08:37:57Z</time>
      </trkpt>
      <trkpt lat="43.18613" lon="5.65922">
        <ele>29.1</ele>
        <time>2016-03-28T08:37:58Z</time>
      </trkpt>
      <trkpt lat="43.18613" lon="5.65916">
        <ele>29.3</ele>
        <time>2016-03-28T08:37:59Z</time>
      </trkpt>
      <trkpt lat="43.18616" lon="5.65907">
        <ele>29.6</ele>
        <time>2016-03-28T08:38:00Z</time>
      </trkpt>
      <trkpt lat="43.18617" lon="5.65902">
        <ele>29.8</ele>
        <time>2016-03-28T08:38:01Z</time>
      </trkpt>
      <trkpt lat="43.18619" lon="5.65893">
        <ele>30.2</ele>
        <time>2016-03-28T08:38:02Z</time>
      </trkpt>
      <trkpt lat="43.18622" lon="5.65886">
        <ele>30.5</ele>
        <time>2016-03-28T08:38:03Z</time>
      </trkpt>
      <trkpt lat="43.18624" lon="5.65879">
        <ele>30.8</ele>
        <time>2016-03-28T08:38:04Z</time>
      </trkpt>
      <trkpt lat="43.18627" lon="5.65871">
        <ele>30.6</ele>
        <time>2016-03-28T08:38:05Z</time>
      </trkpt>
      <trkpt lat="43.18629" lon="5.65863">
        <ele>30.2</ele>
        <time>2016-03-28T08:38:06Z</time>
      </trkpt>
      <trkpt lat="43.18633" lon="5.65854">
        <ele>29.5</ele>
        <time>2016-03-28T08:38:07Z</time>
      </trkpt>
      <trkpt lat="43.18637" lon="5.65845">
        <ele>28.9</ele>
        <time>2016-03-28T08:38:08Z</time>
      </trkpt>
      <trkpt lat="43.1864" lon="5.65838">
        <ele>28.6</ele>
        <time>2016-03-28T08:38:09Z</time>
      </trkpt>
      <trkpt lat="43.18642" lon="5.6583">
        <ele>28.2</ele>
        <time>2016-03-28T08:38:10Z</time>
      </trkpt>
      <trkpt lat="43.18645" lon="5.65821">
        <ele>27.7</ele>
        <time>2016-03-28T08:38:11Z</time>
      </trkpt>
      <trkpt lat="43.18647" lon="5.65813">
        <ele>27.4</ele>
        <time>2016-03-28T08:38:12Z</time>
      </trkpt>
      <trkpt lat="43.18647" lon="5.65805">
        <ele>27.2</ele>
        <time>2016-03-28T08:38:13Z</time>
      </trkpt>
      <trkpt lat="43.1865" lon="5.65798">
        <ele>26.9</ele>
        <time>2016-03-28T08:38:14Z</time>
      </trkpt>
      <trkpt lat="43.18652" lon="5.6579">
        <ele>26.5</ele>
        <time>2016-03-28T08:38:15Z</time>
      </trkpt>
      <trkpt lat="43.18654" lon="5.65782">
        <ele>25.9</ele>
        <time>2016-03-28T08:38:16Z</time>
      </trkpt>
      <trkpt lat="43.18656" lon="5.65775">
        <ele>25.4</ele>
        <time>2016-03-28T08:38:17Z</time>
      </trkpt>
      <trkpt lat="43.1866" lon="5.65768">
        <ele>24.9</ele>
        <time>2016-03-28T08:38:18Z</time>
      </trkpt>
      <trkpt lat="43.18662" lon="5.65759">
        <ele>24.4</ele>
        <time>2016-03-28T08:38:19Z</time>
      </trkpt>
      <trkpt lat="43.18665" lon="5.65751">
        <ele>24</ele>
        <time>2016-03-28T08:38:20Z</time>
      </trkpt>
      <trkpt lat="43.18669" lon="5.65742">
        <ele>23.6</ele>
        <time>2016-03-28T08:38:21Z</time>
      </trkpt>
      <trkpt lat="43.1867" lon="5.65734">
        <ele>23.2</ele>
        <time>2016-03-28T08:38:22Z</time>
      </trkpt>
      <trkpt lat="43.18672" lon="5.65727">
        <ele>23</ele>
        <time>2016-03-28T08:38:23Z</time>
      </trkpt>
      <trkpt lat="43.18674" lon="5.6572">
        <ele>22.7</ele>
        <time>2016-03-28T08:38:24Z</time>
      </trkpt>
      <trkpt lat="43.18676" lon="5.65713">
        <ele>22.5</ele>
        <time>2016-03-28T08:38:25Z</time>
      </trkpt>
      <trkpt lat="43.18678" lon="5.65704">
        <ele>22.4</ele>
        <time>2016-03-28T08:38:26Z</time>
      </trkpt>
      <trkpt lat="43.1868" lon="5.65695">
        <ele>22.5</ele>
        <time>2016-03-28T08:38:27Z</time>
      </trkpt>
      <trkpt lat="43.1868" lon="5.65686">
        <ele>22.5</ele>
        <time>2016-03-28T08:38:28Z</time>
      </trkpt>
      <trkpt lat="43.18682" lon="5.65678">
        <ele>22.6</ele>
        <time>2016-03-28T08:38:29Z</time>
      </trkpt>
      <trkpt lat="43.18683" lon="5.6567">
        <ele>22.7</ele>
        <time>2016-03-28T08:38:30Z</time>
      </trkpt>
      <trkpt lat="43.18683" lon="5.65661">
        <ele>22.7</ele>
        <time>2016-03-28T08:38:31Z</time>
      </trkpt>
      <trkpt lat="43.18684" lon="5.65653">
        <ele>22.8</ele>
        <time>2016-03-28T08:38:32Z</time>
      </trkpt>
      <trkpt lat="43.18684" lon="5.65644">
        <ele>22.8</ele>
        <time>2016-03-28T08:38:33Z</time>
      </trkpt>
      <trkpt lat="43.18684" lon="5.65636">
        <ele>22.8</ele>
        <time>2016-03-28T08:38:34Z</time>
      </trkpt>
      <trkpt lat="43.18684" lon="5.65624">
        <ele>22.7</ele>
        <time>2016-03-28T08:38:35Z</time>
      </trkpt>
      <trkpt lat="43.18685" lon="5.65615">
        <ele>22.7</ele>
        <time>2016-03-28T08:38:36Z</time>
      </trkpt>
      <trkpt lat="43.18686" lon="5.65606">
        <ele>22.9</ele>
        <time>2016-03-28T08:38:37Z</time>
      </trkpt>
      <trkpt lat="43.18689" lon="5.65593">
        <ele>23.2</ele>
        <time>2016-03-28T08:38:38Z</time>
      </trkpt>
      <trkpt lat="43.18689" lon="5.65585">
        <ele>23.1</ele>
        <time>2016-03-28T08:38:39Z</time>
      </trkpt>
      <trkpt lat="43.1869" lon="5.65576">
        <ele>23.2</ele>
        <time>2016-03-28T08:38:40Z</time>
      </trkpt>
      <trkpt lat="43.1869" lon="5.65568">
        <ele>23.2</ele>
        <time>2016-03-28T08:38:41Z</time>
      </trkpt>
      <trkpt lat="43.18692" lon="5.65558">
        <ele>23.5</ele>
        <time>2016-03-28T08:38:42Z</time>
      </trkpt>
      <trkpt lat="43.18694" lon="5.65547">
        <ele>23.8</ele>
        <time>2016-03-28T08:38:43Z</time>
      </trkpt>
      <trkpt lat="43.18694" lon="5.65538">
        <ele>23.7</ele>
        <time>2016-03-28T08:38:44Z</time>
      </trkpt>
      <trkpt lat="43.18694" lon="5.6553">
        <ele>23.1</ele>
        <time>2016-03-28T08:38:45Z</time>
      </trkpt>
      <trkpt lat="43.18695" lon="5.65521">
        <ele>22.6</ele>
        <time>2016-03-28T08:38:46Z</time>
      </trkpt>
      <trkpt lat="43.18695" lon="5.65513">
        <ele>22</ele>
        <time>2016-03-28T08:38:47Z</time>
      </trkpt>
      <trkpt lat="43.18695" lon="5.65505">
        <ele>21.4</ele>
        <time>2016-03-28T08:38:48Z</time>
      </trkpt>
      <trkpt lat="43.18695" lon="5.65497">
        <ele>20.8</ele>
        <time>2016-03-28T08:38:49Z</time>
      </trkpt>
      <trkpt lat="43.18695" lon="5.65489">
        <ele>20.4</ele>
        <time>2016-03-28T08:38:50Z</time>
      </trkpt>
      <trkpt lat="43.18695" lon="5.65482">
        <ele>19.8</ele>
        <time>2016-03-28T08:38:51Z</time>
      </trkpt>
      <trkpt lat="43.18697" lon="5.65472">
        <ele>19.6</ele>
        <time>2016-03-28T08:38:52Z</time>
      </trkpt>
      <trkpt lat="43.18699" lon="5.65463">
        <ele>19.3</ele>
        <time>2016-03-28T08:38:53Z</time>
      </trkpt>
      <trkpt lat="43.18702" lon="5.65455">
        <ele>29.5</ele>
        <time>2016-03-28T08:38:54Z</time>
      </trkpt>
      <trkpt lat="43.18705" lon="5.65447">
        <ele>28.9</ele>
        <time>2016-03-28T08:38:55Z</time>
      </trkpt>
      <trkpt lat="43.18707" lon="5.65439">
        <ele>28.1</ele>
        <time>2016-03-28T08:38:56Z</time>
      </trkpt>
      <trkpt lat="43.18709" lon="5.6543">
        <ele>17.1</ele>
        <time>2016-03-28T08:38:57Z</time>
      </trkpt>
      <trkpt lat="43.18712" lon="5.65424">
        <ele>16.6</ele>
        <time>2016-03-28T08:38:58Z</time>
      </trkpt>
      <trkpt lat="43.18713" lon="5.65416">
        <ele>15.6</ele>
        <time>2016-03-28T08:38:59Z</time>
      </trkpt>
      <trkpt lat="43.18716" lon="5.65408">
        <ele>14.8</ele>
        <time>2016-03-28T08:39:00Z</time>
      </trkpt>
      <trkpt lat="43.18719" lon="5.65399">
        <ele>14</ele>
        <time>2016-03-28T08:39:01Z</time>
      </trkpt>
      <trkpt lat="43.18726" lon="5.6539">
        <ele>13.7</ele>
        <time>2016-03-28T08:39:02Z</time>
      </trkpt>
      <trkpt lat="43.18731" lon="5.65382">
        <ele>13.3</ele>
        <time>2016-03-28T08:39:03Z</time>
      </trkpt>
      <trkpt lat="43.18735" lon="5.65374">
        <ele>23.6</ele>
        <time>2016-03-28T08:39:04Z</time>
      </trkpt>
      <trkpt lat="43.1874" lon="5.65365">
        <ele>22</ele>
        <time>2016-03-28T08:39:05Z</time>
      </trkpt>
      <trkpt lat="43.18745" lon="5.65357">
        <ele>21.1</ele>
        <time>2016-03-28T08:39:06Z</time>
      </trkpt>
      <trkpt lat="43.18753" lon="5.6535">
        <ele>20.7</ele>
        <time>2016-03-28T08:39:07Z</time>
      </trkpt>
      <trkpt lat="43.18759" lon="5.65342">
        <ele>20</ele>
        <time>2016-03-28T08:39:08Z</time>
      </trkpt>
      <trkpt lat="43.18766" lon="5.65336">
        <ele>19.9</ele>
        <time>2016-03-28T08:39:09Z</time>
      </trkpt>
      <trkpt lat="43.18773" lon="5.65328">
        <ele>20.5</ele>
        <time>2016-03-28T08:39:10Z</time>
      </trkpt>
      <trkpt lat="43.1878" lon="5.65319">
        <ele>20.6</ele>
        <time>2016-03-28T08:39:11Z</time>
      </trkpt>
      <trkpt lat="43.18787" lon="5.6531">
        <ele>20.9</ele>
        <time>2016-03-28T08:39:12Z</time>
      </trkpt>
      <trkpt lat="43.18794" lon="5.65301">
        <ele>8.3</ele>
        <time>2016-03-28T08:39:13Z</time>
      </trkpt>
      <trkpt lat="43.18802" lon="5.65292">
        <ele>8.2</ele>
        <time>2016-03-28T08:39:14Z</time>
      </trkpt>
      <trkpt lat="43.18808" lon="5.65282">
        <ele>9.3</ele>
        <time>2016-03-28T08:39:15Z</time>
      </trkpt>
      <trkpt lat="43.18815" lon="5.65274">
        <ele>10.5</ele>
        <time>2016-03-28T08:39:16Z</time>
      </trkpt>
      <trkpt lat="43.18823" lon="5.65265">
        <ele>11.7</ele>
        <time>2016-03-28T08:39:17Z</time>
      </trkpt>
      <trkpt lat="43.18831" lon="5.65257">
        <ele>12.7</ele>
        <time>2016-03-28T08:39:18Z</time>
      </trkpt>
      <trkpt lat="43.18839" lon="5.65251">
        <ele>13.7</ele>
        <time>2016-03-28T08:39:19Z</time>
      </trkpt>
      <trkpt lat="43.18847" lon="5.65241">
        <ele>14.3</ele>
        <time>2016-03-28T08:39:20Z</time>
      </trkpt>
      <trkpt lat="43.18856" lon="5.65235">
        <ele>15.1</ele>
        <time>2016-03-28T08:39:21Z</time>
      </trkpt>
      <trkpt lat="43.18865" lon="5.65224">
        <ele>15.4</ele>
        <time>2016-03-28T08:39:22Z</time>
      </trkpt>
      <trkpt lat="43.18872" lon="5.65213">
        <ele>15.2</ele>
        <time>2016-03-28T08:39:23Z</time>
      </trkpt>
      <trkpt lat="43.18881" lon="5.65203">
        <ele>14.9</ele>
        <time>2016-03-28T08:39:24Z</time>
      </trkpt>
      <trkpt lat="43.18889" lon="5.65194">
        <ele>14.7</ele>
        <time>2016-03-28T08:39:25Z</time>
      </trkpt>
      <trkpt lat="43.18898" lon="5.65183">
        <ele>14.2</ele>
        <time>2016-03-28T08:39:26Z</time>
      </trkpt>
      <trkpt lat="43.18906" lon="5.6517">
        <ele>13.4</ele>
        <time>2016-03-28T08:39:27Z</time>
      </trkpt>
      <trkpt lat="43.18913" lon="5.65158">
        <ele>12.5</ele>
        <time>2016-03-28T08:39:28Z</time>
      </trkpt>
      <trkpt lat="43.18919" lon="5.65145">
        <ele>11.4</ele>
        <time>2016-03-28T08:39:29Z</time>
      </trkpt>
      <trkpt lat="43.18925" lon="5.65131">
        <ele>10.2</ele>
        <time>2016-03-28T08:39:30Z</time>
      </trkpt>
      <trkpt lat="43.18931" lon="5.65117">
        <ele>9.5</ele>
        <time>2016-03-28T08:39:31Z</time>
      </trkpt>
      <trkpt lat="43.18937" lon="5.65103">
        <ele>9.2</ele>
        <time>2016-03-28T08:39:32Z</time>
      </trkpt>
      <trkpt lat="43.18941" lon="5.6509">
        <ele>8.9</ele>
        <time>2016-03-28T08:39:33Z</time>
      </trkpt>
      <trkpt lat="43.18946" lon="5.65077">
        <ele>8.6</ele>
        <time>2016-03-28T08:39:34Z</time>
      </trkpt>
      <trkpt lat="43.1895" lon="5.65062">
        <ele>8.3</ele>
        <time>2016-03-28T08:39:35Z</time>
      </trkpt>
      <trkpt lat="43.18954" lon="5.65047">
        <ele>8</ele>
        <time>2016-03-28T08:39:36Z</time>
      </trkpt>
      <trkpt lat="43.18955" lon="5.65034">
        <ele>7.9</ele>
        <time>2016-03-28T08:39:37Z</time>
      </trkpt>
      <trkpt lat="43.18957" lon="5.65022">
        <ele>8</ele>
        <time>2016-03-28T08:39:38Z</time>
      </trkpt>
      <trkpt lat="43.1896" lon="5.65008">
        <ele>8.1</ele>
        <time>2016-03-28T08:39:39Z</time>
      </trkpt>
      <trkpt lat="43.18962" lon="5.64994">
        <ele>8.2</ele>
        <time>2016-03-28T08:39:40Z</time>
      </trkpt>
      <trkpt lat="43.18965" lon="5.64981">
        <ele>8.4</ele>
        <time>2016-03-28T08:39:41Z</time>
      </trkpt>
      <trkpt lat="43.18966" lon="5.64968">
        <ele>8.5</ele>
        <time>2016-03-28T08:39:42Z</time>
      </trkpt>
      <trkpt lat="43.18967" lon="5.64955">
        <ele>8.8</ele>
        <time>2016-03-28T08:39:43Z</time>
      </trkpt>
      <trkpt lat="43.18967" lon="5.6494">
        <ele>9.8</ele>
        <time>2016-03-28T08:39:44Z</time>
      </trkpt>
      <trkpt lat="43.18968" lon="5.64928">
        <ele>10.7</ele>
        <time>2016-03-28T08:39:45Z</time>
      </trkpt>
      <trkpt lat="43.18968" lon="5.64918">
        <ele>11.5</ele>
        <time>2016-03-28T08:39:46Z</time>
      </trkpt>
      <trkpt lat="43.18967" lon="5.64908">
        <ele>12.1</ele>
        <time>2016-03-28T08:39:47Z</time>
      </trkpt>
      <trkpt lat="43.18967" lon="5.64896">
        <ele>12.9</ele>
        <time>2016-03-28T08:39:48Z</time>
      </trkpt>
      <trkpt lat="43.18965" lon="5.64882">
        <ele>13.8</ele>
        <time>2016-03-28T08:39:49Z</time>
      </trkpt>
      <trkpt lat="43.18963" lon="5.64871">
        <ele>14.2</ele>
        <time>2016-03-28T08:39:50Z</time>
      </trkpt>
      <trkpt lat="43.18961" lon="5.6486">
        <ele>14.2</ele>
        <time>2016-03-28T08:39:51Z</time>
      </trkpt>
      <trkpt lat="43.18961" lon="5.64848">
        <ele>14.1</ele>
        <time>2016-03-28T08:39:52Z</time>
      </trkpt>
      <trkpt lat="43.1896" lon="5.64838">
        <ele>14.1</ele>
        <time>2016-03-28T08:39:53Z</time>
      </trkpt>
      <trkpt lat="43.18958" lon="5.64826">
        <ele>14</ele>
        <time>2016-03-28T08:39:54Z</time>
      </trkpt>
      <trkpt lat="43.18957" lon="5.64815">
        <ele>13.9</ele>
        <time>2016-03-28T08:39:55Z</time>
      </trkpt>
      <trkpt lat="43.18955" lon="5.64804">
        <ele>13.7</ele>
        <time>2016-03-28T08:39:56Z</time>
      </trkpt>
      <trkpt lat="43.18954" lon="5.64793">
        <ele>13.6</ele>
        <time>2016-03-28T08:39:57Z</time>
      </trkpt>
      <trkpt lat="43.18952" lon="5.64783">
        <ele>13.4</ele>
        <time>2016-03-28T08:39:58Z</time>
      </trkpt>
      <trkpt lat="43.18951" lon="5.64772">
        <ele>13.4</ele>
        <time>2016-03-28T08:39:59Z</time>
      </trkpt>
      <trkpt lat="43.18949" lon="5.64761">
        <ele>13.3</ele>
        <time>2016-03-28T08:40:00Z</time>
      </trkpt>
      <trkpt lat="43.18947" lon="5.6475">
        <ele>13.3</ele>
        <time>2016-03-28T08:40:01Z</time>
      </trkpt>
      <trkpt lat="43.18946" lon="5.6474">
        <ele>13.3</ele>
        <time>2016-03-28T08:40:02Z</time>
      </trkpt>
      <trkpt lat="43.18945" lon="5.64728">
        <ele>13.3</ele>
        <time>2016-03-28T08:40:03Z</time>
      </trkpt>
      <trkpt lat="43.18943" lon="5.64718">
        <ele>13.3</ele>
        <time>2016-03-28T08:40:04Z</time>
      </trkpt>
      <trkpt lat="43.18942" lon="5.64707">
        <ele>13.4</ele>
        <time>2016-03-28T08:40:05Z</time>
      </trkpt>
      <trkpt lat="43.1894" lon="5.64697">
        <ele>13.3</ele>
        <time>2016-03-28T08:40:06Z</time>
      </trkpt>
      <trkpt lat="43.1894" lon="5.64686">
        <ele>13.2</ele>
        <time>2016-03-28T08:40:07Z</time>
      </trkpt>
      <trkpt lat="43.1894" lon="5.64676">
        <ele>13.1</ele>
        <time>2016-03-28T08:40:08Z</time>
      </trkpt>
      <trkpt lat="43.18939" lon="5.64665">
        <ele>13</ele>
        <time>2016-03-28T08:40:09Z</time>
      </trkpt>
      <trkpt lat="43.18938" lon="5.64654">
        <ele>12.9</ele>
        <time>2016-03-28T08:40:10Z</time>
      </trkpt>
      <trkpt lat="43.18938" lon="5.64644">
        <ele>12.9</ele>
        <time>2016-03-28T08:40:11Z</time>
      </trkpt>
      <trkpt lat="43.18939" lon="5.64632">
        <ele>12.9</ele>
        <time>2016-03-28T08:40:12Z</time>
      </trkpt>
      <trkpt lat="43.18938" lon="5.64622">
        <ele>12.8</ele>
        <time>2016-03-28T08:40:13Z</time>
      </trkpt>
      <trkpt lat="43.18939" lon="5.64611">
        <ele>12.8</ele>
        <time>2016-03-28T08:40:14Z</time>
      </trkpt>
      <trkpt lat="43.1894" lon="5.64601">
        <ele>12.8</ele>
        <time>2016-03-28T08:40:15Z</time>
      </trkpt>
      <trkpt lat="43.1894" lon="5.6459">
        <ele>12.8</ele>
        <time>2016-03-28T08:40:16Z</time>
      </trkpt>
      <trkpt lat="43.18941" lon="5.64579">
        <ele>12.8</ele>
        <time>2016-03-28T08:40:17Z</time>
      </trkpt>
      <trkpt lat="43.18941" lon="5.64568">
        <ele>12.8</ele>
        <time>2016-03-28T08:40:18Z</time>
      </trkpt>
      <trkpt lat="43.18941" lon="5.64557">
        <ele>12.8</ele>
        <time>2016-03-28T08:40:19Z</time>
      </trkpt>
      <trkpt lat="43.18942" lon="5.64546">
        <ele>12.9</ele>
        <time>2016-03-28T08:40:20Z</time>
      </trkpt>
      <trkpt lat="43.18943" lon="5.64536">
        <ele>12.6</ele>
        <time>2016-03-28T08:40:21Z</time>
      </trkpt>
      <trkpt lat="43.18943" lon="5.64525">
        <ele>12</ele>
        <time>2016-03-28T08:40:22Z</time>
      </trkpt>
      <trkpt lat="43.18944" lon="5.64514">
        <ele>11.5</ele>
        <time>2016-03-28T08:40:23Z</time>
      </trkpt>
      <trkpt lat="43.18945" lon="5.64503">
        <ele>11</ele>
        <time>2016-03-28T08:40:24Z</time>
      </trkpt>
      <trkpt lat="43.18946" lon="5.6449">
        <ele>10.4</ele>
        <time>2016-03-28T08:40:25Z</time>
      </trkpt>
      <trkpt lat="43.18948" lon="5.6448">
        <ele>9.9</ele>
        <time>2016-03-28T08:40:26Z</time>
      </trkpt>
      <trkpt lat="43.18951" lon="5.64468">
        <ele>9.4</ele>
        <time>2016-03-28T08:40:27Z</time>
      </trkpt>
      <trkpt lat="43.18953" lon="5.64459">
        <ele>8.9</ele>
        <time>2016-03-28T08:40:28Z</time>
      </trkpt>
      <trkpt lat="43.18956" lon="5.64448">
        <ele>14.8</ele>
        <time>2016-03-28T08:40:29Z</time>
      </trkpt>
      <trkpt lat="43.18959" lon="5.64438">
        <ele>7.8</ele>
        <time>2016-03-28T08:40:30Z</time>
      </trkpt>
      <trkpt lat="43.1896" lon="5.64428">
        <ele>7.4</ele>
        <time>2016-03-28T08:40:31Z</time>
      </trkpt>
      <trkpt lat="43.18966" lon="5.64417">
        <ele>7.5</ele>
        <time>2016-03-28T08:40:32Z</time>
      </trkpt>
      <trkpt lat="43.18971" lon="5.64406">
        <ele>7.5</ele>
        <time>2016-03-28T08:40:33Z</time>
      </trkpt>
      <trkpt lat="43.18974" lon="5.64397">
        <ele>7.4</ele>
        <time>2016-03-28T08:40:34Z</time>
      </trkpt>
      <trkpt lat="43.18978" lon="5.64387">
        <ele>7.3</ele>
        <time>2016-03-28T08:40:35Z</time>
      </trkpt>
      <trkpt lat="43.18982" lon="5.64378">
        <ele>7.3</ele>
        <time>2016-03-28T08:40:36Z</time>
      </trkpt>
      <trkpt lat="43.18985" lon="5.6437">
        <ele>7.4</ele>
        <time>2016-03-28T08:40:37Z</time>
      </trkpt>
      <trkpt lat="43.18988" lon="5.6436">
        <ele>7.6</ele>
        <time>2016-03-28T08:40:38Z</time>
      </trkpt>
      <trkpt lat="43.18991" lon="5.64356">
        <ele>7.8</ele>
        <time>2016-03-28T08:40:39Z</time>
      </trkpt>
      <trkpt lat="43.18997" lon="5.64341">
        <ele>7.9</ele>
        <time>2016-03-28T08:40:40Z</time>
      </trkpt>
      <trkpt lat="43.19" lon="5.64331">
        <ele>7.9</ele>
        <time>2016-03-28T08:40:41Z</time>
      </trkpt>
      <trkpt lat="43.19004" lon="5.64321">
        <ele>7.9</ele>
        <time>2016-03-28T08:40:42Z</time>
      </trkpt>
      <trkpt lat="43.19007" lon="5.64311">
        <ele>7.8</ele>
        <time>2016-03-28T08:40:43Z</time>
      </trkpt>
      <trkpt lat="43.19012" lon="5.64304">
        <ele>7.8</ele>
        <time>2016-03-28T08:40:44Z</time>
      </trkpt>
      <trkpt lat="43.19016" lon="5.64294">
        <ele>7.6</ele>
        <time>2016-03-28T08:40:45Z</time>
      </trkpt>
      <trkpt lat="43.19019" lon="5.64287">
        <ele>7.5</ele>
        <time>2016-03-28T08:40:46Z</time>
      </trkpt>
      <trkpt lat="43.19022" lon="5.64278">
        <ele>7.5</ele>
        <time>2016-03-28T08:40:47Z</time>
      </trkpt>
      <trkpt lat="43.19025" lon="5.64268">
        <ele>7.5</ele>
        <time>2016-03-28T08:40:48Z</time>
      </trkpt>
      <trkpt lat="43.19028" lon="5.64258">
        <ele>7.4</ele>
        <time>2016-03-28T08:40:49Z</time>
      </trkpt>
      <trkpt lat="43.19031" lon="5.64248">
        <ele>7.4</ele>
        <time>2016-03-28T08:40:50Z</time>
      </trkpt>
      <trkpt lat="43.19035" lon="5.64239">
        <ele>7.4</ele>
        <time>2016-03-28T08:40:51Z</time>
      </trkpt>
      <trkpt lat="43.1904" lon="5.64228">
        <ele>7.4</ele>
        <time>2016-03-28T08:40:52Z</time>
      </trkpt>
      <trkpt lat="43.19044" lon="5.64219">
        <ele>7.6</ele>
        <time>2016-03-28T08:40:53Z</time>
      </trkpt>
      <trkpt lat="43.19049" lon="5.64209">
        <ele>8.1</ele>
        <time>2016-03-28T08:40:54Z</time>
      </trkpt>
      <trkpt lat="43.19052" lon="5.64199">
        <ele>8.5</ele>
        <time>2016-03-28T08:40:55Z</time>
      </trkpt>
      <trkpt lat="43.19055" lon="5.64187">
        <ele>8.9</ele>
        <time>2016-03-28T08:40:56Z</time>
      </trkpt>
      <trkpt lat="43.19058" lon="5.64177">
        <ele>9.3</ele>
        <time>2016-03-28T08:40:57Z</time>
      </trkpt>
      <trkpt lat="43.19061" lon="5.64167">
        <ele>9.6</ele>
        <time>2016-03-28T08:40:58Z</time>
      </trkpt>
      <trkpt lat="43.19065" lon="5.64156">
        <ele>9.9</ele>
        <time>2016-03-28T08:40:59Z</time>
      </trkpt>
      <trkpt lat="43.19067" lon="5.64149">
        <ele>10.1</ele>
        <time>2016-03-28T08:41:00Z</time>
      </trkpt>
      <trkpt lat="43.1907" lon="5.6414">
        <ele>10.2</ele>
        <time>2016-03-28T08:41:01Z</time>
      </trkpt>
      <trkpt lat="43.19072" lon="5.64129">
        <ele>10.2</ele>
        <time>2016-03-28T08:41:02Z</time>
      </trkpt>
      <trkpt lat="43.19073" lon="5.64124">
        <ele>10.3</ele>
        <time>2016-03-28T08:41:03Z</time>
      </trkpt>
      <trkpt lat="43.19074" lon="5.64117">
        <ele>10.5</ele>
        <time>2016-03-28T08:41:04Z</time>
      </trkpt>
      <trkpt lat="43.19074" lon="5.6411">
        <ele>10.8</ele>
        <time>2016-03-28T08:41:05Z</time>
      </trkpt>
      <trkpt lat="43.19074" lon="5.64105">
        <ele>10.9</ele>
        <time>2016-03-28T08:41:06Z</time>
      </trkpt>
      <trkpt lat="43.19074" lon="5.64101">
        <ele>11</ele>
        <time>2016-03-28T08:41:07Z</time>
      </trkpt>
      <trkpt lat="43.19075" lon="5.64095">
        <ele>11.3</ele>
        <time>2016-03-28T08:41:08Z</time>
      </trkpt>
      <trkpt lat="43.19075" lon="5.6409">
        <ele>11.4</ele>
        <time>2016-03-28T08:41:09Z</time>
      </trkpt>
      <trkpt lat="43.1908" lon="5.64049">
        <ele>12.7</ele>
        <time>2016-03-28T08:41:14Z</time>
      </trkpt>
      <trkpt lat="43.19082" lon="5.64037">
        <ele>12.9</ele>
        <time>2016-03-28T08:41:15Z</time>
      </trkpt>
      <trkpt lat="43.19079" lon="5.64033">
        <ele>12.7</ele>
        <time>2016-03-28T08:41:17Z</time>
      </trkpt>
      <trkpt lat="43.19078" lon="5.64011">
        <ele>12.3</ele>
        <time>2016-03-28T08:41:20Z</time>
      </trkpt>
      <trkpt lat="43.19077" lon="5.63998">
        <ele>11.9</ele>
        <time>2016-03-28T08:41:21Z</time>
      </trkpt>
      <trkpt lat="43.19075" lon="5.63988">
        <ele>11.7</ele>
        <time>2016-03-28T08:41:23Z</time>
      </trkpt>
      <trkpt lat="43.19075" lon="5.63978">
        <ele>11.4</ele>
        <time>2016-03-28T08:41:24Z</time>
      </trkpt>
      <trkpt lat="43.19074" lon="5.63969">
        <ele>11.2</ele>
        <time>2016-03-28T08:41:25Z</time>
      </trkpt>
      <trkpt lat="43.19074" lon="5.63959">
        <ele>11</ele>
        <time>2016-03-28T08:41:26Z</time>
      </trkpt>
      <trkpt lat="43.19073" lon="5.6395">
        <ele>10.8</ele>
        <time>2016-03-28T08:41:27Z</time>
      </trkpt>
      <trkpt lat="43.19072" lon="5.63941">
        <ele>10.7</ele>
        <time>2016-03-28T08:41:28Z</time>
      </trkpt>
      <trkpt lat="43.19071" lon="5.63932">
        <ele>10.5</ele>
        <time>2016-03-28T08:41:29Z</time>
      </trkpt>
      <trkpt lat="43.1907" lon="5.63922">
        <ele>10.4</ele>
        <time>2016-03-28T08:41:30Z</time>
      </trkpt>
      <trkpt lat="43.19068" lon="5.63911">
        <ele>10.2</ele>
        <time>2016-03-28T08:41:31Z</time>
      </trkpt>
      <trkpt lat="43.19068" lon="5.63901">
        <ele>10.1</ele>
        <time>2016-03-28T08:41:32Z</time>
      </trkpt>
      <trkpt lat="43.19067" lon="5.63891">
        <ele>9.9</ele>
        <time>2016-03-28T08:41:33Z</time>
      </trkpt>
      <trkpt lat="43.19065" lon="5.63881">
        <ele>9.8</ele>
        <time>2016-03-28T08:41:34Z</time>
      </trkpt>
      <trkpt lat="43.19064" lon="5.63871">
        <ele>9.5</ele>
        <time>2016-03-28T08:41:35Z</time>
      </trkpt>
      <trkpt lat="43.19062" lon="5.63861">
        <ele>9.3</ele>
        <time>2016-03-28T08:41:36Z</time>
      </trkpt>
      <trkpt lat="43.19061" lon="5.63848">
        <ele>9</ele>
        <time>2016-03-28T08:41:37Z</time>
      </trkpt>
      <trkpt lat="43.19059" lon="5.63838">
        <ele>8.7</ele>
        <time>2016-03-28T08:41:38Z</time>
      </trkpt>
      <trkpt lat="43.19057" lon="5.63827">
        <ele>8.4</ele>
        <time>2016-03-28T08:41:39Z</time>
      </trkpt>
      <trkpt lat="43.19057" lon="5.63821">
        <ele>8.2</ele>
        <time>2016-03-28T08:41:40Z</time>
      </trkpt>
      <trkpt lat="43.1905" lon="5.63788">
        <ele>7</ele>
        <time>2016-03-28T08:41:42Z</time>
      </trkpt>
      <trkpt lat="43.19048" lon="5.63777">
        <ele>6.9</ele>
        <time>2016-03-28T08:41:43Z</time>
      </trkpt>
      <trkpt lat="43.19047" lon="5.63766">
        <ele>6.9</ele>
        <time>2016-03-28T08:41:44Z</time>
      </trkpt>
      <trkpt lat="43.19045" lon="5.63756">
        <ele>6.7</ele>
        <time>2016-03-28T08:41:45Z</time>
      </trkpt>
      <trkpt lat="43.19041" lon="5.63745">
        <ele>6.5</ele>
        <time>2016-03-28T08:41:46Z</time>
      </trkpt>
      <trkpt lat="43.19038" lon="5.63735">
        <ele>6.5</ele>
        <time>2016-03-28T08:41:47Z</time>
      </trkpt>
      <trkpt lat="43.19034" lon="5.63724">
        <ele>6.4</ele>
        <time>2016-03-28T08:41:48Z</time>
      </trkpt>
      <trkpt lat="43.19031" lon="5.63715">
        <ele>6.3</ele>
        <time>2016-03-28T08:41:49Z</time>
      </trkpt>
      <trkpt lat="43.19028" lon="5.63705">
        <ele>6.4</ele>
        <time>2016-03-28T08:41:50Z</time>
      </trkpt>
      <trkpt lat="43.19024" lon="5.63695">
        <ele>6.9</ele>
        <time>2016-03-28T08:41:51Z</time>
      </trkpt>
      <trkpt lat="43.1902" lon="5.63684">
        <ele>7.3</ele>
        <time>2016-03-28T08:41:52Z</time>
      </trkpt>
      <trkpt lat="43.19017" lon="5.63674">
        <ele>7.7</ele>
        <time>2016-03-28T08:41:53Z</time>
      </trkpt>
      <trkpt lat="43.19022" lon="5.63657">
        <ele>9.2</ele>
        <time>2016-03-28T08:41:54Z</time>
      </trkpt>
      <trkpt lat="43.19018" lon="5.63647">
        <ele>9.6</ele>
        <time>2016-03-28T08:41:55Z</time>
      </trkpt>
      <trkpt lat="43.19015" lon="5.63638">
        <ele>9.9</ele>
        <time>2016-03-28T08:41:56Z</time>
      </trkpt>
      <trkpt lat="43.19011" lon="5.63629">
        <ele>10.2</ele>
        <time>2016-03-28T08:41:57Z</time>
      </trkpt>
      <trkpt lat="43.19005" lon="5.6362">
        <ele>10.1</ele>
        <time>2016-03-28T08:41:58Z</time>
      </trkpt>
      <trkpt lat="43.19001" lon="5.63611">
        <ele>9.9</ele>
        <time>2016-03-28T08:41:59Z</time>
      </trkpt>
      <trkpt lat="43.18992" lon="5.63607">
        <ele>9.2</ele>
        <time>2016-03-28T08:42:00Z</time>
      </trkpt>
      <trkpt lat="43.18988" lon="5.63598">
        <ele>9.1</ele>
        <time>2016-03-28T08:42:01Z</time>
      </trkpt>
      <trkpt lat="43.18984" lon="5.63587">
        <ele>8.9</ele>
        <time>2016-03-28T08:42:02Z</time>
      </trkpt>
      <trkpt lat="43.1898" lon="5.63577">
        <ele>8.7</ele>
        <time>2016-03-28T08:42:03Z</time>
      </trkpt>
      <trkpt lat="43.18974" lon="5.63563">
        <ele>8.4</ele>
        <time>2016-03-28T08:42:04Z</time>
      </trkpt>
      <trkpt lat="43.1897" lon="5.63553">
        <ele>8.1</ele>
        <time>2016-03-28T08:42:05Z</time>
      </trkpt>
      <trkpt lat="43.18967" lon="5.63545">
        <ele>7.9</ele>
        <time>2016-03-28T08:42:06Z</time>
      </trkpt>
      <trkpt lat="43.18964" lon="5.63536">
        <ele>7.7</ele>
        <time>2016-03-28T08:42:07Z</time>
      </trkpt>
      <trkpt lat="43.18959" lon="5.63525">
        <ele>7.5</ele>
        <time>2016-03-28T08:42:08Z</time>
      </trkpt>
      <trkpt lat="43.18955" lon="5.63515">
        <ele>8.7</ele>
        <time>2016-03-28T08:42:09Z</time>
      </trkpt>
      <trkpt lat="43.18952" lon="5.63506">
        <ele>9</ele>
        <time>2016-03-28T08:42:10Z</time>
      </trkpt>
      <trkpt lat="43.18948" lon="5.63495">
        <ele>9.3</ele>
        <time>2016-03-28T08:42:11Z</time>
      </trkpt>
      <trkpt lat="43.18944" lon="5.63487">
        <ele>9.4</ele>
        <time>2016-03-28T08:42:12Z</time>
      </trkpt>
      <trkpt lat="43.18944" lon="5.63472">
        <ele>9.9</ele>
        <time>2016-03-28T08:42:13Z</time>
      </trkpt>
      <trkpt lat="43.18941" lon="5.63464">
        <ele>9.9</ele>
        <time>2016-03-28T08:42:14Z</time>
      </trkpt>
      <trkpt lat="43.18937" lon="5.63454">
        <ele>7.6</ele>
        <time>2016-03-28T08:42:15Z</time>
      </trkpt>
      <trkpt lat="43.18934" lon="5.63445">
        <ele>7.7</ele>
        <time>2016-03-28T08:42:16Z</time>
      </trkpt>
      <trkpt lat="43.18923" lon="5.63416">
        <ele>8</ele>
        <time>2016-03-28T08:42:19Z</time>
      </trkpt>
      <trkpt lat="43.18921" lon="5.63409">
        <ele>8.1</ele>
        <time>2016-03-28T08:42:20Z</time>
      </trkpt>
      <trkpt lat="43.18919" lon="5.63398">
        <ele>8.3</ele>
        <time>2016-03-28T08:42:21Z</time>
      </trkpt>
      <trkpt lat="43.18917" lon="5.63389">
        <ele>8.5</ele>
        <time>2016-03-28T08:42:22Z</time>
      </trkpt>
      <trkpt lat="43.18915" lon="5.63382">
        <ele>8.6</ele>
        <time>2016-03-28T08:42:23Z</time>
      </trkpt>
      <trkpt lat="43.18904" lon="5.63342">
        <ele>8.5</ele>
        <time>2016-03-28T08:42:27Z</time>
      </trkpt>
      <trkpt lat="43.18903" lon="5.63327">
        <ele>8.6</ele>
        <time>2016-03-28T08:42:28Z</time>
      </trkpt>
      <trkpt lat="43.18902" lon="5.63317">
        <ele>8.6</ele>
        <time>2016-03-28T08:42:29Z</time>
      </trkpt>
      <trkpt lat="43.18902" lon="5.6331">
        <ele>8.7</ele>
        <time>2016-03-28T08:42:30Z</time>
      </trkpt>
      <trkpt lat="43.18902" lon="5.63303">
        <ele>8.8</ele>
        <time>2016-03-28T08:42:31Z</time>
      </trkpt>
      <trkpt lat="43.189" lon="5.633">
        <ele>8.7</ele>
        <time>2016-03-28T08:42:32Z</time>
      </trkpt>
      <trkpt lat="43.18899" lon="5.63288">
        <ele>8.6</ele>
        <time>2016-03-28T08:42:33Z</time>
      </trkpt>
      <trkpt lat="43.189" lon="5.63277">
        <ele>8.2</ele>
        <time>2016-03-28T08:42:34Z</time>
      </trkpt>
      <trkpt lat="43.18899" lon="5.63268">
        <ele>7.8</ele>
        <time>2016-03-28T08:42:35Z</time>
      </trkpt>
      <trkpt lat="43.18899" lon="5.63258">
        <ele>7.4</ele>
        <time>2016-03-28T08:42:36Z</time>
      </trkpt>
      <trkpt lat="43.189" lon="5.63246">
        <ele>7</ele>
        <time>2016-03-28T08:42:37Z</time>
      </trkpt>
      <trkpt lat="43.18901" lon="5.63235">
        <ele>6.6</ele>
        <time>2016-03-28T08:42:38Z</time>
      </trkpt>
      <trkpt lat="43.18901" lon="5.63226">
        <ele>6.2</ele>
        <time>2016-03-28T08:42:39Z</time>
      </trkpt>
      <trkpt lat="43.18901" lon="5.63216">
        <ele>5.9</ele>
        <time>2016-03-28T08:42:40Z</time>
      </trkpt>
      <trkpt lat="43.18901" lon="5.6321">
        <ele>5.6</ele>
        <time>2016-03-28T08:42:41Z</time>
      </trkpt>
      <trkpt lat="43.18904" lon="5.63197">
        <ele>5.8</ele>
        <time>2016-03-28T08:42:42Z</time>
      </trkpt>
      <trkpt lat="43.18904" lon="5.63187">
        <ele>6</ele>
        <time>2016-03-28T08:42:43Z</time>
      </trkpt>
      <trkpt lat="43.18905" lon="5.63177">
        <ele>6.1</ele>
        <time>2016-03-28T08:42:44Z</time>
      </trkpt>
      <trkpt lat="43.18908" lon="5.63168">
        <ele>6.3</ele>
        <time>2016-03-28T08:42:45Z</time>
      </trkpt>
      <trkpt lat="43.18911" lon="5.63157">
        <ele>6.4</ele>
        <time>2016-03-28T08:42:46Z</time>
      </trkpt>
      <trkpt lat="43.18913" lon="5.63147">
        <ele>6.5</ele>
        <time>2016-03-28T08:42:47Z</time>
      </trkpt>
      <trkpt lat="43.18915" lon="5.63137">
        <ele>6.5</ele>
        <time>2016-03-28T08:42:48Z</time>
      </trkpt>
      <trkpt lat="43.18916" lon="5.63126">
        <ele>6.5</ele>
        <time>2016-03-28T08:42:49Z</time>
      </trkpt>
      <trkpt lat="43.18918" lon="5.63116">
        <ele>7</ele>
        <time>2016-03-28T08:42:50Z</time>
      </trkpt>
      <trkpt lat="43.1892" lon="5.63106">
        <ele>7.6</ele>
        <time>2016-03-28T08:42:51Z</time>
      </trkpt>
      <trkpt lat="43.18922" lon="5.63096">
        <ele>8</ele>
        <time>2016-03-28T08:42:52Z</time>
      </trkpt>
      <trkpt lat="43.18924" lon="5.63087">
        <ele>8.5</ele>
        <time>2016-03-28T08:42:53Z</time>
      </trkpt>
      <trkpt lat="43.18925" lon="5.63077">
        <ele>8.9</ele>
        <time>2016-03-28T08:42:54Z</time>
      </trkpt>
      <trkpt lat="43.18927" lon="5.63067">
        <ele>9.3</ele>
        <time>2016-03-28T08:42:55Z</time>
      </trkpt>
      <trkpt lat="43.18929" lon="5.63056">
        <ele>9.7</ele>
        <time>2016-03-28T08:42:56Z</time>
      </trkpt>
      <trkpt lat="43.18932" lon="5.63046">
        <ele>10</ele>
        <time>2016-03-28T08:42:57Z</time>
      </trkpt>
      <trkpt lat="43.18934" lon="5.63034">
        <ele>9.9</ele>
        <time>2016-03-28T08:42:58Z</time>
      </trkpt>
      <trkpt lat="43.18936" lon="5.63024">
        <ele>9.6</ele>
        <time>2016-03-28T08:42:59Z</time>
      </trkpt>
      <trkpt lat="43.18938" lon="5.63015">
        <ele>9.4</ele>
        <time>2016-03-28T08:43:00Z</time>
      </trkpt>
      <trkpt lat="43.18939" lon="5.63004">
        <ele>9.2</ele>
        <time>2016-03-28T08:43:01Z</time>
      </trkpt>
      <trkpt lat="43.1894" lon="5.62994">
        <ele>9</ele>
        <time>2016-03-28T08:43:02Z</time>
      </trkpt>
      <trkpt lat="43.1894" lon="5.62983">
        <ele>8.9</ele>
        <time>2016-03-28T08:43:03Z</time>
      </trkpt>
      <trkpt lat="43.18942" lon="5.62972">
        <ele>8.7</ele>
        <time>2016-03-28T08:43:04Z</time>
      </trkpt>
      <trkpt lat="43.18942" lon="5.62964">
        <ele>8.6</ele>
        <time>2016-03-28T08:43:05Z</time>
      </trkpt>
      <trkpt lat="43.18943" lon="5.62954">
        <ele>8.6</ele>
        <time>2016-03-28T08:43:06Z</time>
      </trkpt>
      <trkpt lat="43.18945" lon="5.62946">
        <ele>8.5</ele>
        <time>2016-03-28T08:43:07Z</time>
      </trkpt>
      <trkpt lat="43.18946" lon="5.62934">
        <ele>8.6</ele>
        <time>2016-03-28T08:43:08Z</time>
      </trkpt>
      <trkpt lat="43.18947" lon="5.62925">
        <ele>8.6</ele>
        <time>2016-03-28T08:43:09Z</time>
      </trkpt>
      <trkpt lat="43.1895" lon="5.62915">
        <ele>8.6</ele>
        <time>2016-03-28T08:43:10Z</time>
      </trkpt>
      <trkpt lat="43.18954" lon="5.62903">
        <ele>8.7</ele>
        <time>2016-03-28T08:43:11Z</time>
      </trkpt>
      <trkpt lat="43.18957" lon="5.62895">
        <ele>8.8</ele>
        <time>2016-03-28T08:43:12Z</time>
      </trkpt>
      <trkpt lat="43.18961" lon="5.62887">
        <ele>8.9</ele>
        <time>2016-03-28T08:43:13Z</time>
      </trkpt>
      <trkpt lat="43.18965" lon="5.62877">
        <ele>9.1</ele>
        <time>2016-03-28T08:43:14Z</time>
      </trkpt>
      <trkpt lat="43.18972" lon="5.6287">
        <ele>9.3</ele>
        <time>2016-03-28T08:43:15Z</time>
      </trkpt>
      <trkpt lat="43.18977" lon="5.62864">
        <ele>9.4</ele>
        <time>2016-03-28T08:43:16Z</time>
      </trkpt>
      <trkpt lat="43.18979" lon="5.62857">
        <ele>9.4</ele>
        <time>2016-03-28T08:43:17Z</time>
      </trkpt>
      <trkpt lat="43.18981" lon="5.62849">
        <ele>9.5</ele>
        <time>2016-03-28T08:43:18Z</time>
      </trkpt>
      <trkpt lat="43.18976" lon="5.62859">
        <ele>9.4</ele>
        <time>2016-03-28T08:43:19Z</time>
      </trkpt>
      <trkpt lat="43.18973" lon="5.62822">
        <ele>9.2</ele>
        <time>2016-03-28T08:43:21Z</time>
      </trkpt>
      <trkpt lat="43.1897" lon="5.62814">
        <ele>9.2</ele>
        <time>2016-03-28T08:43:22Z</time>
      </trkpt>
      <trkpt lat="43.18968" lon="5.62806">
        <ele>9.1</ele>
        <time>2016-03-28T08:43:23Z</time>
      </trkpt>
      <trkpt lat="43.18968" lon="5.62795">
        <ele>9.1</ele>
        <time>2016-03-28T08:43:24Z</time>
      </trkpt>
      <trkpt lat="43.18968" lon="5.62786">
        <ele>9</ele>
        <time>2016-03-28T08:43:25Z</time>
      </trkpt>
      <trkpt lat="43.18968" lon="5.62776">
        <ele>9</ele>
        <time>2016-03-28T08:43:26Z</time>
      </trkpt>
      <trkpt lat="43.18972" lon="5.62762">
        <ele>8.9</ele>
        <time>2016-03-28T08:43:27Z</time>
      </trkpt>
      <trkpt lat="43.18975" lon="5.62753">
        <ele>8.8</ele>
        <time>2016-03-28T08:43:28Z</time>
      </trkpt>
      <trkpt lat="43.18978" lon="5.62743">
        <ele>8.8</ele>
        <time>2016-03-28T08:43:29Z</time>
      </trkpt>
      <trkpt lat="43.18979" lon="5.62737">
        <ele>8.7</ele>
        <time>2016-03-28T08:43:30Z</time>
      </trkpt>
      <trkpt lat="43.18979" lon="5.62728">
        <ele>8.7</ele>
        <time>2016-03-28T08:43:31Z</time>
      </trkpt>
      <trkpt lat="43.1898" lon="5.62719">
        <ele>8.6</ele>
        <time>2016-03-28T08:43:32Z</time>
      </trkpt>
      <trkpt lat="43.18981" lon="5.62709">
        <ele>8.5</ele>
        <time>2016-03-28T08:43:33Z</time>
      </trkpt>
      <trkpt lat="43.18981" lon="5.627">
        <ele>8.7</ele>
        <time>2016-03-28T08:43:34Z</time>
      </trkpt>
      <trkpt lat="43.18987" lon="5.6266">
        <ele>9.2</ele>
        <time>2016-03-28T08:43:38Z</time>
      </trkpt>
      <trkpt lat="43.18987" lon="5.62652">
        <ele>9.3</ele>
        <time>2016-03-28T08:43:39Z</time>
      </trkpt>
      <trkpt lat="43.18989" lon="5.62642">
        <ele>9.5</ele>
        <time>2016-03-28T08:43:40Z</time>
      </trkpt>
      <trkpt lat="43.1899" lon="5.62632">
        <ele>9.5</ele>
        <time>2016-03-28T08:43:41Z</time>
      </trkpt>
      <trkpt lat="43.18993" lon="5.62622">
        <ele>9.6</ele>
        <time>2016-03-28T08:43:42Z</time>
      </trkpt>
      <trkpt lat="43.18994" lon="5.62613">
        <ele>9.6</ele>
        <time>2016-03-28T08:43:43Z</time>
      </trkpt>
      <trkpt lat="43.18995" lon="5.62602">
        <ele>9.5</ele>
        <time>2016-03-28T08:43:44Z</time>
      </trkpt>
      <trkpt lat="43.18999" lon="5.62587">
        <ele>9.5</ele>
        <time>2016-03-28T08:43:45Z</time>
      </trkpt>
      <trkpt lat="43.19001" lon="5.62578">
        <ele>9.5</ele>
        <time>2016-03-28T08:43:46Z</time>
      </trkpt>
      <trkpt lat="43.19003" lon="5.62568">
        <ele>9.5</ele>
        <time>2016-03-28T08:43:47Z</time>
      </trkpt>
      <trkpt lat="43.19003" lon="5.6256">
        <ele>9.5</ele>
        <time>2016-03-28T08:43:48Z</time>
      </trkpt>
      <trkpt lat="43.19006" lon="5.6255">
        <ele>9.6</ele>
        <time>2016-03-28T08:43:49Z</time>
      </trkpt>
      <trkpt lat="43.19007" lon="5.6254">
        <ele>9.6</ele>
        <time>2016-03-28T08:43:50Z</time>
      </trkpt>
      <trkpt lat="43.19009" lon="5.6253">
        <ele>9.5</ele>
        <time>2016-03-28T08:43:51Z</time>
      </trkpt>
      <trkpt lat="43.19011" lon="5.6252">
        <ele>9.4</ele>
        <time>2016-03-28T08:43:52Z</time>
      </trkpt>
      <trkpt lat="43.19014" lon="5.6251">
        <ele>9.3</ele>
        <time>2016-03-28T08:43:53Z</time>
      </trkpt>
      <trkpt lat="43.19017" lon="5.62499">
        <ele>9.2</ele>
        <time>2016-03-28T08:43:54Z</time>
      </trkpt>
      <trkpt lat="43.1902" lon="5.62488">
        <ele>9.1</ele>
        <time>2016-03-28T08:43:55Z</time>
      </trkpt>
      <trkpt lat="43.19023" lon="5.62479">
        <ele>9</ele>
        <time>2016-03-28T08:43:56Z</time>
      </trkpt>
      <trkpt lat="43.19027" lon="5.62467">
        <ele>8.9</ele>
        <time>2016-03-28T08:43:57Z</time>
      </trkpt>
      <trkpt lat="43.1903" lon="5.62457">
        <ele>8.9</ele>
        <time>2016-03-28T08:43:58Z</time>
      </trkpt>
      <trkpt lat="43.19032" lon="5.62447">
        <ele>9</ele>
        <time>2016-03-28T08:43:59Z</time>
      </trkpt>
      <trkpt lat="43.19033" lon="5.62435">
        <ele>9.2</ele>
        <time>2016-03-28T08:44:00Z</time>
      </trkpt>
      <trkpt lat="43.19036" lon="5.62425">
        <ele>9.4</ele>
        <time>2016-03-28T08:44:01Z</time>
      </trkpt>
      <trkpt lat="43.19038" lon="5.62414">
        <ele>9.5</ele>
        <time>2016-03-28T08:44:02Z</time>
      </trkpt>
      <trkpt lat="43.1904" lon="5.62403">
        <ele>9.7</ele>
        <time>2016-03-28T08:44:03Z</time>
      </trkpt>
      <trkpt lat="43.19042" lon="5.62392">
        <ele>9.8</ele>
        <time>2016-03-28T08:44:04Z</time>
      </trkpt>
      <trkpt lat="43.19044" lon="5.62381">
        <ele>9.9</ele>
        <time>2016-03-28T08:44:05Z</time>
      </trkpt>
      <trkpt lat="43.19046" lon="5.62371">
        <ele>10</ele>
        <time>2016-03-28T08:44:06Z</time>
      </trkpt>
      <trkpt lat="43.19048" lon="5.6236">
        <ele>10.2</ele>
        <time>2016-03-28T08:44:07Z</time>
      </trkpt>
      <trkpt lat="43.19049" lon="5.62351">
        <ele>10.4</ele>
        <time>2016-03-28T08:44:08Z</time>
      </trkpt>
      <trkpt lat="43.19049" lon="5.62343">
        <ele>10.6</ele>
        <time>2016-03-28T08:44:09Z</time>
      </trkpt>
      <trkpt lat="43.19052" lon="5.62333">
        <ele>10.7</ele>
        <time>2016-03-28T08:44:10Z</time>
      </trkpt>
      <trkpt lat="43.19055" lon="5.62324">
        <ele>10.8</ele>
        <time>2016-03-28T08:44:11Z</time>
      </trkpt>
      <trkpt lat="43.19057" lon="5.62314">
        <ele>11</ele>
        <time>2016-03-28T08:44:12Z</time>
      </trkpt>
      <trkpt lat="43.19057" lon="5.62303">
        <ele>11.2</ele>
        <time>2016-03-28T08:44:13Z</time>
      </trkpt>
      <trkpt lat="43.19059" lon="5.62292">
        <ele>11.4</ele>
        <time>2016-03-28T08:44:14Z</time>
      </trkpt>
      <trkpt lat="43.19061" lon="5.62283">
        <ele>11.5</ele>
        <time>2016-03-28T08:44:15Z</time>
      </trkpt>
      <trkpt lat="43.19065" lon="5.62274">
        <ele>11.5</ele>
        <time>2016-03-28T08:44:16Z</time>
      </trkpt>
      <trkpt lat="43.19069" lon="5.62264">
        <ele>11.6</ele>
        <time>2016-03-28T08:44:17Z</time>
      </trkpt>
      <trkpt lat="43.19073" lon="5.62256">
        <ele>11.6</ele>
        <time>2016-03-28T08:44:18Z</time>
      </trkpt>
      <trkpt lat="43.19079" lon="5.62248">
        <ele>11.6</ele>
        <time>2016-03-28T08:44:19Z</time>
      </trkpt>
      <trkpt lat="43.19083" lon="5.62242">
        <ele>11.7</ele>
        <time>2016-03-28T08:44:20Z</time>
      </trkpt>
      <trkpt lat="43.19086" lon="5.62237">
        <ele>11.8</ele>
        <time>2016-03-28T08:44:21Z</time>
      </trkpt>
      <trkpt lat="43.19092" lon="5.62237">
        <ele>11.7</ele>
        <time>2016-03-28T08:44:22Z</time>
      </trkpt>
      <trkpt lat="43.1908" lon="5.62239">
        <ele>11.8</ele>
        <time>2016-03-28T08:44:23Z</time>
      </trkpt>
      <trkpt lat="43.19107" lon="5.6222">
        <ele>11.9</ele>
        <time>2016-03-28T08:44:26Z</time>
      </trkpt>
      <trkpt lat="43.19096" lon="5.62195">
        <ele>12.7</ele>
        <time>2016-03-28T08:44:29Z</time>
      </trkpt>
      <trkpt lat="43.19097" lon="5.62199">
        <ele>12.6</ele>
        <time>2016-03-28T08:44:30Z</time>
      </trkpt>
      <trkpt lat="43.19098" lon="5.62154">
        <ele>13.9</ele>
        <time>2016-03-28T08:44:32Z</time>
      </trkpt>
      <trkpt lat="43.19101" lon="5.62147">
        <ele>14.1</ele>
        <time>2016-03-28T08:44:33Z</time>
      </trkpt>
      <trkpt lat="43.19103" lon="5.6214">
        <ele>14.3</ele>
        <time>2016-03-28T08:44:34Z</time>
      </trkpt>
      <trkpt lat="43.19106" lon="5.62133">
        <ele>14.5</ele>
        <time>2016-03-28T08:44:35Z</time>
      </trkpt>
      <trkpt lat="43.19108" lon="5.62125">
        <ele>14.8</ele>
        <time>2016-03-28T08:44:36Z</time>
      </trkpt>
      <trkpt lat="43.1911" lon="5.62117">
        <ele>14.8</ele>
        <time>2016-03-28T08:44:37Z</time>
      </trkpt>
      <trkpt lat="43.19109" lon="5.62111">
        <ele>14.8</ele>
        <time>2016-03-28T08:44:38Z</time>
      </trkpt>
      <trkpt lat="43.19111" lon="5.62105">
        <ele>14.9</ele>
        <time>2016-03-28T08:44:39Z</time>
      </trkpt>
      <trkpt lat="43.19114" lon="5.62098">
        <ele>14.9</ele>
        <time>2016-03-28T08:44:40Z</time>
      </trkpt>
      <trkpt lat="43.19116" lon="5.62092">
        <ele>14.9</ele>
        <time>2016-03-28T08:44:41Z</time>
      </trkpt>
      <trkpt lat="43.19119" lon="5.62085">
        <ele>15</ele>
        <time>2016-03-28T08:44:42Z</time>
      </trkpt>
      <trkpt lat="43.19119" lon="5.62078">
        <ele>15</ele>
        <time>2016-03-28T08:44:43Z</time>
      </trkpt>
      <trkpt lat="43.19121" lon="5.62072">
        <ele>15</ele>
        <time>2016-03-28T08:44:44Z</time>
      </trkpt>
      <trkpt lat="43.19123" lon="5.62065">
        <ele>15</ele>
        <time>2016-03-28T08:44:45Z</time>
      </trkpt>
      <trkpt lat="43.19125" lon="5.62059">
        <ele>15</ele>
        <time>2016-03-28T08:44:46Z</time>
      </trkpt>
      <trkpt lat="43.19127" lon="5.6205">
        <ele>15.2</ele>
        <time>2016-03-28T08:44:48Z</time>
      </trkpt>
      <trkpt lat="43.19127" lon="5.62044">
        <ele>15.2</ele>
        <time>2016-03-28T08:44:49Z</time>
      </trkpt>
      <trkpt lat="43.19128" lon="5.62035">
        <ele>15.2</ele>
        <time>2016-03-28T08:44:50Z</time>
      </trkpt>
      <trkpt lat="43.19129" lon="5.62029">
        <ele>15.2</ele>
        <time>2016-03-28T08:44:51Z</time>
      </trkpt>
      <trkpt lat="43.19131" lon="5.62022">
        <ele>15.2</ele>
        <time>2016-03-28T08:44:52Z</time>
      </trkpt>
      <trkpt lat="43.19132" lon="5.62015">
        <ele>15.2</ele>
        <time>2016-03-28T08:44:53Z</time>
      </trkpt>
      <trkpt lat="43.19132" lon="5.62008">
        <ele>15.1</ele>
        <time>2016-03-28T08:44:54Z</time>
      </trkpt>
      <trkpt lat="43.19133" lon="5.62004">
        <ele>15.2</ele>
        <time>2016-03-28T08:44:55Z</time>
      </trkpt>
      <trkpt lat="43.19137" lon="5.61997">
        <ele>15.4</ele>
        <time>2016-03-28T08:44:56Z</time>
      </trkpt>
      <trkpt lat="43.19137" lon="5.61991">
        <ele>15.3</ele>
        <time>2016-03-28T08:44:57Z</time>
      </trkpt>
      <trkpt lat="43.1914" lon="5.61985">
        <ele>15.4</ele>
        <time>2016-03-28T08:44:58Z</time>
      </trkpt>
      <trkpt lat="43.19149" lon="5.61967">
        <ele>15.9</ele>
        <time>2016-03-28T08:45:01Z</time>
      </trkpt>
      <trkpt lat="43.19156" lon="5.61952">
        <ele>16.3</ele>
        <time>2016-03-28T08:45:03Z</time>
      </trkpt>
      <trkpt lat="43.19158" lon="5.61947">
        <ele>16.6</ele>
        <time>2016-03-28T08:45:04Z</time>
      </trkpt>
      <trkpt lat="43.19162" lon="5.61941">
        <ele>16.9</ele>
        <time>2016-03-28T08:45:05Z</time>
      </trkpt>
      <trkpt lat="43.19165" lon="5.61934">
        <ele>17.2</ele>
        <time>2016-03-28T08:45:06Z</time>
      </trkpt>
      <trkpt lat="43.19168" lon="5.61928">
        <ele>17.4</ele>
        <time>2016-03-28T08:45:07Z</time>
      </trkpt>
      <trkpt lat="43.1917" lon="5.61922">
        <ele>17.6</ele>
        <time>2016-03-28T08:45:08Z</time>
      </trkpt>
      <trkpt lat="43.19174" lon="5.61914">
        <ele>17.8</ele>
        <time>2016-03-28T08:45:09Z</time>
      </trkpt>
      <trkpt lat="43.19176" lon="5.61906">
        <ele>17.9</ele>
        <time>2016-03-28T08:45:10Z</time>
      </trkpt>
      <trkpt lat="43.19177" lon="5.61899">
        <ele>17.9</ele>
        <time>2016-03-28T08:45:11Z</time>
      </trkpt>
      <trkpt lat="43.1918" lon="5.61891">
        <ele>18</ele>
        <time>2016-03-28T08:45:12Z</time>
      </trkpt>
      <trkpt lat="43.19184" lon="5.61881">
        <ele>18</ele>
        <time>2016-03-28T08:45:13Z</time>
      </trkpt>
      <trkpt lat="43.19188" lon="5.61873">
        <ele>18</ele>
        <time>2016-03-28T08:45:14Z</time>
      </trkpt>
      <trkpt lat="43.19191" lon="5.61865">
        <ele>18</ele>
        <time>2016-03-28T08:45:15Z</time>
      </trkpt>
      <trkpt lat="43.19193" lon="5.61856">
        <ele>18</ele>
        <time>2016-03-28T08:45:16Z</time>
      </trkpt>
      <trkpt lat="43.19195" lon="5.61849">
        <ele>18.1</ele>
        <time>2016-03-28T08:45:17Z</time>
      </trkpt>
      <trkpt lat="43.19197" lon="5.61841">
        <ele>18.1</ele>
        <time>2016-03-28T08:45:18Z</time>
      </trkpt>
      <trkpt lat="43.19197" lon="5.61831">
        <ele>18.1</ele>
        <time>2016-03-28T08:45:19Z</time>
      </trkpt>
      <trkpt lat="43.19198" lon="5.61823">
        <ele>18.1</ele>
        <time>2016-03-28T08:45:20Z</time>
      </trkpt>
      <trkpt lat="43.19201" lon="5.61811">
        <ele>18.1</ele>
        <time>2016-03-28T08:45:21Z</time>
      </trkpt>
      <trkpt lat="43.19197" lon="5.61811">
        <ele>18.1</ele>
        <time>2016-03-28T08:45:22Z</time>
      </trkpt>
      <trkpt lat="43.19202" lon="5.61803">
        <ele>18.1</ele>
        <time>2016-03-28T08:45:24Z</time>
      </trkpt>
      <trkpt lat="43.19198" lon="5.61802">
        <ele>18.1</ele>
        <time>2016-03-28T08:45:26Z</time>
      </trkpt>
      <trkpt lat="43.19191" lon="5.61776">
        <ele>18.5</ele>
        <time>2016-03-28T08:45:29Z</time>
      </trkpt>
      <trkpt lat="43.19193" lon="5.6175">
        <ele>19</ele>
        <time>2016-03-28T08:45:30Z</time>
      </trkpt>
      <trkpt lat="43.19194" lon="5.61742">
        <ele>19.2</ele>
        <time>2016-03-28T08:45:31Z</time>
      </trkpt>
      <trkpt lat="43.19195" lon="5.61735">
        <ele>19.3</ele>
        <time>2016-03-28T08:45:32Z</time>
      </trkpt>
      <trkpt lat="43.19202" lon="5.61728">
        <ele>19.5</ele>
        <time>2016-03-28T08:45:33Z</time>
      </trkpt>
      <trkpt lat="43.19204" lon="5.61719">
        <ele>19.7</ele>
        <time>2016-03-28T08:45:34Z</time>
      </trkpt>
      <trkpt lat="43.19207" lon="5.61711">
        <ele>19.9</ele>
        <time>2016-03-28T08:45:35Z</time>
      </trkpt>
      <trkpt lat="43.19208" lon="5.61704">
        <ele>20.1</ele>
        <time>2016-03-28T08:45:36Z</time>
      </trkpt>
      <trkpt lat="43.19208" lon="5.61695">
        <ele>20.3</ele>
        <time>2016-03-28T08:45:37Z</time>
      </trkpt>
      <trkpt lat="43.1921" lon="5.61688">
        <ele>20.6</ele>
        <time>2016-03-28T08:45:38Z</time>
      </trkpt>
      <trkpt lat="43.19212" lon="5.61681">
        <ele>20.8</ele>
        <time>2016-03-28T08:45:39Z</time>
      </trkpt>
      <trkpt lat="43.19213" lon="5.61673">
        <ele>21</ele>
        <time>2016-03-28T08:45:40Z</time>
      </trkpt>
      <trkpt lat="43.19215" lon="5.61667">
        <ele>21.3</ele>
        <time>2016-03-28T08:45:41Z</time>
      </trkpt>
      <trkpt lat="43.19216" lon="5.61659">
        <ele>21.5</ele>
        <time>2016-03-28T08:45:42Z</time>
      </trkpt>
      <trkpt lat="43.19218" lon="5.61652">
        <ele>21.7</ele>
        <time>2016-03-28T08:45:43Z</time>
      </trkpt>
      <trkpt lat="43.19219" lon="5.61645">
        <ele>21.9</ele>
        <time>2016-03-28T08:45:44Z</time>
      </trkpt>
      <trkpt lat="43.19221" lon="5.61637">
        <ele>22.1</ele>
        <time>2016-03-28T08:45:45Z</time>
      </trkpt>
      <trkpt lat="43.19222" lon="5.61632">
        <ele>22.2</ele>
        <time>2016-03-28T08:45:46Z</time>
      </trkpt>
      <trkpt lat="43.19223" lon="5.61625">
        <ele>22.4</ele>
        <time>2016-03-28T08:45:47Z</time>
      </trkpt>
      <trkpt lat="43.19223" lon="5.61619">
        <ele>22.5</ele>
        <time>2016-03-28T08:45:48Z</time>
      </trkpt>
      <trkpt lat="43.19225" lon="5.61614">
        <ele>22.6</ele>
        <time>2016-03-28T08:45:49Z</time>
      </trkpt>
      <trkpt lat="43.19226" lon="5.61608">
        <ele>22.8</ele>
        <time>2016-03-28T08:45:50Z</time>
      </trkpt>
      <trkpt lat="43.19228" lon="5.61601">
        <ele>23</ele>
        <time>2016-03-28T08:45:51Z</time>
      </trkpt>
      <trkpt lat="43.19229" lon="5.61596">
        <ele>23.1</ele>
        <time>2016-03-28T08:45:52Z</time>
      </trkpt>
      <trkpt lat="43.19231" lon="5.61589">
        <ele>23.3</ele>
        <time>2016-03-28T08:45:53Z</time>
      </trkpt>
      <trkpt lat="43.19233" lon="5.61585">
        <ele>23.4</ele>
        <time>2016-03-28T08:45:54Z</time>
      </trkpt>
      <trkpt lat="43.19237" lon="5.61579">
        <ele>23.6</ele>
        <time>2016-03-28T08:45:55Z</time>
      </trkpt>
      <trkpt lat="43.1924" lon="5.6157">
        <ele>23.8</ele>
        <time>2016-03-28T08:45:56Z</time>
      </trkpt>
      <trkpt lat="43.19242" lon="5.61563">
        <ele>24</ele>
        <time>2016-03-28T08:45:57Z</time>
      </trkpt>
      <trkpt lat="43.19244" lon="5.6156">
        <ele>24.1</ele>
        <time>2016-03-28T08:45:58Z</time>
      </trkpt>
      <trkpt lat="43.19245" lon="5.61553">
        <ele>24.2</ele>
        <time>2016-03-28T08:45:59Z</time>
      </trkpt>
      <trkpt lat="43.19246" lon="5.61548">
        <ele>24.3</ele>
        <time>2016-03-28T08:46:00Z</time>
      </trkpt>
      <trkpt lat="43.19248" lon="5.61541">
        <ele>24.5</ele>
        <time>2016-03-28T08:46:01Z</time>
      </trkpt>
      <trkpt lat="43.19249" lon="5.61534">
        <ele>24.5</ele>
        <time>2016-03-28T08:46:02Z</time>
      </trkpt>
      <trkpt lat="43.19248" lon="5.61529">
        <ele>24.6</ele>
        <time>2016-03-28T08:46:03Z</time>
      </trkpt>
      <trkpt lat="43.19249" lon="5.61521">
        <ele>24.6</ele>
        <time>2016-03-28T08:46:04Z</time>
      </trkpt>
      <trkpt lat="43.19251" lon="5.61513">
        <ele>24.7</ele>
        <time>2016-03-28T08:46:05Z</time>
      </trkpt>
      <trkpt lat="43.19251" lon="5.61508">
        <ele>24.7</ele>
        <time>2016-03-28T08:46:06Z</time>
      </trkpt>
      <trkpt lat="43.19253" lon="5.61502">
        <ele>24.8</ele>
        <time>2016-03-28T08:46:07Z</time>
      </trkpt>
      <trkpt lat="43.19253" lon="5.61495">
        <ele>24.8</ele>
        <time>2016-03-28T08:46:08Z</time>
      </trkpt>
      <trkpt lat="43.19253" lon="5.61489">
        <ele>24.8</ele>
        <time>2016-03-28T08:46:09Z</time>
      </trkpt>
      <trkpt lat="43.19253" lon="5.61483">
        <ele>24.9</ele>
        <time>2016-03-28T08:46:10Z</time>
      </trkpt>
      <trkpt lat="43.19254" lon="5.61476">
        <ele>24.9</ele>
        <time>2016-03-28T08:46:11Z</time>
      </trkpt>
      <trkpt lat="43.19257" lon="5.61468">
        <ele>25</ele>
        <time>2016-03-28T08:46:12Z</time>
      </trkpt>
      <trkpt lat="43.19256" lon="5.61472">
        <ele>24.9</ele>
        <time>2016-03-28T08:46:13Z</time>
      </trkpt>
      <trkpt lat="43.19258" lon="5.61468">
        <ele>25</ele>
        <time>2016-03-28T08:46:14Z</time>
      </trkpt>
      <trkpt lat="43.19262" lon="5.61454">
        <ele>25.1</ele>
        <time>2016-03-28T08:46:15Z</time>
      </trkpt>
      <trkpt lat="43.19263" lon="5.61448">
        <ele>25.3</ele>
        <time>2016-03-28T08:46:16Z</time>
      </trkpt>
      <trkpt lat="43.19266" lon="5.61407">
        <ele>26.2</ele>
        <time>2016-03-28T08:46:22Z</time>
      </trkpt>
      <trkpt lat="43.1927" lon="5.61402">
        <ele>26.4</ele>
        <time>2016-03-28T08:46:23Z</time>
      </trkpt>
      <trkpt lat="43.19271" lon="5.61395">
        <ele>26.5</ele>
        <time>2016-03-28T08:46:24Z</time>
      </trkpt>
      <trkpt lat="43.19272" lon="5.6139">
        <ele>26.6</ele>
        <time>2016-03-28T08:46:25Z</time>
      </trkpt>
      <trkpt lat="43.19274" lon="5.61383">
        <ele>26.8</ele>
        <time>2016-03-28T08:46:26Z</time>
      </trkpt>
      <trkpt lat="43.19274" lon="5.61376">
        <ele>27</ele>
        <time>2016-03-28T08:46:27Z</time>
      </trkpt>
      <trkpt lat="43.19272" lon="5.61372">
        <ele>27</ele>
        <time>2016-03-28T08:46:28Z</time>
      </trkpt>
      <trkpt lat="43.19273" lon="5.61366">
        <ele>27</ele>
        <time>2016-03-28T08:46:29Z</time>
      </trkpt>
      <trkpt lat="43.19273" lon="5.6136">
        <ele>26.9</ele>
        <time>2016-03-28T08:46:30Z</time>
      </trkpt>
      <trkpt lat="43.19274" lon="5.61353">
        <ele>26.9</ele>
        <time>2016-03-28T08:46:31Z</time>
      </trkpt>
      <trkpt lat="43.19274" lon="5.61346">
        <ele>26.9</ele>
        <time>2016-03-28T08:46:32Z</time>
      </trkpt>
      <trkpt lat="43.19271" lon="5.61342">
        <ele>26.8</ele>
        <time>2016-03-28T08:46:33Z</time>
      </trkpt>
      <trkpt lat="43.19275" lon="5.61334">
        <ele>26.8</ele>
        <time>2016-03-28T08:46:34Z</time>
      </trkpt>
      <trkpt lat="43.19279" lon="5.61326">
        <ele>26.8</ele>
        <time>2016-03-28T08:46:35Z</time>
      </trkpt>
      <trkpt lat="43.19282" lon="5.61322">
        <ele>26.9</ele>
        <time>2016-03-28T08:46:36Z</time>
      </trkpt>
      <trkpt lat="43.1927" lon="5.61296">
        <ele>26.5</ele>
        <time>2016-03-28T08:46:41Z</time>
      </trkpt>
      <trkpt lat="43.1927" lon="5.61284">
        <ele>26.7</ele>
        <time>2016-03-28T08:46:43Z</time>
      </trkpt>
      <trkpt lat="43.19268" lon="5.61278">
        <ele>26.9</ele>
        <time>2016-03-28T08:46:44Z</time>
      </trkpt>
      <trkpt lat="43.19267" lon="5.61271">
        <ele>27.2</ele>
        <time>2016-03-28T08:46:45Z</time>
      </trkpt>
      <trkpt lat="43.19267" lon="5.61264">
        <ele>27.4</ele>
        <time>2016-03-28T08:46:46Z</time>
      </trkpt>
      <trkpt lat="43.19267" lon="5.61257">
        <ele>27.6</ele>
        <time>2016-03-28T08:46:47Z</time>
      </trkpt>
      <trkpt lat="43.19266" lon="5.6125">
        <ele>27.9</ele>
        <time>2016-03-28T08:46:48Z</time>
      </trkpt>
      <trkpt lat="43.19265" lon="5.61243">
        <ele>28.1</ele>
        <time>2016-03-28T08:46:49Z</time>
      </trkpt>
      <trkpt lat="43.19264" lon="5.61235">
        <ele>28.4</ele>
        <time>2016-03-28T08:46:50Z</time>
      </trkpt>
      <trkpt lat="43.19263" lon="5.61228">
        <ele>28.6</ele>
        <time>2016-03-28T08:46:51Z</time>
      </trkpt>
      <trkpt lat="43.19262" lon="5.61222">
        <ele>28.8</ele>
        <time>2016-03-28T08:46:52Z</time>
      </trkpt>
      <trkpt lat="43.19261" lon="5.61215">
        <ele>29</ele>
        <time>2016-03-28T08:46:53Z</time>
      </trkpt>
      <trkpt lat="43.19262" lon="5.61205">
        <ele>29.3</ele>
        <time>2016-03-28T08:46:54Z</time>
      </trkpt>
      <trkpt lat="43.19263" lon="5.61198">
        <ele>29.4</ele>
        <time>2016-03-28T08:46:55Z</time>
      </trkpt>
      <trkpt lat="43.19263" lon="5.6119">
        <ele>29.5</ele>
        <time>2016-03-28T08:46:56Z</time>
      </trkpt>
      <trkpt lat="43.19261" lon="5.61184">
        <ele>29.5</ele>
        <time>2016-03-28T08:46:57Z</time>
      </trkpt>
      <trkpt lat="43.19261" lon="5.61175">
        <ele>29.6</ele>
        <time>2016-03-28T08:46:58Z</time>
      </trkpt>
      <trkpt lat="43.1926" lon="5.61167">
        <ele>29.6</ele>
        <time>2016-03-28T08:46:59Z</time>
      </trkpt>
      <trkpt lat="43.19259" lon="5.6116">
        <ele>29.7</ele>
        <time>2016-03-28T08:47:00Z</time>
      </trkpt>
      <trkpt lat="43.19258" lon="5.61151">
        <ele>29.7</ele>
        <time>2016-03-28T08:47:01Z</time>
      </trkpt>
      <trkpt lat="43.19257" lon="5.61142">
        <ele>29.8</ele>
        <time>2016-03-28T08:47:02Z</time>
      </trkpt>
      <trkpt lat="43.19256" lon="5.61134">
        <ele>29.9</ele>
        <time>2016-03-28T08:47:03Z</time>
      </trkpt>
      <trkpt lat="43.19254" lon="5.61127">
        <ele>30</ele>
        <time>2016-03-28T08:47:04Z</time>
      </trkpt>
      <trkpt lat="43.19254" lon="5.6112">
        <ele>30.2</ele>
        <time>2016-03-28T08:47:05Z</time>
      </trkpt>
      <trkpt lat="43.19252" lon="5.61113">
        <ele>30.4</ele>
        <time>2016-03-28T08:47:06Z</time>
      </trkpt>
      <trkpt lat="43.19251" lon="5.61104">
        <ele>30.6</ele>
        <time>2016-03-28T08:47:07Z</time>
      </trkpt>
      <trkpt lat="43.1925" lon="5.61096">
        <ele>30.9</ele>
        <time>2016-03-28T08:47:08Z</time>
      </trkpt>
      <trkpt lat="43.1925" lon="5.61088">
        <ele>31.1</ele>
        <time>2016-03-28T08:47:09Z</time>
      </trkpt>
      <trkpt lat="43.19247" lon="5.61083">
        <ele>31.2</ele>
        <time>2016-03-28T08:47:10Z</time>
      </trkpt>
      <trkpt lat="43.19246" lon="5.61076">
        <ele>31.4</ele>
        <time>2016-03-28T08:47:11Z</time>
      </trkpt>
      <trkpt lat="43.19244" lon="5.61068">
        <ele>31.6</ele>
        <time>2016-03-28T08:47:12Z</time>
      </trkpt>
      <trkpt lat="43.19243" lon="5.6106">
        <ele>31.8</ele>
        <time>2016-03-28T08:47:13Z</time>
      </trkpt>
      <trkpt lat="43.19243" lon="5.61052">
        <ele>31.9</ele>
        <time>2016-03-28T08:47:14Z</time>
      </trkpt>
      <trkpt lat="43.19242" lon="5.61045">
        <ele>32.1</ele>
        <time>2016-03-28T08:47:15Z</time>
      </trkpt>
      <trkpt lat="43.19241" lon="5.61037">
        <ele>32.2</ele>
        <time>2016-03-28T08:47:16Z</time>
      </trkpt>
      <trkpt lat="43.19241" lon="5.61031">
        <ele>32.2</ele>
        <time>2016-03-28T08:47:17Z</time>
      </trkpt>
      <trkpt lat="43.1924" lon="5.61024">
        <ele>32.2</ele>
        <time>2016-03-28T08:47:18Z</time>
      </trkpt>
      <trkpt lat="43.1924" lon="5.61018">
        <ele>32.3</ele>
        <time>2016-03-28T08:47:19Z</time>
      </trkpt>
      <trkpt lat="43.1924" lon="5.61011">
        <ele>32.3</ele>
        <time>2016-03-28T08:47:20Z</time>
      </trkpt>
      <trkpt lat="43.19242" lon="5.61003">
        <ele>32.4</ele>
        <time>2016-03-28T08:47:21Z</time>
      </trkpt>
      <trkpt lat="43.19243" lon="5.60995">
        <ele>32.5</ele>
        <time>2016-03-28T08:47:22Z</time>
      </trkpt>
      <trkpt lat="43.19243" lon="5.60989">
        <ele>32.5</ele>
        <time>2016-03-28T08:47:23Z</time>
      </trkpt>
      <trkpt lat="43.19245" lon="5.6098">
        <ele>32.6</ele>
        <time>2016-03-28T08:47:24Z</time>
      </trkpt>
      <trkpt lat="43.19246" lon="5.60972">
        <ele>32.7</ele>
        <time>2016-03-28T08:47:25Z</time>
      </trkpt>
      <trkpt lat="43.19247" lon="5.60965">
        <ele>32.8</ele>
        <time>2016-03-28T08:47:26Z</time>
      </trkpt>
      <trkpt lat="43.19251" lon="5.60953">
        <ele>33</ele>
        <time>2016-03-28T08:47:28Z</time>
      </trkpt>
      <trkpt lat="43.19255" lon="5.60944">
        <ele>33</ele>
        <time>2016-03-28T08:47:30Z</time>
      </trkpt>
      <trkpt lat="43.19258" lon="5.60939">
        <ele>33.1</ele>
        <time>2016-03-28T08:47:31Z</time>
      </trkpt>
      <trkpt lat="43.19259" lon="5.60931">
        <ele>33.1</ele>
        <time>2016-03-28T08:47:33Z</time>
      </trkpt>
      <trkpt lat="43.19259" lon="5.60918">
        <ele>32.8</ele>
        <time>2016-03-28T08:47:34Z</time>
      </trkpt>
      <trkpt lat="43.19257" lon="5.6091">
        <ele>32.6</ele>
        <time>2016-03-28T08:47:35Z</time>
      </trkpt>
      <trkpt lat="43.19254" lon="5.60903">
        <ele>32.3</ele>
        <time>2016-03-28T08:47:36Z</time>
      </trkpt>
      <trkpt lat="43.19251" lon="5.60897">
        <ele>31.9</ele>
        <time>2016-03-28T08:47:37Z</time>
      </trkpt>
      <trkpt lat="43.19249" lon="5.60892">
        <ele>31.7</ele>
        <time>2016-03-28T08:47:38Z</time>
      </trkpt>
      <trkpt lat="43.19243" lon="5.60881">
        <ele>31</ele>
        <time>2016-03-28T08:47:39Z</time>
      </trkpt>
      <trkpt lat="43.1924" lon="5.60871">
        <ele>30.6</ele>
        <time>2016-03-28T08:47:40Z</time>
      </trkpt>
      <trkpt lat="43.19238" lon="5.60863">
        <ele>30.3</ele>
        <time>2016-03-28T08:47:41Z</time>
      </trkpt>
      <trkpt lat="43.19237" lon="5.60854">
        <ele>30.1</ele>
        <time>2016-03-28T08:47:42Z</time>
      </trkpt>
      <trkpt lat="43.19235" lon="5.60845">
        <ele>29.9</ele>
        <time>2016-03-28T08:47:43Z</time>
      </trkpt>
      <trkpt lat="43.19234" lon="5.60836">
        <ele>29.7</ele>
        <time>2016-03-28T08:47:44Z</time>
      </trkpt>
      <trkpt lat="43.19232" lon="5.60827">
        <ele>29.4</ele>
        <time>2016-03-28T08:47:45Z</time>
      </trkpt>
      <trkpt lat="43.19231" lon="5.60817">
        <ele>29.2</ele>
        <time>2016-03-28T08:47:46Z</time>
      </trkpt>
      <trkpt lat="43.1923" lon="5.60807">
        <ele>29</ele>
        <time>2016-03-28T08:47:47Z</time>
      </trkpt>
      <trkpt lat="43.19228" lon="5.60799">
        <ele>28.7</ele>
        <time>2016-03-28T08:47:48Z</time>
      </trkpt>
      <trkpt lat="43.19226" lon="5.60788">
        <ele>28.5</ele>
        <time>2016-03-28T08:47:49Z</time>
      </trkpt>
      <trkpt lat="43.19223" lon="5.60777">
        <ele>28.2</ele>
        <time>2016-03-28T08:47:50Z</time>
      </trkpt>
      <trkpt lat="43.19221" lon="5.60766">
        <ele>27.9</ele>
        <time>2016-03-28T08:47:51Z</time>
      </trkpt>
      <trkpt lat="43.19219" lon="5.60755">
        <ele>27.8</ele>
        <time>2016-03-28T08:47:52Z</time>
      </trkpt>
      <trkpt lat="43.19218" lon="5.60743">
        <ele>27.7</ele>
        <time>2016-03-28T08:47:53Z</time>
      </trkpt>
      <trkpt lat="43.19217" lon="5.60732">
        <ele>27.6</ele>
        <time>2016-03-28T08:47:54Z</time>
      </trkpt>
      <trkpt lat="43.19214" lon="5.60727">
        <ele>27.4</ele>
        <time>2016-03-28T08:47:55Z</time>
      </trkpt>
      <trkpt lat="43.19211" lon="5.60709">
        <ele>27.1</ele>
        <time>2016-03-28T08:47:56Z</time>
      </trkpt>
      <trkpt lat="43.19208" lon="5.60699">
        <ele>27.3</ele>
        <time>2016-03-28T08:47:57Z</time>
      </trkpt>
      <trkpt lat="43.19207" lon="5.60686">
        <ele>27.8</ele>
        <time>2016-03-28T08:47:58Z</time>
      </trkpt>
      <trkpt lat="43.19206" lon="5.60675">
        <ele>28.2</ele>
        <time>2016-03-28T08:47:59Z</time>
      </trkpt>
      <trkpt lat="43.19206" lon="5.60664">
        <ele>28.5</ele>
        <time>2016-03-28T08:48:00Z</time>
      </trkpt>
      <trkpt lat="43.19205" lon="5.60652">
        <ele>28.9</ele>
        <time>2016-03-28T08:48:01Z</time>
      </trkpt>
      <trkpt lat="43.19204" lon="5.60641">
        <ele>29.3</ele>
        <time>2016-03-28T08:48:02Z</time>
      </trkpt>
      <trkpt lat="43.19203" lon="5.6063">
        <ele>29.7</ele>
        <time>2016-03-28T08:48:03Z</time>
      </trkpt>
      <trkpt lat="43.19203" lon="5.60619">
        <ele>30.1</ele>
        <time>2016-03-28T08:48:04Z</time>
      </trkpt>
      <trkpt lat="43.19202" lon="5.60609">
        <ele>30.6</ele>
        <time>2016-03-28T08:48:05Z</time>
      </trkpt>
      <trkpt lat="43.19201" lon="5.60599">
        <ele>31</ele>
        <time>2016-03-28T08:48:06Z</time>
      </trkpt>
      <trkpt lat="43.19198" lon="5.60563">
        <ele>32.8</ele>
        <time>2016-03-28T08:48:10Z</time>
      </trkpt>
      <trkpt lat="43.19201" lon="5.6055">
        <ele>33.5</ele>
        <time>2016-03-28T08:48:11Z</time>
      </trkpt>
      <trkpt lat="43.192" lon="5.60541">
        <ele>33.9</ele>
        <time>2016-03-28T08:48:12Z</time>
      </trkpt>
      <trkpt lat="43.19199" lon="5.60533">
        <ele>34</ele>
        <time>2016-03-28T08:48:13Z</time>
      </trkpt>
      <trkpt lat="43.19199" lon="5.60524">
        <ele>34</ele>
        <time>2016-03-28T08:48:14Z</time>
      </trkpt>
      <trkpt lat="43.19199" lon="5.60515">
        <ele>34.1</ele>
        <time>2016-03-28T08:48:15Z</time>
      </trkpt>
      <trkpt lat="43.19202" lon="5.60506">
        <ele>34.3</ele>
        <time>2016-03-28T08:48:16Z</time>
      </trkpt>
      <trkpt lat="43.19203" lon="5.60502">
        <ele>34.3</ele>
        <time>2016-03-28T08:48:17Z</time>
      </trkpt>
      <trkpt lat="43.19204" lon="5.60495">
        <ele>34.5</ele>
        <time>2016-03-28T08:48:18Z</time>
      </trkpt>
      <trkpt lat="43.19209" lon="5.60489">
        <ele>34.7</ele>
        <time>2016-03-28T08:48:19Z</time>
      </trkpt>
      <trkpt lat="43.19212" lon="5.60483">
        <ele>35</ele>
        <time>2016-03-28T08:48:21Z</time>
      </trkpt>
      <trkpt lat="43.19213" lon="5.60479">
        <ele>35.2</ele>
        <time>2016-03-28T08:48:22Z</time>
      </trkpt>
      <trkpt lat="43.19214" lon="5.60475">
        <ele>35.3</ele>
        <time>2016-03-28T08:48:23Z</time>
      </trkpt>
      <trkpt lat="43.19217" lon="5.60467">
        <ele>35.6</ele>
        <time>2016-03-28T08:48:25Z</time>
      </trkpt>
      <trkpt lat="43.1923" lon="5.60443">
        <ele>36.6</ele>
        <time>2016-03-28T08:48:30Z</time>
      </trkpt>
      <trkpt lat="43.19233" lon="5.60438">
        <ele>36.7</ele>
        <time>2016-03-28T08:48:31Z</time>
      </trkpt>
      <trkpt lat="43.19236" lon="5.60434">
        <ele>36.9</ele>
        <time>2016-03-28T08:48:32Z</time>
      </trkpt>
      <trkpt lat="43.19239" lon="5.60432">
        <ele>37.1</ele>
        <time>2016-03-28T08:48:33Z</time>
      </trkpt>
      <trkpt lat="43.19242" lon="5.60427">
        <ele>37.3</ele>
        <time>2016-03-28T08:48:34Z</time>
      </trkpt>
      <trkpt lat="43.19244" lon="5.60421">
        <ele>37.3</ele>
        <time>2016-03-28T08:48:35Z</time>
      </trkpt>
      <trkpt lat="43.19246" lon="5.60415">
        <ele>37.4</ele>
        <time>2016-03-28T08:48:36Z</time>
      </trkpt>
      <trkpt lat="43.19249" lon="5.60409">
        <ele>37.6</ele>
        <time>2016-03-28T08:48:37Z</time>
      </trkpt>
      <trkpt lat="43.19251" lon="5.60404">
        <ele>37.6</ele>
        <time>2016-03-28T08:48:38Z</time>
      </trkpt>
      <trkpt lat="43.19253" lon="5.60399">
        <ele>37.7</ele>
        <time>2016-03-28T08:48:39Z</time>
      </trkpt>
      <trkpt lat="43.19257" lon="5.60394">
        <ele>37.9</ele>
        <time>2016-03-28T08:48:40Z</time>
      </trkpt>
      <trkpt lat="43.1926" lon="5.60389">
        <ele>38</ele>
        <time>2016-03-28T08:48:41Z</time>
      </trkpt>
      <trkpt lat="43.19263" lon="5.60385">
        <ele>38.2</ele>
        <time>2016-03-28T08:48:42Z</time>
      </trkpt>
      <trkpt lat="43.19266" lon="5.60379">
        <ele>38.2</ele>
        <time>2016-03-28T08:48:43Z</time>
      </trkpt>
      <trkpt lat="43.19269" lon="5.60372">
        <ele>38.3</ele>
        <time>2016-03-28T08:48:44Z</time>
      </trkpt>
      <trkpt lat="43.19272" lon="5.60364">
        <ele>38.5</ele>
        <time>2016-03-28T08:48:45Z</time>
      </trkpt>
      <trkpt lat="43.19274" lon="5.60358">
        <ele>38.6</ele>
        <time>2016-03-28T08:48:46Z</time>
      </trkpt>
      <trkpt lat="43.19278" lon="5.60353">
        <ele>38.7</ele>
        <time>2016-03-28T08:48:47Z</time>
      </trkpt>
      <trkpt lat="43.19282" lon="5.60348">
        <ele>38.8</ele>
        <time>2016-03-28T08:48:48Z</time>
      </trkpt>
      <trkpt lat="43.19283" lon="5.60342">
        <ele>38.8</ele>
        <time>2016-03-28T08:48:49Z</time>
      </trkpt>
      <trkpt lat="43.19285" lon="5.60334">
        <ele>38.7</ele>
        <time>2016-03-28T08:48:50Z</time>
      </trkpt>
      <trkpt lat="43.19287" lon="5.60329">
        <ele>38.7</ele>
        <time>2016-03-28T08:48:51Z</time>
      </trkpt>
      <trkpt lat="43.19292" lon="5.60323">
        <ele>38.8</ele>
        <time>2016-03-28T08:48:52Z</time>
      </trkpt>
      <trkpt lat="43.19295" lon="5.60319">
        <ele>38.9</ele>
        <time>2016-03-28T08:48:53Z</time>
      </trkpt>
      <trkpt lat="43.19298" lon="5.60312">
        <ele>38.9</ele>
        <time>2016-03-28T08:48:54Z</time>
      </trkpt>
      <trkpt lat="43.19301" lon="5.60308">
        <ele>39</ele>
        <time>2016-03-28T08:48:55Z</time>
      </trkpt>
      <trkpt lat="43.19305" lon="5.60302">
        <ele>39.1</ele>
        <time>2016-03-28T08:48:56Z</time>
      </trkpt>
      <trkpt lat="43.19308" lon="5.60293">
        <ele>39.2</ele>
        <time>2016-03-28T08:48:57Z</time>
      </trkpt>
      <trkpt lat="43.19311" lon="5.60286">
        <ele>39.5</ele>
        <time>2016-03-28T08:48:58Z</time>
      </trkpt>
      <trkpt lat="43.19313" lon="5.60277">
        <ele>39.9</ele>
        <time>2016-03-28T08:48:59Z</time>
      </trkpt>
      <trkpt lat="43.19315" lon="5.6027">
        <ele>40.2</ele>
        <time>2016-03-28T08:49:00Z</time>
      </trkpt>
      <trkpt lat="43.19316" lon="5.60265">
        <ele>40.3</ele>
        <time>2016-03-28T08:49:01Z</time>
      </trkpt>
      <trkpt lat="43.1932" lon="5.60259">
        <ele>40.7</ele>
        <time>2016-03-28T08:49:02Z</time>
      </trkpt>
      <trkpt lat="43.19322" lon="5.60253">
        <ele>40.9</ele>
        <time>2016-03-28T08:49:03Z</time>
      </trkpt>
      <trkpt lat="43.19326" lon="5.60245">
        <ele>41.2</ele>
        <time>2016-03-28T08:49:04Z</time>
      </trkpt>
      <trkpt lat="43.19324" lon="5.60247">
        <ele>41.1</ele>
        <time>2016-03-28T08:49:05Z</time>
      </trkpt>
      <trkpt lat="43.19336" lon="5.60221">
        <ele>41.9</ele>
        <time>2016-03-28T08:49:08Z</time>
      </trkpt>
      <trkpt lat="43.19338" lon="5.60215">
        <ele>42.1</ele>
        <time>2016-03-28T08:49:09Z</time>
      </trkpt>
      <trkpt lat="43.19342" lon="5.6021">
        <ele>42.2</ele>
        <time>2016-03-28T08:49:10Z</time>
      </trkpt>
      <trkpt lat="43.19347" lon="5.60206">
        <ele>42.4</ele>
        <time>2016-03-28T08:49:11Z</time>
      </trkpt>
      <trkpt lat="43.1935" lon="5.60201">
        <ele>42.6</ele>
        <time>2016-03-28T08:49:12Z</time>
      </trkpt>
      <trkpt lat="43.19353" lon="5.60195">
        <ele>42.9</ele>
        <time>2016-03-28T08:49:13Z</time>
      </trkpt>
      <trkpt lat="43.19355" lon="5.6019">
        <ele>43.1</ele>
        <time>2016-03-28T08:49:14Z</time>
      </trkpt>
      <trkpt lat="43.19359" lon="5.60185">
        <ele>43.3</ele>
        <time>2016-03-28T08:49:15Z</time>
      </trkpt>
      <trkpt lat="43.19362" lon="5.6018">
        <ele>43.5</ele>
        <time>2016-03-28T08:49:16Z</time>
      </trkpt>
      <trkpt lat="43.19366" lon="5.60177">
        <ele>43.6</ele>
        <time>2016-03-28T08:49:17Z</time>
      </trkpt>
      <trkpt lat="43.19368" lon="5.60171">
        <ele>43.8</ele>
        <time>2016-03-28T08:49:18Z</time>
      </trkpt>
      <trkpt lat="43.19372" lon="5.60165">
        <ele>44</ele>
        <time>2016-03-28T08:49:19Z</time>
      </trkpt>
      <trkpt lat="43.19377" lon="5.6016">
        <ele>44.4</ele>
        <time>2016-03-28T08:49:20Z</time>
      </trkpt>
      <trkpt lat="43.19382" lon="5.60156">
        <ele>44.8</ele>
        <time>2016-03-28T08:49:21Z</time>
      </trkpt>
      <trkpt lat="43.19386" lon="5.60153">
        <ele>45.3</ele>
        <time>2016-03-28T08:49:22Z</time>
      </trkpt>
      <trkpt lat="43.19392" lon="5.6015">
        <ele>45.8</ele>
        <time>2016-03-28T08:49:23Z</time>
      </trkpt>
      <trkpt lat="43.19393" lon="5.60144">
        <ele>45.9</ele>
        <time>2016-03-28T08:49:24Z</time>
      </trkpt>
      <trkpt lat="43.19396" lon="5.60139">
        <ele>46.2</ele>
        <time>2016-03-28T08:49:25Z</time>
      </trkpt>
      <trkpt lat="43.19401" lon="5.60136">
        <ele>46.5</ele>
        <time>2016-03-28T08:49:26Z</time>
      </trkpt>
      <trkpt lat="43.19404" lon="5.60131">
        <ele>46.7</ele>
        <time>2016-03-28T08:49:27Z</time>
      </trkpt>
      <trkpt lat="43.19407" lon="5.60127">
        <ele>46.9</ele>
        <time>2016-03-28T08:49:28Z</time>
      </trkpt>
      <trkpt lat="43.19412" lon="5.60122">
        <ele>47.4</ele>
        <time>2016-03-28T08:49:29Z</time>
      </trkpt>
      <trkpt lat="43.19417" lon="5.60117">
        <ele>48</ele>
        <time>2016-03-28T08:49:30Z</time>
      </trkpt>
      <trkpt lat="43.1942" lon="5.60112">
        <ele>48.4</ele>
        <time>2016-03-28T08:49:31Z</time>
      </trkpt>
      <trkpt lat="43.19424" lon="5.60108">
        <ele>48.8</ele>
        <time>2016-03-28T08:49:32Z</time>
      </trkpt>
      <trkpt lat="43.1943" lon="5.60104">
        <ele>49.2</ele>
        <time>2016-03-28T08:49:33Z</time>
      </trkpt>
      <trkpt lat="43.19436" lon="5.601">
        <ele>49.7</ele>
        <time>2016-03-28T08:49:34Z</time>
      </trkpt>
      <trkpt lat="43.1944" lon="5.60096">
        <ele>50</ele>
        <time>2016-03-28T08:49:35Z</time>
      </trkpt>
      <trkpt lat="43.19444" lon="5.60091">
        <ele>50.3</ele>
        <time>2016-03-28T08:49:36Z</time>
      </trkpt>
      <trkpt lat="43.19447" lon="5.60087">
        <ele>50.6</ele>
        <time>2016-03-28T08:49:37Z</time>
      </trkpt>
      <trkpt lat="43.1945" lon="5.60082">
        <ele>50.8</ele>
        <time>2016-03-28T08:49:38Z</time>
      </trkpt>
      <trkpt lat="43.19453" lon="5.60076">
        <ele>51</ele>
        <time>2016-03-28T08:49:39Z</time>
      </trkpt>
      <trkpt lat="43.19454" lon="5.60069">
        <ele>51.3</ele>
        <time>2016-03-28T08:49:40Z</time>
      </trkpt>
      <trkpt lat="43.19456" lon="5.60061">
        <ele>51.5</ele>
        <time>2016-03-28T08:49:41Z</time>
      </trkpt>
      <trkpt lat="43.19457" lon="5.60048">
        <ele>51.8</ele>
        <time>2016-03-28T08:49:43Z</time>
      </trkpt>
      <trkpt lat="43.19457" lon="5.60042">
        <ele>52</ele>
        <time>2016-03-28T08:49:44Z</time>
      </trkpt>
      <trkpt lat="43.19453" lon="5.60025">
        <ele>53</ele>
        <time>2016-03-28T08:49:45Z</time>
      </trkpt>
      <trkpt lat="43.19456" lon="5.60002">
        <ele>54.4</ele>
        <time>2016-03-28T08:49:46Z</time>
      </trkpt>
      <trkpt lat="43.1946" lon="5.59991">
        <ele>55</ele>
        <time>2016-03-28T08:49:49Z</time>
      </trkpt>
      <trkpt lat="43.19463" lon="5.59987">
        <ele>55.2</ele>
        <time>2016-03-28T08:49:50Z</time>
      </trkpt>
      <trkpt lat="43.19464" lon="5.59978">
        <ele>55.7</ele>
        <time>2016-03-28T08:49:51Z</time>
      </trkpt>
      <trkpt lat="43.19465" lon="5.59971">
        <ele>56</ele>
        <time>2016-03-28T08:49:52Z</time>
      </trkpt>
      <trkpt lat="43.19466" lon="5.59965">
        <ele>56.3</ele>
        <time>2016-03-28T08:49:53Z</time>
      </trkpt>
      <trkpt lat="43.19467" lon="5.59957">
        <ele>56.7</ele>
        <time>2016-03-28T08:49:54Z</time>
      </trkpt>
      <trkpt lat="43.19469" lon="5.5995">
        <ele>57.4</ele>
        <time>2016-03-28T08:49:55Z</time>
      </trkpt>
      <trkpt lat="43.19471" lon="5.59943">
        <ele>57.9</ele>
        <time>2016-03-28T08:49:56Z</time>
      </trkpt>
      <trkpt lat="43.1948" lon="5.59914">
        <ele>60.6</ele>
        <time>2016-03-28T08:50:00Z</time>
      </trkpt>
      <trkpt lat="43.19482" lon="5.59907">
        <ele>61.2</ele>
        <time>2016-03-28T08:50:01Z</time>
      </trkpt>
      <trkpt lat="43.19484" lon="5.599">
        <ele>61.8</ele>
        <time>2016-03-28T08:50:02Z</time>
      </trkpt>
      <trkpt lat="43.19487" lon="5.59893">
        <ele>62.4</ele>
        <time>2016-03-28T08:50:03Z</time>
      </trkpt>
      <trkpt lat="43.19491" lon="5.59886">
        <ele>63.1</ele>
        <time>2016-03-28T08:50:04Z</time>
      </trkpt>
      <trkpt lat="43.19494" lon="5.59879">
        <ele>63.7</ele>
        <time>2016-03-28T08:50:05Z</time>
      </trkpt>
      <trkpt lat="43.19497" lon="5.59873">
        <ele>64.3</ele>
        <time>2016-03-28T08:50:06Z</time>
      </trkpt>
      <trkpt lat="43.195" lon="5.59866">
        <ele>64.9</ele>
        <time>2016-03-28T08:50:07Z</time>
      </trkpt>
      <trkpt lat="43.19503" lon="5.59861">
        <ele>65.3</ele>
        <time>2016-03-28T08:50:08Z</time>
      </trkpt>
      <trkpt lat="43.19506" lon="5.59855">
        <ele>65.8</ele>
        <time>2016-03-28T08:50:09Z</time>
      </trkpt>
      <trkpt lat="43.1951" lon="5.59849">
        <ele>66.2</ele>
        <time>2016-03-28T08:50:10Z</time>
      </trkpt>
      <trkpt lat="43.19514" lon="5.59843">
        <ele>66.7</ele>
        <time>2016-03-28T08:50:11Z</time>
      </trkpt>
      <trkpt lat="43.19532" lon="5.59821">
        <ele>68.4</ele>
        <time>2016-03-28T08:50:15Z</time>
      </trkpt>
      <trkpt lat="43.19537" lon="5.59816">
        <ele>68.8</ele>
        <time>2016-03-28T08:50:16Z</time>
      </trkpt>
      <trkpt lat="43.19541" lon="5.5981">
        <ele>69.2</ele>
        <time>2016-03-28T08:50:17Z</time>
      </trkpt>
      <trkpt lat="43.19548" lon="5.59802">
        <ele>69.7</ele>
        <time>2016-03-28T08:50:19Z</time>
      </trkpt>
      <trkpt lat="43.19552" lon="5.59799">
        <ele>69.9</ele>
        <time>2016-03-28T08:50:20Z</time>
      </trkpt>
      <trkpt lat="43.19569" lon="5.5978">
        <ele>70.5</ele>
        <time>2016-03-28T08:50:24Z</time>
      </trkpt>
      <trkpt lat="43.19571" lon="5.59775">
        <ele>70.7</ele>
        <time>2016-03-28T08:50:25Z</time>
      </trkpt>
      <trkpt lat="43.19575" lon="5.59771">
        <ele>70.7</ele>
        <time>2016-03-28T08:50:26Z</time>
      </trkpt>
      <trkpt lat="43.19579" lon="5.59767">
        <ele>70.8</ele>
        <time>2016-03-28T08:50:27Z</time>
      </trkpt>
      <trkpt lat="43.19583" lon="5.5976">
        <ele>70.9</ele>
        <time>2016-03-28T08:50:28Z</time>
      </trkpt>
      <trkpt lat="43.19588" lon="5.59755">
        <ele>70.9</ele>
        <time>2016-03-28T08:50:29Z</time>
      </trkpt>
      <trkpt lat="43.19591" lon="5.59749">
        <ele>71</ele>
        <time>2016-03-28T08:50:30Z</time>
      </trkpt>
      <trkpt lat="43.19595" lon="5.59744">
        <ele>71</ele>
        <time>2016-03-28T08:50:31Z</time>
      </trkpt>
      <trkpt lat="43.19598" lon="5.59737">
        <ele>71.1</ele>
        <time>2016-03-28T08:50:32Z</time>
      </trkpt>
      <trkpt lat="43.19602" lon="5.5973">
        <ele>71.2</ele>
        <time>2016-03-28T08:50:33Z</time>
      </trkpt>
      <trkpt lat="43.19604" lon="5.59724">
        <ele>71.3</ele>
        <time>2016-03-28T08:50:34Z</time>
      </trkpt>
      <trkpt lat="43.19607" lon="5.59716">
        <ele>71.3</ele>
        <time>2016-03-28T08:50:35Z</time>
      </trkpt>
      <trkpt lat="43.19611" lon="5.59708">
        <ele>71.4</ele>
        <time>2016-03-28T08:50:36Z</time>
      </trkpt>
      <trkpt lat="43.19614" lon="5.59701">
        <ele>71.7</ele>
        <time>2016-03-28T08:50:37Z</time>
      </trkpt>
      <trkpt lat="43.19616" lon="5.59693">
        <ele>72.1</ele>
        <time>2016-03-28T08:50:38Z</time>
      </trkpt>
      <trkpt lat="43.19621" lon="5.59683">
        <ele>72.5</ele>
        <time>2016-03-28T08:50:39Z</time>
      </trkpt>
      <trkpt lat="43.19625" lon="5.59676">
        <ele>72.8</ele>
        <time>2016-03-28T08:50:40Z</time>
      </trkpt>
      <trkpt lat="43.19628" lon="5.59671">
        <ele>72.9</ele>
        <time>2016-03-28T08:50:41Z</time>
      </trkpt>
      <trkpt lat="43.19631" lon="5.59663">
        <ele>73.4</ele>
        <time>2016-03-28T08:50:42Z</time>
      </trkpt>
      <trkpt lat="43.19634" lon="5.59655">
        <ele>73.8</ele>
        <time>2016-03-28T08:50:43Z</time>
      </trkpt>
      <trkpt lat="43.19636" lon="5.59649">
        <ele>74.1</ele>
        <time>2016-03-28T08:50:44Z</time>
      </trkpt>
      <trkpt lat="43.1964" lon="5.59643">
        <ele>74.2</ele>
        <time>2016-03-28T08:50:45Z</time>
      </trkpt>
      <trkpt lat="43.19642" lon="5.59637">
        <ele>74.4</ele>
        <time>2016-03-28T08:50:46Z</time>
      </trkpt>
      <trkpt lat="43.19655" lon="5.59604">
        <ele>74.6</ele>
        <time>2016-03-28T08:50:50Z</time>
      </trkpt>
      <trkpt lat="43.19658" lon="5.59596">
        <ele>74.5</ele>
        <time>2016-03-28T08:50:51Z</time>
      </trkpt>
      <trkpt lat="43.19656" lon="5.59593">
        <ele>75</ele>
        <time>2016-03-28T08:50:53Z</time>
      </trkpt>
      <trkpt lat="43.19665" lon="5.59564">
        <ele>74.9</ele>
        <time>2016-03-28T08:50:55Z</time>
      </trkpt>
      <trkpt lat="43.19666" lon="5.5956">
        <ele>75</ele>
        <time>2016-03-28T08:50:56Z</time>
      </trkpt>
      <trkpt lat="43.19671" lon="5.59541">
        <ele>75</ele>
        <time>2016-03-28T08:50:58Z</time>
      </trkpt>
      <trkpt lat="43.19674" lon="5.59535">
        <ele>75.2</ele>
        <time>2016-03-28T08:50:59Z</time>
      </trkpt>
      <trkpt lat="43.19675" lon="5.59527">
        <ele>75.7</ele>
        <time>2016-03-28T08:51:00Z</time>
      </trkpt>
      <trkpt lat="43.19677" lon="5.59521">
        <ele>76.1</ele>
        <time>2016-03-28T08:51:01Z</time>
      </trkpt>
      <trkpt lat="43.19679" lon="5.59514">
        <ele>76.4</ele>
        <time>2016-03-28T08:51:02Z</time>
      </trkpt>
      <trkpt lat="43.19682" lon="5.59508">
        <ele>76.6</ele>
        <time>2016-03-28T08:51:03Z</time>
      </trkpt>
      <trkpt lat="43.19686" lon="5.595">
        <ele>76.8</ele>
        <time>2016-03-28T08:51:04Z</time>
      </trkpt>
      <trkpt lat="43.19687" lon="5.59494">
        <ele>77.2</ele>
        <time>2016-03-28T08:51:05Z</time>
      </trkpt>
      <trkpt lat="43.19689" lon="5.59488">
        <ele>77.5</ele>
        <time>2016-03-28T08:51:06Z</time>
      </trkpt>
      <trkpt lat="43.19691" lon="5.59482">
        <ele>77.8</ele>
        <time>2016-03-28T08:51:07Z</time>
      </trkpt>
      <trkpt lat="43.19689" lon="5.59479">
        <ele>78.4</ele>
        <time>2016-03-28T08:51:08Z</time>
      </trkpt>
      <trkpt lat="43.1969" lon="5.59475">
        <ele>78.7</ele>
        <time>2016-03-28T08:51:09Z</time>
      </trkpt>
      <trkpt lat="43.19692" lon="5.59467">
        <ele>79.1</ele>
        <time>2016-03-28T08:51:10Z</time>
      </trkpt>
      <trkpt lat="43.19696" lon="5.5946">
        <ele>79.3</ele>
        <time>2016-03-28T08:51:11Z</time>
      </trkpt>
      <trkpt lat="43.19698" lon="5.59456">
        <ele>79.4</ele>
        <time>2016-03-28T08:51:12Z</time>
      </trkpt>
      <trkpt lat="43.19699" lon="5.59449">
        <ele>79.4</ele>
        <time>2016-03-28T08:51:13Z</time>
      </trkpt>
      <trkpt lat="43.19699" lon="5.59444">
        <ele>79.5</ele>
        <time>2016-03-28T08:51:14Z</time>
      </trkpt>
      <trkpt lat="43.19699" lon="5.59437">
        <ele>79.7</ele>
        <time>2016-03-28T08:51:15Z</time>
      </trkpt>
      <trkpt lat="43.19695" lon="5.59432">
        <ele>80.3</ele>
        <time>2016-03-28T08:51:16Z</time>
      </trkpt>
      <trkpt lat="43.19692" lon="5.59425">
        <ele>80.9</ele>
        <time>2016-03-28T08:51:17Z</time>
      </trkpt>
      <trkpt lat="43.1969" lon="5.59418">
        <ele>81.4</ele>
        <time>2016-03-28T08:51:18Z</time>
      </trkpt>
      <trkpt lat="43.19686" lon="5.59412">
        <ele>82</ele>
        <time>2016-03-28T08:51:19Z</time>
      </trkpt>
      <trkpt lat="43.19684" lon="5.59404">
        <ele>82.6</ele>
        <time>2016-03-28T08:51:20Z</time>
      </trkpt>
      <trkpt lat="43.19678" lon="5.59399">
        <ele>83.6</ele>
        <time>2016-03-28T08:51:21Z</time>
      </trkpt>
      <trkpt lat="43.19682" lon="5.5939">
        <ele>83.4</ele>
        <time>2016-03-28T08:51:22Z</time>
      </trkpt>
      <trkpt lat="43.19684" lon="5.5938">
        <ele>83.3</ele>
        <time>2016-03-28T08:51:23Z</time>
      </trkpt>
      <trkpt lat="43.19687" lon="5.59372">
        <ele>83.2</ele>
        <time>2016-03-28T08:51:24Z</time>
      </trkpt>
      <trkpt lat="43.1969" lon="5.59363">
        <ele>82.9</ele>
        <time>2016-03-28T08:51:25Z</time>
      </trkpt>
      <trkpt lat="43.19694" lon="5.59357">
        <ele>82.4</ele>
        <time>2016-03-28T08:51:26Z</time>
      </trkpt>
      <trkpt lat="43.19697" lon="5.59351">
        <ele>82</ele>
        <time>2016-03-28T08:51:27Z</time>
      </trkpt>
      <trkpt lat="43.197" lon="5.59345">
        <ele>81.6</ele>
        <time>2016-03-28T08:51:28Z</time>
      </trkpt>
      <trkpt lat="43.19704" lon="5.59339">
        <ele>81</ele>
        <time>2016-03-28T08:51:29Z</time>
      </trkpt>
      <trkpt lat="43.19706" lon="5.59332">
        <ele>80.8</ele>
        <time>2016-03-28T08:51:30Z</time>
      </trkpt>
      <trkpt lat="43.19709" lon="5.59326">
        <ele>80.5</ele>
        <time>2016-03-28T08:51:31Z</time>
      </trkpt>
      <trkpt lat="43.19711" lon="5.59319">
        <ele>80.3</ele>
        <time>2016-03-28T08:51:32Z</time>
      </trkpt>
      <trkpt lat="43.19713" lon="5.59314">
        <ele>80.1</ele>
        <time>2016-03-28T08:51:33Z</time>
      </trkpt>
      <trkpt lat="43.19715" lon="5.59307">
        <ele>79.9</ele>
        <time>2016-03-28T08:51:34Z</time>
      </trkpt>
      <trkpt lat="43.19718" lon="5.593">
        <ele>79.6</ele>
        <time>2016-03-28T08:51:35Z</time>
      </trkpt>
      <trkpt lat="43.19718" lon="5.59293">
        <ele>79.6</ele>
        <time>2016-03-28T08:51:36Z</time>
      </trkpt>
      <trkpt lat="43.19719" lon="5.59287">
        <ele>79.7</ele>
        <time>2016-03-28T08:51:37Z</time>
      </trkpt>
      <trkpt lat="43.1972" lon="5.5928">
        <ele>79.9</ele>
        <time>2016-03-28T08:51:38Z</time>
      </trkpt>
      <trkpt lat="43.19722" lon="5.59276">
        <ele>79.9</ele>
        <time>2016-03-28T08:51:39Z</time>
      </trkpt>
      <trkpt lat="43.19723" lon="5.5927">
        <ele>80</ele>
        <time>2016-03-28T08:51:40Z</time>
      </trkpt>
      <trkpt lat="43.19728" lon="5.59263">
        <ele>80</ele>
        <time>2016-03-28T08:51:41Z</time>
      </trkpt>
      <trkpt lat="43.19731" lon="5.59259">
        <ele>79.9</ele>
        <time>2016-03-28T08:51:42Z</time>
      </trkpt>
      <trkpt lat="43.19735" lon="5.59252">
        <ele>80</ele>
        <time>2016-03-28T08:51:43Z</time>
      </trkpt>
      <trkpt lat="43.1974" lon="5.59247">
        <ele>79.9</ele>
        <time>2016-03-28T08:51:44Z</time>
      </trkpt>
      <trkpt lat="43.19746" lon="5.59242">
        <ele>79.8</ele>
        <time>2016-03-28T08:51:45Z</time>
      </trkpt>
      <trkpt lat="43.19752" lon="5.59238">
        <ele>79.7</ele>
        <time>2016-03-28T08:51:46Z</time>
      </trkpt>
      <trkpt lat="43.19756" lon="5.59235">
        <ele>79.7</ele>
        <time>2016-03-28T08:51:47Z</time>
      </trkpt>
      <trkpt lat="43.19761" lon="5.59237">
        <ele>79.2</ele>
        <time>2016-03-28T08:51:48Z</time>
      </trkpt>
      <trkpt lat="43.19767" lon="5.59237">
        <ele>78.7</ele>
        <time>2016-03-28T08:51:49Z</time>
      </trkpt>
      <trkpt lat="43.19771" lon="5.59239">
        <ele>78.1</ele>
        <time>2016-03-28T08:51:50Z</time>
      </trkpt>
      <trkpt lat="43.19775" lon="5.59237">
        <ele>78.1</ele>
        <time>2016-03-28T08:51:51Z</time>
      </trkpt>
      <trkpt lat="43.19779" lon="5.59237">
        <ele>77.7</ele>
        <time>2016-03-28T08:51:52Z</time>
      </trkpt>
      <trkpt lat="43.19785" lon="5.59238">
        <ele>77.3</ele>
        <time>2016-03-28T08:51:53Z</time>
      </trkpt>
      <trkpt lat="43.19791" lon="5.59241">
        <ele>76.3</ele>
        <time>2016-03-28T08:51:54Z</time>
      </trkpt>
      <trkpt lat="43.19795" lon="5.59244">
        <ele>76</ele>
        <time>2016-03-28T08:51:55Z</time>
      </trkpt>
      <trkpt lat="43.198" lon="5.59245">
        <ele>76</ele>
        <time>2016-03-28T08:51:56Z</time>
      </trkpt>
      <trkpt lat="43.19805" lon="5.59247">
        <ele>76</ele>
        <time>2016-03-28T08:51:57Z</time>
      </trkpt>
      <trkpt lat="43.1981" lon="5.59248">
        <ele>76.1</ele>
        <time>2016-03-28T08:51:58Z</time>
      </trkpt>
      <trkpt lat="43.19815" lon="5.59247">
        <ele>76.4</ele>
        <time>2016-03-28T08:51:59Z</time>
      </trkpt>
      <trkpt lat="43.1982" lon="5.59249">
        <ele>76.4</ele>
        <time>2016-03-28T08:52:00Z</time>
      </trkpt>
      <trkpt lat="43.19824" lon="5.59249">
        <ele>76.7</ele>
        <time>2016-03-28T08:52:01Z</time>
      </trkpt>
      <trkpt lat="43.19828" lon="5.59248">
        <ele>77</ele>
        <time>2016-03-28T08:52:02Z</time>
      </trkpt>
      <trkpt lat="43.19832" lon="5.59244">
        <ele>77.6</ele>
        <time>2016-03-28T08:52:03Z</time>
      </trkpt>
      <trkpt lat="43.19836" lon="5.5924">
        <ele>78</ele>
        <time>2016-03-28T08:52:04Z</time>
      </trkpt>
      <trkpt lat="43.19839" lon="5.59237">
        <ele>78.4</ele>
        <time>2016-03-28T08:52:05Z</time>
      </trkpt>
      <trkpt lat="43.19842" lon="5.59234">
        <ele>78.8</ele>
        <time>2016-03-28T08:52:06Z</time>
      </trkpt>
      <trkpt lat="43.19845" lon="5.5923">
        <ele>79.2</ele>
        <time>2016-03-28T08:52:07Z</time>
      </trkpt>
      <trkpt lat="43.19847" lon="5.59225">
        <ele>79.7</ele>
        <time>2016-03-28T08:52:08Z</time>
      </trkpt>
      <trkpt lat="43.19849" lon="5.59219">
        <ele>80.2</ele>
        <time>2016-03-28T08:52:09Z</time>
      </trkpt>
      <trkpt lat="43.1985" lon="5.59213">
        <ele>80.6</ele>
        <time>2016-03-28T08:52:10Z</time>
      </trkpt>
      <trkpt lat="43.19851" lon="5.59207">
        <ele>81.1</ele>
        <time>2016-03-28T08:52:11Z</time>
      </trkpt>
      <trkpt lat="43.19852" lon="5.59201">
        <ele>81.5</ele>
        <time>2016-03-28T08:52:12Z</time>
      </trkpt>
      <trkpt lat="43.19852" lon="5.59195">
        <ele>81.9</ele>
        <time>2016-03-28T08:52:13Z</time>
      </trkpt>
      <trkpt lat="43.19852" lon="5.59188">
        <ele>82.4</ele>
        <time>2016-03-28T08:52:14Z</time>
      </trkpt>
      <trkpt lat="43.19851" lon="5.59182">
        <ele>82.8</ele>
        <time>2016-03-28T08:52:15Z</time>
      </trkpt>
      <trkpt lat="43.19851" lon="5.59177">
        <ele>83.2</ele>
        <time>2016-03-28T08:52:16Z</time>
      </trkpt>
      <trkpt lat="43.1985" lon="5.5917">
        <ele>83.6</ele>
        <time>2016-03-28T08:52:17Z</time>
      </trkpt>
      <trkpt lat="43.19846" lon="5.59164">
        <ele>84.3</ele>
        <time>2016-03-28T08:52:18Z</time>
      </trkpt>
      <trkpt lat="43.19844" lon="5.59156">
        <ele>84.9</ele>
        <time>2016-03-28T08:52:19Z</time>
      </trkpt>
      <trkpt lat="43.19843" lon="5.59149">
        <ele>85.6</ele>
        <time>2016-03-28T08:52:20Z</time>
      </trkpt>
      <trkpt lat="43.1984" lon="5.59142">
        <ele>86.3</ele>
        <time>2016-03-28T08:52:21Z</time>
      </trkpt>
      <trkpt lat="43.1984" lon="5.59135">
        <ele>87</ele>
        <time>2016-03-28T08:52:22Z</time>
      </trkpt>
      <trkpt lat="43.19837" lon="5.59129">
        <ele>87.8</ele>
        <time>2016-03-28T08:52:23Z</time>
      </trkpt>
      <trkpt lat="43.19835" lon="5.59123">
        <ele>88.4</ele>
        <time>2016-03-28T08:52:24Z</time>
      </trkpt>
      <trkpt lat="43.19833" lon="5.59116">
        <ele>88.9</ele>
        <time>2016-03-28T08:52:25Z</time>
      </trkpt>
      <trkpt lat="43.19828" lon="5.59113">
        <ele>89.6</ele>
        <time>2016-03-28T08:52:26Z</time>
      </trkpt>
      <trkpt lat="43.19827" lon="5.59108">
        <ele>89.9</ele>
        <time>2016-03-28T08:52:27Z</time>
      </trkpt>
      <trkpt lat="43.19819" lon="5.5911">
        <ele>90.6</ele>
        <time>2016-03-28T08:52:28Z</time>
      </trkpt>
      <trkpt lat="43.19816" lon="5.59106">
        <ele>91.1</ele>
        <time>2016-03-28T08:52:29Z</time>
      </trkpt>
      <trkpt lat="43.19818" lon="5.59102">
        <ele>91.1</ele>
        <time>2016-03-28T08:52:30Z</time>
      </trkpt>
      <trkpt lat="43.19817" lon="5.59096">
        <ele>91.4</ele>
        <time>2016-03-28T08:52:31Z</time>
      </trkpt>
      <trkpt lat="43.19813" lon="5.5909">
        <ele>92</ele>
        <time>2016-03-28T08:52:32Z</time>
      </trkpt>
      <trkpt lat="43.19818" lon="5.59081">
        <ele>91.9</ele>
        <time>2016-03-28T08:52:33Z</time>
      </trkpt>
      <trkpt lat="43.19829" lon="5.59069">
        <ele>91.3</ele>
        <time>2016-03-28T08:52:34Z</time>
      </trkpt>
      <trkpt lat="43.19828" lon="5.59061">
        <ele>91.7</ele>
        <time>2016-03-28T08:52:35Z</time>
      </trkpt>
      <trkpt lat="43.19831" lon="5.59054">
        <ele>91.7</ele>
        <time>2016-03-28T08:52:36Z</time>
      </trkpt>
      <trkpt lat="43.19834" lon="5.59049">
        <ele>91.6</ele>
        <time>2016-03-28T08:52:37Z</time>
      </trkpt>
      <trkpt lat="43.19838" lon="5.59042">
        <ele>91.6</ele>
        <time>2016-03-28T08:52:38Z</time>
      </trkpt>
      <trkpt lat="43.19841" lon="5.59035">
        <ele>91.9</ele>
        <time>2016-03-28T08:52:39Z</time>
      </trkpt>
      <trkpt lat="43.19849" lon="5.59027">
        <ele>92.1</ele>
        <time>2016-03-28T08:52:40Z</time>
      </trkpt>
      <trkpt lat="43.19854" lon="5.5902">
        <ele>92.5</ele>
        <time>2016-03-28T08:52:41Z</time>
      </trkpt>
      <trkpt lat="43.19858" lon="5.59014">
        <ele>92.9</ele>
        <time>2016-03-28T08:52:42Z</time>
      </trkpt>
      <trkpt lat="43.19862" lon="5.59008">
        <ele>93.4</ele>
        <time>2016-03-28T08:52:43Z</time>
      </trkpt>
      <trkpt lat="43.19866" lon="5.59003">
        <ele>93.7</ele>
        <time>2016-03-28T08:52:44Z</time>
      </trkpt>
      <trkpt lat="43.1987" lon="5.58999">
        <ele>94</ele>
        <time>2016-03-28T08:52:45Z</time>
      </trkpt>
      <trkpt lat="43.19875" lon="5.58994">
        <ele>94.3</ele>
        <time>2016-03-28T08:52:46Z</time>
      </trkpt>
      <trkpt lat="43.19881" lon="5.58989">
        <ele>94.6</ele>
        <time>2016-03-28T08:52:47Z</time>
      </trkpt>
      <trkpt lat="43.19885" lon="5.58986">
        <ele>94.8</ele>
        <time>2016-03-28T08:52:48Z</time>
      </trkpt>
      <trkpt lat="43.19891" lon="5.5898">
        <ele>95.1</ele>
        <time>2016-03-28T08:52:49Z</time>
      </trkpt>
      <trkpt lat="43.19896" lon="5.58978">
        <ele>95.1</ele>
        <time>2016-03-28T08:52:50Z</time>
      </trkpt>
      <trkpt lat="43.19901" lon="5.58976">
        <ele>95</ele>
        <time>2016-03-28T08:52:51Z</time>
      </trkpt>
      <trkpt lat="43.19908" lon="5.58974">
        <ele>94.9</ele>
        <time>2016-03-28T08:52:52Z</time>
      </trkpt>
      <trkpt lat="43.19913" lon="5.58971">
        <ele>94.8</ele>
        <time>2016-03-28T08:52:53Z</time>
      </trkpt>
      <trkpt lat="43.19917" lon="5.5897">
        <ele>94.7</ele>
        <time>2016-03-28T08:52:54Z</time>
      </trkpt>
      <trkpt lat="43.19921" lon="5.58968">
        <ele>94.6</ele>
        <time>2016-03-28T08:52:55Z</time>
      </trkpt>
      <trkpt lat="43.19926" lon="5.58966">
        <ele>94.4</ele>
        <time>2016-03-28T08:52:56Z</time>
      </trkpt>
      <trkpt lat="43.19931" lon="5.58967">
        <ele>94.1</ele>
        <time>2016-03-28T08:52:57Z</time>
      </trkpt>
      <trkpt lat="43.19939" lon="5.58971">
        <ele>93.1</ele>
        <time>2016-03-28T08:52:59Z</time>
      </trkpt>
      <trkpt lat="43.19945" lon="5.58972">
        <ele>92.6</ele>
        <time>2016-03-28T08:53:00Z</time>
      </trkpt>
      <trkpt lat="43.1995" lon="5.58972">
        <ele>92.3</ele>
        <time>2016-03-28T08:53:01Z</time>
      </trkpt>
      <trkpt lat="43.19954" lon="5.5897">
        <ele>92.1</ele>
        <time>2016-03-28T08:53:02Z</time>
      </trkpt>
      <trkpt lat="43.19957" lon="5.58968">
        <ele>92.2</ele>
        <time>2016-03-28T08:53:03Z</time>
      </trkpt>
      <trkpt lat="43.19963" lon="5.58966">
        <ele>92.1</ele>
        <time>2016-03-28T08:53:04Z</time>
      </trkpt>
      <trkpt lat="43.19967" lon="5.58962">
        <ele>92.2</ele>
        <time>2016-03-28T08:53:05Z</time>
      </trkpt>
      <trkpt lat="43.19971" lon="5.58961">
        <ele>92</ele>
        <time>2016-03-28T08:53:06Z</time>
      </trkpt>
      <trkpt lat="43.19975" lon="5.58958">
        <ele>92</ele>
        <time>2016-03-28T08:53:07Z</time>
      </trkpt>
      <trkpt lat="43.19979" lon="5.58954">
        <ele>92</ele>
        <time>2016-03-28T08:53:08Z</time>
      </trkpt>
      <trkpt lat="43.19983" lon="5.58949">
        <ele>92.1</ele>
        <time>2016-03-28T08:53:09Z</time>
      </trkpt>
      <trkpt lat="43.19986" lon="5.58945">
        <ele>92.2</ele>
        <time>2016-03-28T08:53:10Z</time>
      </trkpt>
      <trkpt lat="43.19989" lon="5.5894">
        <ele>92.3</ele>
        <time>2016-03-28T08:53:11Z</time>
      </trkpt>
      <trkpt lat="43.19992" lon="5.58935">
        <ele>92.5</ele>
        <time>2016-03-28T08:53:12Z</time>
      </trkpt>
      <trkpt lat="43.19995" lon="5.5893">
        <ele>92.7</ele>
        <time>2016-03-28T08:53:13Z</time>
      </trkpt>
      <trkpt lat="43.19996" lon="5.58921">
        <ele>93.2</ele>
        <time>2016-03-28T08:53:14Z</time>
      </trkpt>
      <trkpt lat="43.19997" lon="5.58914">
        <ele>93.6</ele>
        <time>2016-03-28T08:53:15Z</time>
      </trkpt>
      <trkpt lat="43.20001" lon="5.58906">
        <ele>93.9</ele>
        <time>2016-03-28T08:53:17Z</time>
      </trkpt>
      <trkpt lat="43.20003" lon="5.58899">
        <ele>94.2</ele>
        <time>2016-03-28T08:53:18Z</time>
      </trkpt>
      <trkpt lat="43.20005" lon="5.58893">
        <ele>94.5</ele>
        <time>2016-03-28T08:53:19Z</time>
      </trkpt>
      <trkpt lat="43.20007" lon="5.58887">
        <ele>94.9</ele>
        <time>2016-03-28T08:53:20Z</time>
      </trkpt>
      <trkpt lat="43.20008" lon="5.58881">
        <ele>95.2</ele>
        <time>2016-03-28T08:53:21Z</time>
      </trkpt>
      <trkpt lat="43.20005" lon="5.58878">
        <ele>95.5</ele>
        <time>2016-03-28T08:53:22Z</time>
      </trkpt>
      <trkpt lat="43.20006" lon="5.58872">
        <ele>96</ele>
        <time>2016-03-28T08:53:23Z</time>
      </trkpt>
      <trkpt lat="43.20003" lon="5.5887">
        <ele>96.3</ele>
        <time>2016-03-28T08:53:24Z</time>
      </trkpt>
      <trkpt lat="43.20002" lon="5.58864">
        <ele>96.9</ele>
        <time>2016-03-28T08:53:25Z</time>
      </trkpt>
      <trkpt lat="43.20003" lon="5.58857">
        <ele>97.5</ele>
        <time>2016-03-28T08:53:26Z</time>
      </trkpt>
      <trkpt lat="43.20003" lon="5.58852">
        <ele>97.9</ele>
        <time>2016-03-28T08:53:27Z</time>
      </trkpt>
      <trkpt lat="43.20006" lon="5.58845">
        <ele>98.5</ele>
        <time>2016-03-28T08:53:28Z</time>
      </trkpt>
      <trkpt lat="43.20008" lon="5.5884">
        <ele>98.9</ele>
        <time>2016-03-28T08:53:29Z</time>
      </trkpt>
      <trkpt lat="43.2001" lon="5.58834">
        <ele>99.4</ele>
        <time>2016-03-28T08:53:30Z</time>
      </trkpt>
      <trkpt lat="43.20015" lon="5.58826">
        <ele>100</ele>
        <time>2016-03-28T08:53:31Z</time>
      </trkpt>
      <trkpt lat="43.2002" lon="5.58819">
        <ele>100.6</ele>
        <time>2016-03-28T08:53:32Z</time>
      </trkpt>
      <trkpt lat="43.20027" lon="5.58812">
        <ele>101.1</ele>
        <time>2016-03-28T08:53:33Z</time>
      </trkpt>
      <trkpt lat="43.2003" lon="5.58806">
        <ele>101.7</ele>
        <time>2016-03-28T08:53:34Z</time>
      </trkpt>
      <trkpt lat="43.20034" lon="5.58802">
        <ele>102.1</ele>
        <time>2016-03-28T08:53:35Z</time>
      </trkpt>
      <trkpt lat="43.20037" lon="5.58795">
        <ele>102.7</ele>
        <time>2016-03-28T08:53:36Z</time>
      </trkpt>
      <trkpt lat="43.20043" lon="5.58792">
        <ele>102.8</ele>
        <time>2016-03-28T08:53:37Z</time>
      </trkpt>
      <trkpt lat="43.20047" lon="5.58787">
        <ele>102.5</ele>
        <time>2016-03-28T08:53:38Z</time>
      </trkpt>
      <trkpt lat="43.20053" lon="5.58782">
        <ele>102</ele>
        <time>2016-03-28T08:53:39Z</time>
      </trkpt>
      <trkpt lat="43.20058" lon="5.58779">
        <ele>101.5</ele>
        <time>2016-03-28T08:53:40Z</time>
      </trkpt>
      <trkpt lat="43.20063" lon="5.58776">
        <ele>101.1</ele>
        <time>2016-03-28T08:53:41Z</time>
      </trkpt>
      <trkpt lat="43.20068" lon="5.58774">
        <ele>100.7</ele>
        <time>2016-03-28T08:53:42Z</time>
      </trkpt>
      <trkpt lat="43.20073" lon="5.58773">
        <ele>100</ele>
        <time>2016-03-28T08:53:43Z</time>
      </trkpt>
      <trkpt lat="43.20079" lon="5.58773">
        <ele>99.3</ele>
        <time>2016-03-28T08:53:44Z</time>
      </trkpt>
      <trkpt lat="43.20084" lon="5.58773">
        <ele>98.6</ele>
        <time>2016-03-28T08:53:45Z</time>
      </trkpt>
      <trkpt lat="43.2009" lon="5.58773">
        <ele>97.8</ele>
        <time>2016-03-28T08:53:46Z</time>
      </trkpt>
      <trkpt lat="43.20095" lon="5.58775">
        <ele>97</ele>
        <time>2016-03-28T08:53:47Z</time>
      </trkpt>
      <trkpt lat="43.20099" lon="5.58776">
        <ele>96.3</ele>
        <time>2016-03-28T08:53:48Z</time>
      </trkpt>
      <trkpt lat="43.20103" lon="5.58776">
        <ele>95.8</ele>
        <time>2016-03-28T08:53:49Z</time>
      </trkpt>
      <trkpt lat="43.20107" lon="5.58777">
        <ele>95.2</ele>
        <time>2016-03-28T08:53:50Z</time>
      </trkpt>
      <trkpt lat="43.20112" lon="5.58778">
        <ele>94.4</ele>
        <time>2016-03-28T08:53:51Z</time>
      </trkpt>
      <trkpt lat="43.20117" lon="5.58781">
        <ele>93.4</ele>
        <time>2016-03-28T08:53:52Z</time>
      </trkpt>
      <trkpt lat="43.20123" lon="5.58782">
        <ele>92.5</ele>
        <time>2016-03-28T08:53:53Z</time>
      </trkpt>
      <trkpt lat="43.20127" lon="5.58784">
        <ele>92.1</ele>
        <time>2016-03-28T08:53:54Z</time>
      </trkpt>
      <trkpt lat="43.20131" lon="5.58789">
        <ele>92</ele>
        <time>2016-03-28T08:53:55Z</time>
      </trkpt>
      <trkpt lat="43.20136" lon="5.58794">
        <ele>92.1</ele>
        <time>2016-03-28T08:53:56Z</time>
      </trkpt>
      <trkpt lat="43.20141" lon="5.58798">
        <ele>92.6</ele>
        <time>2016-03-28T08:53:57Z</time>
      </trkpt>
      <trkpt lat="43.20146" lon="5.58801">
        <ele>93.1</ele>
        <time>2016-03-28T08:53:58Z</time>
      </trkpt>
      <trkpt lat="43.2015" lon="5.58805">
        <ele>93.4</ele>
        <time>2016-03-28T08:53:59Z</time>
      </trkpt>
      <trkpt lat="43.20154" lon="5.58807">
        <ele>93.8</ele>
        <time>2016-03-28T08:54:00Z</time>
      </trkpt>
      <trkpt lat="43.20158" lon="5.5881">
        <ele>94.1</ele>
        <time>2016-03-28T08:54:01Z</time>
      </trkpt>
      <trkpt lat="43.20163" lon="5.58813">
        <ele>94.4</ele>
        <time>2016-03-28T08:54:02Z</time>
      </trkpt>
      <trkpt lat="43.20167" lon="5.58818">
        <ele>94.7</ele>
        <time>2016-03-28T08:54:03Z</time>
      </trkpt>
      <trkpt lat="43.20171" lon="5.58822">
        <ele>94.9</ele>
        <time>2016-03-28T08:54:04Z</time>
      </trkpt>
      <trkpt lat="43.20175" lon="5.58828">
        <ele>95.1</ele>
        <time>2016-03-28T08:54:05Z</time>
      </trkpt>
      <trkpt lat="43.2018" lon="5.5883">
        <ele>95.4</ele>
        <time>2016-03-28T08:54:06Z</time>
      </trkpt>
      <trkpt lat="43.20184" lon="5.58833">
        <ele>95.5</ele>
        <time>2016-03-28T08:54:07Z</time>
      </trkpt>
      <trkpt lat="43.20187" lon="5.58838">
        <ele>95.6</ele>
        <time>2016-03-28T08:54:08Z</time>
      </trkpt>
      <trkpt lat="43.20192" lon="5.58842">
        <ele>95.7</ele>
        <time>2016-03-28T08:54:09Z</time>
      </trkpt>
      <trkpt lat="43.20196" lon="5.58845">
        <ele>95.8</ele>
        <time>2016-03-28T08:54:10Z</time>
      </trkpt>
      <trkpt lat="43.202" lon="5.58847">
        <ele>96</ele>
        <time>2016-03-28T08:54:11Z</time>
      </trkpt>
      <trkpt lat="43.20203" lon="5.58851">
        <ele>95.9</ele>
        <time>2016-03-28T08:54:12Z</time>
      </trkpt>
      <trkpt lat="43.20207" lon="5.58854">
        <ele>96</ele>
        <time>2016-03-28T08:54:13Z</time>
      </trkpt>
      <trkpt lat="43.20211" lon="5.58857">
        <ele>96.1</ele>
        <time>2016-03-28T08:54:14Z</time>
      </trkpt>
      <trkpt lat="43.20214" lon="5.58862">
        <ele>96.1</ele>
        <time>2016-03-28T08:54:15Z</time>
      </trkpt>
      <trkpt lat="43.20217" lon="5.58867">
        <ele>96</ele>
        <time>2016-03-28T08:54:16Z</time>
      </trkpt>
      <trkpt lat="43.2022" lon="5.58871">
        <ele>95.9</ele>
        <time>2016-03-28T08:54:17Z</time>
      </trkpt>
      <trkpt lat="43.20222" lon="5.58877">
        <ele>96</ele>
        <time>2016-03-28T08:54:18Z</time>
      </trkpt>
      <trkpt lat="43.20225" lon="5.58881">
        <ele>96.5</ele>
        <time>2016-03-28T08:54:19Z</time>
      </trkpt>
      <trkpt lat="43.20227" lon="5.58886">
        <ele>97</ele>
        <time>2016-03-28T08:54:20Z</time>
      </trkpt>
      <trkpt lat="43.2023" lon="5.5889">
        <ele>97.4</ele>
        <time>2016-03-28T08:54:21Z</time>
      </trkpt>
      <trkpt lat="43.20233" lon="5.58894">
        <ele>97.8</ele>
        <time>2016-03-28T08:54:22Z</time>
      </trkpt>
      <trkpt lat="43.20235" lon="5.589">
        <ele>98.2</ele>
        <time>2016-03-28T08:54:23Z</time>
      </trkpt>
      <trkpt lat="43.20237" lon="5.58904">
        <ele>98.5</ele>
        <time>2016-03-28T08:54:24Z</time>
      </trkpt>
      <trkpt lat="43.20239" lon="5.5891">
        <ele>98.9</ele>
        <time>2016-03-28T08:54:25Z</time>
      </trkpt>
      <trkpt lat="43.20241" lon="5.58915">
        <ele>99.1</ele>
        <time>2016-03-28T08:54:26Z</time>
      </trkpt>
      <trkpt lat="43.20243" lon="5.5892">
        <ele>99.3</ele>
        <time>2016-03-28T08:54:27Z</time>
      </trkpt>
      <trkpt lat="43.20244" lon="5.58925">
        <ele>99.5</ele>
        <time>2016-03-28T08:54:28Z</time>
      </trkpt>
      <trkpt lat="43.20246" lon="5.58929">
        <ele>99.6</ele>
        <time>2016-03-28T08:54:29Z</time>
      </trkpt>
      <trkpt lat="43.20248" lon="5.58933">
        <ele>99.7</ele>
        <time>2016-03-28T08:54:30Z</time>
      </trkpt>
      <trkpt lat="43.20251" lon="5.58937">
        <ele>99.6</ele>
        <time>2016-03-28T08:54:31Z</time>
      </trkpt>
      <trkpt lat="43.20255" lon="5.58939">
        <ele>99.4</ele>
        <time>2016-03-28T08:54:32Z</time>
      </trkpt>
      <trkpt lat="43.20259" lon="5.5894">
        <ele>99.2</ele>
        <time>2016-03-28T08:54:33Z</time>
      </trkpt>
      <trkpt lat="43.20263" lon="5.58943">
        <ele>99</ele>
        <time>2016-03-28T08:54:34Z</time>
      </trkpt>
      <trkpt lat="43.20268" lon="5.58944">
        <ele>98.5</ele>
        <time>2016-03-28T08:54:35Z</time>
      </trkpt>
      <trkpt lat="43.20272" lon="5.58942">
        <ele>98.3</ele>
        <time>2016-03-28T08:54:36Z</time>
      </trkpt>
      <trkpt lat="43.20278" lon="5.58942">
        <ele>97.8</ele>
        <time>2016-03-28T08:54:37Z</time>
      </trkpt>
      <trkpt lat="43.20282" lon="5.58939">
        <ele>97.6</ele>
        <time>2016-03-28T08:54:38Z</time>
      </trkpt>
      <trkpt lat="43.20287" lon="5.58936">
        <ele>97.4</ele>
        <time>2016-03-28T08:54:39Z</time>
      </trkpt>
      <trkpt lat="43.20291" lon="5.58934">
        <ele>97.2</ele>
        <time>2016-03-28T08:54:40Z</time>
      </trkpt>
      <trkpt lat="43.20294" lon="5.58931">
        <ele>97.4</ele>
        <time>2016-03-28T08:54:41Z</time>
      </trkpt>
      <trkpt lat="43.20299" lon="5.58927">
        <ele>97.7</ele>
        <time>2016-03-28T08:54:42Z</time>
      </trkpt>
      <trkpt lat="43.20303" lon="5.58924">
        <ele>98</ele>
        <time>2016-03-28T08:54:43Z</time>
      </trkpt>
      <trkpt lat="43.20305" lon="5.58921">
        <ele>98.2</ele>
        <time>2016-03-28T08:54:44Z</time>
      </trkpt>
      <trkpt lat="43.2031" lon="5.58919">
        <ele>98.4</ele>
        <time>2016-03-28T08:54:45Z</time>
      </trkpt>
      <trkpt lat="43.20314" lon="5.58915">
        <ele>98.7</ele>
        <time>2016-03-28T08:54:46Z</time>
      </trkpt>
      <trkpt lat="43.20316" lon="5.58908">
        <ele>99.2</ele>
        <time>2016-03-28T08:54:47Z</time>
      </trkpt>
      <trkpt lat="43.20319" lon="5.58903">
        <ele>99.5</ele>
        <time>2016-03-28T08:54:48Z</time>
      </trkpt>
      <trkpt lat="43.20323" lon="5.58898">
        <ele>99.9</ele>
        <time>2016-03-28T08:54:49Z</time>
      </trkpt>
      <trkpt lat="43.20327" lon="5.58895">
        <ele>100.2</ele>
        <time>2016-03-28T08:54:50Z</time>
      </trkpt>
      <trkpt lat="43.20331" lon="5.5889">
        <ele>100.6</ele>
        <time>2016-03-28T08:54:51Z</time>
      </trkpt>
      <trkpt lat="43.20334" lon="5.58885">
        <ele>101</ele>
        <time>2016-03-28T08:54:52Z</time>
      </trkpt>
      <trkpt lat="43.20339" lon="5.58883">
        <ele>101.3</ele>
        <time>2016-03-28T08:54:53Z</time>
      </trkpt>
      <trkpt lat="43.20342" lon="5.58878">
        <ele>101.7</ele>
        <time>2016-03-28T08:54:54Z</time>
      </trkpt>
      <trkpt lat="43.20346" lon="5.58874">
        <ele>102.2</ele>
        <time>2016-03-28T08:54:55Z</time>
      </trkpt>
      <trkpt lat="43.20348" lon="5.58869">
        <ele>103</ele>
        <time>2016-03-28T08:54:56Z</time>
      </trkpt>
      <trkpt lat="43.20351" lon="5.58862">
        <ele>104.1</ele>
        <time>2016-03-28T08:54:57Z</time>
      </trkpt>
      <trkpt lat="43.20354" lon="5.58858">
        <ele>104.9</ele>
        <time>2016-03-28T08:54:58Z</time>
      </trkpt>
      <trkpt lat="43.20359" lon="5.58855">
        <ele>105.5</ele>
        <time>2016-03-28T08:54:59Z</time>
      </trkpt>
      <trkpt lat="43.20362" lon="5.58852">
        <ele>106</ele>
        <time>2016-03-28T08:55:00Z</time>
      </trkpt>
      <trkpt lat="43.20366" lon="5.58849">
        <ele>106.5</ele>
        <time>2016-03-28T08:55:01Z</time>
      </trkpt>
      <trkpt lat="43.2037" lon="5.58845">
        <ele>107.2</ele>
        <time>2016-03-28T08:55:02Z</time>
      </trkpt>
      <trkpt lat="43.20374" lon="5.58842">
        <ele>107.8</ele>
        <time>2016-03-28T08:55:03Z</time>
      </trkpt>
      <trkpt lat="43.20379" lon="5.58839">
        <ele>107.9</ele>
        <time>2016-03-28T08:55:04Z</time>
      </trkpt>
      <trkpt lat="43.20382" lon="5.58837">
        <ele>108</ele>
        <time>2016-03-28T08:55:05Z</time>
      </trkpt>
      <trkpt lat="43.20387" lon="5.58835">
        <ele>107.7</ele>
        <time>2016-03-28T08:55:06Z</time>
      </trkpt>
      <trkpt lat="43.20392" lon="5.58832">
        <ele>107.6</ele>
        <time>2016-03-28T08:55:07Z</time>
      </trkpt>
      <trkpt lat="43.20396" lon="5.58829">
        <ele>107.6</ele>
        <time>2016-03-28T08:55:08Z</time>
      </trkpt>
      <trkpt lat="43.20401" lon="5.58825">
        <ele>107.5</ele>
        <time>2016-03-28T08:55:09Z</time>
      </trkpt>
      <trkpt lat="43.20406" lon="5.58821">
        <ele>107.3</ele>
        <time>2016-03-28T08:55:10Z</time>
      </trkpt>
      <trkpt lat="43.2041" lon="5.58818">
        <ele>107.2</ele>
        <time>2016-03-28T08:55:11Z</time>
      </trkpt>
      <trkpt lat="43.20415" lon="5.58816">
        <ele>106.8</ele>
        <time>2016-03-28T08:55:12Z</time>
      </trkpt>
      <trkpt lat="43.20421" lon="5.58815">
        <ele>106.2</ele>
        <time>2016-03-28T08:55:13Z</time>
      </trkpt>
      <trkpt lat="43.20426" lon="5.58811">
        <ele>105.8</ele>
        <time>2016-03-28T08:55:14Z</time>
      </trkpt>
      <trkpt lat="43.2043" lon="5.58809">
        <ele>105.4</ele>
        <time>2016-03-28T08:55:15Z</time>
      </trkpt>
      <trkpt lat="43.20435" lon="5.58807">
        <ele>104.9</ele>
        <time>2016-03-28T08:55:16Z</time>
      </trkpt>
      <trkpt lat="43.2044" lon="5.58803">
        <ele>104.5</ele>
        <time>2016-03-28T08:55:17Z</time>
      </trkpt>
      <trkpt lat="43.20444" lon="5.588">
        <ele>103.9</ele>
        <time>2016-03-28T08:55:18Z</time>
      </trkpt>
      <trkpt lat="43.20448" lon="5.58796">
        <ele>103.5</ele>
        <time>2016-03-28T08:55:19Z</time>
      </trkpt>
      <trkpt lat="43.20452" lon="5.58793">
        <ele>103</ele>
        <time>2016-03-28T08:55:20Z</time>
      </trkpt>
      <trkpt lat="43.20456" lon="5.5879">
        <ele>102.7</ele>
        <time>2016-03-28T08:55:21Z</time>
      </trkpt>
      <trkpt lat="43.20462" lon="5.58789">
        <ele>102.9</ele>
        <time>2016-03-28T08:55:22Z</time>
      </trkpt>
      <trkpt lat="43.20466" lon="5.58788">
        <ele>103.5</ele>
        <time>2016-03-28T08:55:23Z</time>
      </trkpt>
      <trkpt lat="43.20471" lon="5.58786">
        <ele>104.2</ele>
        <time>2016-03-28T08:55:24Z</time>
      </trkpt>
      <trkpt lat="43.20475" lon="5.58784">
        <ele>105.1</ele>
        <time>2016-03-28T08:55:25Z</time>
      </trkpt>
      <trkpt lat="43.20479" lon="5.58781">
        <ele>106</ele>
        <time>2016-03-28T08:55:26Z</time>
      </trkpt>
      <trkpt lat="43.20483" lon="5.58781">
        <ele>106.3</ele>
        <time>2016-03-28T08:55:27Z</time>
      </trkpt>
      <trkpt lat="43.20488" lon="5.58781">
        <ele>106.7</ele>
        <time>2016-03-28T08:55:28Z</time>
      </trkpt>
      <trkpt lat="43.20493" lon="5.5878">
        <ele>107.1</ele>
        <time>2016-03-28T08:55:29Z</time>
      </trkpt>
      <trkpt lat="43.20498" lon="5.58781">
        <ele>107.2</ele>
        <time>2016-03-28T08:55:30Z</time>
      </trkpt>
      <trkpt lat="43.20502" lon="5.5878">
        <ele>107.6</ele>
        <time>2016-03-28T08:55:31Z</time>
      </trkpt>
      <trkpt lat="43.20506" lon="5.58779">
        <ele>108.2</ele>
        <time>2016-03-28T08:55:32Z</time>
      </trkpt>
      <trkpt lat="43.20511" lon="5.58777">
        <ele>108.7</ele>
        <time>2016-03-28T08:55:33Z</time>
      </trkpt>
      <trkpt lat="43.20514" lon="5.58773">
        <ele>109.9</ele>
        <time>2016-03-28T08:55:34Z</time>
      </trkpt>
      <trkpt lat="43.20519" lon="5.58771">
        <ele>110.4</ele>
        <time>2016-03-28T08:55:35Z</time>
      </trkpt>
      <trkpt lat="43.20524" lon="5.58773">
        <ele>110.3</ele>
        <time>2016-03-28T08:55:36Z</time>
      </trkpt>
      <trkpt lat="43.20528" lon="5.58771">
        <ele>110.9</ele>
        <time>2016-03-28T08:55:37Z</time>
      </trkpt>
      <trkpt lat="43.20532" lon="5.58768">
        <ele>111.8</ele>
        <time>2016-03-28T08:55:38Z</time>
      </trkpt>
      <trkpt lat="43.20536" lon="5.58765">
        <ele>112.5</ele>
        <time>2016-03-28T08:55:39Z</time>
      </trkpt>
      <trkpt lat="43.20541" lon="5.58761">
        <ele>113.4</ele>
        <time>2016-03-28T08:55:40Z</time>
      </trkpt>
      <trkpt lat="43.20545" lon="5.5876">
        <ele>113.6</ele>
        <time>2016-03-28T08:55:41Z</time>
      </trkpt>
      <trkpt lat="43.20549" lon="5.58756">
        <ele>114.2</ele>
        <time>2016-03-28T08:55:42Z</time>
      </trkpt>
      <trkpt lat="43.20551" lon="5.58751">
        <ele>114.9</ele>
        <time>2016-03-28T08:55:43Z</time>
      </trkpt>
      <trkpt lat="43.20554" lon="5.58748">
        <ele>115.3</ele>
        <time>2016-03-28T08:55:44Z</time>
      </trkpt>
      <trkpt lat="43.20556" lon="5.58742">
        <ele>116</ele>
        <time>2016-03-28T08:55:45Z</time>
      </trkpt>
      <trkpt lat="43.20559" lon="5.58737">
        <ele>116.4</ele>
        <time>2016-03-28T08:55:46Z</time>
      </trkpt>
      <trkpt lat="43.20561" lon="5.58732">
        <ele>116.9</ele>
        <time>2016-03-28T08:55:47Z</time>
      </trkpt>
      <trkpt lat="43.20563" lon="5.58726">
        <ele>117.3</ele>
        <time>2016-03-28T08:55:48Z</time>
      </trkpt>
      <trkpt lat="43.20565" lon="5.58721">
        <ele>117.7</ele>
        <time>2016-03-28T08:55:49Z</time>
      </trkpt>
      <trkpt lat="43.20565" lon="5.58714">
        <ele>118.4</ele>
        <time>2016-03-28T08:55:50Z</time>
      </trkpt>
      <trkpt lat="43.20567" lon="5.58709">
        <ele>118.7</ele>
        <time>2016-03-28T08:55:51Z</time>
      </trkpt>
      <trkpt lat="43.20566" lon="5.58702">
        <ele>119.9</ele>
        <time>2016-03-28T08:55:52Z</time>
      </trkpt>
      <trkpt lat="43.20567" lon="5.58696">
        <ele>120.8</ele>
        <time>2016-03-28T08:55:53Z</time>
      </trkpt>
      <trkpt lat="43.20568" lon="5.5869">
        <ele>121.8</ele>
        <time>2016-03-28T08:55:54Z</time>
      </trkpt>
      <trkpt lat="43.20567" lon="5.58682">
        <ele>123.3</ele>
        <time>2016-03-28T08:55:55Z</time>
      </trkpt>
      <trkpt lat="43.20566" lon="5.58673">
        <ele>124.8</ele>
        <time>2016-03-28T08:55:56Z</time>
      </trkpt>
      <trkpt lat="43.20567" lon="5.58665">
        <ele>125.9</ele>
        <time>2016-03-28T08:55:57Z</time>
      </trkpt>
      <trkpt lat="43.20569" lon="5.58658">
        <ele>126.5</ele>
        <time>2016-03-28T08:55:58Z</time>
      </trkpt>
      <trkpt lat="43.20571" lon="5.58651">
        <ele>127.4</ele>
        <time>2016-03-28T08:55:59Z</time>
      </trkpt>
      <trkpt lat="43.20573" lon="5.58647">
        <ele>127.6</ele>
        <time>2016-03-28T08:56:00Z</time>
      </trkpt>
      <trkpt lat="43.20579" lon="5.58642">
        <ele>127</ele>
        <time>2016-03-28T08:56:01Z</time>
      </trkpt>
      <trkpt lat="43.20582" lon="5.58637">
        <ele>127.1</ele>
        <time>2016-03-28T08:56:02Z</time>
      </trkpt>
      <trkpt lat="43.20587" lon="5.58632">
        <ele>126.5</ele>
        <time>2016-03-28T08:56:03Z</time>
      </trkpt>
      <trkpt lat="43.20591" lon="5.58625">
        <ele>126.7</ele>
        <time>2016-03-28T08:56:04Z</time>
      </trkpt>
      <trkpt lat="43.20595" lon="5.58621">
        <ele>126.3</ele>
        <time>2016-03-28T08:56:05Z</time>
      </trkpt>
      <trkpt lat="43.20598" lon="5.58617">
        <ele>126.1</ele>
        <time>2016-03-28T08:56:06Z</time>
      </trkpt>
      <trkpt lat="43.20602" lon="5.58617">
        <ele>124.9</ele>
        <time>2016-03-28T08:56:07Z</time>
      </trkpt>
      <trkpt lat="43.20606" lon="5.58614">
        <ele>124.3</ele>
        <time>2016-03-28T08:56:08Z</time>
      </trkpt>
      <trkpt lat="43.20611" lon="5.58611">
        <ele>123.7</ele>
        <time>2016-03-28T08:56:09Z</time>
      </trkpt>
      <trkpt lat="43.20616" lon="5.5861">
        <ele>122.7</ele>
        <time>2016-03-28T08:56:10Z</time>
      </trkpt>
      <trkpt lat="43.2062" lon="5.58607">
        <ele>122</ele>
        <time>2016-03-28T08:56:11Z</time>
      </trkpt>
      <trkpt lat="43.20625" lon="5.58604">
        <ele>121.4</ele>
        <time>2016-03-28T08:56:12Z</time>
      </trkpt>
      <trkpt lat="43.20628" lon="5.58601">
        <ele>121.5</ele>
        <time>2016-03-28T08:56:13Z</time>
      </trkpt>
      <trkpt lat="43.20632" lon="5.58597">
        <ele>121.7</ele>
        <time>2016-03-28T08:56:14Z</time>
      </trkpt>
      <trkpt lat="43.20636" lon="5.58595">
        <ele>121.6</ele>
        <time>2016-03-28T08:56:15Z</time>
      </trkpt>
      <trkpt lat="43.2064" lon="5.58592">
        <ele>121.7</ele>
        <time>2016-03-28T08:56:16Z</time>
      </trkpt>
      <trkpt lat="43.20642" lon="5.58589">
        <ele>122</ele>
        <time>2016-03-28T08:56:17Z</time>
      </trkpt>
      <trkpt lat="43.20645" lon="5.58585">
        <ele>122</ele>
        <time>2016-03-28T08:56:18Z</time>
      </trkpt>
      <trkpt lat="43.20648" lon="5.58581">
        <ele>122.1</ele>
        <time>2016-03-28T08:56:19Z</time>
      </trkpt>
      <trkpt lat="43.20649" lon="5.58576">
        <ele>122.6</ele>
        <time>2016-03-28T08:56:20Z</time>
      </trkpt>
      <trkpt lat="43.20651" lon="5.58572">
        <ele>122.7</ele>
        <time>2016-03-28T08:56:21Z</time>
      </trkpt>
      <trkpt lat="43.20653" lon="5.58565">
        <ele>123.2</ele>
        <time>2016-03-28T08:56:22Z</time>
      </trkpt>
      <trkpt lat="43.20656" lon="5.5856">
        <ele>123.3</ele>
        <time>2016-03-28T08:56:23Z</time>
      </trkpt>
      <trkpt lat="43.20657" lon="5.58555">
        <ele>123.6</ele>
        <time>2016-03-28T08:56:24Z</time>
      </trkpt>
      <trkpt lat="43.20658" lon="5.58549">
        <ele>124</ele>
        <time>2016-03-28T08:56:25Z</time>
      </trkpt>
      <trkpt lat="43.20659" lon="5.58544">
        <ele>124.2</ele>
        <time>2016-03-28T08:56:26Z</time>
      </trkpt>
      <trkpt lat="43.20659" lon="5.58538">
        <ele>124.6</ele>
        <time>2016-03-28T08:56:27Z</time>
      </trkpt>
      <trkpt lat="43.2066" lon="5.58532">
        <ele>124.7</ele>
        <time>2016-03-28T08:56:28Z</time>
      </trkpt>
      <trkpt lat="43.2066" lon="5.58526">
        <ele>124.9</ele>
        <time>2016-03-28T08:56:29Z</time>
      </trkpt>
      <trkpt lat="43.20661" lon="5.5852">
        <ele>125.2</ele>
        <time>2016-03-28T08:56:30Z</time>
      </trkpt>
      <trkpt lat="43.2066" lon="5.58514">
        <ele>125.6</ele>
        <time>2016-03-28T08:56:31Z</time>
      </trkpt>
      <trkpt lat="43.2066" lon="5.58508">
        <ele>125.9</ele>
        <time>2016-03-28T08:56:32Z</time>
      </trkpt>
      <trkpt lat="43.20658" lon="5.58503">
        <ele>126.6</ele>
        <time>2016-03-28T08:56:33Z</time>
      </trkpt>
      <trkpt lat="43.20657" lon="5.58496">
        <ele>127</ele>
        <time>2016-03-28T08:56:34Z</time>
      </trkpt>
      <trkpt lat="43.20658" lon="5.5849">
        <ele>127.1</ele>
        <time>2016-03-28T08:56:35Z</time>
      </trkpt>
      <trkpt lat="43.20658" lon="5.58484">
        <ele>127.3</ele>
        <time>2016-03-28T08:56:36Z</time>
      </trkpt>
      <trkpt lat="43.20659" lon="5.58478">
        <ele>127.5</ele>
        <time>2016-03-28T08:56:37Z</time>
      </trkpt>
      <trkpt lat="43.20662" lon="5.58473">
        <ele>127.1</ele>
        <time>2016-03-28T08:56:38Z</time>
      </trkpt>
      <trkpt lat="43.20664" lon="5.58467">
        <ele>126.8</ele>
        <time>2016-03-28T08:56:39Z</time>
      </trkpt>
      <trkpt lat="43.20666" lon="5.58461">
        <ele>126.5</ele>
        <time>2016-03-28T08:56:40Z</time>
      </trkpt>
      <trkpt lat="43.20669" lon="5.58455">
        <ele>126.4</ele>
        <time>2016-03-28T08:56:41Z</time>
      </trkpt>
      <trkpt lat="43.20672" lon="5.58449">
        <ele>126.2</ele>
        <time>2016-03-28T08:56:42Z</time>
      </trkpt>
      <trkpt lat="43.20675" lon="5.58443">
        <ele>125.9</ele>
        <time>2016-03-28T08:56:43Z</time>
      </trkpt>
      <trkpt lat="43.20677" lon="5.58437">
        <ele>125.9</ele>
        <time>2016-03-28T08:56:44Z</time>
      </trkpt>
      <trkpt lat="43.20679" lon="5.58432">
        <ele>125.9</ele>
        <time>2016-03-28T08:56:45Z</time>
      </trkpt>
      <trkpt lat="43.20681" lon="5.58427">
        <ele>125.8</ele>
        <time>2016-03-28T08:56:46Z</time>
      </trkpt>
      <trkpt lat="43.20683" lon="5.58422">
        <ele>125.7</ele>
        <time>2016-03-28T08:56:47Z</time>
      </trkpt>
      <trkpt lat="43.20684" lon="5.58417">
        <ele>125.7</ele>
        <time>2016-03-28T08:56:48Z</time>
      </trkpt>
      <trkpt lat="43.20686" lon="5.58412">
        <ele>125.6</ele>
        <time>2016-03-28T08:56:49Z</time>
      </trkpt>
      <trkpt lat="43.20688" lon="5.58407">
        <ele>125.5</ele>
        <time>2016-03-28T08:56:50Z</time>
      </trkpt>
      <trkpt lat="43.20689" lon="5.58402">
        <ele>125.4</ele>
        <time>2016-03-28T08:56:51Z</time>
      </trkpt>
      <trkpt lat="43.20691" lon="5.58396">
        <ele>125.3</ele>
        <time>2016-03-28T08:56:52Z</time>
      </trkpt>
      <trkpt lat="43.20693" lon="5.58391">
        <ele>125.1</ele>
        <time>2016-03-28T08:56:53Z</time>
      </trkpt>
      <trkpt lat="43.20695" lon="5.58385">
        <ele>125</ele>
        <time>2016-03-28T08:56:54Z</time>
      </trkpt>
      <trkpt lat="43.20696" lon="5.5838">
        <ele>124.9</ele>
        <time>2016-03-28T08:56:55Z</time>
      </trkpt>
      <trkpt lat="43.20698" lon="5.58375">
        <ele>124.8</ele>
        <time>2016-03-28T08:56:56Z</time>
      </trkpt>
      <trkpt lat="43.20699" lon="5.58369">
        <ele>125.1</ele>
        <time>2016-03-28T08:56:57Z</time>
      </trkpt>
      <trkpt lat="43.20701" lon="5.58364">
        <ele>125.4</ele>
        <time>2016-03-28T08:56:58Z</time>
      </trkpt>
      <trkpt lat="43.20702" lon="5.58358">
        <ele>125.6</ele>
        <time>2016-03-28T08:56:59Z</time>
      </trkpt>
      <trkpt lat="43.20704" lon="5.58352">
        <ele>125.8</ele>
        <time>2016-03-28T08:57:00Z</time>
      </trkpt>
      <trkpt lat="43.20706" lon="5.58347">
        <ele>126.1</ele>
        <time>2016-03-28T08:57:01Z</time>
      </trkpt>
      <trkpt lat="43.20707" lon="5.58341">
        <ele>126.3</ele>
        <time>2016-03-28T08:57:02Z</time>
      </trkpt>
      <trkpt lat="43.20709" lon="5.58333">
        <ele>127</ele>
        <time>2016-03-28T08:57:03Z</time>
      </trkpt>
      <trkpt lat="43.20711" lon="5.58327">
        <ele>127.8</ele>
        <time>2016-03-28T08:57:04Z</time>
      </trkpt>
      <trkpt lat="43.20713" lon="5.58321">
        <ele>128.4</ele>
        <time>2016-03-28T08:57:05Z</time>
      </trkpt>
      <trkpt lat="43.20715" lon="5.58316">
        <ele>129.1</ele>
        <time>2016-03-28T08:57:06Z</time>
      </trkpt>
      <trkpt lat="43.20717" lon="5.58311">
        <ele>129.6</ele>
        <time>2016-03-28T08:57:07Z</time>
      </trkpt>
      <trkpt lat="43.20719" lon="5.58305">
        <ele>130.2</ele>
        <time>2016-03-28T08:57:08Z</time>
      </trkpt>
      <trkpt lat="43.20723" lon="5.58299">
        <ele>130.5</ele>
        <time>2016-03-28T08:57:09Z</time>
      </trkpt>
      <trkpt lat="43.20725" lon="5.58293">
        <ele>131</ele>
        <time>2016-03-28T08:57:10Z</time>
      </trkpt>
      <trkpt lat="43.20728" lon="5.58288">
        <ele>131.4</ele>
        <time>2016-03-28T08:57:11Z</time>
      </trkpt>
      <trkpt lat="43.20729" lon="5.58282">
        <ele>131.8</ele>
        <time>2016-03-28T08:57:12Z</time>
      </trkpt>
      <trkpt lat="43.20731" lon="5.58276">
        <ele>132.2</ele>
        <time>2016-03-28T08:57:13Z</time>
      </trkpt>
      <trkpt lat="43.20734" lon="5.58271">
        <ele>132.4</ele>
        <time>2016-03-28T08:57:14Z</time>
      </trkpt>
      <trkpt lat="43.20736" lon="5.58266">
        <ele>132.7</ele>
        <time>2016-03-28T08:57:15Z</time>
      </trkpt>
      <trkpt lat="43.20738" lon="5.58261">
        <ele>132.9</ele>
        <time>2016-03-28T08:57:16Z</time>
      </trkpt>
      <trkpt lat="43.2074" lon="5.58256">
        <ele>133</ele>
        <time>2016-03-28T08:57:17Z</time>
      </trkpt>
      <trkpt lat="43.20741" lon="5.58251">
        <ele>133.2</ele>
        <time>2016-03-28T08:57:18Z</time>
      </trkpt>
      <trkpt lat="43.20743" lon="5.58246">
        <ele>133.3</ele>
        <time>2016-03-28T08:57:19Z</time>
      </trkpt>
      <trkpt lat="43.20745" lon="5.58242">
        <ele>133.3</ele>
        <time>2016-03-28T08:57:20Z</time>
      </trkpt>
      <trkpt lat="43.20747" lon="5.58238">
        <ele>133.2</ele>
        <time>2016-03-28T08:57:21Z</time>
      </trkpt>
      <trkpt lat="43.2075" lon="5.58233">
        <ele>133.1</ele>
        <time>2016-03-28T08:57:22Z</time>
      </trkpt>
      <trkpt lat="43.20752" lon="5.58229">
        <ele>133</ele>
        <time>2016-03-28T08:57:23Z</time>
      </trkpt>
      <trkpt lat="43.20754" lon="5.58224">
        <ele>132.9</ele>
        <time>2016-03-28T08:57:24Z</time>
      </trkpt>
      <trkpt lat="43.20756" lon="5.5822">
        <ele>132.7</ele>
        <time>2016-03-28T08:57:25Z</time>
      </trkpt>
      <trkpt lat="43.20759" lon="5.58216">
        <ele>132.5</ele>
        <time>2016-03-28T08:57:26Z</time>
      </trkpt>
      <trkpt lat="43.20761" lon="5.58212">
        <ele>132.2</ele>
        <time>2016-03-28T08:57:27Z</time>
      </trkpt>
      <trkpt lat="43.20763" lon="5.58207">
        <ele>132</ele>
        <time>2016-03-28T08:57:28Z</time>
      </trkpt>
      <trkpt lat="43.20765" lon="5.58203">
        <ele>131.6</ele>
        <time>2016-03-28T08:57:29Z</time>
      </trkpt>
      <trkpt lat="43.20767" lon="5.58198">
        <ele>131.2</ele>
        <time>2016-03-28T08:57:30Z</time>
      </trkpt>
      <trkpt lat="43.20769" lon="5.58194">
        <ele>130.8</ele>
        <time>2016-03-28T08:57:31Z</time>
      </trkpt>
      <trkpt lat="43.20771" lon="5.5819">
        <ele>130.5</ele>
        <time>2016-03-28T08:57:32Z</time>
      </trkpt>
      <trkpt lat="43.20774" lon="5.58186">
        <ele>130.1</ele>
        <time>2016-03-28T08:57:33Z</time>
      </trkpt>
      <trkpt lat="43.20776" lon="5.58182">
        <ele>129.7</ele>
        <time>2016-03-28T08:57:34Z</time>
      </trkpt>
      <trkpt lat="43.20778" lon="5.58179">
        <ele>129.3</ele>
        <time>2016-03-28T08:57:35Z</time>
      </trkpt>
      <trkpt lat="43.2078" lon="5.58176">
        <ele>128.8</ele>
        <time>2016-03-28T08:57:36Z</time>
      </trkpt>
      <trkpt lat="43.20782" lon="5.58172">
        <ele>128.3</ele>
        <time>2016-03-28T08:57:37Z</time>
      </trkpt>
      <trkpt lat="43.20785" lon="5.58168">
        <ele>127.8</ele>
        <time>2016-03-28T08:57:38Z</time>
      </trkpt>
      <trkpt lat="43.20787" lon="5.58164">
        <ele>127.3</ele>
        <time>2016-03-28T08:57:39Z</time>
      </trkpt>
      <trkpt lat="43.2079" lon="5.5816">
        <ele>126.7</ele>
        <time>2016-03-28T08:57:40Z</time>
      </trkpt>
      <trkpt lat="43.20792" lon="5.58156">
        <ele>126.3</ele>
        <time>2016-03-28T08:57:41Z</time>
      </trkpt>
      <trkpt lat="43.20794" lon="5.58153">
        <ele>126.5</ele>
        <time>2016-03-28T08:57:42Z</time>
      </trkpt>
      <trkpt lat="43.20796" lon="5.58149">
        <ele>126.6</ele>
        <time>2016-03-28T08:57:43Z</time>
      </trkpt>
      <trkpt lat="43.20798" lon="5.58146">
        <ele>126.7</ele>
        <time>2016-03-28T08:57:44Z</time>
      </trkpt>
      <trkpt lat="43.20801" lon="5.58143">
        <ele>126.8</ele>
        <time>2016-03-28T08:57:45Z</time>
      </trkpt>
      <trkpt lat="43.20803" lon="5.5814">
        <ele>126.9</ele>
        <time>2016-03-28T08:57:46Z</time>
      </trkpt>
      <trkpt lat="43.20806" lon="5.58138">
        <ele>126.9</ele>
        <time>2016-03-28T08:57:47Z</time>
      </trkpt>
      <trkpt lat="43.20809" lon="5.58136">
        <ele>127</ele>
        <time>2016-03-28T08:57:48Z</time>
      </trkpt>
      <trkpt lat="43.20812" lon="5.58134">
        <ele>127</ele>
        <time>2016-03-28T08:57:49Z</time>
      </trkpt>
      <trkpt lat="43.20815" lon="5.58132">
        <ele>126.9</ele>
        <time>2016-03-28T08:57:50Z</time>
      </trkpt>
      <trkpt lat="43.20818" lon="5.58129">
        <ele>126.8</ele>
        <time>2016-03-28T08:57:51Z</time>
      </trkpt>
      <trkpt lat="43.20821" lon="5.58126">
        <ele>126.7</ele>
        <time>2016-03-28T08:57:52Z</time>
      </trkpt>
      <trkpt lat="43.20824" lon="5.58124">
        <ele>126.7</ele>
        <time>2016-03-28T08:57:53Z</time>
      </trkpt>
      <trkpt lat="43.20827" lon="5.58122">
        <ele>126.8</ele>
        <time>2016-03-28T08:57:54Z</time>
      </trkpt>
      <trkpt lat="43.2083" lon="5.5812">
        <ele>126.9</ele>
        <time>2016-03-28T08:57:55Z</time>
      </trkpt>
      <trkpt lat="43.20832" lon="5.58118">
        <ele>127</ele>
        <time>2016-03-28T08:57:56Z</time>
      </trkpt>
      <trkpt lat="43.20834" lon="5.58115">
        <ele>127.2</ele>
        <time>2016-03-28T08:57:57Z</time>
      </trkpt>
      <trkpt lat="43.20837" lon="5.58112">
        <ele>127.3</ele>
        <time>2016-03-28T08:57:58Z</time>
      </trkpt>
      <trkpt lat="43.20839" lon="5.58108">
        <ele>127.5</ele>
        <time>2016-03-28T08:57:59Z</time>
      </trkpt>
      <trkpt lat="43.20842" lon="5.58104">
        <ele>127.7</ele>
        <time>2016-03-28T08:58:00Z</time>
      </trkpt>
      <trkpt lat="43.20844" lon="5.58101">
        <ele>127.9</ele>
        <time>2016-03-28T08:58:01Z</time>
      </trkpt>
      <trkpt lat="43.20847" lon="5.58097">
        <ele>128.1</ele>
        <time>2016-03-28T08:58:02Z</time>
      </trkpt>
      <trkpt lat="43.2085" lon="5.58094">
        <ele>128.3</ele>
        <time>2016-03-28T08:58:03Z</time>
      </trkpt>
      <trkpt lat="43.20853" lon="5.58091">
        <ele>128.4</ele>
        <time>2016-03-28T08:58:04Z</time>
      </trkpt>
      <trkpt lat="43.20855" lon="5.58088">
        <ele>128.5</ele>
        <time>2016-03-28T08:58:05Z</time>
      </trkpt>
      <trkpt lat="43.20858" lon="5.58086">
        <ele>128.7</ele>
        <time>2016-03-28T08:58:06Z</time>
      </trkpt>
      <trkpt lat="43.20861" lon="5.58083">
        <ele>128.8</ele>
        <time>2016-03-28T08:58:07Z</time>
      </trkpt>
      <trkpt lat="43.20863" lon="5.5808">
        <ele>128.9</ele>
        <time>2016-03-28T08:58:08Z</time>
      </trkpt>
      <trkpt lat="43.20865" lon="5.58078">
        <ele>129</ele>
        <time>2016-03-28T08:58:09Z</time>
      </trkpt>
      <trkpt lat="43.2087" lon="5.58074">
        <ele>129.2</ele>
        <time>2016-03-28T08:58:11Z</time>
      </trkpt>
      <trkpt lat="43.20872" lon="5.58071">
        <ele>129.3</ele>
        <time>2016-03-28T08:58:12Z</time>
      </trkpt>
      <trkpt lat="43.20875" lon="5.58069">
        <ele>129.4</ele>
        <time>2016-03-28T08:58:13Z</time>
      </trkpt>
      <trkpt lat="43.20878" lon="5.58066">
        <ele>129.7</ele>
        <time>2016-03-28T08:58:14Z</time>
      </trkpt>
      <trkpt lat="43.20881" lon="5.58063">
        <ele>130</ele>
        <time>2016-03-28T08:58:15Z</time>
      </trkpt>
      <trkpt lat="43.20884" lon="5.5806">
        <ele>130.3</ele>
        <time>2016-03-28T08:58:16Z</time>
      </trkpt>
      <trkpt lat="43.20887" lon="5.58057">
        <ele>130.5</ele>
        <time>2016-03-28T08:58:17Z</time>
      </trkpt>
      <trkpt lat="43.2089" lon="5.58053">
        <ele>130.7</ele>
        <time>2016-03-28T08:58:18Z</time>
      </trkpt>
      <trkpt lat="43.20892" lon="5.5805">
        <ele>130.8</ele>
        <time>2016-03-28T08:58:19Z</time>
      </trkpt>
      <trkpt lat="43.20895" lon="5.58048">
        <ele>130.9</ele>
        <time>2016-03-28T08:58:20Z</time>
      </trkpt>
      <trkpt lat="43.20898" lon="5.58045">
        <ele>131</ele>
        <time>2016-03-28T08:58:21Z</time>
      </trkpt>
      <trkpt lat="43.20901" lon="5.58042">
        <ele>131</ele>
        <time>2016-03-28T08:58:22Z</time>
      </trkpt>
      <trkpt lat="43.20904" lon="5.5804">
        <ele>131.5</ele>
        <time>2016-03-28T08:58:23Z</time>
      </trkpt>
      <trkpt lat="43.20908" lon="5.58037">
        <ele>132</ele>
        <time>2016-03-28T08:58:24Z</time>
      </trkpt>
      <trkpt lat="43.20911" lon="5.58034">
        <ele>132.6</ele>
        <time>2016-03-28T08:58:25Z</time>
      </trkpt>
      <trkpt lat="43.20914" lon="5.58031">
        <ele>133.1</ele>
        <time>2016-03-28T08:58:26Z</time>
      </trkpt>
      <trkpt lat="43.20918" lon="5.58029">
        <ele>133.6</ele>
        <time>2016-03-28T08:58:27Z</time>
      </trkpt>
      <trkpt lat="43.20921" lon="5.58026">
        <ele>134.2</ele>
        <time>2016-03-28T08:58:28Z</time>
      </trkpt>
      <trkpt lat="43.20925" lon="5.58023">
        <ele>134.6</ele>
        <time>2016-03-28T08:58:29Z</time>
      </trkpt>
      <trkpt lat="43.20928" lon="5.58021">
        <ele>135.1</ele>
        <time>2016-03-28T08:58:30Z</time>
      </trkpt>
      <trkpt lat="43.20932" lon="5.58019">
        <ele>135.5</ele>
        <time>2016-03-28T08:58:31Z</time>
      </trkpt>
      <trkpt lat="43.20935" lon="5.58017">
        <ele>135.9</ele>
        <time>2016-03-28T08:58:32Z</time>
      </trkpt>
      <trkpt lat="43.20939" lon="5.58014">
        <ele>136.2</ele>
        <time>2016-03-28T08:58:33Z</time>
      </trkpt>
      <trkpt lat="43.20942" lon="5.58013">
        <ele>136.5</ele>
        <time>2016-03-28T08:58:34Z</time>
      </trkpt>
      <trkpt lat="43.20946" lon="5.58011">
        <ele>136.8</ele>
        <time>2016-03-28T08:58:35Z</time>
      </trkpt>
      <trkpt lat="43.2095" lon="5.58009">
        <ele>137</ele>
        <time>2016-03-28T08:58:36Z</time>
      </trkpt>
      <trkpt lat="43.20953" lon="5.58007">
        <ele>137.3</ele>
        <time>2016-03-28T08:58:37Z</time>
      </trkpt>
      <trkpt lat="43.20957" lon="5.58005">
        <ele>137.6</ele>
        <time>2016-03-28T08:58:38Z</time>
      </trkpt>
      <trkpt lat="43.20961" lon="5.58003">
        <ele>138.1</ele>
        <time>2016-03-28T08:58:39Z</time>
      </trkpt>
      <trkpt lat="43.20965" lon="5.58002">
        <ele>138.7</ele>
        <time>2016-03-28T08:58:40Z</time>
      </trkpt>
      <trkpt lat="43.20969" lon="5.58">
        <ele>139.2</ele>
        <time>2016-03-28T08:58:41Z</time>
      </trkpt>
      <trkpt lat="43.20973" lon="5.57998">
        <ele>139.8</ele>
        <time>2016-03-28T08:58:42Z</time>
      </trkpt>
      <trkpt lat="43.20977" lon="5.57996">
        <ele>140.3</ele>
        <time>2016-03-28T08:58:43Z</time>
      </trkpt>
      <trkpt lat="43.20981" lon="5.57995">
        <ele>140.9</ele>
        <time>2016-03-28T08:58:44Z</time>
      </trkpt>
      <trkpt lat="43.20985" lon="5.57993">
        <ele>141.4</ele>
        <time>2016-03-28T08:58:45Z</time>
      </trkpt>
      <trkpt lat="43.20989" lon="5.57992">
        <ele>141.8</ele>
        <time>2016-03-28T08:58:46Z</time>
      </trkpt>
      <trkpt lat="43.20993" lon="5.57991">
        <ele>142.2</ele>
        <time>2016-03-28T08:58:47Z</time>
      </trkpt>
      <trkpt lat="43.20997" lon="5.5799">
        <ele>142.6</ele>
        <time>2016-03-28T08:58:48Z</time>
      </trkpt>
      <trkpt lat="43.21001" lon="5.57989">
        <ele>142.9</ele>
        <time>2016-03-28T08:58:49Z</time>
      </trkpt>
      <trkpt lat="43.21005" lon="5.57989">
        <ele>143.2</ele>
        <time>2016-03-28T08:58:50Z</time>
      </trkpt>
      <trkpt lat="43.21009" lon="5.57988">
        <ele>143.5</ele>
        <time>2016-03-28T08:58:51Z</time>
      </trkpt>
      <trkpt lat="43.21013" lon="5.57988">
        <ele>143.9</ele>
        <time>2016-03-28T08:58:52Z</time>
      </trkpt>
      <trkpt lat="43.21017" lon="5.57987">
        <ele>144.2</ele>
        <time>2016-03-28T08:58:53Z</time>
      </trkpt>
      <trkpt lat="43.21021" lon="5.57986">
        <ele>144.5</ele>
        <time>2016-03-28T08:58:54Z</time>
      </trkpt>
      <trkpt lat="43.21025" lon="5.57985">
        <ele>144.9</ele>
        <time>2016-03-28T08:58:55Z</time>
      </trkpt>
      <trkpt lat="43.21029" lon="5.57984">
        <ele>145.3</ele>
        <time>2016-03-28T08:58:56Z</time>
      </trkpt>
      <trkpt lat="43.21033" lon="5.57983">
        <ele>145.6</ele>
        <time>2016-03-28T08:58:57Z</time>
      </trkpt>
      <trkpt lat="43.21038" lon="5.57984">
        <ele>145.7</ele>
        <time>2016-03-28T08:58:58Z</time>
      </trkpt>
      <trkpt lat="43.21042" lon="5.57983">
        <ele>146.1</ele>
        <time>2016-03-28T08:58:59Z</time>
      </trkpt>
      <trkpt lat="43.21046" lon="5.57982">
        <ele>146.6</ele>
        <time>2016-03-28T08:59:00Z</time>
      </trkpt>
      <trkpt lat="43.21051" lon="5.57982">
        <ele>147.1</ele>
        <time>2016-03-28T08:59:01Z</time>
      </trkpt>
      <trkpt lat="43.21056" lon="5.57982">
        <ele>147.6</ele>
        <time>2016-03-28T08:59:02Z</time>
      </trkpt>
      <trkpt lat="43.21059" lon="5.57981">
        <ele>148.2</ele>
        <time>2016-03-28T08:59:03Z</time>
      </trkpt>
      <trkpt lat="43.21064" lon="5.57982">
        <ele>148.5</ele>
        <time>2016-03-28T08:59:04Z</time>
      </trkpt>
      <trkpt lat="43.21068" lon="5.57981">
        <ele>149</ele>
        <time>2016-03-28T08:59:05Z</time>
      </trkpt>
      <trkpt lat="43.21073" lon="5.57981">
        <ele>149.6</ele>
        <time>2016-03-28T08:59:06Z</time>
      </trkpt>
      <trkpt lat="43.21077" lon="5.57981">
        <ele>150</ele>
        <time>2016-03-28T08:59:07Z</time>
      </trkpt>
      <trkpt lat="43.21081" lon="5.57982">
        <ele>150.3</ele>
        <time>2016-03-28T08:59:08Z</time>
      </trkpt>
      <trkpt lat="43.21085" lon="5.57982">
        <ele>150.7</ele>
        <time>2016-03-28T08:59:09Z</time>
      </trkpt>
      <trkpt lat="43.21089" lon="5.57983">
        <ele>151</ele>
        <time>2016-03-28T08:59:10Z</time>
      </trkpt>
      <trkpt lat="43.21093" lon="5.57984">
        <ele>151.3</ele>
        <time>2016-03-28T08:59:11Z</time>
      </trkpt>
      <trkpt lat="43.21097" lon="5.57984">
        <ele>151.8</ele>
        <time>2016-03-28T08:59:12Z</time>
      </trkpt>
      <trkpt lat="43.21101" lon="5.57985">
        <ele>151.9</ele>
        <time>2016-03-28T08:59:13Z</time>
      </trkpt>
      <trkpt lat="43.21106" lon="5.57986">
        <ele>152.4</ele>
        <time>2016-03-28T08:59:14Z</time>
      </trkpt>
      <trkpt lat="43.21111" lon="5.57988">
        <ele>152.6</ele>
        <time>2016-03-28T08:59:15Z</time>
      </trkpt>
      <trkpt lat="43.21116" lon="5.57989">
        <ele>152.9</ele>
        <time>2016-03-28T08:59:16Z</time>
      </trkpt>
      <trkpt lat="43.2112" lon="5.57991">
        <ele>153.2</ele>
        <time>2016-03-28T08:59:17Z</time>
      </trkpt>
      <trkpt lat="43.21124" lon="5.57991">
        <ele>153.6</ele>
        <time>2016-03-28T08:59:18Z</time>
      </trkpt>
      <trkpt lat="43.21129" lon="5.57992">
        <ele>153.6</ele>
        <time>2016-03-28T08:59:19Z</time>
      </trkpt>
      <trkpt lat="43.21133" lon="5.57995">
        <ele>153.2</ele>
        <time>2016-03-28T08:59:20Z</time>
      </trkpt>
      <trkpt lat="43.21136" lon="5.57997">
        <ele>153</ele>
        <time>2016-03-28T08:59:21Z</time>
      </trkpt>
      <trkpt lat="43.2114" lon="5.57999">
        <ele>152.8</ele>
        <time>2016-03-28T08:59:22Z</time>
      </trkpt>
      <trkpt lat="43.21144" lon="5.58001">
        <ele>152.6</ele>
        <time>2016-03-28T08:59:23Z</time>
      </trkpt>
      <trkpt lat="43.21149" lon="5.58001">
        <ele>152.5</ele>
        <time>2016-03-28T08:59:24Z</time>
      </trkpt>
      <trkpt lat="43.21153" lon="5.58003">
        <ele>152.3</ele>
        <time>2016-03-28T08:59:25Z</time>
      </trkpt>
      <trkpt lat="43.21159" lon="5.58005">
        <ele>152.1</ele>
        <time>2016-03-28T08:59:26Z</time>
      </trkpt>
      <trkpt lat="43.21164" lon="5.58007">
        <ele>152</ele>
        <time>2016-03-28T08:59:27Z</time>
      </trkpt>
      <trkpt lat="43.21169" lon="5.58006">
        <ele>152.1</ele>
        <time>2016-03-28T08:59:28Z</time>
      </trkpt>
      <trkpt lat="43.21174" lon="5.58008">
        <ele>152</ele>
        <time>2016-03-28T08:59:29Z</time>
      </trkpt>
      <trkpt lat="43.21178" lon="5.58009">
        <ele>151.9</ele>
        <time>2016-03-28T08:59:30Z</time>
      </trkpt>
      <trkpt lat="43.21182" lon="5.58011">
        <ele>151.8</ele>
        <time>2016-03-28T08:59:31Z</time>
      </trkpt>
      <trkpt lat="43.21188" lon="5.58017">
        <ele>151.4</ele>
        <time>2016-03-28T08:59:32Z</time>
      </trkpt>
      <trkpt lat="43.21193" lon="5.58019">
        <ele>151.4</ele>
        <time>2016-03-28T08:59:33Z</time>
      </trkpt>
      <trkpt lat="43.21197" lon="5.58021">
        <ele>151.2</ele>
        <time>2016-03-28T08:59:34Z</time>
      </trkpt>
      <trkpt lat="43.21201" lon="5.58024">
        <ele>151.1</ele>
        <time>2016-03-28T08:59:35Z</time>
      </trkpt>
      <trkpt lat="43.21207" lon="5.5803">
        <ele>150.8</ele>
        <time>2016-03-28T08:59:36Z</time>
      </trkpt>
      <trkpt lat="43.21212" lon="5.58032">
        <ele>150.8</ele>
        <time>2016-03-28T08:59:37Z</time>
      </trkpt>
      <trkpt lat="43.21217" lon="5.58035">
        <ele>150.8</ele>
        <time>2016-03-28T08:59:38Z</time>
      </trkpt>
      <trkpt lat="43.21222" lon="5.5804">
        <ele>150.5</ele>
        <time>2016-03-28T08:59:39Z</time>
      </trkpt>
      <trkpt lat="43.21225" lon="5.58042">
        <ele>150.5</ele>
        <time>2016-03-28T08:59:40Z</time>
      </trkpt>
      <trkpt lat="43.21229" lon="5.58045">
        <ele>150.8</ele>
        <time>2016-03-28T08:59:41Z</time>
      </trkpt>
      <trkpt lat="43.21233" lon="5.58047">
        <ele>151.2</ele>
        <time>2016-03-28T08:59:42Z</time>
      </trkpt>
      <trkpt lat="43.21238" lon="5.5805">
        <ele>151.5</ele>
        <time>2016-03-28T08:59:43Z</time>
      </trkpt>
      <trkpt lat="43.21243" lon="5.58054">
        <ele>151.9</ele>
        <time>2016-03-28T08:59:44Z</time>
      </trkpt>
      <trkpt lat="43.21248" lon="5.58057">
        <ele>152.3</ele>
        <time>2016-03-28T08:59:45Z</time>
      </trkpt>
      <trkpt lat="43.21252" lon="5.58057">
        <ele>152.3</ele>
        <time>2016-03-28T08:59:46Z</time>
      </trkpt>
      <trkpt lat="43.21257" lon="5.58059">
        <ele>152.5</ele>
        <time>2016-03-28T08:59:47Z</time>
      </trkpt>
      <trkpt lat="43.21266" lon="5.58061">
        <ele>152.7</ele>
        <time>2016-03-28T08:59:48Z</time>
      </trkpt>
      <trkpt lat="43.21271" lon="5.58062">
        <ele>152.9</ele>
        <time>2016-03-28T08:59:49Z</time>
      </trkpt>
      <trkpt lat="43.21275" lon="5.58059">
        <ele>152.7</ele>
        <time>2016-03-28T08:59:50Z</time>
      </trkpt>
      <trkpt lat="43.2128" lon="5.58057">
        <ele>152.6</ele>
        <time>2016-03-28T08:59:51Z</time>
      </trkpt>
      <trkpt lat="43.21285" lon="5.58057">
        <ele>152.7</ele>
        <time>2016-03-28T08:59:52Z</time>
      </trkpt>
      <trkpt lat="43.21288" lon="5.58055">
        <ele>152.6</ele>
        <time>2016-03-28T08:59:53Z</time>
      </trkpt>
      <trkpt lat="43.21294" lon="5.58053">
        <ele>152.7</ele>
        <time>2016-03-28T08:59:54Z</time>
      </trkpt>
      <trkpt lat="43.21298" lon="5.58051">
        <ele>152.8</ele>
        <time>2016-03-28T08:59:55Z</time>
      </trkpt>
      <trkpt lat="43.21302" lon="5.58048">
        <ele>152.9</ele>
        <time>2016-03-28T08:59:56Z</time>
      </trkpt>
      <trkpt lat="43.21306" lon="5.58046">
        <ele>153</ele>
        <time>2016-03-28T08:59:57Z</time>
      </trkpt>
      <trkpt lat="43.21308" lon="5.58042">
        <ele>153</ele>
        <time>2016-03-28T08:59:58Z</time>
      </trkpt>
      <trkpt lat="43.21312" lon="5.58039">
        <ele>153.8</ele>
        <time>2016-03-28T08:59:59Z</time>
      </trkpt>
      <trkpt lat="43.21315" lon="5.58034">
        <ele>154.7</ele>
        <time>2016-03-28T09:00:00Z</time>
      </trkpt>
      <trkpt lat="43.21318" lon="5.5803">
        <ele>155.6</ele>
        <time>2016-03-28T09:00:01Z</time>
      </trkpt>
      <trkpt lat="43.21321" lon="5.58026">
        <ele>156.4</ele>
        <time>2016-03-28T09:00:02Z</time>
      </trkpt>
      <trkpt lat="43.21323" lon="5.58023">
        <ele>157.1</ele>
        <time>2016-03-28T09:00:03Z</time>
      </trkpt>
      <trkpt lat="43.21327" lon="5.58019">
        <ele>157.9</ele>
        <time>2016-03-28T09:00:04Z</time>
      </trkpt>
      <trkpt lat="43.2133" lon="5.58016">
        <ele>158.7</ele>
        <time>2016-03-28T09:00:05Z</time>
      </trkpt>
      <trkpt lat="43.21334" lon="5.58013">
        <ele>159.3</ele>
        <time>2016-03-28T09:00:06Z</time>
      </trkpt>
      <trkpt lat="43.21337" lon="5.5801">
        <ele>160</ele>
        <time>2016-03-28T09:00:07Z</time>
      </trkpt>
      <trkpt lat="43.2134" lon="5.58005">
        <ele>160.9</ele>
        <time>2016-03-28T09:00:08Z</time>
      </trkpt>
      <trkpt lat="43.21344" lon="5.58002">
        <ele>161.7</ele>
        <time>2016-03-28T09:00:09Z</time>
      </trkpt>
      <trkpt lat="43.21348" lon="5.57998">
        <ele>162.6</ele>
        <time>2016-03-28T09:00:10Z</time>
      </trkpt>
      <trkpt lat="43.21351" lon="5.57994">
        <ele>163.4</ele>
        <time>2016-03-28T09:00:11Z</time>
      </trkpt>
      <trkpt lat="43.21354" lon="5.57991">
        <ele>164</ele>
        <time>2016-03-28T09:00:12Z</time>
      </trkpt>
      <trkpt lat="43.21358" lon="5.57989">
        <ele>164.4</ele>
        <time>2016-03-28T09:00:13Z</time>
      </trkpt>
      <trkpt lat="43.21362" lon="5.57987">
        <ele>165</ele>
        <time>2016-03-28T09:00:14Z</time>
      </trkpt>
      <trkpt lat="43.21365" lon="5.57984">
        <ele>165.6</ele>
        <time>2016-03-28T09:00:15Z</time>
      </trkpt>
      <trkpt lat="43.21368" lon="5.57981">
        <ele>166.1</ele>
        <time>2016-03-28T09:00:16Z</time>
      </trkpt>
      <trkpt lat="43.21374" lon="5.57979">
        <ele>166.8</ele>
        <time>2016-03-28T09:00:18Z</time>
      </trkpt>
      <trkpt lat="43.21378" lon="5.57976">
        <ele>167.2</ele>
        <time>2016-03-28T09:00:19Z</time>
      </trkpt>
      <trkpt lat="43.21382" lon="5.57974">
        <ele>167.3</ele>
        <time>2016-03-28T09:00:20Z</time>
      </trkpt>
      <trkpt lat="43.21385" lon="5.57971">
        <ele>167.4</ele>
        <time>2016-03-28T09:00:21Z</time>
      </trkpt>
      <trkpt lat="43.21389" lon="5.57969">
        <ele>167.5</ele>
        <time>2016-03-28T09:00:22Z</time>
      </trkpt>
      <trkpt lat="43.21393" lon="5.57966">
        <ele>167.6</ele>
        <time>2016-03-28T09:00:23Z</time>
      </trkpt>
      <trkpt lat="43.21396" lon="5.57964">
        <ele>167.6</ele>
        <time>2016-03-28T09:00:24Z</time>
      </trkpt>
      <trkpt lat="43.214" lon="5.57961">
        <ele>167.6</ele>
        <time>2016-03-28T09:00:25Z</time>
      </trkpt>
      <trkpt lat="43.21402" lon="5.57959">
        <ele>167.7</ele>
        <time>2016-03-28T09:00:26Z</time>
      </trkpt>
      <trkpt lat="43.21405" lon="5.57955">
        <ele>168.1</ele>
        <time>2016-03-28T09:00:27Z</time>
      </trkpt>
      <trkpt lat="43.21407" lon="5.57952">
        <ele>168.6</ele>
        <time>2016-03-28T09:00:28Z</time>
      </trkpt>
      <trkpt lat="43.2141" lon="5.57948">
        <ele>169.1</ele>
        <time>2016-03-28T09:00:29Z</time>
      </trkpt>
      <trkpt lat="43.21413" lon="5.57944">
        <ele>169.5</ele>
        <time>2016-03-28T09:00:30Z</time>
      </trkpt>
      <trkpt lat="43.21416" lon="5.57941">
        <ele>169.9</ele>
        <time>2016-03-28T09:00:31Z</time>
      </trkpt>
      <trkpt lat="43.21418" lon="5.57937">
        <ele>170.5</ele>
        <time>2016-03-28T09:00:32Z</time>
      </trkpt>
      <trkpt lat="43.21421" lon="5.57932">
        <ele>171.1</ele>
        <time>2016-03-28T09:00:33Z</time>
      </trkpt>
      <trkpt lat="43.21423" lon="5.57928">
        <ele>171.7</ele>
        <time>2016-03-28T09:00:34Z</time>
      </trkpt>
      <trkpt lat="43.21426" lon="5.57923">
        <ele>172.4</ele>
        <time>2016-03-28T09:00:35Z</time>
      </trkpt>
      <trkpt lat="43.21428" lon="5.57918">
        <ele>173</ele>
        <time>2016-03-28T09:00:36Z</time>
      </trkpt>
      <trkpt lat="43.21431" lon="5.57913">
        <ele>173.7</ele>
        <time>2016-03-28T09:00:37Z</time>
      </trkpt>
      <trkpt lat="43.21433" lon="5.57908">
        <ele>174.3</ele>
        <time>2016-03-28T09:00:38Z</time>
      </trkpt>
      <trkpt lat="43.21434" lon="5.57904">
        <ele>174.9</ele>
        <time>2016-03-28T09:00:39Z</time>
      </trkpt>
      <trkpt lat="43.21436" lon="5.579">
        <ele>175.4</ele>
        <time>2016-03-28T09:00:40Z</time>
      </trkpt>
      <trkpt lat="43.21438" lon="5.57896">
        <ele>175.9</ele>
        <time>2016-03-28T09:00:41Z</time>
      </trkpt>
      <trkpt lat="43.2144" lon="5.57892">
        <ele>176.4</ele>
        <time>2016-03-28T09:00:42Z</time>
      </trkpt>
      <trkpt lat="43.21442" lon="5.57888">
        <ele>176.8</ele>
        <time>2016-03-28T09:00:43Z</time>
      </trkpt>
      <trkpt lat="43.21444" lon="5.57885">
        <ele>177.2</ele>
        <time>2016-03-28T09:00:44Z</time>
      </trkpt>
      <trkpt lat="43.21447" lon="5.57881">
        <ele>177.4</ele>
        <time>2016-03-28T09:00:45Z</time>
      </trkpt>
      <trkpt lat="43.21451" lon="5.57878">
        <ele>177.4</ele>
        <time>2016-03-28T09:00:46Z</time>
      </trkpt>
      <trkpt lat="43.21453" lon="5.57876">
        <ele>177.5</ele>
        <time>2016-03-28T09:00:47Z</time>
      </trkpt>
      <trkpt lat="43.21456" lon="5.57875">
        <ele>177.3</ele>
        <time>2016-03-28T09:00:48Z</time>
      </trkpt>
      <trkpt lat="43.2146" lon="5.57875">
        <ele>176.9</ele>
        <time>2016-03-28T09:00:49Z</time>
      </trkpt>
      <trkpt lat="43.21463" lon="5.57877">
        <ele>176.5</ele>
        <time>2016-03-28T09:00:50Z</time>
      </trkpt>
      <trkpt lat="43.21466" lon="5.57879">
        <ele>176</ele>
        <time>2016-03-28T09:00:51Z</time>
      </trkpt>
      <trkpt lat="43.21472" lon="5.57883">
        <ele>175.3</ele>
        <time>2016-03-28T09:00:53Z</time>
      </trkpt>
      <trkpt lat="43.21476" lon="5.57885">
        <ele>174.8</ele>
        <time>2016-03-28T09:00:54Z</time>
      </trkpt>
      <trkpt lat="43.2148" lon="5.57889">
        <ele>174.2</ele>
        <time>2016-03-28T09:00:55Z</time>
      </trkpt>
      <trkpt lat="43.21484" lon="5.57892">
        <ele>173.6</ele>
        <time>2016-03-28T09:00:56Z</time>
      </trkpt>
      <trkpt lat="43.21487" lon="5.57896">
        <ele>173</ele>
        <time>2016-03-28T09:00:57Z</time>
      </trkpt>
      <trkpt lat="43.21493" lon="5.57902">
        <ele>172</ele>
        <time>2016-03-28T09:00:58Z</time>
      </trkpt>
      <trkpt lat="43.21497" lon="5.5791">
        <ele>170.9</ele>
        <time>2016-03-28T09:00:59Z</time>
      </trkpt>
      <trkpt lat="43.215" lon="5.57913">
        <ele>170.4</ele>
        <time>2016-03-28T09:01:00Z</time>
      </trkpt>
      <trkpt lat="43.21503" lon="5.57914">
        <ele>170.4</ele>
        <time>2016-03-28T09:01:01Z</time>
      </trkpt>
      <trkpt lat="43.21506" lon="5.57918">
        <ele>169.8</ele>
        <time>2016-03-28T09:01:02Z</time>
      </trkpt>
      <trkpt lat="43.21509" lon="5.57924">
        <ele>169.1</ele>
        <time>2016-03-28T09:01:03Z</time>
      </trkpt>
      <trkpt lat="43.21511" lon="5.57928">
        <ele>168.7</ele>
        <time>2016-03-28T09:01:04Z</time>
      </trkpt>
      <trkpt lat="43.21514" lon="5.57932">
        <ele>168.2</ele>
        <time>2016-03-28T09:01:05Z</time>
      </trkpt>
      <trkpt lat="43.21516" lon="5.57937">
        <ele>167.6</ele>
        <time>2016-03-28T09:01:06Z</time>
      </trkpt>
      <trkpt lat="43.21517" lon="5.57942">
        <ele>167.1</ele>
        <time>2016-03-28T09:01:07Z</time>
      </trkpt>
      <trkpt lat="43.21518" lon="5.57946">
        <ele>166.6</ele>
        <time>2016-03-28T09:01:08Z</time>
      </trkpt>
      <trkpt lat="43.21517" lon="5.57951">
        <ele>165.9</ele>
        <time>2016-03-28T09:01:09Z</time>
      </trkpt>
      <trkpt lat="43.21515" lon="5.57957">
        <ele>165.3</ele>
        <time>2016-03-28T09:01:10Z</time>
      </trkpt>
      <trkpt lat="43.21515" lon="5.57961">
        <ele>165.1</ele>
        <time>2016-03-28T09:01:11Z</time>
      </trkpt>
      <trkpt lat="43.21514" lon="5.57966">
        <ele>165.3</ele>
        <time>2016-03-28T09:01:12Z</time>
      </trkpt>
      <trkpt lat="43.21514" lon="5.57971">
        <ele>165.4</ele>
        <time>2016-03-28T09:01:13Z</time>
      </trkpt>
      <trkpt lat="43.21514" lon="5.57975">
        <ele>165.5</ele>
        <time>2016-03-28T09:01:14Z</time>
      </trkpt>
      <trkpt lat="43.21512" lon="5.57979">
        <ele>165.6</ele>
        <time>2016-03-28T09:01:15Z</time>
      </trkpt>
      <trkpt lat="43.21511" lon="5.57983">
        <ele>165.7</ele>
        <time>2016-03-28T09:01:16Z</time>
      </trkpt>
      <trkpt lat="43.2151" lon="5.57987">
        <ele>165.8</ele>
        <time>2016-03-28T09:01:17Z</time>
      </trkpt>
      <trkpt lat="43.21509" lon="5.57991">
        <ele>165.9</ele>
        <time>2016-03-28T09:01:18Z</time>
      </trkpt>
      <trkpt lat="43.21509" lon="5.57995">
        <ele>166</ele>
        <time>2016-03-28T09:01:19Z</time>
      </trkpt>
      <trkpt lat="43.21507" lon="5.58">
        <ele>166</ele>
        <time>2016-03-28T09:01:20Z</time>
      </trkpt>
      <trkpt lat="43.21506" lon="5.58004">
        <ele>166.1</ele>
        <time>2016-03-28T09:01:21Z</time>
      </trkpt>
      <trkpt lat="43.21505" lon="5.58009">
        <ele>166.2</ele>
        <time>2016-03-28T09:01:22Z</time>
      </trkpt>
      <trkpt lat="43.21503" lon="5.58014">
        <ele>166.3</ele>
        <time>2016-03-28T09:01:23Z</time>
      </trkpt>
      <trkpt lat="43.21502" lon="5.5802">
        <ele>166.4</ele>
        <time>2016-03-28T09:01:24Z</time>
      </trkpt>
      <trkpt lat="43.215" lon="5.58025">
        <ele>166.5</ele>
        <time>2016-03-28T09:01:25Z</time>
      </trkpt>
      <trkpt lat="43.21499" lon="5.5803">
        <ele>166.6</ele>
        <time>2016-03-28T09:01:26Z</time>
      </trkpt>
      <trkpt lat="43.21498" lon="5.58035">
        <ele>166.7</ele>
        <time>2016-03-28T09:01:27Z</time>
      </trkpt>
      <trkpt lat="43.21497" lon="5.58041">
        <ele>166.8</ele>
        <time>2016-03-28T09:01:28Z</time>
      </trkpt>
      <trkpt lat="43.21496" lon="5.58046">
        <ele>167</ele>
        <time>2016-03-28T09:01:29Z</time>
      </trkpt>
      <trkpt lat="43.21497" lon="5.5805">
        <ele>167.1</ele>
        <time>2016-03-28T09:01:30Z</time>
      </trkpt>
      <trkpt lat="43.21498" lon="5.58055">
        <ele>167.3</ele>
        <time>2016-03-28T09:01:31Z</time>
      </trkpt>
      <trkpt lat="43.21499" lon="5.5806">
        <ele>167.5</ele>
        <time>2016-03-28T09:01:32Z</time>
      </trkpt>
      <trkpt lat="43.215" lon="5.58065">
        <ele>167.7</ele>
        <time>2016-03-28T09:01:33Z</time>
      </trkpt>
      <trkpt lat="43.21501" lon="5.5807">
        <ele>167.9</ele>
        <time>2016-03-28T09:01:34Z</time>
      </trkpt>
      <trkpt lat="43.21502" lon="5.58074">
        <ele>168</ele>
        <time>2016-03-28T09:01:35Z</time>
      </trkpt>
      <trkpt lat="43.21502" lon="5.5808">
        <ele>168.2</ele>
        <time>2016-03-28T09:01:36Z</time>
      </trkpt>
      <trkpt lat="43.21502" lon="5.58085">
        <ele>168.4</ele>
        <time>2016-03-28T09:01:37Z</time>
      </trkpt>
      <trkpt lat="43.21503" lon="5.58091">
        <ele>168.6</ele>
        <time>2016-03-28T09:01:38Z</time>
      </trkpt>
      <trkpt lat="43.21504" lon="5.58097">
        <ele>168.7</ele>
        <time>2016-03-28T09:01:39Z</time>
      </trkpt>
      <trkpt lat="43.21505" lon="5.58103">
        <ele>168.9</ele>
        <time>2016-03-28T09:01:40Z</time>
      </trkpt>
      <trkpt lat="43.21506" lon="5.58108">
        <ele>169.1</ele>
        <time>2016-03-28T09:01:41Z</time>
      </trkpt>
      <trkpt lat="43.21508" lon="5.58113">
        <ele>169.3</ele>
        <time>2016-03-28T09:01:42Z</time>
      </trkpt>
      <trkpt lat="43.2151" lon="5.58117">
        <ele>169.4</ele>
        <time>2016-03-28T09:01:43Z</time>
      </trkpt>
      <trkpt lat="43.21512" lon="5.58122">
        <ele>169.6</ele>
        <time>2016-03-28T09:01:44Z</time>
      </trkpt>
      <trkpt lat="43.21514" lon="5.58125">
        <ele>169.7</ele>
        <time>2016-03-28T09:01:45Z</time>
      </trkpt>
      <trkpt lat="43.21516" lon="5.58128">
        <ele>169.8</ele>
        <time>2016-03-28T09:01:46Z</time>
      </trkpt>
      <trkpt lat="43.21518" lon="5.5813">
        <ele>169.9</ele>
        <time>2016-03-28T09:01:47Z</time>
      </trkpt>
      <trkpt lat="43.21523" lon="5.58132">
        <ele>170.1</ele>
        <time>2016-03-28T09:01:49Z</time>
      </trkpt>
      <trkpt lat="43.21528" lon="5.58135">
        <ele>170.3</ele>
        <time>2016-03-28T09:01:51Z</time>
      </trkpt>
      <trkpt lat="43.21532" lon="5.58136">
        <ele>170.4</ele>
        <time>2016-03-28T09:01:53Z</time>
      </trkpt>
      <trkpt lat="43.21536" lon="5.58136">
        <ele>170.5</ele>
        <time>2016-03-28T09:01:55Z</time>
      </trkpt>
      <trkpt lat="43.21539" lon="5.58136">
        <ele>170.5</ele>
        <time>2016-03-28T09:01:56Z</time>
      </trkpt>
      <trkpt lat="43.21542" lon="5.58136">
        <ele>170.6</ele>
        <time>2016-03-28T09:01:57Z</time>
      </trkpt>
      <trkpt lat="43.21545" lon="5.58137">
        <ele>171</ele>
        <time>2016-03-28T09:01:58Z</time>
      </trkpt>
      <trkpt lat="43.21548" lon="5.58138">
        <ele>171.4</ele>
        <time>2016-03-28T09:01:59Z</time>
      </trkpt>
      <trkpt lat="43.21551" lon="5.5814">
        <ele>171.8</ele>
        <time>2016-03-28T09:02:00Z</time>
      </trkpt>
      <trkpt lat="43.21554" lon="5.58141">
        <ele>172.2</ele>
        <time>2016-03-28T09:02:01Z</time>
      </trkpt>
      <trkpt lat="43.21557" lon="5.58142">
        <ele>172.7</ele>
        <time>2016-03-28T09:02:02Z</time>
      </trkpt>
      <trkpt lat="43.2156" lon="5.58143">
        <ele>173.1</ele>
        <time>2016-03-28T09:02:03Z</time>
      </trkpt>
      <trkpt lat="43.21563" lon="5.58144">
        <ele>173.4</ele>
        <time>2016-03-28T09:02:04Z</time>
      </trkpt>
      <trkpt lat="43.21566" lon="5.58145">
        <ele>173.8</ele>
        <time>2016-03-28T09:02:05Z</time>
      </trkpt>
      <trkpt lat="43.2157" lon="5.58146">
        <ele>174.2</ele>
        <time>2016-03-28T09:02:06Z</time>
      </trkpt>
      <trkpt lat="43.21573" lon="5.58147">
        <ele>174.5</ele>
        <time>2016-03-28T09:02:07Z</time>
      </trkpt>
      <trkpt lat="43.21576" lon="5.58147">
        <ele>174.9</ele>
        <time>2016-03-28T09:02:08Z</time>
      </trkpt>
      <trkpt lat="43.21579" lon="5.58147">
        <ele>175.3</ele>
        <time>2016-03-28T09:02:09Z</time>
      </trkpt>
      <trkpt lat="43.21583" lon="5.58147">
        <ele>175.7</ele>
        <time>2016-03-28T09:02:10Z</time>
      </trkpt>
      <trkpt lat="43.21586" lon="5.58147">
        <ele>176</ele>
        <time>2016-03-28T09:02:11Z</time>
      </trkpt>
      <trkpt lat="43.2159" lon="5.58148">
        <ele>176.4</ele>
        <time>2016-03-28T09:02:12Z</time>
      </trkpt>
      <trkpt lat="43.21594" lon="5.58148">
        <ele>176.9</ele>
        <time>2016-03-28T09:02:13Z</time>
      </trkpt>
      <trkpt lat="43.21597" lon="5.58148">
        <ele>177.2</ele>
        <time>2016-03-28T09:02:14Z</time>
      </trkpt>
      <trkpt lat="43.216" lon="5.58149">
        <ele>177.6</ele>
        <time>2016-03-28T09:02:15Z</time>
      </trkpt>
      <trkpt lat="43.21604" lon="5.58149">
        <ele>177.9</ele>
        <time>2016-03-28T09:02:16Z</time>
      </trkpt>
      <trkpt lat="43.21607" lon="5.58148">
        <ele>178.3</ele>
        <time>2016-03-28T09:02:17Z</time>
      </trkpt>
      <trkpt lat="43.2161" lon="5.58147">
        <ele>178.8</ele>
        <time>2016-03-28T09:02:18Z</time>
      </trkpt>
      <trkpt lat="43.21613" lon="5.58145">
        <ele>179.2</ele>
        <time>2016-03-28T09:02:19Z</time>
      </trkpt>
      <trkpt lat="43.21617" lon="5.58144">
        <ele>179.6</ele>
        <time>2016-03-28T09:02:20Z</time>
      </trkpt>
      <trkpt lat="43.2162" lon="5.58143">
        <ele>180.1</ele>
        <time>2016-03-28T09:02:21Z</time>
      </trkpt>
      <trkpt lat="43.21624" lon="5.58141">
        <ele>180.7</ele>
        <time>2016-03-28T09:02:22Z</time>
      </trkpt>
      <trkpt lat="43.21627" lon="5.5814">
        <ele>181.1</ele>
        <time>2016-03-28T09:02:23Z</time>
      </trkpt>
      <trkpt lat="43.21631" lon="5.58138">
        <ele>181.4</ele>
        <time>2016-03-28T09:02:24Z</time>
      </trkpt>
      <trkpt lat="43.21635" lon="5.58137">
        <ele>181.6</ele>
        <time>2016-03-28T09:02:25Z</time>
      </trkpt>
      <trkpt lat="43.21638" lon="5.58136">
        <ele>181.9</ele>
        <time>2016-03-28T09:02:26Z</time>
      </trkpt>
      <trkpt lat="43.21643" lon="5.58135">
        <ele>182.2</ele>
        <time>2016-03-28T09:02:27Z</time>
      </trkpt>
      <trkpt lat="43.21646" lon="5.58134">
        <ele>182.5</ele>
        <time>2016-03-28T09:02:28Z</time>
      </trkpt>
      <trkpt lat="43.2165" lon="5.58132">
        <ele>182.7</ele>
        <time>2016-03-28T09:02:29Z</time>
      </trkpt>
      <trkpt lat="43.21654" lon="5.5813">
        <ele>183</ele>
        <time>2016-03-28T09:02:30Z</time>
      </trkpt>
      <trkpt lat="43.21657" lon="5.58128">
        <ele>183.3</ele>
        <time>2016-03-28T09:02:31Z</time>
      </trkpt>
      <trkpt lat="43.2166" lon="5.58127">
        <ele>183.6</ele>
        <time>2016-03-28T09:02:32Z</time>
      </trkpt>
      <trkpt lat="43.21664" lon="5.58125">
        <ele>183.9</ele>
        <time>2016-03-28T09:02:33Z</time>
      </trkpt>
      <trkpt lat="43.21667" lon="5.58123">
        <ele>184.2</ele>
        <time>2016-03-28T09:02:34Z</time>
      </trkpt>
      <trkpt lat="43.21671" lon="5.58121">
        <ele>184.5</ele>
        <time>2016-03-28T09:02:35Z</time>
      </trkpt>
      <trkpt lat="43.21673" lon="5.58118">
        <ele>184.9</ele>
        <time>2016-03-28T09:02:36Z</time>
      </trkpt>
      <trkpt lat="43.21676" lon="5.58115">
        <ele>185.3</ele>
        <time>2016-03-28T09:02:37Z</time>
      </trkpt>
      <trkpt lat="43.21679" lon="5.58113">
        <ele>185.7</ele>
        <time>2016-03-28T09:02:38Z</time>
      </trkpt>
      <trkpt lat="43.21682" lon="5.58111">
        <ele>186</ele>
        <time>2016-03-28T09:02:39Z</time>
      </trkpt>
      <trkpt lat="43.21685" lon="5.58109">
        <ele>186.4</ele>
        <time>2016-03-28T09:02:40Z</time>
      </trkpt>
      <trkpt lat="43.21688" lon="5.58107">
        <ele>186.7</ele>
        <time>2016-03-28T09:02:41Z</time>
      </trkpt>
      <trkpt lat="43.2169" lon="5.58105">
        <ele>187.1</ele>
        <time>2016-03-28T09:02:42Z</time>
      </trkpt>
      <trkpt lat="43.21693" lon="5.58104">
        <ele>187.5</ele>
        <time>2016-03-28T09:02:43Z</time>
      </trkpt>
      <trkpt lat="43.21696" lon="5.58102">
        <ele>187.9</ele>
        <time>2016-03-28T09:02:44Z</time>
      </trkpt>
      <trkpt lat="43.21699" lon="5.581">
        <ele>188.3</ele>
        <time>2016-03-28T09:02:45Z</time>
      </trkpt>
      <trkpt lat="43.21702" lon="5.58099">
        <ele>188.6</ele>
        <time>2016-03-28T09:02:46Z</time>
      </trkpt>
      <trkpt lat="43.21704" lon="5.58097">
        <ele>189</ele>
        <time>2016-03-28T09:02:47Z</time>
      </trkpt>
      <trkpt lat="43.21707" lon="5.58095">
        <ele>189.5</ele>
        <time>2016-03-28T09:02:48Z</time>
      </trkpt>
      <trkpt lat="43.2171" lon="5.58094">
        <ele>189.8</ele>
        <time>2016-03-28T09:02:49Z</time>
      </trkpt>
      <trkpt lat="43.21712" lon="5.58092">
        <ele>190.3</ele>
        <time>2016-03-28T09:02:50Z</time>
      </trkpt>
      <trkpt lat="43.21715" lon="5.5809">
        <ele>190.7</ele>
        <time>2016-03-28T09:02:51Z</time>
      </trkpt>
      <trkpt lat="43.21717" lon="5.58088">
        <ele>191.1</ele>
        <time>2016-03-28T09:02:52Z</time>
      </trkpt>
      <trkpt lat="43.2172" lon="5.58086">
        <ele>191.6</ele>
        <time>2016-03-28T09:02:53Z</time>
      </trkpt>
      <trkpt lat="43.21723" lon="5.58085">
        <ele>191.9</ele>
        <time>2016-03-28T09:02:54Z</time>
      </trkpt>
      <trkpt lat="43.21726" lon="5.58085">
        <ele>192.2</ele>
        <time>2016-03-28T09:02:55Z</time>
      </trkpt>
      <trkpt lat="43.21729" lon="5.58085">
        <ele>192.5</ele>
        <time>2016-03-28T09:02:56Z</time>
      </trkpt>
      <trkpt lat="43.21731" lon="5.58085">
        <ele>192.7</ele>
        <time>2016-03-28T09:02:57Z</time>
      </trkpt>
      <trkpt lat="43.21734" lon="5.58085">
        <ele>192.9</ele>
        <time>2016-03-28T09:02:58Z</time>
      </trkpt>
      <trkpt lat="43.21738" lon="5.58086">
        <ele>193.1</ele>
        <time>2016-03-28T09:02:59Z</time>
      </trkpt>
      <trkpt lat="43.21741" lon="5.58086">
        <ele>193.2</ele>
        <time>2016-03-28T09:03:00Z</time>
      </trkpt>
      <trkpt lat="43.21744" lon="5.58087">
        <ele>193.4</ele>
        <time>2016-03-28T09:03:01Z</time>
      </trkpt>
      <trkpt lat="43.21746" lon="5.58087">
        <ele>193.6</ele>
        <time>2016-03-28T09:03:02Z</time>
      </trkpt>
      <trkpt lat="43.2175" lon="5.58087">
        <ele>193.9</ele>
        <time>2016-03-28T09:03:03Z</time>
      </trkpt>
      <trkpt lat="43.21753" lon="5.58087">
        <ele>194.1</ele>
        <time>2016-03-28T09:03:04Z</time>
      </trkpt>
      <trkpt lat="43.21756" lon="5.58087">
        <ele>194.4</ele>
        <time>2016-03-28T09:03:05Z</time>
      </trkpt>
      <trkpt lat="43.21761" lon="5.58087">
        <ele>194.8</ele>
        <time>2016-03-28T09:03:07Z</time>
      </trkpt>
      <trkpt lat="43.21766" lon="5.58086">
        <ele>195.2</ele>
        <time>2016-03-28T09:03:09Z</time>
      </trkpt>
      <trkpt lat="43.21771" lon="5.58086">
        <ele>195.7</ele>
        <time>2016-03-28T09:03:11Z</time>
      </trkpt>
      <trkpt lat="43.21776" lon="5.58086">
        <ele>196.2</ele>
        <time>2016-03-28T09:03:13Z</time>
      </trkpt>
      <trkpt lat="43.21781" lon="5.58085">
        <ele>196.6</ele>
        <time>2016-03-28T09:03:15Z</time>
      </trkpt>
      <trkpt lat="43.21784" lon="5.58085">
        <ele>196.9</ele>
        <time>2016-03-28T09:03:16Z</time>
      </trkpt>
      <trkpt lat="43.21787" lon="5.58085">
        <ele>197.1</ele>
        <time>2016-03-28T09:03:17Z</time>
      </trkpt>
      <trkpt lat="43.21792" lon="5.58085">
        <ele>197.6</ele>
        <time>2016-03-28T09:03:19Z</time>
      </trkpt>
      <trkpt lat="43.21797" lon="5.58085">
        <ele>198.1</ele>
        <time>2016-03-28T09:03:21Z</time>
      </trkpt>
      <trkpt lat="43.218" lon="5.58085">
        <ele>198.4</ele>
        <time>2016-03-28T09:03:22Z</time>
      </trkpt>
      <trkpt lat="43.21803" lon="5.58084">
        <ele>198.8</ele>
        <time>2016-03-28T09:03:23Z</time>
      </trkpt>
      <trkpt lat="43.21808" lon="5.58083">
        <ele>199.5</ele>
        <time>2016-03-28T09:03:25Z</time>
      </trkpt>
      <trkpt lat="43.21813" lon="5.58083">
        <ele>200</ele>
        <time>2016-03-28T09:03:27Z</time>
      </trkpt>
      <trkpt lat="43.21818" lon="5.58083">
        <ele>200.6</ele>
        <time>2016-03-28T09:03:29Z</time>
      </trkpt>
      <trkpt lat="43.21823" lon="5.58082">
        <ele>201.2</ele>
        <time>2016-03-28T09:03:31Z</time>
      </trkpt>
      <trkpt lat="43.21828" lon="5.58081">
        <ele>201.8</ele>
        <time>2016-03-28T09:03:33Z</time>
      </trkpt>
      <trkpt lat="43.21833" lon="5.58081">
        <ele>202.2</ele>
        <time>2016-03-28T09:03:35Z</time>
      </trkpt>
      <trkpt lat="43.21838" lon="5.58081">
        <ele>202.8</ele>
        <time>2016-03-28T09:03:37Z</time>
      </trkpt>
      <trkpt lat="43.21841" lon="5.5808">
        <ele>203.1</ele>
        <time>2016-03-28T09:03:38Z</time>
      </trkpt>
      <trkpt lat="43.21844" lon="5.5808">
        <ele>203.3</ele>
        <time>2016-03-28T09:03:39Z</time>
      </trkpt>
      <trkpt lat="43.21846" lon="5.5808">
        <ele>203.6</ele>
        <time>2016-03-28T09:03:40Z</time>
      </trkpt>
      <trkpt lat="43.21851" lon="5.5808">
        <ele>204.1</ele>
        <time>2016-03-28T09:03:42Z</time>
      </trkpt>
      <trkpt lat="43.21856" lon="5.5808">
        <ele>204.6</ele>
        <time>2016-03-28T09:03:44Z</time>
      </trkpt>
      <trkpt lat="43.21861" lon="5.58079">
        <ele>205.3</ele>
        <time>2016-03-28T09:03:46Z</time>
      </trkpt>
      <trkpt lat="43.21865" lon="5.58079">
        <ele>205.6</ele>
        <time>2016-03-28T09:03:47Z</time>
      </trkpt>
      <trkpt lat="43.21868" lon="5.58079">
        <ele>205.9</ele>
        <time>2016-03-28T09:03:48Z</time>
      </trkpt>
      <trkpt lat="43.21871" lon="5.58079">
        <ele>206.1</ele>
        <time>2016-03-28T09:03:49Z</time>
      </trkpt>
      <trkpt lat="43.21876" lon="5.58079">
        <ele>206.5</ele>
        <time>2016-03-28T09:03:51Z</time>
      </trkpt>
      <trkpt lat="43.21881" lon="5.58079">
        <ele>206.5</ele>
        <time>2016-03-28T09:03:53Z</time>
      </trkpt>
      <trkpt lat="43.21885" lon="5.58079">
        <ele>206.7</ele>
        <time>2016-03-28T09:03:55Z</time>
      </trkpt>
      <trkpt lat="43.21891" lon="5.58079">
        <ele>206.7</ele>
        <time>2016-03-28T09:03:57Z</time>
      </trkpt>
      <trkpt lat="43.21894" lon="5.58079">
        <ele>206.7</ele>
        <time>2016-03-28T09:03:58Z</time>
      </trkpt>
      <trkpt lat="43.21898" lon="5.58079">
        <ele>206.8</ele>
        <time>2016-03-28T09:03:59Z</time>
      </trkpt>
      <trkpt lat="43.21901" lon="5.58078">
        <ele>206.9</ele>
        <time>2016-03-28T09:04:00Z</time>
      </trkpt>
      <trkpt lat="43.21904" lon="5.58078">
        <ele>207</ele>
        <time>2016-03-28T09:04:01Z</time>
      </trkpt>
      <trkpt lat="43.21909" lon="5.58077">
        <ele>207.2</ele>
        <time>2016-03-28T09:04:03Z</time>
      </trkpt>
      <trkpt lat="43.21914" lon="5.58076">
        <ele>207.6</ele>
        <time>2016-03-28T09:04:05Z</time>
      </trkpt>
      <trkpt lat="43.21917" lon="5.58075">
        <ele>207.8</ele>
        <time>2016-03-28T09:04:06Z</time>
      </trkpt>
      <trkpt lat="43.2192" lon="5.58075">
        <ele>207.9</ele>
        <time>2016-03-28T09:04:07Z</time>
      </trkpt>
      <trkpt lat="43.21925" lon="5.58075">
        <ele>208</ele>
        <time>2016-03-28T09:04:09Z</time>
      </trkpt>
      <trkpt lat="43.2193" lon="5.58075">
        <ele>208</ele>
        <time>2016-03-28T09:04:11Z</time>
      </trkpt>
      <trkpt lat="43.21935" lon="5.58075">
        <ele>208</ele>
        <time>2016-03-28T09:04:13Z</time>
      </trkpt>
      <trkpt lat="43.21939" lon="5.58075">
        <ele>208.1</ele>
        <time>2016-03-28T09:04:15Z</time>
      </trkpt>
      <trkpt lat="43.21945" lon="5.58075">
        <ele>208.1</ele>
        <time>2016-03-28T09:04:17Z</time>
      </trkpt>
      <trkpt lat="43.21948" lon="5.58075">
        <ele>208.2</ele>
        <time>2016-03-28T09:04:18Z</time>
      </trkpt>
      <trkpt lat="43.21953" lon="5.58074">
        <ele>208.4</ele>
        <time>2016-03-28T09:04:20Z</time>
      </trkpt>
      <trkpt lat="43.21958" lon="5.58073">
        <ele>208.6</ele>
        <time>2016-03-28T09:04:22Z</time>
      </trkpt>
      <trkpt lat="43.21961" lon="5.58073">
        <ele>208.7</ele>
        <time>2016-03-28T09:04:23Z</time>
      </trkpt>
      <trkpt lat="43.21964" lon="5.58073">
        <ele>208.8</ele>
        <time>2016-03-28T09:04:24Z</time>
      </trkpt>
      <trkpt lat="43.21967" lon="5.58073">
        <ele>208.9</ele>
        <time>2016-03-28T09:04:25Z</time>
      </trkpt>
      <trkpt lat="43.2197" lon="5.58072">
        <ele>209</ele>
        <time>2016-03-28T09:04:26Z</time>
      </trkpt>
      <trkpt lat="43.21973" lon="5.58072">
        <ele>209.2</ele>
        <time>2016-03-28T09:04:27Z</time>
      </trkpt>
      <trkpt lat="43.21976" lon="5.58072">
        <ele>209.3</ele>
        <time>2016-03-28T09:04:28Z</time>
      </trkpt>
      <trkpt lat="43.21979" lon="5.58071">
        <ele>209.4</ele>
        <time>2016-03-28T09:04:29Z</time>
      </trkpt>
      <trkpt lat="43.21982" lon="5.58071">
        <ele>209.6</ele>
        <time>2016-03-28T09:04:30Z</time>
      </trkpt>
      <trkpt lat="43.21985" lon="5.58071">
        <ele>209.7</ele>
        <time>2016-03-28T09:04:31Z</time>
      </trkpt>
      <trkpt lat="43.21987" lon="5.5807">
        <ele>209.9</ele>
        <time>2016-03-28T09:04:32Z</time>
      </trkpt>
      <trkpt lat="43.2199" lon="5.58069">
        <ele>210.2</ele>
        <time>2016-03-28T09:04:33Z</time>
      </trkpt>
      <trkpt lat="43.21993" lon="5.58069">
        <ele>210.3</ele>
        <time>2016-03-28T09:04:34Z</time>
      </trkpt>
      <trkpt lat="43.21996" lon="5.58068">
        <ele>210.5</ele>
        <time>2016-03-28T09:04:35Z</time>
      </trkpt>
      <trkpt lat="43.21999" lon="5.58067">
        <ele>210.8</ele>
        <time>2016-03-28T09:04:36Z</time>
      </trkpt>
      <trkpt lat="43.22003" lon="5.58066">
        <ele>211.1</ele>
        <time>2016-03-28T09:04:37Z</time>
      </trkpt>
      <trkpt lat="43.22007" lon="5.58065">
        <ele>211.4</ele>
        <time>2016-03-28T09:04:38Z</time>
      </trkpt>
      <trkpt lat="43.2201" lon="5.58064">
        <ele>211.8</ele>
        <time>2016-03-28T09:04:39Z</time>
      </trkpt>
      <trkpt lat="43.22014" lon="5.58062">
        <ele>212.1</ele>
        <time>2016-03-28T09:04:40Z</time>
      </trkpt>
      <trkpt lat="43.22017" lon="5.58061">
        <ele>212.5</ele>
        <time>2016-03-28T09:04:41Z</time>
      </trkpt>
      <trkpt lat="43.2202" lon="5.58059">
        <ele>212.9</ele>
        <time>2016-03-28T09:04:42Z</time>
      </trkpt>
      <trkpt lat="43.22023" lon="5.58058">
        <ele>213.3</ele>
        <time>2016-03-28T09:04:43Z</time>
      </trkpt>
      <trkpt lat="43.22026" lon="5.58056">
        <ele>213.7</ele>
        <time>2016-03-28T09:04:44Z</time>
      </trkpt>
      <trkpt lat="43.22029" lon="5.58054">
        <ele>214.2</ele>
        <time>2016-03-28T09:04:45Z</time>
      </trkpt>
      <trkpt lat="43.22032" lon="5.58052">
        <ele>214.7</ele>
        <time>2016-03-28T09:04:46Z</time>
      </trkpt>
      <trkpt lat="43.22035" lon="5.5805">
        <ele>215.2</ele>
        <time>2016-03-28T09:04:47Z</time>
      </trkpt>
      <trkpt lat="43.22039" lon="5.58047">
        <ele>215.8</ele>
        <time>2016-03-28T09:04:48Z</time>
      </trkpt>
      <trkpt lat="43.22043" lon="5.58045">
        <ele>216.2</ele>
        <time>2016-03-28T09:04:49Z</time>
      </trkpt>
      <trkpt lat="43.22046" lon="5.58043">
        <ele>216.4</ele>
        <time>2016-03-28T09:04:50Z</time>
      </trkpt>
      <trkpt lat="43.2205" lon="5.58041">
        <ele>216.6</ele>
        <time>2016-03-28T09:04:51Z</time>
      </trkpt>
      <trkpt lat="43.22054" lon="5.58039">
        <ele>217</ele>
        <time>2016-03-28T09:04:52Z</time>
      </trkpt>
      <trkpt lat="43.22057" lon="5.58037">
        <ele>217.3</ele>
        <time>2016-03-28T09:04:53Z</time>
      </trkpt>
      <trkpt lat="43.22061" lon="5.58035">
        <ele>217.6</ele>
        <time>2016-03-28T09:04:54Z</time>
      </trkpt>
      <trkpt lat="43.22064" lon="5.58033">
        <ele>217.8</ele>
        <time>2016-03-28T09:04:55Z</time>
      </trkpt>
      <trkpt lat="43.22068" lon="5.58031">
        <ele>218.1</ele>
        <time>2016-03-28T09:04:56Z</time>
      </trkpt>
      <trkpt lat="43.22071" lon="5.58029">
        <ele>218.4</ele>
        <time>2016-03-28T09:04:57Z</time>
      </trkpt>
      <trkpt lat="43.22075" lon="5.58027">
        <ele>218.7</ele>
        <time>2016-03-28T09:04:58Z</time>
      </trkpt>
      <trkpt lat="43.22078" lon="5.58025">
        <ele>219</ele>
        <time>2016-03-28T09:04:59Z</time>
      </trkpt>
      <trkpt lat="43.22082" lon="5.58024">
        <ele>219.2</ele>
        <time>2016-03-28T09:05:00Z</time>
      </trkpt>
      <trkpt lat="43.22085" lon="5.58022">
        <ele>219.3</ele>
        <time>2016-03-28T09:05:01Z</time>
      </trkpt>
      <trkpt lat="43.22088" lon="5.58021">
        <ele>219.5</ele>
        <time>2016-03-28T09:05:02Z</time>
      </trkpt>
      <trkpt lat="43.22092" lon="5.5802">
        <ele>219.7</ele>
        <time>2016-03-28T09:05:03Z</time>
      </trkpt>
      <trkpt lat="43.22095" lon="5.58018">
        <ele>219.9</ele>
        <time>2016-03-28T09:05:04Z</time>
      </trkpt>
      <trkpt lat="43.22098" lon="5.58017">
        <ele>220.1</ele>
        <time>2016-03-28T09:05:05Z</time>
      </trkpt>
      <trkpt lat="43.22102" lon="5.58015">
        <ele>220.2</ele>
        <time>2016-03-28T09:05:06Z</time>
      </trkpt>
      <trkpt lat="43.22106" lon="5.58014">
        <ele>220.3</ele>
        <time>2016-03-28T09:05:07Z</time>
      </trkpt>
      <trkpt lat="43.2211" lon="5.58012">
        <ele>220.5</ele>
        <time>2016-03-28T09:05:08Z</time>
      </trkpt>
      <trkpt lat="43.22114" lon="5.5801">
        <ele>220.8</ele>
        <time>2016-03-28T09:05:09Z</time>
      </trkpt>
      <trkpt lat="43.22118" lon="5.58009">
        <ele>221</ele>
        <time>2016-03-28T09:05:10Z</time>
      </trkpt>
      <trkpt lat="43.22122" lon="5.58007">
        <ele>221.3</ele>
        <time>2016-03-28T09:05:11Z</time>
      </trkpt>
      <trkpt lat="43.22126" lon="5.58005">
        <ele>221.5</ele>
        <time>2016-03-28T09:05:12Z</time>
      </trkpt>
      <trkpt lat="43.2213" lon="5.58003">
        <ele>221.5</ele>
        <time>2016-03-28T09:05:13Z</time>
      </trkpt>
      <trkpt lat="43.22134" lon="5.58001">
        <ele>221.3</ele>
        <time>2016-03-28T09:05:14Z</time>
      </trkpt>
      <trkpt lat="43.22138" lon="5.57999">
        <ele>221.1</ele>
        <time>2016-03-28T09:05:15Z</time>
      </trkpt>
      <trkpt lat="43.22142" lon="5.57998">
        <ele>220.9</ele>
        <time>2016-03-28T09:05:16Z</time>
      </trkpt>
      <trkpt lat="43.22146" lon="5.57996">
        <ele>220.7</ele>
        <time>2016-03-28T09:05:17Z</time>
      </trkpt>
      <trkpt lat="43.2215" lon="5.57994">
        <ele>220.6</ele>
        <time>2016-03-28T09:05:18Z</time>
      </trkpt>
      <trkpt lat="43.22154" lon="5.57991">
        <ele>220.4</ele>
        <time>2016-03-28T09:05:19Z</time>
      </trkpt>
      <trkpt lat="43.22158" lon="5.57989">
        <ele>220.2</ele>
        <time>2016-03-28T09:05:20Z</time>
      </trkpt>
      <trkpt lat="43.22162" lon="5.57987">
        <ele>219.9</ele>
        <time>2016-03-28T09:05:21Z</time>
      </trkpt>
      <trkpt lat="43.22166" lon="5.57985">
        <ele>219.5</ele>
        <time>2016-03-28T09:05:22Z</time>
      </trkpt>
      <trkpt lat="43.2217" lon="5.57984">
        <ele>219.1</ele>
        <time>2016-03-28T09:05:23Z</time>
      </trkpt>
      <trkpt lat="43.22174" lon="5.57982">
        <ele>218.6</ele>
        <time>2016-03-28T09:05:24Z</time>
      </trkpt>
      <trkpt lat="43.22178" lon="5.57981">
        <ele>217.9</ele>
        <time>2016-03-28T09:05:25Z</time>
      </trkpt>
      <trkpt lat="43.22182" lon="5.57981">
        <ele>217</ele>
        <time>2016-03-28T09:05:26Z</time>
      </trkpt>
      <trkpt lat="43.22186" lon="5.57987">
        <ele>215.4</ele>
        <time>2016-03-28T09:05:27Z</time>
      </trkpt>
      <trkpt lat="43.22191" lon="5.57989">
        <ele>214.2</ele>
        <time>2016-03-28T09:05:28Z</time>
      </trkpt>
      <trkpt lat="43.22195" lon="5.57991">
        <ele>213.2</ele>
        <time>2016-03-28T09:05:29Z</time>
      </trkpt>
      <trkpt lat="43.222" lon="5.57992">
        <ele>212.3</ele>
        <time>2016-03-28T09:05:30Z</time>
      </trkpt>
      <trkpt lat="43.22204" lon="5.57991">
        <ele>211.6</ele>
        <time>2016-03-28T09:05:31Z</time>
      </trkpt>
      <trkpt lat="43.22209" lon="5.57988">
        <ele>211.1</ele>
        <time>2016-03-28T09:05:32Z</time>
      </trkpt>
      <trkpt lat="43.22213" lon="5.57985">
        <ele>211.1</ele>
        <time>2016-03-28T09:05:33Z</time>
      </trkpt>
      <trkpt lat="43.22216" lon="5.5798">
        <ele>211.3</ele>
        <time>2016-03-28T09:05:34Z</time>
      </trkpt>
      <trkpt lat="43.22219" lon="5.57973">
        <ele>211.6</ele>
        <time>2016-03-28T09:05:35Z</time>
      </trkpt>
      <trkpt lat="43.22221" lon="5.57966">
        <ele>211.9</ele>
        <time>2016-03-28T09:05:36Z</time>
      </trkpt>
      <trkpt lat="43.22224" lon="5.57959">
        <ele>212.1</ele>
        <time>2016-03-28T09:05:37Z</time>
      </trkpt>
      <trkpt lat="43.22227" lon="5.57952">
        <ele>212.3</ele>
        <time>2016-03-28T09:05:38Z</time>
      </trkpt>
      <trkpt lat="43.22232" lon="5.57946">
        <ele>212.1</ele>
        <time>2016-03-28T09:05:39Z</time>
      </trkpt>
      <trkpt lat="43.22239" lon="5.57942">
        <ele>211.5</ele>
        <time>2016-03-28T09:05:40Z</time>
      </trkpt>
      <trkpt lat="43.22245" lon="5.57939">
        <ele>210.7</ele>
        <time>2016-03-28T09:05:41Z</time>
      </trkpt>
      <trkpt lat="43.22251" lon="5.57934">
        <ele>210</ele>
        <time>2016-03-28T09:05:42Z</time>
      </trkpt>
      <trkpt lat="43.22258" lon="5.57931">
        <ele>209</ele>
        <time>2016-03-28T09:05:43Z</time>
      </trkpt>
      <trkpt lat="43.22265" lon="5.57927">
        <ele>207.9</ele>
        <time>2016-03-28T09:05:44Z</time>
      </trkpt>
      <trkpt lat="43.22272" lon="5.57922">
        <ele>206.8</ele>
        <time>2016-03-28T09:05:45Z</time>
      </trkpt>
      <trkpt lat="43.22278" lon="5.57917">
        <ele>205.6</ele>
        <time>2016-03-28T09:05:46Z</time>
      </trkpt>
      <trkpt lat="43.22285" lon="5.57912">
        <ele>204.2</ele>
        <time>2016-03-28T09:05:47Z</time>
      </trkpt>
      <trkpt lat="43.22291" lon="5.57905">
        <ele>202.8</ele>
        <time>2016-03-28T09:05:48Z</time>
      </trkpt>
      <trkpt lat="43.22298" lon="5.57899">
        <ele>202.4</ele>
        <time>2016-03-28T09:05:49Z</time>
      </trkpt>
      <trkpt lat="43.22305" lon="5.57891">
        <ele>201.8</ele>
        <time>2016-03-28T09:05:50Z</time>
      </trkpt>
      <trkpt lat="43.22309" lon="5.57881">
        <ele>201.2</ele>
        <time>2016-03-28T09:05:51Z</time>
      </trkpt>
      <trkpt lat="43.22316" lon="5.5787">
        <ele>200</ele>
        <time>2016-03-28T09:05:52Z</time>
      </trkpt>
      <trkpt lat="43.22321" lon="5.57857">
        <ele>198.5</ele>
        <time>2016-03-28T09:05:53Z</time>
      </trkpt>
      <trkpt lat="43.22327" lon="5.57842">
        <ele>196.9</ele>
        <time>2016-03-28T09:05:54Z</time>
      </trkpt>
      <trkpt lat="43.22328" lon="5.57826">
        <ele>195.5</ele>
        <time>2016-03-28T09:05:55Z</time>
      </trkpt>
      <trkpt lat="43.22329" lon="5.57812">
        <ele>194.3</ele>
        <time>2016-03-28T09:05:56Z</time>
      </trkpt>
      <trkpt lat="43.22323" lon="5.578">
        <ele>193.1</ele>
        <time>2016-03-28T09:05:57Z</time>
      </trkpt>
      <trkpt lat="43.22314" lon="5.57794">
        <ele>192.5</ele>
        <time>2016-03-28T09:05:58Z</time>
      </trkpt>
      <trkpt lat="43.22305" lon="5.57788">
        <ele>191.8</ele>
        <time>2016-03-28T09:05:59Z</time>
      </trkpt>
      <trkpt lat="43.22296" lon="5.57782">
        <ele>191.2</ele>
        <time>2016-03-28T09:06:00Z</time>
      </trkpt>
      <trkpt lat="43.22279" lon="5.5778">
        <ele>194.8</ele>
        <time>2016-03-28T09:06:01Z</time>
      </trkpt>
      <trkpt lat="43.22268" lon="5.57775">
        <ele>198.2</ele>
        <time>2016-03-28T09:06:02Z</time>
      </trkpt>
      <trkpt lat="43.22257" lon="5.57767">
        <ele>201.3</ele>
        <time>2016-03-28T09:06:03Z</time>
      </trkpt>
      <trkpt lat="43.22244" lon="5.57765">
        <ele>205.5</ele>
        <time>2016-03-28T09:06:04Z</time>
      </trkpt>
      <trkpt lat="43.22231" lon="5.57755">
        <ele>209.4</ele>
        <time>2016-03-28T09:06:05Z</time>
      </trkpt>
      <trkpt lat="43.22224" lon="5.57735">
        <ele>211.3</ele>
        <time>2016-03-28T09:06:06Z</time>
      </trkpt>
      <trkpt lat="43.22227" lon="5.57717">
        <ele>210</ele>
        <time>2016-03-28T09:06:07Z</time>
      </trkpt>
      <trkpt lat="43.22222" lon="5.57703">
        <ele>212.1</ele>
        <time>2016-03-28T09:06:08Z</time>
      </trkpt>
      <trkpt lat="43.22221" lon="5.57686">
        <ele>213.2</ele>
        <time>2016-03-28T09:06:09Z</time>
      </trkpt>
      <trkpt lat="43.22218" lon="5.57669">
        <ele>215.5</ele>
        <time>2016-03-28T09:06:10Z</time>
      </trkpt>
      <trkpt lat="43.22219" lon="5.57653">
        <ele>215.8</ele>
        <time>2016-03-28T09:06:11Z</time>
      </trkpt>
      <trkpt lat="43.22224" lon="5.57634">
        <ele>214.1</ele>
        <time>2016-03-28T09:06:12Z</time>
      </trkpt>
      <trkpt lat="43.22229" lon="5.5762">
        <ele>212.3</ele>
        <time>2016-03-28T09:06:13Z</time>
      </trkpt>
      <trkpt lat="43.22231" lon="5.57601">
        <ele>211.7</ele>
        <time>2016-03-28T09:06:14Z</time>
      </trkpt>
      <trkpt lat="43.22233" lon="5.57581">
        <ele>211.3</ele>
        <time>2016-03-28T09:06:15Z</time>
      </trkpt>
      <trkpt lat="43.22235" lon="5.57567">
        <ele>210.2</ele>
        <time>2016-03-28T09:06:16Z</time>
      </trkpt>
      <trkpt lat="43.22236" lon="5.57551">
        <ele>209.8</ele>
        <time>2016-03-28T09:06:17Z</time>
      </trkpt>
      <trkpt lat="43.22237" lon="5.57533">
        <ele>209.9</ele>
        <time>2016-03-28T09:06:18Z</time>
      </trkpt>
      <trkpt lat="43.22239" lon="5.57517">
        <ele>208.8</ele>
        <time>2016-03-28T09:06:19Z</time>
      </trkpt>
      <trkpt lat="43.22244" lon="5.57499">
        <ele>207</ele>
        <time>2016-03-28T09:06:20Z</time>
      </trkpt>
      <trkpt lat="43.22246" lon="5.57482">
        <ele>206.2</ele>
        <time>2016-03-28T09:06:21Z</time>
      </trkpt>
      <trkpt lat="43.22249" lon="5.57464">
        <ele>204.9</ele>
        <time>2016-03-28T09:06:22Z</time>
      </trkpt>
      <trkpt lat="43.2225" lon="5.57447">
        <ele>204.4</ele>
        <time>2016-03-28T09:06:23Z</time>
      </trkpt>
      <trkpt lat="43.22252" lon="5.57432">
        <ele>203.2</ele>
        <time>2016-03-28T09:06:24Z</time>
      </trkpt>
      <trkpt lat="43.22253" lon="5.57415">
        <ele>202.6</ele>
        <time>2016-03-28T09:06:25Z</time>
      </trkpt>
      <trkpt lat="43.22261" lon="5.57396">
        <ele>198.8</ele>
        <time>2016-03-28T09:06:26Z</time>
      </trkpt>
      <trkpt lat="43.22263" lon="5.57379">
        <ele>197.7</ele>
        <time>2016-03-28T09:06:27Z</time>
      </trkpt>
      <trkpt lat="43.22264" lon="5.57364">
        <ele>196.2</ele>
        <time>2016-03-28T09:06:28Z</time>
      </trkpt>
      <trkpt lat="43.22267" lon="5.57347">
        <ele>194</ele>
        <time>2016-03-28T09:06:29Z</time>
      </trkpt>
      <trkpt lat="43.2227" lon="5.5733">
        <ele>192.1</ele>
        <time>2016-03-28T09:06:30Z</time>
      </trkpt>
      <trkpt lat="43.22273" lon="5.57312">
        <ele>190.1</ele>
        <time>2016-03-28T09:06:31Z</time>
      </trkpt>
      <trkpt lat="43.22274" lon="5.57294">
        <ele>188.7</ele>
        <time>2016-03-28T09:06:32Z</time>
      </trkpt>
      <trkpt lat="43.22276" lon="5.57275">
        <ele>185.5</ele>
        <time>2016-03-28T09:06:33Z</time>
      </trkpt>
      <trkpt lat="43.22274" lon="5.57256">
        <ele>184.1</ele>
        <time>2016-03-28T09:06:34Z</time>
      </trkpt>
      <trkpt lat="43.22273" lon="5.57238">
        <ele>182.4</ele>
        <time>2016-03-28T09:06:35Z</time>
      </trkpt>
      <trkpt lat="43.22272" lon="5.5722">
        <ele>180.4</ele>
        <time>2016-03-28T09:06:36Z</time>
      </trkpt>
      <trkpt lat="43.22271" lon="5.57203">
        <ele>178.6</ele>
        <time>2016-03-28T09:06:37Z</time>
      </trkpt>
      <trkpt lat="43.22269" lon="5.57183">
        <ele>176.3</ele>
        <time>2016-03-28T09:06:38Z</time>
      </trkpt>
      <trkpt lat="43.22265" lon="5.57166">
        <ele>175.2</ele>
        <time>2016-03-28T09:06:39Z</time>
      </trkpt>
      <trkpt lat="43.22261" lon="5.57151">
        <ele>174.3</ele>
        <time>2016-03-28T09:06:40Z</time>
      </trkpt>
      <trkpt lat="43.22255" lon="5.57135">
        <ele>173.6</ele>
        <time>2016-03-28T09:06:41Z</time>
      </trkpt>
      <trkpt lat="43.2225" lon="5.57117">
        <ele>172</ele>
        <time>2016-03-28T09:06:42Z</time>
      </trkpt>
      <trkpt lat="43.22247" lon="5.571">
        <ele>169.7</ele>
        <time>2016-03-28T09:06:43Z</time>
      </trkpt>
      <trkpt lat="43.22243" lon="5.57082">
        <ele>167.2</ele>
        <time>2016-03-28T09:06:44Z</time>
      </trkpt>
      <trkpt lat="43.22243" lon="5.57064">
        <ele>164</ele>
        <time>2016-03-28T09:06:45Z</time>
      </trkpt>
      <trkpt lat="43.22239" lon="5.57046">
        <ele>161.4</ele>
        <time>2016-03-28T09:06:46Z</time>
      </trkpt>
      <trkpt lat="43.22234" lon="5.5703">
        <ele>159.8</ele>
        <time>2016-03-28T09:06:47Z</time>
      </trkpt>
      <trkpt lat="43.2223" lon="5.57012">
        <ele>157.7</ele>
        <time>2016-03-28T09:06:48Z</time>
      </trkpt>
      <trkpt lat="43.22223" lon="5.56997">
        <ele>156.4</ele>
        <time>2016-03-28T09:06:49Z</time>
      </trkpt>
      <trkpt lat="43.22216" lon="5.56981">
        <ele>154.9</ele>
        <time>2016-03-28T09:06:50Z</time>
      </trkpt>
      <trkpt lat="43.22209" lon="5.56964">
        <ele>153</ele>
        <time>2016-03-28T09:06:51Z</time>
      </trkpt>
      <trkpt lat="43.22202" lon="5.56948">
        <ele>151.6</ele>
        <time>2016-03-28T09:06:52Z</time>
      </trkpt>
      <trkpt lat="43.22196" lon="5.56932">
        <ele>150.1</ele>
        <time>2016-03-28T09:06:53Z</time>
      </trkpt>
      <trkpt lat="43.22189" lon="5.56916">
        <ele>148.4</ele>
        <time>2016-03-28T09:06:54Z</time>
      </trkpt>
      <trkpt lat="43.22184" lon="5.569">
        <ele>146.6</ele>
        <time>2016-03-28T09:06:55Z</time>
      </trkpt>
      <trkpt lat="43.22177" lon="5.56884">
        <ele>144.8</ele>
        <time>2016-03-28T09:06:56Z</time>
      </trkpt>
      <trkpt lat="43.2217" lon="5.56871">
        <ele>143.4</ele>
        <time>2016-03-28T09:06:57Z</time>
      </trkpt>
      <trkpt lat="43.22162" lon="5.5686">
        <ele>142.8</ele>
        <time>2016-03-28T09:06:58Z</time>
      </trkpt>
      <trkpt lat="43.22153" lon="5.56849">
        <ele>142.3</ele>
        <time>2016-03-28T09:06:59Z</time>
      </trkpt>
      <trkpt lat="43.22138" lon="5.56842">
        <ele>142.9</ele>
        <time>2016-03-28T09:07:00Z</time>
      </trkpt>
      <trkpt lat="43.22125" lon="5.56834">
        <ele>143.2</ele>
        <time>2016-03-28T09:07:01Z</time>
      </trkpt>
      <trkpt lat="43.22114" lon="5.5683">
        <ele>142.5</ele>
        <time>2016-03-28T09:07:02Z</time>
      </trkpt>
      <trkpt lat="43.22105" lon="5.56817">
        <ele>140.2</ele>
        <time>2016-03-28T09:07:03Z</time>
      </trkpt>
      <trkpt lat="43.22096" lon="5.56805">
        <ele>138</ele>
        <time>2016-03-28T09:07:04Z</time>
      </trkpt>
      <trkpt lat="43.22088" lon="5.56792">
        <ele>135.6</ele>
        <time>2016-03-28T09:07:05Z</time>
      </trkpt>
      <trkpt lat="43.22081" lon="5.56783">
        <ele>134.1</ele>
        <time>2016-03-28T09:07:06Z</time>
      </trkpt>
      <trkpt lat="43.22074" lon="5.56776">
        <ele>132.8</ele>
        <time>2016-03-28T09:07:07Z</time>
      </trkpt>
      <trkpt lat="43.22068" lon="5.56772">
        <ele>132.1</ele>
        <time>2016-03-28T09:07:08Z</time>
      </trkpt>
      <trkpt lat="43.22064" lon="5.56768">
        <ele>131.5</ele>
        <time>2016-03-28T09:07:09Z</time>
      </trkpt>
      <trkpt lat="43.2206" lon="5.56767">
        <ele>131.2</ele>
        <time>2016-03-28T09:07:10Z</time>
      </trkpt>
      <trkpt lat="43.22058" lon="5.56765">
        <ele>131</ele>
        <time>2016-03-28T09:07:13Z</time>
      </trkpt>
      <trkpt lat="43.22062" lon="5.56765">
        <ele>131</ele>
        <time>2016-03-28T09:07:20Z</time>
      </trkpt>
      <trkpt lat="43.22059" lon="5.56764">
        <ele>130.8</ele>
        <time>2016-03-28T09:07:38Z</time>
      </trkpt>
      <trkpt lat="43.22057" lon="5.5676">
        <ele>130.2</ele>
        <time>2016-03-28T09:07:41Z</time>
      </trkpt>
      <trkpt lat="43.22054" lon="5.5676">
        <ele>130.1</ele>
        <time>2016-03-28T09:08:03Z</time>
      </trkpt>
      <trkpt lat="43.22054" lon="5.56764">
        <ele>130.8</ele>
        <time>2016-03-28T09:08:14Z</time>
      </trkpt>
      <trkpt lat="43.2325" lon="5.5169">
        <ele>234.9</ele>
        <time>2016-03-28T09:31:12Z</time>
      </trkpt>
      <trkpt lat="43.23249" lon="5.51685">
        <ele>235</ele>
        <time>2016-03-28T09:31:14Z</time>
      </trkpt>
      <trkpt lat="43.2325" lon="5.51679">
        <ele>235.2</ele>
        <time>2016-03-28T09:31:16Z</time>
      </trkpt>
      <trkpt lat="43.2325" lon="5.51671">
        <ele>235.4</ele>
        <time>2016-03-28T09:31:18Z</time>
      </trkpt>
      <trkpt lat="43.2325" lon="5.51667">
        <ele>235.5</ele>
        <time>2016-03-28T09:31:19Z</time>
      </trkpt>
      <trkpt lat="43.2325" lon="5.51662">
        <ele>235.6</ele>
        <time>2016-03-28T09:31:20Z</time>
      </trkpt>
      <trkpt lat="43.2325" lon="5.51657">
        <ele>235.7</ele>
        <time>2016-03-28T09:31:21Z</time>
      </trkpt>
      <trkpt lat="43.2325" lon="5.51653">
        <ele>235.8</ele>
        <time>2016-03-28T09:31:22Z</time>
      </trkpt>
      <trkpt lat="43.23251" lon="5.51649">
        <ele>235.9</ele>
        <time>2016-03-28T09:31:23Z</time>
      </trkpt>
      <trkpt lat="43.23251" lon="5.51641">
        <ele>236.1</ele>
        <time>2016-03-28T09:31:25Z</time>
      </trkpt>
      <trkpt lat="43.23252" lon="5.51636">
        <ele>236.3</ele>
        <time>2016-03-28T09:31:26Z</time>
      </trkpt>
      <trkpt lat="43.23252" lon="5.51631">
        <ele>236.4</ele>
        <time>2016-03-28T09:31:27Z</time>
      </trkpt>
      <trkpt lat="43.23253" lon="5.51625">
        <ele>236.5</ele>
        <time>2016-03-28T09:31:28Z</time>
      </trkpt>
      <trkpt lat="43.23253" lon="5.5162">
        <ele>236.7</ele>
        <time>2016-03-28T09:31:29Z</time>
      </trkpt>
      <trkpt lat="43.23254" lon="5.51615">
        <ele>236.9</ele>
        <time>2016-03-28T09:31:30Z</time>
      </trkpt>
      <trkpt lat="43.23255" lon="5.51611">
        <ele>237</ele>
        <time>2016-03-28T09:31:31Z</time>
      </trkpt>
      <trkpt lat="43.23255" lon="5.51606">
        <ele>237.1</ele>
        <time>2016-03-28T09:31:32Z</time>
      </trkpt>
      <trkpt lat="43.23255" lon="5.51601">
        <ele>237.3</ele>
        <time>2016-03-28T09:31:33Z</time>
      </trkpt>
      <trkpt lat="43.23256" lon="5.51596">
        <ele>237.4</ele>
        <time>2016-03-28T09:31:34Z</time>
      </trkpt>
      <trkpt lat="43.23257" lon="5.51591">
        <ele>237.6</ele>
        <time>2016-03-28T09:31:35Z</time>
      </trkpt>
      <trkpt lat="43.23258" lon="5.51585">
        <ele>237.7</ele>
        <time>2016-03-28T09:31:36Z</time>
      </trkpt>
      <trkpt lat="43.23259" lon="5.5158">
        <ele>237.8</ele>
        <time>2016-03-28T09:31:37Z</time>
      </trkpt>
      <trkpt lat="43.23259" lon="5.51575">
        <ele>237.9</ele>
        <time>2016-03-28T09:31:38Z</time>
      </trkpt>
      <trkpt lat="43.23259" lon="5.51569">
        <ele>238</ele>
        <time>2016-03-28T09:31:39Z</time>
      </trkpt>
      <trkpt lat="43.23259" lon="5.51565">
        <ele>238.1</ele>
        <time>2016-03-28T09:31:40Z</time>
      </trkpt>
      <trkpt lat="43.2326" lon="5.51559">
        <ele>238.2</ele>
        <time>2016-03-28T09:31:41Z</time>
      </trkpt>
      <trkpt lat="43.23261" lon="5.51553">
        <ele>238.3</ele>
        <time>2016-03-28T09:31:42Z</time>
      </trkpt>
      <trkpt lat="43.23262" lon="5.51545">
        <ele>238.4</ele>
        <time>2016-03-28T09:31:43Z</time>
      </trkpt>
      <trkpt lat="43.23263" lon="5.51539">
        <ele>238.5</ele>
        <time>2016-03-28T09:31:44Z</time>
      </trkpt>
      <trkpt lat="43.23264" lon="5.51532">
        <ele>238.6</ele>
        <time>2016-03-28T09:31:45Z</time>
      </trkpt>
      <trkpt lat="43.23265" lon="5.51526">
        <ele>238.7</ele>
        <time>2016-03-28T09:31:46Z</time>
      </trkpt>
      <trkpt lat="43.23266" lon="5.51519">
        <ele>238.8</ele>
        <time>2016-03-28T09:31:47Z</time>
      </trkpt>
      <trkpt lat="43.23268" lon="5.51513">
        <ele>238.8</ele>
        <time>2016-03-28T09:31:48Z</time>
      </trkpt>
      <trkpt lat="43.23271" lon="5.51505">
        <ele>238.7</ele>
        <time>2016-03-28T09:31:49Z</time>
      </trkpt>
      <trkpt lat="43.23273" lon="5.51499">
        <ele>238.7</ele>
        <time>2016-03-28T09:31:50Z</time>
      </trkpt>
      <trkpt lat="43.23274" lon="5.51493">
        <ele>238.6</ele>
        <time>2016-03-28T09:31:51Z</time>
      </trkpt>
      <trkpt lat="43.23276" lon="5.51486">
        <ele>238.6</ele>
        <time>2016-03-28T09:31:52Z</time>
      </trkpt>
      <trkpt lat="43.23285" lon="5.51476">
        <ele>237.7</ele>
        <time>2016-03-28T09:31:54Z</time>
      </trkpt>
      <trkpt lat="43.23287" lon="5.5147">
        <ele>237.5</ele>
        <time>2016-03-28T09:31:55Z</time>
      </trkpt>
      <trkpt lat="43.2329" lon="5.51465">
        <ele>237.2</ele>
        <time>2016-03-28T09:31:56Z</time>
      </trkpt>
      <trkpt lat="43.23292" lon="5.51458">
        <ele>237</ele>
        <time>2016-03-28T09:31:57Z</time>
      </trkpt>
      <trkpt lat="43.23295" lon="5.51451">
        <ele>237.1</ele>
        <time>2016-03-28T09:31:58Z</time>
      </trkpt>
      <trkpt lat="43.23298" lon="5.51445">
        <ele>237.1</ele>
        <time>2016-03-28T09:31:59Z</time>
      </trkpt>
      <trkpt lat="43.23301" lon="5.51438">
        <ele>237.1</ele>
        <time>2016-03-28T09:32:00Z</time>
      </trkpt>
      <trkpt lat="43.23307" lon="5.51432">
        <ele>237.1</ele>
        <time>2016-03-28T09:32:01Z</time>
      </trkpt>
      <trkpt lat="43.23311" lon="5.51426">
        <ele>237</ele>
        <time>2016-03-28T09:32:02Z</time>
      </trkpt>
      <trkpt lat="43.23315" lon="5.5142">
        <ele>237</ele>
        <time>2016-03-28T09:32:03Z</time>
      </trkpt>
      <trkpt lat="43.23319" lon="5.51416">
        <ele>236.8</ele>
        <time>2016-03-28T09:32:04Z</time>
      </trkpt>
      <trkpt lat="43.23323" lon="5.51409">
        <ele>236.7</ele>
        <time>2016-03-28T09:32:05Z</time>
      </trkpt>
      <trkpt lat="43.23328" lon="5.51403">
        <ele>236.5</ele>
        <time>2016-03-28T09:32:06Z</time>
      </trkpt>
      <trkpt lat="43.23334" lon="5.51396">
        <ele>236.2</ele>
        <time>2016-03-28T09:32:07Z</time>
      </trkpt>
      <trkpt lat="43.2334" lon="5.51387">
        <ele>235.9</ele>
        <time>2016-03-28T09:32:08Z</time>
      </trkpt>
      <trkpt lat="43.23345" lon="5.5138">
        <ele>235.5</ele>
        <time>2016-03-28T09:32:09Z</time>
      </trkpt>
      <trkpt lat="43.2335" lon="5.51375">
        <ele>235.2</ele>
        <time>2016-03-28T09:32:10Z</time>
      </trkpt>
      <trkpt lat="43.23356" lon="5.51367">
        <ele>234.9</ele>
        <time>2016-03-28T09:32:11Z</time>
      </trkpt>
      <trkpt lat="43.2336" lon="5.51357">
        <ele>234.7</ele>
        <time>2016-03-28T09:32:12Z</time>
      </trkpt>
      <trkpt lat="43.23368" lon="5.51351">
        <ele>234.2</ele>
        <time>2016-03-28T09:32:13Z</time>
      </trkpt>
      <trkpt lat="43.23373" lon="5.51346">
        <ele>233.8</ele>
        <time>2016-03-28T09:32:14Z</time>
      </trkpt>
      <trkpt lat="43.23377" lon="5.51338">
        <ele>233.5</ele>
        <time>2016-03-28T09:32:15Z</time>
      </trkpt>
      <trkpt lat="43.23383" lon="5.51331">
        <ele>233.2</ele>
        <time>2016-03-28T09:32:16Z</time>
      </trkpt>
      <trkpt lat="43.2339" lon="5.51324">
        <ele>232.9</ele>
        <time>2016-03-28T09:32:17Z</time>
      </trkpt>
      <trkpt lat="43.23396" lon="5.51316">
        <ele>232.6</ele>
        <time>2016-03-28T09:32:18Z</time>
      </trkpt>
      <trkpt lat="43.23403" lon="5.51309">
        <ele>232.3</ele>
        <time>2016-03-28T09:32:19Z</time>
      </trkpt>
      <trkpt lat="43.23412" lon="5.51301">
        <ele>231.8</ele>
        <time>2016-03-28T09:32:20Z</time>
      </trkpt>
      <trkpt lat="43.23418" lon="5.51294">
        <ele>231.5</ele>
        <time>2016-03-28T09:32:21Z</time>
      </trkpt>
      <trkpt lat="43.23425" lon="5.51286">
        <ele>231.1</ele>
        <time>2016-03-28T09:32:22Z</time>
      </trkpt>
      <trkpt lat="43.23431" lon="5.51279">
        <ele>230.9</ele>
        <time>2016-03-28T09:32:23Z</time>
      </trkpt>
      <trkpt lat="43.23439" lon="5.51271">
        <ele>230.5</ele>
        <time>2016-03-28T09:32:24Z</time>
      </trkpt>
      <trkpt lat="43.23444" lon="5.51262">
        <ele>230.2</ele>
        <time>2016-03-28T09:32:25Z</time>
      </trkpt>
      <trkpt lat="43.23452" lon="5.51254">
        <ele>229.8</ele>
        <time>2016-03-28T09:32:26Z</time>
      </trkpt>
      <trkpt lat="43.23459" lon="5.51246">
        <ele>229.5</ele>
        <time>2016-03-28T09:32:27Z</time>
      </trkpt>
      <trkpt lat="43.23468" lon="5.51239">
        <ele>229.3</ele>
        <time>2016-03-28T09:32:28Z</time>
      </trkpt>
      <trkpt lat="43.23473" lon="5.51231">
        <ele>229.2</ele>
        <time>2016-03-28T09:32:29Z</time>
      </trkpt>
      <trkpt lat="43.23479" lon="5.51222">
        <ele>229.1</ele>
        <time>2016-03-28T09:32:30Z</time>
      </trkpt>
      <trkpt lat="43.23484" lon="5.51212">
        <ele>229</ele>
        <time>2016-03-28T09:32:31Z</time>
      </trkpt>
      <trkpt lat="43.2349" lon="5.51204">
        <ele>228.9</ele>
        <time>2016-03-28T09:32:32Z</time>
      </trkpt>
      <trkpt lat="43.23495" lon="5.51195">
        <ele>228.6</ele>
        <time>2016-03-28T09:32:33Z</time>
      </trkpt>
      <trkpt lat="43.235" lon="5.51185">
        <ele>228.3</ele>
        <time>2016-03-28T09:32:34Z</time>
      </trkpt>
      <trkpt lat="43.23505" lon="5.51176">
        <ele>228</ele>
        <time>2016-03-28T09:32:35Z</time>
      </trkpt>
      <trkpt lat="43.2351" lon="5.51167">
        <ele>227.7</ele>
        <time>2016-03-28T09:32:36Z</time>
      </trkpt>
      <trkpt lat="43.23516" lon="5.51158">
        <ele>227.4</ele>
        <time>2016-03-28T09:32:37Z</time>
      </trkpt>
      <trkpt lat="43.23521" lon="5.51148">
        <ele>227</ele>
        <time>2016-03-28T09:32:38Z</time>
      </trkpt>
      <trkpt lat="43.23526" lon="5.51139">
        <ele>226.6</ele>
        <time>2016-03-28T09:32:39Z</time>
      </trkpt>
      <trkpt lat="43.2353" lon="5.51127">
        <ele>226.2</ele>
        <time>2016-03-28T09:32:40Z</time>
      </trkpt>
      <trkpt lat="43.23533" lon="5.51117">
        <ele>225.9</ele>
        <time>2016-03-28T09:32:41Z</time>
      </trkpt>
      <trkpt lat="43.23538" lon="5.51105">
        <ele>225.6</ele>
        <time>2016-03-28T09:32:42Z</time>
      </trkpt>
      <trkpt lat="43.23542" lon="5.51094">
        <ele>225.3</ele>
        <time>2016-03-28T09:32:43Z</time>
      </trkpt>
      <trkpt lat="43.23546" lon="5.51084">
        <ele>225.1</ele>
        <time>2016-03-28T09:32:44Z</time>
      </trkpt>
      <trkpt lat="43.23549" lon="5.51074">
        <ele>225</ele>
        <time>2016-03-28T09:32:45Z</time>
      </trkpt>
      <trkpt lat="43.23552" lon="5.51062">
        <ele>224.9</ele>
        <time>2016-03-28T09:32:46Z</time>
      </trkpt>
      <trkpt lat="43.23556" lon="5.51053">
        <ele>224.7</ele>
        <time>2016-03-28T09:32:47Z</time>
      </trkpt>
      <trkpt lat="43.23558" lon="5.51042">
        <ele>224.6</ele>
        <time>2016-03-28T09:32:48Z</time>
      </trkpt>
      <trkpt lat="43.23562" lon="5.51032">
        <ele>224.7</ele>
        <time>2016-03-28T09:32:49Z</time>
      </trkpt>
      <trkpt lat="43.23565" lon="5.51021">
        <ele>224.7</ele>
        <time>2016-03-28T09:32:50Z</time>
      </trkpt>
      <trkpt lat="43.23569" lon="5.51011">
        <ele>224.8</ele>
        <time>2016-03-28T09:32:51Z</time>
      </trkpt>
      <trkpt lat="43.23572" lon="5.51">
        <ele>224.9</ele>
        <time>2016-03-28T09:32:52Z</time>
      </trkpt>
      <trkpt lat="43.23575" lon="5.5099">
        <ele>225.1</ele>
        <time>2016-03-28T09:32:53Z</time>
      </trkpt>
      <trkpt lat="43.23577" lon="5.50979">
        <ele>225.2</ele>
        <time>2016-03-28T09:32:54Z</time>
      </trkpt>
      <trkpt lat="43.2358" lon="5.50969">
        <ele>225.3</ele>
        <time>2016-03-28T09:32:55Z</time>
      </trkpt>
      <trkpt lat="43.23582" lon="5.50958">
        <ele>225.4</ele>
        <time>2016-03-28T09:32:56Z</time>
      </trkpt>
      <trkpt lat="43.23584" lon="5.50946">
        <ele>225.5</ele>
        <time>2016-03-28T09:32:57Z</time>
      </trkpt>
      <trkpt lat="43.23589" lon="5.50939">
        <ele>225.7</ele>
        <time>2016-03-28T09:32:58Z</time>
      </trkpt>
      <trkpt lat="43.23592" lon="5.50929">
        <ele>225.7</ele>
        <time>2016-03-28T09:32:59Z</time>
      </trkpt>
      <trkpt lat="43.23595" lon="5.50918">
        <ele>225.7</ele>
        <time>2016-03-28T09:33:00Z</time>
      </trkpt>
      <trkpt lat="43.23597" lon="5.5091">
        <ele>225.7</ele>
        <time>2016-03-28T09:33:01Z</time>
      </trkpt>
      <trkpt lat="43.236" lon="5.50901">
        <ele>225.8</ele>
        <time>2016-03-28T09:33:02Z</time>
      </trkpt>
      <trkpt lat="43.23602" lon="5.50891">
        <ele>225.7</ele>
        <time>2016-03-28T09:33:03Z</time>
      </trkpt>
      <trkpt lat="43.23604" lon="5.50881">
        <ele>225.6</ele>
        <time>2016-03-28T09:33:04Z</time>
      </trkpt>
      <trkpt lat="43.23606" lon="5.50871">
        <ele>225.6</ele>
        <time>2016-03-28T09:33:05Z</time>
      </trkpt>
      <trkpt lat="43.2361" lon="5.50861">
        <ele>225.9</ele>
        <time>2016-03-28T09:33:06Z</time>
      </trkpt>
      <trkpt lat="43.23612" lon="5.50851">
        <ele>226.2</ele>
        <time>2016-03-28T09:33:07Z</time>
      </trkpt>
      <trkpt lat="43.23615" lon="5.50844">
        <ele>226.4</ele>
        <time>2016-03-28T09:33:08Z</time>
      </trkpt>
      <trkpt lat="43.23618" lon="5.50834">
        <ele>226.7</ele>
        <time>2016-03-28T09:33:09Z</time>
      </trkpt>
      <trkpt lat="43.2362" lon="5.50825">
        <ele>227</ele>
        <time>2016-03-28T09:33:10Z</time>
      </trkpt>
      <trkpt lat="43.23622" lon="5.50816">
        <ele>227.3</ele>
        <time>2016-03-28T09:33:11Z</time>
      </trkpt>
      <trkpt lat="43.23624" lon="5.50806">
        <ele>227.6</ele>
        <time>2016-03-28T09:33:12Z</time>
      </trkpt>
      <trkpt lat="43.23626" lon="5.50796">
        <ele>227.9</ele>
        <time>2016-03-28T09:33:13Z</time>
      </trkpt>
      <trkpt lat="43.23629" lon="5.50787">
        <ele>228.1</ele>
        <time>2016-03-28T09:33:14Z</time>
      </trkpt>
      <trkpt lat="43.23631" lon="5.50777">
        <ele>228.1</ele>
        <time>2016-03-28T09:33:15Z</time>
      </trkpt>
      <trkpt lat="43.23633" lon="5.50768">
        <ele>228.2</ele>
        <time>2016-03-28T09:33:16Z</time>
      </trkpt>
      <trkpt lat="43.23635" lon="5.50759">
        <ele>228.2</ele>
        <time>2016-03-28T09:33:17Z</time>
      </trkpt>
      <trkpt lat="43.23636" lon="5.50749">
        <ele>228.3</ele>
        <time>2016-03-28T09:33:18Z</time>
      </trkpt>
      <trkpt lat="43.23639" lon="5.50739">
        <ele>228.3</ele>
        <time>2016-03-28T09:33:19Z</time>
      </trkpt>
      <trkpt lat="43.23641" lon="5.50729">
        <ele>228.4</ele>
        <time>2016-03-28T09:33:20Z</time>
      </trkpt>
      <trkpt lat="43.23642" lon="5.5072">
        <ele>228.4</ele>
        <time>2016-03-28T09:33:21Z</time>
      </trkpt>
      <trkpt lat="43.23644" lon="5.50711">
        <ele>228.5</ele>
        <time>2016-03-28T09:33:22Z</time>
      </trkpt>
      <trkpt lat="43.23646" lon="5.50701">
        <ele>228.3</ele>
        <time>2016-03-28T09:33:23Z</time>
      </trkpt>
      <trkpt lat="43.23648" lon="5.5069">
        <ele>228.1</ele>
        <time>2016-03-28T09:33:24Z</time>
      </trkpt>
      <trkpt lat="43.2365" lon="5.50681">
        <ele>227.9</ele>
        <time>2016-03-28T09:33:25Z</time>
      </trkpt>
      <trkpt lat="43.23653" lon="5.50671">
        <ele>227.8</ele>
        <time>2016-03-28T09:33:26Z</time>
      </trkpt>
      <trkpt lat="43.23655" lon="5.50661">
        <ele>227.6</ele>
        <time>2016-03-28T09:33:27Z</time>
      </trkpt>
      <trkpt lat="43.23658" lon="5.50652">
        <ele>227.4</ele>
        <time>2016-03-28T09:33:28Z</time>
      </trkpt>
      <trkpt lat="43.2366" lon="5.50642">
        <ele>227.3</ele>
        <time>2016-03-28T09:33:29Z</time>
      </trkpt>
      <trkpt lat="43.23663" lon="5.50633">
        <ele>227.1</ele>
        <time>2016-03-28T09:33:30Z</time>
      </trkpt>
      <trkpt lat="43.23665" lon="5.50623">
        <ele>226.9</ele>
        <time>2016-03-28T09:33:31Z</time>
      </trkpt>
      <trkpt lat="43.23668" lon="5.50614">
        <ele>226.9</ele>
        <time>2016-03-28T09:33:32Z</time>
      </trkpt>
      <trkpt lat="43.2367" lon="5.50604">
        <ele>226.8</ele>
        <time>2016-03-28T09:33:33Z</time>
      </trkpt>
      <trkpt lat="43.23672" lon="5.50594">
        <ele>226.8</ele>
        <time>2016-03-28T09:33:34Z</time>
      </trkpt>
      <trkpt lat="43.23675" lon="5.50584">
        <ele>226.7</ele>
        <time>2016-03-28T09:33:35Z</time>
      </trkpt>
      <trkpt lat="43.23677" lon="5.50574">
        <ele>226.6</ele>
        <time>2016-03-28T09:33:36Z</time>
      </trkpt>
      <trkpt lat="43.2368" lon="5.50563">
        <ele>226.6</ele>
        <time>2016-03-28T09:33:37Z</time>
      </trkpt>
      <trkpt lat="43.23682" lon="5.50553">
        <ele>226.5</ele>
        <time>2016-03-28T09:33:38Z</time>
      </trkpt>
      <trkpt lat="43.23684" lon="5.50544">
        <ele>226.4</ele>
        <time>2016-03-28T09:33:39Z</time>
      </trkpt>
      <trkpt lat="43.23687" lon="5.50535">
        <ele>226.6</ele>
        <time>2016-03-28T09:33:40Z</time>
      </trkpt>
      <trkpt lat="43.23689" lon="5.50525">
        <ele>226.9</ele>
        <time>2016-03-28T09:33:41Z</time>
      </trkpt>
      <trkpt lat="43.23692" lon="5.50515">
        <ele>227.1</ele>
        <time>2016-03-28T09:33:42Z</time>
      </trkpt>
      <trkpt lat="43.23695" lon="5.50505">
        <ele>227.4</ele>
        <time>2016-03-28T09:33:43Z</time>
      </trkpt>
      <trkpt lat="43.23698" lon="5.50496">
        <ele>227.7</ele>
        <time>2016-03-28T09:33:44Z</time>
      </trkpt>
      <trkpt lat="43.237" lon="5.50486">
        <ele>228</ele>
        <time>2016-03-28T09:33:45Z</time>
      </trkpt>
      <trkpt lat="43.23703" lon="5.50477">
        <ele>228.3</ele>
        <time>2016-03-28T09:33:46Z</time>
      </trkpt>
      <trkpt lat="43.23705" lon="5.50467">
        <ele>228.6</ele>
        <time>2016-03-28T09:33:47Z</time>
      </trkpt>
      <trkpt lat="43.23707" lon="5.50458">
        <ele>229</ele>
        <time>2016-03-28T09:33:48Z</time>
      </trkpt>
      <trkpt lat="43.23709" lon="5.50449">
        <ele>229.3</ele>
        <time>2016-03-28T09:33:49Z</time>
      </trkpt>
      <trkpt lat="43.23711" lon="5.5044">
        <ele>229.6</ele>
        <time>2016-03-28T09:33:50Z</time>
      </trkpt>
      <trkpt lat="43.23713" lon="5.50431">
        <ele>229.9</ele>
        <time>2016-03-28T09:33:51Z</time>
      </trkpt>
      <trkpt lat="43.23715" lon="5.50422">
        <ele>230.3</ele>
        <time>2016-03-28T09:33:52Z</time>
      </trkpt>
      <trkpt lat="43.23717" lon="5.50413">
        <ele>230.6</ele>
        <time>2016-03-28T09:33:53Z</time>
      </trkpt>
      <trkpt lat="43.23718" lon="5.50405">
        <ele>230.9</ele>
        <time>2016-03-28T09:33:54Z</time>
      </trkpt>
      <trkpt lat="43.23719" lon="5.50397">
        <ele>231.2</ele>
        <time>2016-03-28T09:33:55Z</time>
      </trkpt>
      <trkpt lat="43.23721" lon="5.50388">
        <ele>231.5</ele>
        <time>2016-03-28T09:33:56Z</time>
      </trkpt>
      <trkpt lat="43.23718" lon="5.50382">
        <ele>231.5</ele>
        <time>2016-03-28T09:33:57Z</time>
      </trkpt>
      <trkpt lat="43.23719" lon="5.50374">
        <ele>231.8</ele>
        <time>2016-03-28T09:33:58Z</time>
      </trkpt>
      <trkpt lat="43.2372" lon="5.50366">
        <ele>231.9</ele>
        <time>2016-03-28T09:33:59Z</time>
      </trkpt>
      <trkpt lat="43.23721" lon="5.50359">
        <ele>232</ele>
        <time>2016-03-28T09:34:00Z</time>
      </trkpt>
      <trkpt lat="43.23721" lon="5.50351">
        <ele>232.1</ele>
        <time>2016-03-28T09:34:01Z</time>
      </trkpt>
      <trkpt lat="43.23722" lon="5.50343">
        <ele>232.3</ele>
        <time>2016-03-28T09:34:02Z</time>
      </trkpt>
      <trkpt lat="43.23723" lon="5.50335">
        <ele>232.3</ele>
        <time>2016-03-28T09:34:03Z</time>
      </trkpt>
      <trkpt lat="43.23723" lon="5.50328">
        <ele>232.4</ele>
        <time>2016-03-28T09:34:04Z</time>
      </trkpt>
      <trkpt lat="43.23724" lon="5.5032">
        <ele>232.5</ele>
        <time>2016-03-28T09:34:05Z</time>
      </trkpt>
      <trkpt lat="43.23724" lon="5.50312">
        <ele>232.6</ele>
        <time>2016-03-28T09:34:06Z</time>
      </trkpt>
      <trkpt lat="43.23724" lon="5.50305">
        <ele>232.7</ele>
        <time>2016-03-28T09:34:07Z</time>
      </trkpt>
      <trkpt lat="43.23724" lon="5.50298">
        <ele>232.7</ele>
        <time>2016-03-28T09:34:08Z</time>
      </trkpt>
      <trkpt lat="43.23725" lon="5.5029">
        <ele>232.8</ele>
        <time>2016-03-28T09:34:09Z</time>
      </trkpt>
      <trkpt lat="43.23724" lon="5.50282">
        <ele>232.7</ele>
        <time>2016-03-28T09:34:10Z</time>
      </trkpt>
      <trkpt lat="43.23724" lon="5.50274">
        <ele>232.6</ele>
        <time>2016-03-28T09:34:11Z</time>
      </trkpt>
      <trkpt lat="43.23724" lon="5.50266">
        <ele>232.5</ele>
        <time>2016-03-28T09:34:12Z</time>
      </trkpt>
      <trkpt lat="43.23723" lon="5.50257">
        <ele>232.4</ele>
        <time>2016-03-28T09:34:13Z</time>
      </trkpt>
      <trkpt lat="43.23724" lon="5.50249">
        <ele>232.3</ele>
        <time>2016-03-28T09:34:14Z</time>
      </trkpt>
      <trkpt lat="43.23724" lon="5.50241">
        <ele>232.3</ele>
        <time>2016-03-28T09:34:15Z</time>
      </trkpt>
      <trkpt lat="43.23723" lon="5.50233">
        <ele>232.1</ele>
        <time>2016-03-28T09:34:16Z</time>
      </trkpt>
      <trkpt lat="43.23723" lon="5.50225">
        <ele>232.1</ele>
        <time>2016-03-28T09:34:17Z</time>
      </trkpt>
      <trkpt lat="43.23724" lon="5.50216">
        <ele>232</ele>
        <time>2016-03-28T09:34:18Z</time>
      </trkpt>
      <trkpt lat="43.23724" lon="5.50209">
        <ele>232</ele>
        <time>2016-03-28T09:34:19Z</time>
      </trkpt>
      <trkpt lat="43.23725" lon="5.502">
        <ele>232.1</ele>
        <time>2016-03-28T09:34:20Z</time>
      </trkpt>
      <trkpt lat="43.23725" lon="5.50191">
        <ele>232.2</ele>
        <time>2016-03-28T09:34:21Z</time>
      </trkpt>
      <trkpt lat="43.23724" lon="5.50184">
        <ele>232.3</ele>
        <time>2016-03-28T09:34:22Z</time>
      </trkpt>
      <trkpt lat="43.23724" lon="5.50176">
        <ele>232.4</ele>
        <time>2016-03-28T09:34:23Z</time>
      </trkpt>
      <trkpt lat="43.23724" lon="5.50168">
        <ele>232.5</ele>
        <time>2016-03-28T09:34:24Z</time>
      </trkpt>
      <trkpt lat="43.23724" lon="5.5016">
        <ele>232.6</ele>
        <time>2016-03-28T09:34:25Z</time>
      </trkpt>
      <trkpt lat="43.23725" lon="5.50152">
        <ele>232.8</ele>
        <time>2016-03-28T09:34:26Z</time>
      </trkpt>
      <trkpt lat="43.23725" lon="5.5014">
        <ele>233</ele>
        <time>2016-03-28T09:34:27Z</time>
      </trkpt>
      <trkpt lat="43.23722" lon="5.50133">
        <ele>232.9</ele>
        <time>2016-03-28T09:34:28Z</time>
      </trkpt>
      <trkpt lat="43.23722" lon="5.50127">
        <ele>232.9</ele>
        <time>2016-03-28T09:34:29Z</time>
      </trkpt>
      <trkpt lat="43.23722" lon="5.50119">
        <ele>233.1</ele>
        <time>2016-03-28T09:34:30Z</time>
      </trkpt>
      <trkpt lat="43.23721" lon="5.50111">
        <ele>233.2</ele>
        <time>2016-03-28T09:34:31Z</time>
      </trkpt>
      <trkpt lat="43.23722" lon="5.50104">
        <ele>233.4</ele>
        <time>2016-03-28T09:34:32Z</time>
      </trkpt>
      <trkpt lat="43.23723" lon="5.50095">
        <ele>233.7</ele>
        <time>2016-03-28T09:34:33Z</time>
      </trkpt>
      <trkpt lat="43.23723" lon="5.50087">
        <ele>233.9</ele>
        <time>2016-03-28T09:34:34Z</time>
      </trkpt>
      <trkpt lat="43.23724" lon="5.50078">
        <ele>234.1</ele>
        <time>2016-03-28T09:34:35Z</time>
      </trkpt>
      <trkpt lat="43.23724" lon="5.50069">
        <ele>234.4</ele>
        <time>2016-03-28T09:34:36Z</time>
      </trkpt>
      <trkpt lat="43.23725" lon="5.5006">
        <ele>234.6</ele>
        <time>2016-03-28T09:34:37Z</time>
      </trkpt>
      <trkpt lat="43.23725" lon="5.50049">
        <ele>234.8</ele>
        <time>2016-03-28T09:34:38Z</time>
      </trkpt>
      <trkpt lat="43.23725" lon="5.50042">
        <ele>235</ele>
        <time>2016-03-28T09:34:39Z</time>
      </trkpt>
      <trkpt lat="43.23726" lon="5.50033">
        <ele>234.9</ele>
        <time>2016-03-28T09:34:40Z</time>
      </trkpt>
      <trkpt lat="43.23727" lon="5.50025">
        <ele>234.8</ele>
        <time>2016-03-28T09:34:41Z</time>
      </trkpt>
      <trkpt lat="43.23726" lon="5.50016">
        <ele>234.6</ele>
        <time>2016-03-28T09:34:42Z</time>
      </trkpt>
      <trkpt lat="43.23726" lon="5.50008">
        <ele>234.4</ele>
        <time>2016-03-28T09:34:43Z</time>
      </trkpt>
      <trkpt lat="43.23725" lon="5.50001">
        <ele>234.2</ele>
        <time>2016-03-28T09:34:44Z</time>
      </trkpt>
      <trkpt lat="43.23726" lon="5.49994">
        <ele>234.1</ele>
        <time>2016-03-28T09:34:45Z</time>
      </trkpt>
      <trkpt lat="43.23726" lon="5.49986">
        <ele>234</ele>
        <time>2016-03-28T09:34:46Z</time>
      </trkpt>
      <trkpt lat="43.23727" lon="5.4998">
        <ele>234</ele>
        <time>2016-03-28T09:34:47Z</time>
      </trkpt>
      <trkpt lat="43.23726" lon="5.49973">
        <ele>233.8</ele>
        <time>2016-03-28T09:34:48Z</time>
      </trkpt>
      <trkpt lat="43.23727" lon="5.49965">
        <ele>233.7</ele>
        <time>2016-03-28T09:34:49Z</time>
      </trkpt>
      <trkpt lat="43.23727" lon="5.49957">
        <ele>233.5</ele>
        <time>2016-03-28T09:34:50Z</time>
      </trkpt>
      <trkpt lat="43.23728" lon="5.49949">
        <ele>233.3</ele>
        <time>2016-03-28T09:34:51Z</time>
      </trkpt>
      <trkpt lat="43.23726" lon="5.49942">
        <ele>232.9</ele>
        <time>2016-03-28T09:34:52Z</time>
      </trkpt>
      <trkpt lat="43.23726" lon="5.49934">
        <ele>232.6</ele>
        <time>2016-03-28T09:34:53Z</time>
      </trkpt>
      <trkpt lat="43.23727" lon="5.49925">
        <ele>232.3</ele>
        <time>2016-03-28T09:34:54Z</time>
      </trkpt>
      <trkpt lat="43.23723" lon="5.49917">
        <ele>231.6</ele>
        <time>2016-03-28T09:34:55Z</time>
      </trkpt>
      <trkpt lat="43.23724" lon="5.4991">
        <ele>231.4</ele>
        <time>2016-03-28T09:34:56Z</time>
      </trkpt>
      <trkpt lat="43.23725" lon="5.499">
        <ele>231.2</ele>
        <time>2016-03-28T09:34:57Z</time>
      </trkpt>
      <trkpt lat="43.23726" lon="5.49891">
        <ele>231</ele>
        <time>2016-03-28T09:34:58Z</time>
      </trkpt>
      <trkpt lat="43.23727" lon="5.49881">
        <ele>230.7</ele>
        <time>2016-03-28T09:34:59Z</time>
      </trkpt>
      <trkpt lat="43.23728" lon="5.49873">
        <ele>230.5</ele>
        <time>2016-03-28T09:35:00Z</time>
      </trkpt>
      <trkpt lat="43.23729" lon="5.49864">
        <ele>230.4</ele>
        <time>2016-03-28T09:35:01Z</time>
      </trkpt>
      <trkpt lat="43.2373" lon="5.49855">
        <ele>230.3</ele>
        <time>2016-03-28T09:35:02Z</time>
      </trkpt>
      <trkpt lat="43.23731" lon="5.49846">
        <ele>230.4</ele>
        <time>2016-03-28T09:35:03Z</time>
      </trkpt>
      <trkpt lat="43.23732" lon="5.49838">
        <ele>230.4</ele>
        <time>2016-03-28T09:35:04Z</time>
      </trkpt>
      <trkpt lat="43.23734" lon="5.49829">
        <ele>230.5</ele>
        <time>2016-03-28T09:35:05Z</time>
      </trkpt>
      <trkpt lat="43.23735" lon="5.49821">
        <ele>230.5</ele>
        <time>2016-03-28T09:35:06Z</time>
      </trkpt>
      <trkpt lat="43.23736" lon="5.49812">
        <ele>230.6</ele>
        <time>2016-03-28T09:35:07Z</time>
      </trkpt>
      <trkpt lat="43.23736" lon="5.49804">
        <ele>230.6</ele>
        <time>2016-03-28T09:35:08Z</time>
      </trkpt>
      <trkpt lat="43.23737" lon="5.49796">
        <ele>230.7</ele>
        <time>2016-03-28T09:35:09Z</time>
      </trkpt>
      <trkpt lat="43.23739" lon="5.49787">
        <ele>230.8</ele>
        <time>2016-03-28T09:35:10Z</time>
      </trkpt>
      <trkpt lat="43.2374" lon="5.49779">
        <ele>230.6</ele>
        <time>2016-03-28T09:35:11Z</time>
      </trkpt>
      <trkpt lat="43.2374" lon="5.49772">
        <ele>230.5</ele>
        <time>2016-03-28T09:35:12Z</time>
      </trkpt>
      <trkpt lat="43.23741" lon="5.49764">
        <ele>230.4</ele>
        <time>2016-03-28T09:35:13Z</time>
      </trkpt>
      <trkpt lat="43.23742" lon="5.49756">
        <ele>230.4</ele>
        <time>2016-03-28T09:35:14Z</time>
      </trkpt>
      <trkpt lat="43.23743" lon="5.49748">
        <ele>230.2</ele>
        <time>2016-03-28T09:35:15Z</time>
      </trkpt>
      <trkpt lat="43.23743" lon="5.49741">
        <ele>230</ele>
        <time>2016-03-28T09:35:16Z</time>
      </trkpt>
      <trkpt lat="43.23744" lon="5.49733">
        <ele>230</ele>
        <time>2016-03-28T09:35:17Z</time>
      </trkpt>
      <trkpt lat="43.23745" lon="5.49726">
        <ele>230</ele>
        <time>2016-03-28T09:35:18Z</time>
      </trkpt>
      <trkpt lat="43.23746" lon="5.49718">
        <ele>229.8</ele>
        <time>2016-03-28T09:35:19Z</time>
      </trkpt>
      <trkpt lat="43.23747" lon="5.49711">
        <ele>229.8</ele>
        <time>2016-03-28T09:35:20Z</time>
      </trkpt>
      <trkpt lat="43.23748" lon="5.49705">
        <ele>229.8</ele>
        <time>2016-03-28T09:35:21Z</time>
      </trkpt>
      <trkpt lat="43.23748" lon="5.49697">
        <ele>229.5</ele>
        <time>2016-03-28T09:35:22Z</time>
      </trkpt>
      <trkpt lat="43.23749" lon="5.49691">
        <ele>229.3</ele>
        <time>2016-03-28T09:35:23Z</time>
      </trkpt>
      <trkpt lat="43.23749" lon="5.49684">
        <ele>229.1</ele>
        <time>2016-03-28T09:35:24Z</time>
      </trkpt>
      <trkpt lat="43.2375" lon="5.49677">
        <ele>229.1</ele>
        <time>2016-03-28T09:35:25Z</time>
      </trkpt>
      <trkpt lat="43.23751" lon="5.4967">
        <ele>229</ele>
        <time>2016-03-28T09:35:26Z</time>
      </trkpt>
      <trkpt lat="43.23752" lon="5.49662">
        <ele>228.8</ele>
        <time>2016-03-28T09:35:27Z</time>
      </trkpt>
      <trkpt lat="43.23753" lon="5.49655">
        <ele>228.7</ele>
        <time>2016-03-28T09:35:28Z</time>
      </trkpt>
      <trkpt lat="43.23755" lon="5.49649">
        <ele>228.8</ele>
        <time>2016-03-28T09:35:29Z</time>
      </trkpt>
      <trkpt lat="43.23756" lon="5.4964">
        <ele>228.7</ele>
        <time>2016-03-28T09:35:30Z</time>
      </trkpt>
      <trkpt lat="43.23756" lon="5.49634">
        <ele>228.5</ele>
        <time>2016-03-28T09:35:31Z</time>
      </trkpt>
      <trkpt lat="43.23756" lon="5.49626">
        <ele>228</ele>
        <time>2016-03-28T09:35:32Z</time>
      </trkpt>
      <trkpt lat="43.23756" lon="5.49618">
        <ele>227.9</ele>
        <time>2016-03-28T09:35:33Z</time>
      </trkpt>
      <trkpt lat="43.23757" lon="5.4961">
        <ele>227.8</ele>
        <time>2016-03-28T09:35:34Z</time>
      </trkpt>
      <trkpt lat="43.23758" lon="5.49602">
        <ele>227.9</ele>
        <time>2016-03-28T09:35:35Z</time>
      </trkpt>
      <trkpt lat="43.23758" lon="5.49595">
        <ele>228</ele>
        <time>2016-03-28T09:35:36Z</time>
      </trkpt>
      <trkpt lat="43.23759" lon="5.49588">
        <ele>228</ele>
        <time>2016-03-28T09:35:37Z</time>
      </trkpt>
      <trkpt lat="43.23761" lon="5.49579">
        <ele>228.2</ele>
        <time>2016-03-28T09:35:38Z</time>
      </trkpt>
      <trkpt lat="43.23762" lon="5.49572">
        <ele>228.5</ele>
        <time>2016-03-28T09:35:39Z</time>
      </trkpt>
      <trkpt lat="43.23763" lon="5.49565">
        <ele>228.5</ele>
        <time>2016-03-28T09:35:40Z</time>
      </trkpt>
      <trkpt lat="43.23763" lon="5.49558">
        <ele>228.5</ele>
        <time>2016-03-28T09:35:41Z</time>
      </trkpt>
      <trkpt lat="43.23764" lon="5.4955">
        <ele>228.6</ele>
        <time>2016-03-28T09:35:42Z</time>
      </trkpt>
      <trkpt lat="43.23765" lon="5.49542">
        <ele>228.8</ele>
        <time>2016-03-28T09:35:43Z</time>
      </trkpt>
      <trkpt lat="43.23766" lon="5.49535">
        <ele>229.1</ele>
        <time>2016-03-28T09:35:44Z</time>
      </trkpt>
      <trkpt lat="43.23767" lon="5.49527">
        <ele>229.5</ele>
        <time>2016-03-28T09:35:45Z</time>
      </trkpt>
      <trkpt lat="43.23768" lon="5.49522">
        <ele>230</ele>
        <time>2016-03-28T09:35:46Z</time>
      </trkpt>
      <trkpt lat="43.23767" lon="5.49513">
        <ele>230.2</ele>
        <time>2016-03-28T09:35:47Z</time>
      </trkpt>
      <trkpt lat="43.23766" lon="5.49508">
        <ele>230.1</ele>
        <time>2016-03-28T09:35:48Z</time>
      </trkpt>
      <trkpt lat="43.23767" lon="5.49501">
        <ele>230.5</ele>
        <time>2016-03-28T09:35:49Z</time>
      </trkpt>
      <trkpt lat="43.23768" lon="5.49494">
        <ele>231</ele>
        <time>2016-03-28T09:35:50Z</time>
      </trkpt>
      <trkpt lat="43.23769" lon="5.49488">
        <ele>231.4</ele>
        <time>2016-03-28T09:35:51Z</time>
      </trkpt>
      <trkpt lat="43.2377" lon="5.4948">
        <ele>231.9</ele>
        <time>2016-03-28T09:35:52Z</time>
      </trkpt>
      <trkpt lat="43.2377" lon="5.49472">
        <ele>232.3</ele>
        <time>2016-03-28T09:35:53Z</time>
      </trkpt>
      <trkpt lat="43.23771" lon="5.49465">
        <ele>232.8</ele>
        <time>2016-03-28T09:35:54Z</time>
      </trkpt>
      <trkpt lat="43.23771" lon="5.49457">
        <ele>233</ele>
        <time>2016-03-28T09:35:55Z</time>
      </trkpt>
      <trkpt lat="43.23771" lon="5.49449">
        <ele>233.1</ele>
        <time>2016-03-28T09:35:56Z</time>
      </trkpt>
      <trkpt lat="43.23773" lon="5.49442">
        <ele>233.4</ele>
        <time>2016-03-28T09:35:57Z</time>
      </trkpt>
      <trkpt lat="43.23773" lon="5.49435">
        <ele>233.4</ele>
        <time>2016-03-28T09:35:58Z</time>
      </trkpt>
      <trkpt lat="43.23773" lon="5.49428">
        <ele>233.6</ele>
        <time>2016-03-28T09:35:59Z</time>
      </trkpt>
      <trkpt lat="43.23773" lon="5.49421">
        <ele>233.5</ele>
        <time>2016-03-28T09:36:00Z</time>
      </trkpt>
      <trkpt lat="43.23774" lon="5.49413">
        <ele>233.7</ele>
        <time>2016-03-28T09:36:01Z</time>
      </trkpt>
      <trkpt lat="43.23775" lon="5.49406">
        <ele>233.9</ele>
        <time>2016-03-28T09:36:02Z</time>
      </trkpt>
      <trkpt lat="43.23776" lon="5.49398">
        <ele>234.2</ele>
        <time>2016-03-28T09:36:03Z</time>
      </trkpt>
      <trkpt lat="43.23777" lon="5.49391">
        <ele>234.4</ele>
        <time>2016-03-28T09:36:04Z</time>
      </trkpt>
      <trkpt lat="43.23778" lon="5.49384">
        <ele>234.7</ele>
        <time>2016-03-28T09:36:05Z</time>
      </trkpt>
      <trkpt lat="43.2378" lon="5.49378">
        <ele>235.2</ele>
        <time>2016-03-28T09:36:06Z</time>
      </trkpt>
      <trkpt lat="43.23782" lon="5.4937">
        <ele>235.3</ele>
        <time>2016-03-28T09:36:07Z</time>
      </trkpt>
      <trkpt lat="43.23783" lon="5.49364">
        <ele>235.4</ele>
        <time>2016-03-28T09:36:08Z</time>
      </trkpt>
      <trkpt lat="43.23784" lon="5.49358">
        <ele>235.4</ele>
        <time>2016-03-28T09:36:09Z</time>
      </trkpt>
      <trkpt lat="43.23786" lon="5.49351">
        <ele>235.7</ele>
        <time>2016-03-28T09:36:10Z</time>
      </trkpt>
      <trkpt lat="43.23788" lon="5.49344">
        <ele>236.1</ele>
        <time>2016-03-28T09:36:11Z</time>
      </trkpt>
      <trkpt lat="43.23789" lon="5.49338">
        <ele>236.1</ele>
        <time>2016-03-28T09:36:12Z</time>
      </trkpt>
      <trkpt lat="43.23791" lon="5.49332">
        <ele>236.2</ele>
        <time>2016-03-28T09:36:13Z</time>
      </trkpt>
      <trkpt lat="43.2379" lon="5.49327">
        <ele>236</ele>
        <time>2016-03-28T09:36:14Z</time>
      </trkpt>
      <trkpt lat="43.23792" lon="5.4932">
        <ele>236.1</ele>
        <time>2016-03-28T09:36:15Z</time>
      </trkpt>
      <trkpt lat="43.23794" lon="5.49314">
        <ele>236.4</ele>
        <time>2016-03-28T09:36:16Z</time>
      </trkpt>
      <trkpt lat="43.23795" lon="5.49307">
        <ele>236.6</ele>
        <time>2016-03-28T09:36:17Z</time>
      </trkpt>
      <trkpt lat="43.23796" lon="5.493">
        <ele>236.6</ele>
        <time>2016-03-28T09:36:18Z</time>
      </trkpt>
      <trkpt lat="43.23797" lon="5.49293">
        <ele>236.8</ele>
        <time>2016-03-28T09:36:19Z</time>
      </trkpt>
      <trkpt lat="43.23798" lon="5.49287">
        <ele>236.9</ele>
        <time>2016-03-28T09:36:20Z</time>
      </trkpt>
      <trkpt lat="43.23799" lon="5.4928">
        <ele>237.1</ele>
        <time>2016-03-28T09:36:21Z</time>
      </trkpt>
      <trkpt lat="43.238" lon="5.49272">
        <ele>237.1</ele>
        <time>2016-03-28T09:36:22Z</time>
      </trkpt>
      <trkpt lat="43.23801" lon="5.49263">
        <ele>237.3</ele>
        <time>2016-03-28T09:36:23Z</time>
      </trkpt>
      <trkpt lat="43.238" lon="5.49258">
        <ele>236.9</ele>
        <time>2016-03-28T09:36:24Z</time>
      </trkpt>
      <trkpt lat="43.23801" lon="5.49253">
        <ele>236.8</ele>
        <time>2016-03-28T09:36:25Z</time>
      </trkpt>
      <trkpt lat="43.23803" lon="5.49246">
        <ele>237.2</ele>
        <time>2016-03-28T09:36:26Z</time>
      </trkpt>
      <trkpt lat="43.23803" lon="5.49238">
        <ele>237.2</ele>
        <time>2016-03-28T09:36:27Z</time>
      </trkpt>
      <trkpt lat="43.23805" lon="5.49232">
        <ele>237.5</ele>
        <time>2016-03-28T09:36:28Z</time>
      </trkpt>
      <trkpt lat="43.23806" lon="5.49225">
        <ele>237.6</ele>
        <time>2016-03-28T09:36:29Z</time>
      </trkpt>
      <trkpt lat="43.23807" lon="5.49218">
        <ele>237.8</ele>
        <time>2016-03-28T09:36:30Z</time>
      </trkpt>
      <trkpt lat="43.23808" lon="5.4921">
        <ele>237.8</ele>
        <time>2016-03-28T09:36:31Z</time>
      </trkpt>
      <trkpt lat="43.23809" lon="5.49204">
        <ele>237.9</ele>
        <time>2016-03-28T09:36:32Z</time>
      </trkpt>
      <trkpt lat="43.2381" lon="5.49199">
        <ele>237.8</ele>
        <time>2016-03-28T09:36:33Z</time>
      </trkpt>
      <trkpt lat="43.23812" lon="5.49193">
        <ele>238.1</ele>
        <time>2016-03-28T09:36:34Z</time>
      </trkpt>
      <trkpt lat="43.23814" lon="5.49186">
        <ele>238.3</ele>
        <time>2016-03-28T09:36:35Z</time>
      </trkpt>
      <trkpt lat="43.23816" lon="5.4918">
        <ele>238.5</ele>
        <time>2016-03-28T09:36:36Z</time>
      </trkpt>
      <trkpt lat="43.23817" lon="5.49174">
        <ele>238.5</ele>
        <time>2016-03-28T09:36:37Z</time>
      </trkpt>
      <trkpt lat="43.23819" lon="5.49168">
        <ele>238.7</ele>
        <time>2016-03-28T09:36:38Z</time>
      </trkpt>
      <trkpt lat="43.2382" lon="5.49162">
        <ele>238.7</ele>
        <time>2016-03-28T09:36:39Z</time>
      </trkpt>
      <trkpt lat="43.23822" lon="5.49154">
        <ele>238.9</ele>
        <time>2016-03-28T09:36:40Z</time>
      </trkpt>
      <trkpt lat="43.23824" lon="5.49148">
        <ele>239</ele>
        <time>2016-03-28T09:36:41Z</time>
      </trkpt>
      <trkpt lat="43.23825" lon="5.49141">
        <ele>239.1</ele>
        <time>2016-03-28T09:36:42Z</time>
      </trkpt>
      <trkpt lat="43.23827" lon="5.49135">
        <ele>239.2</ele>
        <time>2016-03-28T09:36:43Z</time>
      </trkpt>
      <trkpt lat="43.23827" lon="5.4913">
        <ele>239</ele>
        <time>2016-03-28T09:36:44Z</time>
      </trkpt>
      <trkpt lat="43.23828" lon="5.49123">
        <ele>239.1</ele>
        <time>2016-03-28T09:36:45Z</time>
      </trkpt>
      <trkpt lat="43.2383" lon="5.49117">
        <ele>239.3</ele>
        <time>2016-03-28T09:36:46Z</time>
      </trkpt>
      <trkpt lat="43.23831" lon="5.4911">
        <ele>239.4</ele>
        <time>2016-03-28T09:36:47Z</time>
      </trkpt>
      <trkpt lat="43.23832" lon="5.49104">
        <ele>239.4</ele>
        <time>2016-03-28T09:36:48Z</time>
      </trkpt>
      <trkpt lat="43.23832" lon="5.49097">
        <ele>239.4</ele>
        <time>2016-03-28T09:36:49Z</time>
      </trkpt>
      <trkpt lat="43.23832" lon="5.49089">
        <ele>239.2</ele>
        <time>2016-03-28T09:36:50Z</time>
      </trkpt>
      <trkpt lat="43.23833" lon="5.49082">
        <ele>239.1</ele>
        <time>2016-03-28T09:36:51Z</time>
      </trkpt>
      <trkpt lat="43.23834" lon="5.49075">
        <ele>239.2</ele>
        <time>2016-03-28T09:36:52Z</time>
      </trkpt>
      <trkpt lat="43.23835" lon="5.49069">
        <ele>239.3</ele>
        <time>2016-03-28T09:36:53Z</time>
      </trkpt>
      <trkpt lat="43.23837" lon="5.49063">
        <ele>239.4</ele>
        <time>2016-03-28T09:36:54Z</time>
      </trkpt>
      <trkpt lat="43.23838" lon="5.49056">
        <ele>239.5</ele>
        <time>2016-03-28T09:36:55Z</time>
      </trkpt>
      <trkpt lat="43.23839" lon="5.4905">
        <ele>239.6</ele>
        <time>2016-03-28T09:36:56Z</time>
      </trkpt>
      <trkpt lat="43.2384" lon="5.49044">
        <ele>239.7</ele>
        <time>2016-03-28T09:36:57Z</time>
      </trkpt>
      <trkpt lat="43.23842" lon="5.49038">
        <ele>240</ele>
        <time>2016-03-28T09:36:58Z</time>
      </trkpt>
      <trkpt lat="43.23843" lon="5.49032">
        <ele>240.3</ele>
        <time>2016-03-28T09:36:59Z</time>
      </trkpt>
      <trkpt lat="43.23844" lon="5.49027">
        <ele>240.6</ele>
        <time>2016-03-28T09:37:00Z</time>
      </trkpt>
      <trkpt lat="43.23845" lon="5.49019">
        <ele>240.7</ele>
        <time>2016-03-28T09:37:01Z</time>
      </trkpt>
      <trkpt lat="43.23846" lon="5.49014">
        <ele>240.9</ele>
        <time>2016-03-28T09:37:02Z</time>
      </trkpt>
      <trkpt lat="43.23847" lon="5.49007">
        <ele>241.2</ele>
        <time>2016-03-28T09:37:03Z</time>
      </trkpt>
      <trkpt lat="43.23849" lon="5.49001">
        <ele>241.6</ele>
        <time>2016-03-28T09:37:04Z</time>
      </trkpt>
      <trkpt lat="43.2385" lon="5.48994">
        <ele>241.9</ele>
        <time>2016-03-28T09:37:05Z</time>
      </trkpt>
      <trkpt lat="43.23852" lon="5.48987">
        <ele>242.2</ele>
        <time>2016-03-28T09:37:06Z</time>
      </trkpt>
      <trkpt lat="43.23854" lon="5.4898">
        <ele>242.6</ele>
        <time>2016-03-28T09:37:07Z</time>
      </trkpt>
      <trkpt lat="43.23854" lon="5.48975">
        <ele>242.7</ele>
        <time>2016-03-28T09:37:08Z</time>
      </trkpt>
      <trkpt lat="43.23856" lon="5.48969">
        <ele>242.9</ele>
        <time>2016-03-28T09:37:09Z</time>
      </trkpt>
      <trkpt lat="43.23857" lon="5.48964">
        <ele>243.1</ele>
        <time>2016-03-28T09:37:10Z</time>
      </trkpt>
      <trkpt lat="43.23858" lon="5.48958">
        <ele>243.3</ele>
        <time>2016-03-28T09:37:11Z</time>
      </trkpt>
      <trkpt lat="43.23859" lon="5.48951">
        <ele>243.5</ele>
        <time>2016-03-28T09:37:12Z</time>
      </trkpt>
      <trkpt lat="43.2386" lon="5.48944">
        <ele>243.8</ele>
        <time>2016-03-28T09:37:13Z</time>
      </trkpt>
      <trkpt lat="43.2386" lon="5.48939">
        <ele>243.9</ele>
        <time>2016-03-28T09:37:14Z</time>
      </trkpt>
      <trkpt lat="43.23862" lon="5.48933">
        <ele>244.4</ele>
        <time>2016-03-28T09:37:15Z</time>
      </trkpt>
      <trkpt lat="43.23863" lon="5.48927">
        <ele>244.7</ele>
        <time>2016-03-28T09:37:16Z</time>
      </trkpt>
      <trkpt lat="43.23865" lon="5.48921">
        <ele>245.1</ele>
        <time>2016-03-28T09:37:17Z</time>
      </trkpt>
      <trkpt lat="43.23866" lon="5.48915">
        <ele>245.4</ele>
        <time>2016-03-28T09:37:18Z</time>
      </trkpt>
      <trkpt lat="43.23867" lon="5.48909">
        <ele>245.7</ele>
        <time>2016-03-28T09:37:19Z</time>
      </trkpt>
      <trkpt lat="43.23868" lon="5.48903">
        <ele>246</ele>
        <time>2016-03-28T09:37:20Z</time>
      </trkpt>
      <trkpt lat="43.23868" lon="5.48898">
        <ele>246.2</ele>
        <time>2016-03-28T09:37:21Z</time>
      </trkpt>
      <trkpt lat="43.23869" lon="5.48892">
        <ele>246.4</ele>
        <time>2016-03-28T09:37:22Z</time>
      </trkpt>
      <trkpt lat="43.23871" lon="5.48886">
        <ele>247</ele>
        <time>2016-03-28T09:37:23Z</time>
      </trkpt>
      <trkpt lat="43.23872" lon="5.48881">
        <ele>247.3</ele>
        <time>2016-03-28T09:37:24Z</time>
      </trkpt>
      <trkpt lat="43.23874" lon="5.48875">
        <ele>247.8</ele>
        <time>2016-03-28T09:37:25Z</time>
      </trkpt>
      <trkpt lat="43.23875" lon="5.48869">
        <ele>247.7</ele>
        <time>2016-03-28T09:37:26Z</time>
      </trkpt>
      <trkpt lat="43.23876" lon="5.48863">
        <ele>247.7</ele>
        <time>2016-03-28T09:37:27Z</time>
      </trkpt>
      <trkpt lat="43.23877" lon="5.48859">
        <ele>247.9</ele>
        <time>2016-03-28T09:37:28Z</time>
      </trkpt>
      <trkpt lat="43.23878" lon="5.48854">
        <ele>247.8</ele>
        <time>2016-03-28T09:37:29Z</time>
      </trkpt>
      <trkpt lat="43.2388" lon="5.48847">
        <ele>248</ele>
        <time>2016-03-28T09:37:30Z</time>
      </trkpt>
      <trkpt lat="43.23881" lon="5.4884">
        <ele>247.9</ele>
        <time>2016-03-28T09:37:31Z</time>
      </trkpt>
      <trkpt lat="43.2388" lon="5.48832">
        <ele>247.3</ele>
        <time>2016-03-28T09:37:33Z</time>
      </trkpt>
      <trkpt lat="43.23881" lon="5.48826">
        <ele>247.3</ele>
        <time>2016-03-28T09:37:34Z</time>
      </trkpt>
      <trkpt lat="43.23882" lon="5.48821">
        <ele>247.4</ele>
        <time>2016-03-28T09:37:35Z</time>
      </trkpt>
      <trkpt lat="43.23884" lon="5.48815">
        <ele>247.7</ele>
        <time>2016-03-28T09:37:36Z</time>
      </trkpt>
      <trkpt lat="43.23885" lon="5.48811">
        <ele>247.9</ele>
        <time>2016-03-28T09:37:37Z</time>
      </trkpt>
      <trkpt lat="43.23885" lon="5.48807">
        <ele>247.6</ele>
        <time>2016-03-28T09:37:38Z</time>
      </trkpt>
      <trkpt lat="43.23887" lon="5.488">
        <ele>248</ele>
        <time>2016-03-28T09:37:39Z</time>
      </trkpt>
      <trkpt lat="43.23889" lon="5.48795">
        <ele>248</ele>
        <time>2016-03-28T09:37:40Z</time>
      </trkpt>
      <trkpt lat="43.2389" lon="5.48789">
        <ele>248.1</ele>
        <time>2016-03-28T09:37:41Z</time>
      </trkpt>
      <trkpt lat="43.23891" lon="5.48784">
        <ele>248.4</ele>
        <time>2016-03-28T09:37:42Z</time>
      </trkpt>
      <trkpt lat="43.23892" lon="5.48778">
        <ele>248.6</ele>
        <time>2016-03-28T09:37:43Z</time>
      </trkpt>
      <trkpt lat="43.23893" lon="5.48773">
        <ele>248.8</ele>
        <time>2016-03-28T09:37:44Z</time>
      </trkpt>
      <trkpt lat="43.23894" lon="5.48767">
        <ele>249</ele>
        <time>2016-03-28T09:37:45Z</time>
      </trkpt>
      <trkpt lat="43.23895" lon="5.48761">
        <ele>249.2</ele>
        <time>2016-03-28T09:37:46Z</time>
      </trkpt>
      <trkpt lat="43.23895" lon="5.48756">
        <ele>249.3</ele>
        <time>2016-03-28T09:37:47Z</time>
      </trkpt>
      <trkpt lat="43.23896" lon="5.4875">
        <ele>249.3</ele>
        <time>2016-03-28T09:37:48Z</time>
      </trkpt>
      <trkpt lat="43.23897" lon="5.48745">
        <ele>249.7</ele>
        <time>2016-03-28T09:37:49Z</time>
      </trkpt>
      <trkpt lat="43.23899" lon="5.48738">
        <ele>250</ele>
        <time>2016-03-28T09:37:50Z</time>
      </trkpt>
      <trkpt lat="43.239" lon="5.48732">
        <ele>250.2</ele>
        <time>2016-03-28T09:37:51Z</time>
      </trkpt>
      <trkpt lat="43.23901" lon="5.48727">
        <ele>250.5</ele>
        <time>2016-03-28T09:37:52Z</time>
      </trkpt>
      <trkpt lat="43.23903" lon="5.48721">
        <ele>250.9</ele>
        <time>2016-03-28T09:37:53Z</time>
      </trkpt>
      <trkpt lat="43.23904" lon="5.48715">
        <ele>251.1</ele>
        <time>2016-03-28T09:37:54Z</time>
      </trkpt>
      <trkpt lat="43.23904" lon="5.48709">
        <ele>251.1</ele>
        <time>2016-03-28T09:37:55Z</time>
      </trkpt>
      <trkpt lat="43.23905" lon="5.48704">
        <ele>251.3</ele>
        <time>2016-03-28T09:37:56Z</time>
      </trkpt>
      <trkpt lat="43.23906" lon="5.48698">
        <ele>251.6</ele>
        <time>2016-03-28T09:37:57Z</time>
      </trkpt>
      <trkpt lat="43.23908" lon="5.48692">
        <ele>252.2</ele>
        <time>2016-03-28T09:37:58Z</time>
      </trkpt>
      <trkpt lat="43.23909" lon="5.48686">
        <ele>252.5</ele>
        <time>2016-03-28T09:37:59Z</time>
      </trkpt>
      <trkpt lat="43.23911" lon="5.48682">
        <ele>253</ele>
        <time>2016-03-28T09:38:00Z</time>
      </trkpt>
      <trkpt lat="43.23912" lon="5.48676">
        <ele>253.2</ele>
        <time>2016-03-28T09:38:01Z</time>
      </trkpt>
      <trkpt lat="43.23913" lon="5.4867">
        <ele>253.6</ele>
        <time>2016-03-28T09:38:02Z</time>
      </trkpt>
      <trkpt lat="43.23914" lon="5.48662">
        <ele>254</ele>
        <time>2016-03-28T09:38:03Z</time>
      </trkpt>
      <trkpt lat="43.23915" lon="5.48656">
        <ele>254.2</ele>
        <time>2016-03-28T09:38:04Z</time>
      </trkpt>
      <trkpt lat="43.23915" lon="5.48651">
        <ele>254.4</ele>
        <time>2016-03-28T09:38:05Z</time>
      </trkpt>
      <trkpt lat="43.23916" lon="5.48645">
        <ele>254.6</ele>
        <time>2016-03-28T09:38:06Z</time>
      </trkpt>
      <trkpt lat="43.23915" lon="5.48638">
        <ele>254.3</ele>
        <time>2016-03-28T09:38:07Z</time>
      </trkpt>
      <trkpt lat="43.23915" lon="5.48632">
        <ele>254.5</ele>
        <time>2016-03-28T09:38:08Z</time>
      </trkpt>
      <trkpt lat="43.23916" lon="5.48626">
        <ele>254.9</ele>
        <time>2016-03-28T09:38:09Z</time>
      </trkpt>
      <trkpt lat="43.23917" lon="5.4862">
        <ele>255.1</ele>
        <time>2016-03-28T09:38:10Z</time>
      </trkpt>
      <trkpt lat="43.23918" lon="5.48614">
        <ele>255.3</ele>
        <time>2016-03-28T09:38:11Z</time>
      </trkpt>
      <trkpt lat="43.23918" lon="5.48608">
        <ele>255.5</ele>
        <time>2016-03-28T09:38:12Z</time>
      </trkpt>
      <trkpt lat="43.23919" lon="5.48602">
        <ele>255.7</ele>
        <time>2016-03-28T09:38:13Z</time>
      </trkpt>
      <trkpt lat="43.23919" lon="5.48596">
        <ele>255.8</ele>
        <time>2016-03-28T09:38:14Z</time>
      </trkpt>
      <trkpt lat="43.2392" lon="5.4859">
        <ele>256</ele>
        <time>2016-03-28T09:38:15Z</time>
      </trkpt>
      <trkpt lat="43.2392" lon="5.48584">
        <ele>256.1</ele>
        <time>2016-03-28T09:38:16Z</time>
      </trkpt>
      <trkpt lat="43.2392" lon="5.48579">
        <ele>256.2</ele>
        <time>2016-03-28T09:38:17Z</time>
      </trkpt>
      <trkpt lat="43.23921" lon="5.48573">
        <ele>256.4</ele>
        <time>2016-03-28T09:38:18Z</time>
      </trkpt>
      <trkpt lat="43.23922" lon="5.48567">
        <ele>256.6</ele>
        <time>2016-03-28T09:38:19Z</time>
      </trkpt>
      <trkpt lat="43.23922" lon="5.48561">
        <ele>256.7</ele>
        <time>2016-03-28T09:38:20Z</time>
      </trkpt>
      <trkpt lat="43.23922" lon="5.48555">
        <ele>256.7</ele>
        <time>2016-03-28T09:38:21Z</time>
      </trkpt>
      <trkpt lat="43.23921" lon="5.48549">
        <ele>256.7</ele>
        <time>2016-03-28T09:38:22Z</time>
      </trkpt>
      <trkpt lat="43.23922" lon="5.48543">
        <ele>256.7</ele>
        <time>2016-03-28T09:38:23Z</time>
      </trkpt>
      <trkpt lat="43.23922" lon="5.48537">
        <ele>256.9</ele>
        <time>2016-03-28T09:38:24Z</time>
      </trkpt>
      <trkpt lat="43.23921" lon="5.48529">
        <ele>257</ele>
        <time>2016-03-28T09:38:25Z</time>
      </trkpt>
      <trkpt lat="43.2392" lon="5.48522">
        <ele>257.2</ele>
        <time>2016-03-28T09:38:26Z</time>
      </trkpt>
      <trkpt lat="43.2392" lon="5.48515">
        <ele>257.5</ele>
        <time>2016-03-28T09:38:27Z</time>
      </trkpt>
      <trkpt lat="43.23921" lon="5.48505">
        <ele>258</ele>
        <time>2016-03-28T09:38:28Z</time>
      </trkpt>
      <trkpt lat="43.2392" lon="5.48499">
        <ele>258.1</ele>
        <time>2016-03-28T09:38:29Z</time>
      </trkpt>
      <trkpt lat="43.2392" lon="5.48491">
        <ele>258.3</ele>
        <time>2016-03-28T09:38:30Z</time>
      </trkpt>
      <trkpt lat="43.23919" lon="5.48486">
        <ele>258.4</ele>
        <time>2016-03-28T09:38:31Z</time>
      </trkpt>
      <trkpt lat="43.2392" lon="5.48477">
        <ele>258.8</ele>
        <time>2016-03-28T09:38:32Z</time>
      </trkpt>
      <trkpt lat="43.23918" lon="5.4847">
        <ele>258.8</ele>
        <time>2016-03-28T09:38:33Z</time>
      </trkpt>
      <trkpt lat="43.23915" lon="5.48462">
        <ele>258.4</ele>
        <time>2016-03-28T09:38:34Z</time>
      </trkpt>
      <trkpt lat="43.23914" lon="5.48456">
        <ele>258.5</ele>
        <time>2016-03-28T09:38:35Z</time>
      </trkpt>
      <trkpt lat="43.23913" lon="5.48449">
        <ele>258.8</ele>
        <time>2016-03-28T09:38:36Z</time>
      </trkpt>
      <trkpt lat="43.23912" lon="5.48442">
        <ele>259</ele>
        <time>2016-03-28T09:38:37Z</time>
      </trkpt>
      <trkpt lat="43.23912" lon="5.48435">
        <ele>259.4</ele>
        <time>2016-03-28T09:38:38Z</time>
      </trkpt>
      <trkpt lat="43.2391" lon="5.48428">
        <ele>259.5</ele>
        <time>2016-03-28T09:38:39Z</time>
      </trkpt>
      <trkpt lat="43.2391" lon="5.4842">
        <ele>259.9</ele>
        <time>2016-03-28T09:38:40Z</time>
      </trkpt>
      <trkpt lat="43.23909" lon="5.48412">
        <ele>260.1</ele>
        <time>2016-03-28T09:38:41Z</time>
      </trkpt>
      <trkpt lat="43.23906" lon="5.48404">
        <ele>260</ele>
        <time>2016-03-28T09:38:42Z</time>
      </trkpt>
      <trkpt lat="43.23904" lon="5.48396">
        <ele>260.3</ele>
        <time>2016-03-28T09:38:43Z</time>
      </trkpt>
      <trkpt lat="43.23905" lon="5.48387">
        <ele>261</ele>
        <time>2016-03-28T09:38:44Z</time>
      </trkpt>
      <trkpt lat="43.23904" lon="5.4838">
        <ele>261.2</ele>
        <time>2016-03-28T09:38:45Z</time>
      </trkpt>
      <trkpt lat="43.23902" lon="5.48372">
        <ele>261.2</ele>
        <time>2016-03-28T09:38:46Z</time>
      </trkpt>
      <trkpt lat="43.239" lon="5.48364">
        <ele>260.7</ele>
        <time>2016-03-28T09:38:47Z</time>
      </trkpt>
      <trkpt lat="43.23897" lon="5.48355">
        <ele>260.4</ele>
        <time>2016-03-28T09:38:48Z</time>
      </trkpt>
      <trkpt lat="43.23896" lon="5.48347">
        <ele>260.1</ele>
        <time>2016-03-28T09:38:49Z</time>
      </trkpt>
      <trkpt lat="43.23896" lon="5.48338">
        <ele>260.2</ele>
        <time>2016-03-28T09:38:50Z</time>
      </trkpt>
      <trkpt lat="43.23894" lon="5.4833">
        <ele>260</ele>
        <time>2016-03-28T09:38:51Z</time>
      </trkpt>
      <trkpt lat="43.23893" lon="5.48321">
        <ele>259.9</ele>
        <time>2016-03-28T09:38:52Z</time>
      </trkpt>
      <trkpt lat="43.23895" lon="5.4831">
        <ele>260.2</ele>
        <time>2016-03-28T09:38:53Z</time>
      </trkpt>
      <trkpt lat="43.23894" lon="5.48301">
        <ele>260.1</ele>
        <time>2016-03-28T09:38:54Z</time>
      </trkpt>
      <trkpt lat="43.23891" lon="5.48291">
        <ele>259.9</ele>
        <time>2016-03-28T09:38:55Z</time>
      </trkpt>
      <trkpt lat="43.23889" lon="5.48284">
        <ele>259.2</ele>
        <time>2016-03-28T09:38:56Z</time>
      </trkpt>
      <trkpt lat="43.23887" lon="5.48275">
        <ele>258.6</ele>
        <time>2016-03-28T09:38:57Z</time>
      </trkpt>
      <trkpt lat="43.23886" lon="5.48264">
        <ele>257.8</ele>
        <time>2016-03-28T09:38:58Z</time>
      </trkpt>
      <trkpt lat="43.23884" lon="5.48252">
        <ele>257</ele>
        <time>2016-03-28T09:38:59Z</time>
      </trkpt>
      <trkpt lat="43.23883" lon="5.48242">
        <ele>256.2</ele>
        <time>2016-03-28T09:39:00Z</time>
      </trkpt>
      <trkpt lat="43.23882" lon="5.48232">
        <ele>255.5</ele>
        <time>2016-03-28T09:39:01Z</time>
      </trkpt>
      <trkpt lat="43.23882" lon="5.48221">
        <ele>254.9</ele>
        <time>2016-03-28T09:39:02Z</time>
      </trkpt>
      <trkpt lat="43.23881" lon="5.48211">
        <ele>254.2</ele>
        <time>2016-03-28T09:39:03Z</time>
      </trkpt>
      <trkpt lat="43.2388" lon="5.482">
        <ele>253.7</ele>
        <time>2016-03-28T09:39:04Z</time>
      </trkpt>
      <trkpt lat="43.2388" lon="5.48187">
        <ele>253.6</ele>
        <time>2016-03-28T09:39:05Z</time>
      </trkpt>
      <trkpt lat="43.23879" lon="5.48175">
        <ele>253.2</ele>
        <time>2016-03-28T09:39:06Z</time>
      </trkpt>
      <trkpt lat="43.23879" lon="5.48163">
        <ele>253</ele>
        <time>2016-03-28T09:39:07Z</time>
      </trkpt>
      <trkpt lat="43.23879" lon="5.4815">
        <ele>252.8</ele>
        <time>2016-03-28T09:39:08Z</time>
      </trkpt>
      <trkpt lat="43.23881" lon="5.48138">
        <ele>252.9</ele>
        <time>2016-03-28T09:39:09Z</time>
      </trkpt>
      <trkpt lat="43.2388" lon="5.48124">
        <ele>252.6</ele>
        <time>2016-03-28T09:39:10Z</time>
      </trkpt>
      <trkpt lat="43.23879" lon="5.48111">
        <ele>251.4</ele>
        <time>2016-03-28T09:39:11Z</time>
      </trkpt>
      <trkpt lat="43.2388" lon="5.48097">
        <ele>250.6</ele>
        <time>2016-03-28T09:39:12Z</time>
      </trkpt>
      <trkpt lat="43.23881" lon="5.48084">
        <ele>249.7</ele>
        <time>2016-03-28T09:39:13Z</time>
      </trkpt>
      <trkpt lat="43.2388" lon="5.4807">
        <ele>248.6</ele>
        <time>2016-03-28T09:39:14Z</time>
      </trkpt>
      <trkpt lat="43.23881" lon="5.48056">
        <ele>247.6</ele>
        <time>2016-03-28T09:39:15Z</time>
      </trkpt>
      <trkpt lat="43.23882" lon="5.48042">
        <ele>246.7</ele>
        <time>2016-03-28T09:39:16Z</time>
      </trkpt>
      <trkpt lat="43.23883" lon="5.48027">
        <ele>247.9</ele>
        <time>2016-03-28T09:39:17Z</time>
      </trkpt>
      <trkpt lat="43.23884" lon="5.48012">
        <ele>249.2</ele>
        <time>2016-03-28T09:39:18Z</time>
      </trkpt>
      <trkpt lat="43.23885" lon="5.47997">
        <ele>250.4</ele>
        <time>2016-03-28T09:39:19Z</time>
      </trkpt>
      <trkpt lat="43.23889" lon="5.47984">
        <ele>251.7</ele>
        <time>2016-03-28T09:39:20Z</time>
      </trkpt>
      <trkpt lat="43.23889" lon="5.4797">
        <ele>252.8</ele>
        <time>2016-03-28T09:39:21Z</time>
      </trkpt>
      <trkpt lat="43.2389" lon="5.47957">
        <ele>253.8</ele>
        <time>2016-03-28T09:39:22Z</time>
      </trkpt>
      <trkpt lat="43.23892" lon="5.47945">
        <ele>254.2</ele>
        <time>2016-03-28T09:39:23Z</time>
      </trkpt>
      <trkpt lat="43.23893" lon="5.47932">
        <ele>254.6</ele>
        <time>2016-03-28T09:39:24Z</time>
      </trkpt>
      <trkpt lat="43.23894" lon="5.4792">
        <ele>255</ele>
        <time>2016-03-28T09:39:25Z</time>
      </trkpt>
      <trkpt lat="43.23895" lon="5.47909">
        <ele>255.3</ele>
        <time>2016-03-28T09:39:26Z</time>
      </trkpt>
      <trkpt lat="43.23896" lon="5.47899">
        <ele>255.6</ele>
        <time>2016-03-28T09:39:27Z</time>
      </trkpt>
      <trkpt lat="43.23896" lon="5.47889">
        <ele>255.9</ele>
        <time>2016-03-28T09:39:28Z</time>
      </trkpt>
      <trkpt lat="43.23896" lon="5.4788">
        <ele>256.1</ele>
        <time>2016-03-28T09:39:29Z</time>
      </trkpt>
      <trkpt lat="43.23897" lon="5.47871">
        <ele>256.4</ele>
        <time>2016-03-28T09:39:30Z</time>
      </trkpt>
      <trkpt lat="43.23898" lon="5.47862">
        <ele>256.5</ele>
        <time>2016-03-28T09:39:31Z</time>
      </trkpt>
      <trkpt lat="43.23898" lon="5.47853">
        <ele>256.7</ele>
        <time>2016-03-28T09:39:32Z</time>
      </trkpt>
      <trkpt lat="43.23898" lon="5.47844">
        <ele>256.9</ele>
        <time>2016-03-28T09:39:33Z</time>
      </trkpt>
      <trkpt lat="43.23899" lon="5.47836">
        <ele>257.1</ele>
        <time>2016-03-28T09:39:34Z</time>
      </trkpt>
      <trkpt lat="43.23899" lon="5.47829">
        <ele>257.3</ele>
        <time>2016-03-28T09:39:35Z</time>
      </trkpt>
      <trkpt lat="43.239" lon="5.47821">
        <ele>257.5</ele>
        <time>2016-03-28T09:39:36Z</time>
      </trkpt>
      <trkpt lat="43.23901" lon="5.47814">
        <ele>257.7</ele>
        <time>2016-03-28T09:39:37Z</time>
      </trkpt>
      <trkpt lat="43.23901" lon="5.47807">
        <ele>257.9</ele>
        <time>2016-03-28T09:39:38Z</time>
      </trkpt>
      <trkpt lat="43.23902" lon="5.478">
        <ele>258.1</ele>
        <time>2016-03-28T09:39:39Z</time>
      </trkpt>
      <trkpt lat="43.23902" lon="5.47793">
        <ele>258.2</ele>
        <time>2016-03-28T09:39:40Z</time>
      </trkpt>
      <trkpt lat="43.23903" lon="5.47787">
        <ele>258.5</ele>
        <time>2016-03-28T09:39:41Z</time>
      </trkpt>
      <trkpt lat="43.23903" lon="5.4778">
        <ele>258.7</ele>
        <time>2016-03-28T09:39:42Z</time>
      </trkpt>
      <trkpt lat="43.23904" lon="5.47774">
        <ele>258.9</ele>
        <time>2016-03-28T09:39:43Z</time>
      </trkpt>
      <trkpt lat="43.23904" lon="5.47769">
        <ele>259.1</ele>
        <time>2016-03-28T09:39:44Z</time>
      </trkpt>
      <trkpt lat="43.23905" lon="5.47763">
        <ele>259.3</ele>
        <time>2016-03-28T09:39:45Z</time>
      </trkpt>
      <trkpt lat="43.23906" lon="5.47758">
        <ele>259.5</ele>
        <time>2016-03-28T09:39:46Z</time>
      </trkpt>
      <trkpt lat="43.23906" lon="5.47753">
        <ele>259.7</ele>
        <time>2016-03-28T09:39:47Z</time>
      </trkpt>
      <trkpt lat="43.23906" lon="5.47748">
        <ele>259.8</ele>
        <time>2016-03-28T09:39:48Z</time>
      </trkpt>
      <trkpt lat="43.23905" lon="5.47743">
        <ele>259.9</ele>
        <time>2016-03-28T09:39:49Z</time>
      </trkpt>
      <trkpt lat="43.23905" lon="5.47738">
        <ele>260.1</ele>
        <time>2016-03-28T09:39:50Z</time>
      </trkpt>
      <trkpt lat="43.23905" lon="5.47733">
        <ele>260.1</ele>
        <time>2016-03-28T09:39:51Z</time>
      </trkpt>
      <trkpt lat="43.23905" lon="5.47729">
        <ele>260.3</ele>
        <time>2016-03-28T09:39:52Z</time>
      </trkpt>
      <trkpt lat="43.23905" lon="5.47724">
        <ele>260.4</ele>
        <time>2016-03-28T09:39:53Z</time>
      </trkpt>
      <trkpt lat="43.23905" lon="5.47719">
        <ele>260.6</ele>
        <time>2016-03-28T09:39:54Z</time>
      </trkpt>
      <trkpt lat="43.23905" lon="5.47713">
        <ele>260.8</ele>
        <time>2016-03-28T09:39:55Z</time>
      </trkpt>
      <trkpt lat="43.23906" lon="5.47708">
        <ele>260.9</ele>
        <time>2016-03-28T09:39:56Z</time>
      </trkpt>
      <trkpt lat="43.23906" lon="5.47702">
        <ele>261.1</ele>
        <time>2016-03-28T09:39:57Z</time>
      </trkpt>
      <trkpt lat="43.23906" lon="5.47697">
        <ele>261.2</ele>
        <time>2016-03-28T09:39:58Z</time>
      </trkpt>
      <trkpt lat="43.23906" lon="5.47692">
        <ele>261.3</ele>
        <time>2016-03-28T09:39:59Z</time>
      </trkpt>
      <trkpt lat="43.23906" lon="5.47687">
        <ele>261.5</ele>
        <time>2016-03-28T09:40:00Z</time>
      </trkpt>
      <trkpt lat="43.23906" lon="5.47681">
        <ele>261.6</ele>
        <time>2016-03-28T09:40:01Z</time>
      </trkpt>
      <trkpt lat="43.23906" lon="5.47676">
        <ele>261.8</ele>
        <time>2016-03-28T09:40:02Z</time>
      </trkpt>
      <trkpt lat="43.23907" lon="5.4767">
        <ele>262</ele>
        <time>2016-03-28T09:40:03Z</time>
      </trkpt>
      <trkpt lat="43.23907" lon="5.47665">
        <ele>262.2</ele>
        <time>2016-03-28T09:40:04Z</time>
      </trkpt>
      <trkpt lat="43.23908" lon="5.47659">
        <ele>262.3</ele>
        <time>2016-03-28T09:40:05Z</time>
      </trkpt>
      <trkpt lat="43.23908" lon="5.47653">
        <ele>262.5</ele>
        <time>2016-03-28T09:40:06Z</time>
      </trkpt>
      <trkpt lat="43.23909" lon="5.47646">
        <ele>262.7</ele>
        <time>2016-03-28T09:40:07Z</time>
      </trkpt>
      <trkpt lat="43.23908" lon="5.4764">
        <ele>262.8</ele>
        <time>2016-03-28T09:40:08Z</time>
      </trkpt>
      <trkpt lat="43.23909" lon="5.47633">
        <ele>263</ele>
        <time>2016-03-28T09:40:09Z</time>
      </trkpt>
      <trkpt lat="43.2391" lon="5.47628">
        <ele>263.2</ele>
        <time>2016-03-28T09:40:10Z</time>
      </trkpt>
      <trkpt lat="43.2391" lon="5.47621">
        <ele>263.2</ele>
        <time>2016-03-28T09:40:11Z</time>
      </trkpt>
      <trkpt lat="43.2391" lon="5.47615">
        <ele>263</ele>
        <time>2016-03-28T09:40:12Z</time>
      </trkpt>
      <trkpt lat="43.2391" lon="5.47608">
        <ele>262.8</ele>
        <time>2016-03-28T09:40:13Z</time>
      </trkpt>
      <trkpt lat="43.23911" lon="5.47602">
        <ele>262.6</ele>
        <time>2016-03-28T09:40:14Z</time>
      </trkpt>
      <trkpt lat="43.23913" lon="5.47593">
        <ele>262.5</ele>
        <time>2016-03-28T09:40:15Z</time>
      </trkpt>
      <trkpt lat="43.23914" lon="5.47587">
        <ele>262.4</ele>
        <time>2016-03-28T09:40:16Z</time>
      </trkpt>
      <trkpt lat="43.23914" lon="5.4758">
        <ele>262.1</ele>
        <time>2016-03-28T09:40:17Z</time>
      </trkpt>
      <trkpt lat="43.23915" lon="5.47574">
        <ele>262</ele>
        <time>2016-03-28T09:40:18Z</time>
      </trkpt>
      <trkpt lat="43.23915" lon="5.47567">
        <ele>261.8</ele>
        <time>2016-03-28T09:40:19Z</time>
      </trkpt>
      <trkpt lat="43.23914" lon="5.47559">
        <ele>261.4</ele>
        <time>2016-03-28T09:40:20Z</time>
      </trkpt>
      <trkpt lat="43.23915" lon="5.47552">
        <ele>261.2</ele>
        <time>2016-03-28T09:40:21Z</time>
      </trkpt>
      <trkpt lat="43.23916" lon="5.47545">
        <ele>261</ele>
        <time>2016-03-28T09:40:22Z</time>
      </trkpt>
      <trkpt lat="43.23917" lon="5.47537">
        <ele>260.9</ele>
        <time>2016-03-28T09:40:23Z</time>
      </trkpt>
      <trkpt lat="43.23916" lon="5.4753">
        <ele>260.8</ele>
        <time>2016-03-28T09:40:24Z</time>
      </trkpt>
      <trkpt lat="43.23917" lon="5.47523">
        <ele>260.8</ele>
        <time>2016-03-28T09:40:25Z</time>
      </trkpt>
      <trkpt lat="43.23917" lon="5.47515">
        <ele>260.7</ele>
        <time>2016-03-28T09:40:26Z</time>
      </trkpt>
      <trkpt lat="43.23916" lon="5.47508">
        <ele>260.5</ele>
        <time>2016-03-28T09:40:27Z</time>
      </trkpt>
      <trkpt lat="43.23915" lon="5.47502">
        <ele>260.4</ele>
        <time>2016-03-28T09:40:28Z</time>
      </trkpt>
      <trkpt lat="43.23913" lon="5.47496">
        <ele>260.1</ele>
        <time>2016-03-28T09:40:29Z</time>
      </trkpt>
      <trkpt lat="43.23913" lon="5.47489">
        <ele>260</ele>
        <time>2016-03-28T09:40:30Z</time>
      </trkpt>
      <trkpt lat="43.23912" lon="5.47483">
        <ele>259.9</ele>
        <time>2016-03-28T09:40:31Z</time>
      </trkpt>
      <trkpt lat="43.23914" lon="5.47474">
        <ele>259.9</ele>
        <time>2016-03-28T09:40:32Z</time>
      </trkpt>
      <trkpt lat="43.23913" lon="5.47467">
        <ele>259.8</ele>
        <time>2016-03-28T09:40:33Z</time>
      </trkpt>
      <trkpt lat="43.23913" lon="5.4746">
        <ele>259.7</ele>
        <time>2016-03-28T09:40:34Z</time>
      </trkpt>
      <trkpt lat="43.23914" lon="5.47453">
        <ele>260</ele>
        <time>2016-03-28T09:40:35Z</time>
      </trkpt>
      <trkpt lat="43.23916" lon="5.47446">
        <ele>260.6</ele>
        <time>2016-03-28T09:40:36Z</time>
      </trkpt>
      <trkpt lat="43.23916" lon="5.47439">
        <ele>261</ele>
        <time>2016-03-28T09:40:37Z</time>
      </trkpt>
      <trkpt lat="43.23916" lon="5.47431">
        <ele>261.4</ele>
        <time>2016-03-28T09:40:38Z</time>
      </trkpt>
      <trkpt lat="43.23916" lon="5.47425">
        <ele>261.7</ele>
        <time>2016-03-28T09:40:39Z</time>
      </trkpt>
      <trkpt lat="43.23915" lon="5.47417">
        <ele>262</ele>
        <time>2016-03-28T09:40:40Z</time>
      </trkpt>
      <trkpt lat="43.23915" lon="5.4741">
        <ele>262.4</ele>
        <time>2016-03-28T09:40:41Z</time>
      </trkpt>
      <trkpt lat="43.23916" lon="5.47403">
        <ele>262.9</ele>
        <time>2016-03-28T09:40:42Z</time>
      </trkpt>
      <trkpt lat="43.23916" lon="5.47396">
        <ele>263.2</ele>
        <time>2016-03-28T09:40:43Z</time>
      </trkpt>
      <trkpt lat="43.23916" lon="5.47389">
        <ele>263.6</ele>
        <time>2016-03-28T09:40:44Z</time>
      </trkpt>
      <trkpt lat="43.23915" lon="5.47383">
        <ele>263.9</ele>
        <time>2016-03-28T09:40:45Z</time>
      </trkpt>
      <trkpt lat="43.23915" lon="5.47377">
        <ele>264.2</ele>
        <time>2016-03-28T09:40:46Z</time>
      </trkpt>
      <trkpt lat="43.23915" lon="5.4737">
        <ele>264.4</ele>
        <time>2016-03-28T09:40:47Z</time>
      </trkpt>
      <trkpt lat="43.23914" lon="5.47363">
        <ele>264.5</ele>
        <time>2016-03-28T09:40:48Z</time>
      </trkpt>
      <trkpt lat="43.23912" lon="5.47357">
        <ele>264.5</ele>
        <time>2016-03-28T09:40:49Z</time>
      </trkpt>
      <trkpt lat="43.23911" lon="5.47351">
        <ele>264.7</ele>
        <time>2016-03-28T09:40:50Z</time>
      </trkpt>
      <trkpt lat="43.23911" lon="5.47344">
        <ele>264.9</ele>
        <time>2016-03-28T09:40:51Z</time>
      </trkpt>
      <trkpt lat="43.23912" lon="5.47338">
        <ele>265.2</ele>
        <time>2016-03-28T09:40:52Z</time>
      </trkpt>
      <trkpt lat="43.23911" lon="5.47332">
        <ele>265.3</ele>
        <time>2016-03-28T09:40:53Z</time>
      </trkpt>
      <trkpt lat="43.23913" lon="5.47325">
        <ele>265.8</ele>
        <time>2016-03-28T09:40:54Z</time>
      </trkpt>
      <trkpt lat="43.23912" lon="5.4732">
        <ele>265.8</ele>
        <time>2016-03-28T09:40:55Z</time>
      </trkpt>
      <trkpt lat="43.23911" lon="5.47314">
        <ele>266</ele>
        <time>2016-03-28T09:40:56Z</time>
      </trkpt>
      <trkpt lat="43.23911" lon="5.47309">
        <ele>266.1</ele>
        <time>2016-03-28T09:40:57Z</time>
      </trkpt>
      <trkpt lat="43.2391" lon="5.47304">
        <ele>266.2</ele>
        <time>2016-03-28T09:40:58Z</time>
      </trkpt>
      <trkpt lat="43.23909" lon="5.47299">
        <ele>266.2</ele>
        <time>2016-03-28T09:40:59Z</time>
      </trkpt>
      <trkpt lat="43.23908" lon="5.47294">
        <ele>266.3</ele>
        <time>2016-03-28T09:41:00Z</time>
      </trkpt>
      <trkpt lat="43.23908" lon="5.47288">
        <ele>266.5</ele>
        <time>2016-03-28T09:41:01Z</time>
      </trkpt>
      <trkpt lat="43.23908" lon="5.47282">
        <ele>266.9</ele>
        <time>2016-03-28T09:41:02Z</time>
      </trkpt>
      <trkpt lat="43.23908" lon="5.47276">
        <ele>267.2</ele>
        <time>2016-03-28T09:41:03Z</time>
      </trkpt>
      <trkpt lat="43.23908" lon="5.47271">
        <ele>267.5</ele>
        <time>2016-03-28T09:41:04Z</time>
      </trkpt>
      <trkpt lat="43.23908" lon="5.47266">
        <ele>267.8</ele>
        <time>2016-03-28T09:41:05Z</time>
      </trkpt>
      <trkpt lat="43.23908" lon="5.47261">
        <ele>268</ele>
        <time>2016-03-28T09:41:06Z</time>
      </trkpt>
      <trkpt lat="43.23908" lon="5.47256">
        <ele>268.3</ele>
        <time>2016-03-28T09:41:07Z</time>
      </trkpt>
      <trkpt lat="43.23908" lon="5.47251">
        <ele>268.5</ele>
        <time>2016-03-28T09:41:08Z</time>
      </trkpt>
      <trkpt lat="43.23908" lon="5.47247">
        <ele>268.7</ele>
        <time>2016-03-28T09:41:09Z</time>
      </trkpt>
      <trkpt lat="43.23907" lon="5.47243">
        <ele>268.8</ele>
        <time>2016-03-28T09:41:10Z</time>
      </trkpt>
      <trkpt lat="43.23906" lon="5.47239">
        <ele>268.9</ele>
        <time>2016-03-28T09:41:11Z</time>
      </trkpt>
      <trkpt lat="43.23905" lon="5.47235">
        <ele>269</ele>
        <time>2016-03-28T09:41:12Z</time>
      </trkpt>
      <trkpt lat="43.23904" lon="5.47231">
        <ele>269.2</ele>
        <time>2016-03-28T09:41:13Z</time>
      </trkpt>
      <trkpt lat="43.23903" lon="5.47226">
        <ele>269.4</ele>
        <time>2016-03-28T09:41:14Z</time>
      </trkpt>
      <trkpt lat="43.23901" lon="5.47221">
        <ele>269.5</ele>
        <time>2016-03-28T09:41:15Z</time>
      </trkpt>
      <trkpt lat="43.23899" lon="5.47217">
        <ele>269.5</ele>
        <time>2016-03-28T09:41:16Z</time>
      </trkpt>
      <trkpt lat="43.23897" lon="5.47213">
        <ele>269.6</ele>
        <time>2016-03-28T09:41:17Z</time>
      </trkpt>
      <trkpt lat="43.23895" lon="5.47208">
        <ele>269.7</ele>
        <time>2016-03-28T09:41:18Z</time>
      </trkpt>
      <trkpt lat="43.23894" lon="5.47204">
        <ele>269.8</ele>
        <time>2016-03-28T09:41:19Z</time>
      </trkpt>
      <trkpt lat="43.23893" lon="5.47199">
        <ele>270</ele>
        <time>2016-03-28T09:41:20Z</time>
      </trkpt>
      <trkpt lat="43.23892" lon="5.47194">
        <ele>270.2</ele>
        <time>2016-03-28T09:41:21Z</time>
      </trkpt>
      <trkpt lat="43.23892" lon="5.47188">
        <ele>270.5</ele>
        <time>2016-03-28T09:41:22Z</time>
      </trkpt>
      <trkpt lat="43.23891" lon="5.47183">
        <ele>270.7</ele>
        <time>2016-03-28T09:41:23Z</time>
      </trkpt>
      <trkpt lat="43.23891" lon="5.47178">
        <ele>270.9</ele>
        <time>2016-03-28T09:41:24Z</time>
      </trkpt>
      <trkpt lat="43.2389" lon="5.47173">
        <ele>271.1</ele>
        <time>2016-03-28T09:41:25Z</time>
      </trkpt>
      <trkpt lat="43.2389" lon="5.47169">
        <ele>271.3</ele>
        <time>2016-03-28T09:41:26Z</time>
      </trkpt>
      <trkpt lat="43.23889" lon="5.47165">
        <ele>271.5</ele>
        <time>2016-03-28T09:41:27Z</time>
      </trkpt>
      <trkpt lat="43.23889" lon="5.47161">
        <ele>271.6</ele>
        <time>2016-03-28T09:41:28Z</time>
      </trkpt>
      <trkpt lat="43.23888" lon="5.47157">
        <ele>271.8</ele>
        <time>2016-03-28T09:41:29Z</time>
      </trkpt>
      <trkpt lat="43.23888" lon="5.47153">
        <ele>271.9</ele>
        <time>2016-03-28T09:41:30Z</time>
      </trkpt>
      <trkpt lat="43.23887" lon="5.47146">
        <ele>272.2</ele>
        <time>2016-03-28T09:41:32Z</time>
      </trkpt>
      <trkpt lat="43.23887" lon="5.47139">
        <ele>272.5</ele>
        <time>2016-03-28T09:41:34Z</time>
      </trkpt>
      <trkpt lat="43.23885" lon="5.47131">
        <ele>272.8</ele>
        <time>2016-03-28T09:41:36Z</time>
      </trkpt>
      <trkpt lat="43.23885" lon="5.47128">
        <ele>272.9</ele>
        <time>2016-03-28T09:41:37Z</time>
      </trkpt>
      <trkpt lat="43.23884" lon="5.47124">
        <ele>273</ele>
        <time>2016-03-28T09:41:38Z</time>
      </trkpt>
      <trkpt lat="43.23884" lon="5.4712">
        <ele>273.1</ele>
        <time>2016-03-28T09:41:39Z</time>
      </trkpt>
      <trkpt lat="43.23883" lon="5.47112">
        <ele>273.4</ele>
        <time>2016-03-28T09:41:41Z</time>
      </trkpt>
      <trkpt lat="43.23883" lon="5.47108">
        <ele>273.5</ele>
        <time>2016-03-28T09:41:42Z</time>
      </trkpt>
      <trkpt lat="43.23882" lon="5.47103">
        <ele>273.7</ele>
        <time>2016-03-28T09:41:43Z</time>
      </trkpt>
      <trkpt lat="43.23882" lon="5.47099">
        <ele>273.8</ele>
        <time>2016-03-28T09:41:44Z</time>
      </trkpt>
      <trkpt lat="43.23882" lon="5.47095">
        <ele>273.9</ele>
        <time>2016-03-28T09:41:45Z</time>
      </trkpt>
      <trkpt lat="43.23881" lon="5.4709">
        <ele>274</ele>
        <time>2016-03-28T09:41:46Z</time>
      </trkpt>
      <trkpt lat="43.23881" lon="5.47086">
        <ele>274.2</ele>
        <time>2016-03-28T09:41:47Z</time>
      </trkpt>
      <trkpt lat="43.2388" lon="5.47081">
        <ele>274.3</ele>
        <time>2016-03-28T09:41:48Z</time>
      </trkpt>
      <trkpt lat="43.2388" lon="5.47077">
        <ele>274.4</ele>
        <time>2016-03-28T09:41:49Z</time>
      </trkpt>
      <trkpt lat="43.2388" lon="5.47073">
        <ele>274.5</ele>
        <time>2016-03-28T09:41:50Z</time>
      </trkpt>
      <trkpt lat="43.23879" lon="5.4707">
        <ele>274.5</ele>
        <time>2016-03-28T09:41:51Z</time>
      </trkpt>
      <trkpt lat="43.23879" lon="5.47066">
        <ele>274.6</ele>
        <time>2016-03-28T09:41:52Z</time>
      </trkpt>
      <trkpt lat="43.23878" lon="5.47061">
        <ele>274.7</ele>
        <time>2016-03-28T09:41:53Z</time>
      </trkpt>
      <trkpt lat="43.23878" lon="5.47057">
        <ele>274.8</ele>
        <time>2016-03-28T09:41:54Z</time>
      </trkpt>
      <trkpt lat="43.23877" lon="5.47053">
        <ele>274.9</ele>
        <time>2016-03-28T09:41:55Z</time>
      </trkpt>
      <trkpt lat="43.23877" lon="5.47049">
        <ele>275</ele>
        <time>2016-03-28T09:41:56Z</time>
      </trkpt>
      <trkpt lat="43.23876" lon="5.47044">
        <ele>275.1</ele>
        <time>2016-03-28T09:41:57Z</time>
      </trkpt>
      <trkpt lat="43.23876" lon="5.4704">
        <ele>275.3</ele>
        <time>2016-03-28T09:41:58Z</time>
      </trkpt>
      <trkpt lat="43.23876" lon="5.47036">
        <ele>275.5</ele>
        <time>2016-03-28T09:41:59Z</time>
      </trkpt>
      <trkpt lat="43.23875" lon="5.47032">
        <ele>275.7</ele>
        <time>2016-03-28T09:42:00Z</time>
      </trkpt>
      <trkpt lat="43.23875" lon="5.47027">
        <ele>276</ele>
        <time>2016-03-28T09:42:01Z</time>
      </trkpt>
      <trkpt lat="43.23874" lon="5.47023">
        <ele>276.3</ele>
        <time>2016-03-28T09:42:02Z</time>
      </trkpt>
      <trkpt lat="43.23874" lon="5.47019">
        <ele>276.5</ele>
        <time>2016-03-28T09:42:03Z</time>
      </trkpt>
      <trkpt lat="43.23873" lon="5.47014">
        <ele>276.7</ele>
        <time>2016-03-28T09:42:04Z</time>
      </trkpt>
      <trkpt lat="43.23872" lon="5.4701">
        <ele>277</ele>
        <time>2016-03-28T09:42:05Z</time>
      </trkpt>
      <trkpt lat="43.23871" lon="5.47006">
        <ele>277.2</ele>
        <time>2016-03-28T09:42:06Z</time>
      </trkpt>
      <trkpt lat="43.23871" lon="5.47001">
        <ele>277.4</ele>
        <time>2016-03-28T09:42:07Z</time>
      </trkpt>
      <trkpt lat="43.2387" lon="5.46997">
        <ele>277.6</ele>
        <time>2016-03-28T09:42:08Z</time>
      </trkpt>
      <trkpt lat="43.23869" lon="5.46993">
        <ele>277.8</ele>
        <time>2016-03-28T09:42:09Z</time>
      </trkpt>
      <trkpt lat="43.23868" lon="5.46988">
        <ele>278</ele>
        <time>2016-03-28T09:42:10Z</time>
      </trkpt>
      <trkpt lat="43.23868" lon="5.46984">
        <ele>278.2</ele>
        <time>2016-03-28T09:42:11Z</time>
      </trkpt>
      <trkpt lat="43.23867" lon="5.4698">
        <ele>278.4</ele>
        <time>2016-03-28T09:42:12Z</time>
      </trkpt>
      <trkpt lat="43.23866" lon="5.46975">
        <ele>278.6</ele>
        <time>2016-03-28T09:42:13Z</time>
      </trkpt>
      <trkpt lat="43.23866" lon="5.46971">
        <ele>278.8</ele>
        <time>2016-03-28T09:42:14Z</time>
      </trkpt>
      <trkpt lat="43.23865" lon="5.46967">
        <ele>279</ele>
        <time>2016-03-28T09:42:15Z</time>
      </trkpt>
      <trkpt lat="43.23865" lon="5.46962">
        <ele>279.2</ele>
        <time>2016-03-28T09:42:16Z</time>
      </trkpt>
      <trkpt lat="43.23864" lon="5.46958">
        <ele>279.5</ele>
        <time>2016-03-28T09:42:17Z</time>
      </trkpt>
      <trkpt lat="43.23864" lon="5.46953">
        <ele>279.6</ele>
        <time>2016-03-28T09:42:18Z</time>
      </trkpt>
      <trkpt lat="43.23863" lon="5.46949">
        <ele>279.7</ele>
        <time>2016-03-28T09:42:19Z</time>
      </trkpt>
      <trkpt lat="43.23863" lon="5.46945">
        <ele>279.8</ele>
        <time>2016-03-28T09:42:20Z</time>
      </trkpt>
      <trkpt lat="43.23862" lon="5.46941">
        <ele>279.8</ele>
        <time>2016-03-28T09:42:21Z</time>
      </trkpt>
      <trkpt lat="43.23862" lon="5.46937">
        <ele>279.9</ele>
        <time>2016-03-28T09:42:22Z</time>
      </trkpt>
      <trkpt lat="43.23861" lon="5.46933">
        <ele>280</ele>
        <time>2016-03-28T09:42:23Z</time>
      </trkpt>
      <trkpt lat="43.23861" lon="5.46929">
        <ele>280.1</ele>
        <time>2016-03-28T09:42:24Z</time>
      </trkpt>
      <trkpt lat="43.23861" lon="5.46925">
        <ele>280.2</ele>
        <time>2016-03-28T09:42:25Z</time>
      </trkpt>
      <trkpt lat="43.2386" lon="5.46921">
        <ele>280.3</ele>
        <time>2016-03-28T09:42:26Z</time>
      </trkpt>
      <trkpt lat="43.2386" lon="5.46917">
        <ele>280.4</ele>
        <time>2016-03-28T09:42:27Z</time>
      </trkpt>
      <trkpt lat="43.23859" lon="5.46913">
        <ele>280.4</ele>
        <time>2016-03-28T09:42:28Z</time>
      </trkpt>
      <trkpt lat="43.23858" lon="5.46909">
        <ele>280.5</ele>
        <time>2016-03-28T09:42:29Z</time>
      </trkpt>
      <trkpt lat="43.23858" lon="5.46905">
        <ele>280.6</ele>
        <time>2016-03-28T09:42:30Z</time>
      </trkpt>
      <trkpt lat="43.23857" lon="5.46901">
        <ele>280.6</ele>
        <time>2016-03-28T09:42:31Z</time>
      </trkpt>
      <trkpt lat="43.23856" lon="5.46896">
        <ele>280.7</ele>
        <time>2016-03-28T09:42:32Z</time>
      </trkpt>
      <trkpt lat="43.23856" lon="5.46892">
        <ele>280.8</ele>
        <time>2016-03-28T09:42:33Z</time>
      </trkpt>
      <trkpt lat="43.23855" lon="5.46888">
        <ele>280.9</ele>
        <time>2016-03-28T09:42:34Z</time>
      </trkpt>
      <trkpt lat="43.23855" lon="5.46883">
        <ele>281</ele>
        <time>2016-03-28T09:42:35Z</time>
      </trkpt>
      <trkpt lat="43.23855" lon="5.46879">
        <ele>281.2</ele>
        <time>2016-03-28T09:42:36Z</time>
      </trkpt>
      <trkpt lat="43.23855" lon="5.46875">
        <ele>281.3</ele>
        <time>2016-03-28T09:42:37Z</time>
      </trkpt>
      <trkpt lat="43.23854" lon="5.46871">
        <ele>281.5</ele>
        <time>2016-03-28T09:42:38Z</time>
      </trkpt>
      <trkpt lat="43.23854" lon="5.46866">
        <ele>281.7</ele>
        <time>2016-03-28T09:42:39Z</time>
      </trkpt>
      <trkpt lat="43.23854" lon="5.46862">
        <ele>282</ele>
        <time>2016-03-28T09:42:40Z</time>
      </trkpt>
      <trkpt lat="43.23854" lon="5.46857">
        <ele>282.2</ele>
        <time>2016-03-28T09:42:41Z</time>
      </trkpt>
      <trkpt lat="43.23854" lon="5.46853">
        <ele>282.4</ele>
        <time>2016-03-28T09:42:42Z</time>
      </trkpt>
      <trkpt lat="43.23854" lon="5.46848">
        <ele>282.6</ele>
        <time>2016-03-28T09:42:43Z</time>
      </trkpt>
      <trkpt lat="43.23854" lon="5.46843">
        <ele>282.9</ele>
        <time>2016-03-28T09:42:44Z</time>
      </trkpt>
      <trkpt lat="43.23854" lon="5.46838">
        <ele>283.2</ele>
        <time>2016-03-28T09:42:45Z</time>
      </trkpt>
      <trkpt lat="43.23855" lon="5.46833">
        <ele>283.6</ele>
        <time>2016-03-28T09:42:46Z</time>
      </trkpt>
      <trkpt lat="43.23855" lon="5.46829">
        <ele>283.9</ele>
        <time>2016-03-28T09:42:47Z</time>
      </trkpt>
      <trkpt lat="43.23856" lon="5.46824">
        <ele>284.2</ele>
        <time>2016-03-28T09:42:48Z</time>
      </trkpt>
      <trkpt lat="43.23856" lon="5.4682">
        <ele>284.5</ele>
        <time>2016-03-28T09:42:49Z</time>
      </trkpt>
      <trkpt lat="43.23856" lon="5.46815">
        <ele>284.8</ele>
        <time>2016-03-28T09:42:50Z</time>
      </trkpt>
      <trkpt lat="43.23857" lon="5.4681">
        <ele>285.1</ele>
        <time>2016-03-28T09:42:51Z</time>
      </trkpt>
      <trkpt lat="43.23857" lon="5.46806">
        <ele>285.4</ele>
        <time>2016-03-28T09:42:52Z</time>
      </trkpt>
      <trkpt lat="43.23857" lon="5.46801">
        <ele>285.7</ele>
        <time>2016-03-28T09:42:53Z</time>
      </trkpt>
      <trkpt lat="43.23858" lon="5.46797">
        <ele>286</ele>
        <time>2016-03-28T09:42:54Z</time>
      </trkpt>
      <trkpt lat="43.23858" lon="5.46793">
        <ele>286.3</ele>
        <time>2016-03-28T09:42:55Z</time>
      </trkpt>
      <trkpt lat="43.23858" lon="5.46788">
        <ele>286.3</ele>
        <time>2016-03-28T09:42:56Z</time>
      </trkpt>
      <trkpt lat="43.23859" lon="5.46784">
        <ele>286.3</ele>
        <time>2016-03-28T09:42:57Z</time>
      </trkpt>
      <trkpt lat="43.2386" lon="5.4678">
        <ele>286.3</ele>
        <time>2016-03-28T09:42:58Z</time>
      </trkpt>
      <trkpt lat="43.2386" lon="5.46775">
        <ele>286.3</ele>
        <time>2016-03-28T09:42:59Z</time>
      </trkpt>
      <trkpt lat="43.23861" lon="5.46771">
        <ele>286.2</ele>
        <time>2016-03-28T09:43:00Z</time>
      </trkpt>
      <trkpt lat="43.23861" lon="5.46767">
        <ele>286.2</ele>
        <time>2016-03-28T09:43:01Z</time>
      </trkpt>
      <trkpt lat="43.23862" lon="5.46762">
        <ele>286.2</ele>
        <time>2016-03-28T09:43:02Z</time>
      </trkpt>
      <trkpt lat="43.23863" lon="5.46758">
        <ele>286.2</ele>
        <time>2016-03-28T09:43:03Z</time>
      </trkpt>
      <trkpt lat="43.23863" lon="5.46754">
        <ele>286.1</ele>
        <time>2016-03-28T09:43:04Z</time>
      </trkpt>
      <trkpt lat="43.23864" lon="5.4675">
        <ele>286.1</ele>
        <time>2016-03-28T09:43:05Z</time>
      </trkpt>
      <trkpt lat="43.23864" lon="5.46745">
        <ele>286</ele>
        <time>2016-03-28T09:43:06Z</time>
      </trkpt>
      <trkpt lat="43.23865" lon="5.46741">
        <ele>286</ele>
        <time>2016-03-28T09:43:07Z</time>
      </trkpt>
      <trkpt lat="43.23866" lon="5.46737">
        <ele>285.9</ele>
        <time>2016-03-28T09:43:08Z</time>
      </trkpt>
      <trkpt lat="43.23867" lon="5.46732">
        <ele>285.9</ele>
        <time>2016-03-28T09:43:09Z</time>
      </trkpt>
      <trkpt lat="43.23867" lon="5.46728">
        <ele>285.9</ele>
        <time>2016-03-28T09:43:10Z</time>
      </trkpt>
      <trkpt lat="43.23868" lon="5.46724">
        <ele>285.8</ele>
        <time>2016-03-28T09:43:11Z</time>
      </trkpt>
      <trkpt lat="43.23869" lon="5.4672">
        <ele>285.8</ele>
        <time>2016-03-28T09:43:12Z</time>
      </trkpt>
      <trkpt lat="43.2387" lon="5.46716">
        <ele>285.8</ele>
        <time>2016-03-28T09:43:13Z</time>
      </trkpt>
      <trkpt lat="43.23871" lon="5.46712">
        <ele>285.8</ele>
        <time>2016-03-28T09:43:14Z</time>
      </trkpt>
      <trkpt lat="43.23872" lon="5.46708">
        <ele>285.7</ele>
        <time>2016-03-28T09:43:15Z</time>
      </trkpt>
      <trkpt lat="43.23873" lon="5.46704">
        <ele>285.6</ele>
        <time>2016-03-28T09:43:16Z</time>
      </trkpt>
      <trkpt lat="43.23874" lon="5.467">
        <ele>285.5</ele>
        <time>2016-03-28T09:43:17Z</time>
      </trkpt>
      <trkpt lat="43.23876" lon="5.46696">
        <ele>285.5</ele>
        <time>2016-03-28T09:43:18Z</time>
      </trkpt>
      <trkpt lat="43.23877" lon="5.46692">
        <ele>285.5</ele>
        <time>2016-03-28T09:43:19Z</time>
      </trkpt>
      <trkpt lat="43.23878" lon="5.46688">
        <ele>285.5</ele>
        <time>2016-03-28T09:43:20Z</time>
      </trkpt>
      <trkpt lat="43.23879" lon="5.46684">
        <ele>285.5</ele>
        <time>2016-03-28T09:43:21Z</time>
      </trkpt>
      <trkpt lat="43.2388" lon="5.46681">
        <ele>285.6</ele>
        <time>2016-03-28T09:43:22Z</time>
      </trkpt>
      <trkpt lat="43.23882" lon="5.46677">
        <ele>285.6</ele>
        <time>2016-03-28T09:43:23Z</time>
      </trkpt>
      <trkpt lat="43.23883" lon="5.46673">
        <ele>285.7</ele>
        <time>2016-03-28T09:43:24Z</time>
      </trkpt>
      <trkpt lat="43.23885" lon="5.46669">
        <ele>285.8</ele>
        <time>2016-03-28T09:43:25Z</time>
      </trkpt>
      <trkpt lat="43.23887" lon="5.46665">
        <ele>285.9</ele>
        <time>2016-03-28T09:43:26Z</time>
      </trkpt>
      <trkpt lat="43.23889" lon="5.46661">
        <ele>286</ele>
        <time>2016-03-28T09:43:27Z</time>
      </trkpt>
      <trkpt lat="43.2389" lon="5.46657">
        <ele>286.1</ele>
        <time>2016-03-28T09:43:28Z</time>
      </trkpt>
      <trkpt lat="43.23892" lon="5.46653">
        <ele>286.3</ele>
        <time>2016-03-28T09:43:29Z</time>
      </trkpt>
      <trkpt lat="43.23894" lon="5.46649">
        <ele>286.4</ele>
        <time>2016-03-28T09:43:30Z</time>
      </trkpt>
      <trkpt lat="43.23896" lon="5.46646">
        <ele>286.5</ele>
        <time>2016-03-28T09:43:31Z</time>
      </trkpt>
      <trkpt lat="43.23898" lon="5.46642">
        <ele>286.6</ele>
        <time>2016-03-28T09:43:32Z</time>
      </trkpt>
      <trkpt lat="43.239" lon="5.46639">
        <ele>286.7</ele>
        <time>2016-03-28T09:43:33Z</time>
      </trkpt>
      <trkpt lat="43.23902" lon="5.46635">
        <ele>286.9</ele>
        <time>2016-03-28T09:43:34Z</time>
      </trkpt>
      <trkpt lat="43.23904" lon="5.46632">
        <ele>287</ele>
        <time>2016-03-28T09:43:35Z</time>
      </trkpt>
      <trkpt lat="43.23906" lon="5.46629">
        <ele>287.1</ele>
        <time>2016-03-28T09:43:36Z</time>
      </trkpt>
      <trkpt lat="43.23908" lon="5.46625">
        <ele>287.2</ele>
        <time>2016-03-28T09:43:37Z</time>
      </trkpt>
      <trkpt lat="43.23911" lon="5.46622">
        <ele>287.5</ele>
        <time>2016-03-28T09:43:38Z</time>
      </trkpt>
      <trkpt lat="43.23913" lon="5.46619">
        <ele>287.7</ele>
        <time>2016-03-28T09:43:39Z</time>
      </trkpt>
      <trkpt lat="43.23916" lon="5.46615">
        <ele>288</ele>
        <time>2016-03-28T09:43:40Z</time>
      </trkpt>
      <trkpt lat="43.23918" lon="5.46612">
        <ele>288.3</ele>
        <time>2016-03-28T09:43:41Z</time>
      </trkpt>
      <trkpt lat="43.23921" lon="5.46609">
        <ele>288.6</ele>
        <time>2016-03-28T09:43:42Z</time>
      </trkpt>
      <trkpt lat="43.23924" lon="5.46606">
        <ele>288.9</ele>
        <time>2016-03-28T09:43:43Z</time>
      </trkpt>
      <trkpt lat="43.23927" lon="5.46603">
        <ele>289.3</ele>
        <time>2016-03-28T09:43:44Z</time>
      </trkpt>
      <trkpt lat="43.2393" lon="5.46601">
        <ele>289.6</ele>
        <time>2016-03-28T09:43:45Z</time>
      </trkpt>
      <trkpt lat="43.23933" lon="5.46598">
        <ele>290</ele>
        <time>2016-03-28T09:43:46Z</time>
      </trkpt>
      <trkpt lat="43.23936" lon="5.46595">
        <ele>290.3</ele>
        <time>2016-03-28T09:43:47Z</time>
      </trkpt>
      <trkpt lat="43.23939" lon="5.46593">
        <ele>290.7</ele>
        <time>2016-03-28T09:43:48Z</time>
      </trkpt>
      <trkpt lat="43.23942" lon="5.4659">
        <ele>291</ele>
        <time>2016-03-28T09:43:49Z</time>
      </trkpt>
      <trkpt lat="43.23945" lon="5.46588">
        <ele>291.3</ele>
        <time>2016-03-28T09:43:50Z</time>
      </trkpt>
      <trkpt lat="43.23948" lon="5.46585">
        <ele>291.7</ele>
        <time>2016-03-28T09:43:51Z</time>
      </trkpt>
      <trkpt lat="43.23952" lon="5.46583">
        <ele>292</ele>
        <time>2016-03-28T09:43:52Z</time>
      </trkpt>
      <trkpt lat="43.23955" lon="5.46581">
        <ele>292.4</ele>
        <time>2016-03-28T09:43:53Z</time>
      </trkpt>
      <trkpt lat="43.23958" lon="5.46578">
        <ele>292.7</ele>
        <time>2016-03-28T09:43:54Z</time>
      </trkpt>
      <trkpt lat="43.23961" lon="5.46576">
        <ele>293</ele>
        <time>2016-03-28T09:43:55Z</time>
      </trkpt>
      <trkpt lat="43.23964" lon="5.46573">
        <ele>293.2</ele>
        <time>2016-03-28T09:43:56Z</time>
      </trkpt>
      <trkpt lat="43.23967" lon="5.46571">
        <ele>293.4</ele>
        <time>2016-03-28T09:43:57Z</time>
      </trkpt>
      <trkpt lat="43.23969" lon="5.46568">
        <ele>293.6</ele>
        <time>2016-03-28T09:43:58Z</time>
      </trkpt>
      <trkpt lat="43.23972" lon="5.46565">
        <ele>293.8</ele>
        <time>2016-03-28T09:43:59Z</time>
      </trkpt>
      <trkpt lat="43.23975" lon="5.46563">
        <ele>294</ele>
        <time>2016-03-28T09:44:00Z</time>
      </trkpt>
      <trkpt lat="43.23977" lon="5.4656">
        <ele>294.2</ele>
        <time>2016-03-28T09:44:01Z</time>
      </trkpt>
      <trkpt lat="43.2398" lon="5.46557">
        <ele>294.4</ele>
        <time>2016-03-28T09:44:02Z</time>
      </trkpt>
      <trkpt lat="43.23983" lon="5.46554">
        <ele>294.6</ele>
        <time>2016-03-28T09:44:03Z</time>
      </trkpt>
      <trkpt lat="43.23985" lon="5.46551">
        <ele>294.7</ele>
        <time>2016-03-28T09:44:04Z</time>
      </trkpt>
      <trkpt lat="43.23988" lon="5.46548">
        <ele>294.9</ele>
        <time>2016-03-28T09:44:05Z</time>
      </trkpt>
      <trkpt lat="43.2399" lon="5.46544">
        <ele>295</ele>
        <time>2016-03-28T09:44:06Z</time>
      </trkpt>
      <trkpt lat="43.23992" lon="5.46541">
        <ele>295.1</ele>
        <time>2016-03-28T09:44:07Z</time>
      </trkpt>
      <trkpt lat="43.23995" lon="5.46538">
        <ele>295.5</ele>
        <time>2016-03-28T09:44:08Z</time>
      </trkpt>
      <trkpt lat="43.23997" lon="5.46534">
        <ele>295.9</ele>
        <time>2016-03-28T09:44:09Z</time>
      </trkpt>
      <trkpt lat="43.23998" lon="5.46531">
        <ele>296.3</ele>
        <time>2016-03-28T09:44:10Z</time>
      </trkpt>
      <trkpt lat="43.24" lon="5.46527">
        <ele>296.7</ele>
        <time>2016-03-28T09:44:11Z</time>
      </trkpt>
      <trkpt lat="43.24002" lon="5.46524">
        <ele>297.1</ele>
        <time>2016-03-28T09:44:12Z</time>
      </trkpt>
      <trkpt lat="43.24003" lon="5.4652">
        <ele>297.4</ele>
        <time>2016-03-28T09:44:13Z</time>
      </trkpt>
      <trkpt lat="43.24004" lon="5.46516">
        <ele>297.8</ele>
        <time>2016-03-28T09:44:14Z</time>
      </trkpt>
      <trkpt lat="43.24005" lon="5.46512">
        <ele>298.1</ele>
        <time>2016-03-28T09:44:15Z</time>
      </trkpt>
      <trkpt lat="43.24006" lon="5.46509">
        <ele>298.5</ele>
        <time>2016-03-28T09:44:16Z</time>
      </trkpt>
      <trkpt lat="43.24007" lon="5.46505">
        <ele>298.8</ele>
        <time>2016-03-28T09:44:17Z</time>
      </trkpt>
      <trkpt lat="43.24008" lon="5.46501">
        <ele>299.1</ele>
        <time>2016-03-28T09:44:18Z</time>
      </trkpt>
      <trkpt lat="43.24009" lon="5.46494">
        <ele>299.6</ele>
        <time>2016-03-28T09:44:20Z</time>
      </trkpt>
      <trkpt lat="43.2401" lon="5.46487">
        <ele>300.1</ele>
        <time>2016-03-28T09:44:22Z</time>
      </trkpt>
      <trkpt lat="43.24011" lon="5.4648">
        <ele>300.6</ele>
        <time>2016-03-28T09:44:24Z</time>
      </trkpt>
      <trkpt lat="43.24011" lon="5.46473">
        <ele>301</ele>
        <time>2016-03-28T09:44:26Z</time>
      </trkpt>
      <trkpt lat="43.24011" lon="5.46469">
        <ele>301.3</ele>
        <time>2016-03-28T09:44:27Z</time>
      </trkpt>
      <trkpt lat="43.24011" lon="5.46465">
        <ele>301.5</ele>
        <time>2016-03-28T09:44:28Z</time>
      </trkpt>
      <trkpt lat="43.24011" lon="5.46461">
        <ele>301.7</ele>
        <time>2016-03-28T09:44:29Z</time>
      </trkpt>
      <trkpt lat="43.24011" lon="5.46457">
        <ele>301.9</ele>
        <time>2016-03-28T09:44:30Z</time>
      </trkpt>
      <trkpt lat="43.24011" lon="5.46453">
        <ele>302.2</ele>
        <time>2016-03-28T09:44:31Z</time>
      </trkpt>
      <trkpt lat="43.24011" lon="5.46448">
        <ele>302.6</ele>
        <time>2016-03-28T09:44:32Z</time>
      </trkpt>
      <trkpt lat="43.2401" lon="5.46443">
        <ele>302.9</ele>
        <time>2016-03-28T09:44:33Z</time>
      </trkpt>
      <trkpt lat="43.2401" lon="5.46439">
        <ele>303.2</ele>
        <time>2016-03-28T09:44:34Z</time>
      </trkpt>
      <trkpt lat="43.2401" lon="5.46434">
        <ele>303.4</ele>
        <time>2016-03-28T09:44:35Z</time>
      </trkpt>
      <trkpt lat="43.24009" lon="5.46429">
        <ele>303.7</ele>
        <time>2016-03-28T09:44:36Z</time>
      </trkpt>
      <trkpt lat="43.24008" lon="5.46425">
        <ele>303.9</ele>
        <time>2016-03-28T09:44:37Z</time>
      </trkpt>
      <trkpt lat="43.24007" lon="5.4642">
        <ele>304.1</ele>
        <time>2016-03-28T09:44:38Z</time>
      </trkpt>
      <trkpt lat="43.24006" lon="5.46415">
        <ele>304.2</ele>
        <time>2016-03-28T09:44:39Z</time>
      </trkpt>
      <trkpt lat="43.24006" lon="5.4641">
        <ele>304.4</ele>
        <time>2016-03-28T09:44:40Z</time>
      </trkpt>
      <trkpt lat="43.24004" lon="5.46405">
        <ele>304.5</ele>
        <time>2016-03-28T09:44:41Z</time>
      </trkpt>
      <trkpt lat="43.24003" lon="5.46401">
        <ele>304.5</ele>
        <time>2016-03-28T09:44:42Z</time>
      </trkpt>
      <trkpt lat="43.24002" lon="5.46396">
        <ele>304.6</ele>
        <time>2016-03-28T09:44:43Z</time>
      </trkpt>
      <trkpt lat="43.24001" lon="5.46391">
        <ele>304.6</ele>
        <time>2016-03-28T09:44:44Z</time>
      </trkpt>
      <trkpt lat="43.24" lon="5.46387">
        <ele>304.7</ele>
        <time>2016-03-28T09:44:45Z</time>
      </trkpt>
      <trkpt lat="43.23999" lon="5.46382">
        <ele>304.7</ele>
        <time>2016-03-28T09:44:46Z</time>
      </trkpt>
      <trkpt lat="43.23998" lon="5.46378">
        <ele>304.8</ele>
        <time>2016-03-28T09:44:47Z</time>
      </trkpt>
      <trkpt lat="43.23997" lon="5.46373">
        <ele>304.9</ele>
        <time>2016-03-28T09:44:48Z</time>
      </trkpt>
      <trkpt lat="43.23996" lon="5.46369">
        <ele>305</ele>
        <time>2016-03-28T09:44:49Z</time>
      </trkpt>
      <trkpt lat="43.23996" lon="5.46364">
        <ele>305.2</ele>
        <time>2016-03-28T09:44:50Z</time>
      </trkpt>
      <trkpt lat="43.23995" lon="5.46359">
        <ele>305.4</ele>
        <time>2016-03-28T09:44:51Z</time>
      </trkpt>
      <trkpt lat="43.23994" lon="5.46355">
        <ele>305.6</ele>
        <time>2016-03-28T09:44:52Z</time>
      </trkpt>
      <trkpt lat="43.23993" lon="5.4635">
        <ele>305.7</ele>
        <time>2016-03-28T09:44:53Z</time>
      </trkpt>
      <trkpt lat="43.23992" lon="5.46346">
        <ele>305.8</ele>
        <time>2016-03-28T09:44:54Z</time>
      </trkpt>
      <trkpt lat="43.23991" lon="5.46341">
        <ele>305.9</ele>
        <time>2016-03-28T09:44:55Z</time>
      </trkpt>
      <trkpt lat="43.2399" lon="5.46336">
        <ele>306</ele>
        <time>2016-03-28T09:44:56Z</time>
      </trkpt>
      <trkpt lat="43.23989" lon="5.46332">
        <ele>306.1</ele>
        <time>2016-03-28T09:44:57Z</time>
      </trkpt>
      <trkpt lat="43.23988" lon="5.46327">
        <ele>306.2</ele>
        <time>2016-03-28T09:44:58Z</time>
      </trkpt>
      <trkpt lat="43.23987" lon="5.46323">
        <ele>306.3</ele>
        <time>2016-03-28T09:44:59Z</time>
      </trkpt>
      <trkpt lat="43.23986" lon="5.46319">
        <ele>306.3</ele>
        <time>2016-03-28T09:45:00Z</time>
      </trkpt>
      <trkpt lat="43.23985" lon="5.46315">
        <ele>306.3</ele>
        <time>2016-03-28T09:45:01Z</time>
      </trkpt>
      <trkpt lat="43.23984" lon="5.46311">
        <ele>306.4</ele>
        <time>2016-03-28T09:45:02Z</time>
      </trkpt>
      <trkpt lat="43.23983" lon="5.46306">
        <ele>306.4</ele>
        <time>2016-03-28T09:45:03Z</time>
      </trkpt>
      <trkpt lat="43.23982" lon="5.46302">
        <ele>306.4</ele>
        <time>2016-03-28T09:45:04Z</time>
      </trkpt>
      <trkpt lat="43.23981" lon="5.46297">
        <ele>306.5</ele>
        <time>2016-03-28T09:45:05Z</time>
      </trkpt>
      <trkpt lat="43.2398" lon="5.46293">
        <ele>306.6</ele>
        <time>2016-03-28T09:45:06Z</time>
      </trkpt>
      <trkpt lat="43.23979" lon="5.46288">
        <ele>306.4</ele>
        <time>2016-03-28T09:45:07Z</time>
      </trkpt>
      <trkpt lat="43.23978" lon="5.46284">
        <ele>306.1</ele>
        <time>2016-03-28T09:45:08Z</time>
      </trkpt>
      <trkpt lat="43.23977" lon="5.4628">
        <ele>305.8</ele>
        <time>2016-03-28T09:45:09Z</time>
      </trkpt>
      <trkpt lat="43.23975" lon="5.46276">
        <ele>305.5</ele>
        <time>2016-03-28T09:45:10Z</time>
      </trkpt>
      <trkpt lat="43.23974" lon="5.46272">
        <ele>305.2</ele>
        <time>2016-03-28T09:45:11Z</time>
      </trkpt>
      <trkpt lat="43.23973" lon="5.46268">
        <ele>305</ele>
        <time>2016-03-28T09:45:12Z</time>
      </trkpt>
      <trkpt lat="43.23973" lon="5.46264">
        <ele>304.7</ele>
        <time>2016-03-28T09:45:13Z</time>
      </trkpt>
      <trkpt lat="43.23972" lon="5.46259">
        <ele>304.6</ele>
        <time>2016-03-28T09:45:14Z</time>
      </trkpt>
      <trkpt lat="43.23971" lon="5.46255">
        <ele>304.4</ele>
        <time>2016-03-28T09:45:15Z</time>
      </trkpt>
      <trkpt lat="43.23971" lon="5.4625">
        <ele>304.2</ele>
        <time>2016-03-28T09:45:16Z</time>
      </trkpt>
      <trkpt lat="43.2397" lon="5.46246">
        <ele>304</ele>
        <time>2016-03-28T09:45:17Z</time>
      </trkpt>
      <trkpt lat="43.23969" lon="5.46242">
        <ele>303.8</ele>
        <time>2016-03-28T09:45:18Z</time>
      </trkpt>
      <trkpt lat="43.23968" lon="5.46238">
        <ele>303.6</ele>
        <time>2016-03-28T09:45:19Z</time>
      </trkpt>
      <trkpt lat="43.23967" lon="5.46234">
        <ele>303.4</ele>
        <time>2016-03-28T09:45:20Z</time>
      </trkpt>
      <trkpt lat="43.23966" lon="5.46229">
        <ele>303.1</ele>
        <time>2016-03-28T09:45:21Z</time>
      </trkpt>
      <trkpt lat="43.23966" lon="5.46224">
        <ele>302.9</ele>
        <time>2016-03-28T09:45:22Z</time>
      </trkpt>
      <trkpt lat="43.23965" lon="5.4622">
        <ele>302.7</ele>
        <time>2016-03-28T09:45:23Z</time>
      </trkpt>
      <trkpt lat="43.23964" lon="5.46216">
        <ele>302.5</ele>
        <time>2016-03-28T09:45:24Z</time>
      </trkpt>
      <trkpt lat="43.23963" lon="5.46211">
        <ele>302.3</ele>
        <time>2016-03-28T09:45:25Z</time>
      </trkpt>
      <trkpt lat="43.23963" lon="5.46206">
        <ele>302.1</ele>
        <time>2016-03-28T09:45:26Z</time>
      </trkpt>
      <trkpt lat="43.23962" lon="5.46202">
        <ele>301.8</ele>
        <time>2016-03-28T09:45:27Z</time>
      </trkpt>
      <trkpt lat="43.23961" lon="5.46198">
        <ele>301.5</ele>
        <time>2016-03-28T09:45:28Z</time>
      </trkpt>
      <trkpt lat="43.23961" lon="5.46194">
        <ele>301.3</ele>
        <time>2016-03-28T09:45:29Z</time>
      </trkpt>
      <trkpt lat="43.23961" lon="5.4619">
        <ele>301.1</ele>
        <time>2016-03-28T09:45:30Z</time>
      </trkpt>
      <trkpt lat="43.23961" lon="5.46186">
        <ele>301</ele>
        <time>2016-03-28T09:45:31Z</time>
      </trkpt>
      <trkpt lat="43.23961" lon="5.46182">
        <ele>301</ele>
        <time>2016-03-28T09:45:32Z</time>
      </trkpt>
      <trkpt lat="43.23961" lon="5.46177">
        <ele>300.9</ele>
        <time>2016-03-28T09:45:33Z</time>
      </trkpt>
      <trkpt lat="43.23962" lon="5.46173">
        <ele>300.9</ele>
        <time>2016-03-28T09:45:34Z</time>
      </trkpt>
      <trkpt lat="43.23962" lon="5.46169">
        <ele>301</ele>
        <time>2016-03-28T09:45:35Z</time>
      </trkpt>
      <trkpt lat="43.23963" lon="5.46164">
        <ele>301.1</ele>
        <time>2016-03-28T09:45:36Z</time>
      </trkpt>
      <trkpt lat="43.23964" lon="5.4616">
        <ele>301.2</ele>
        <time>2016-03-28T09:45:37Z</time>
      </trkpt>
      <trkpt lat="43.23965" lon="5.46156">
        <ele>301.3</ele>
        <time>2016-03-28T09:45:38Z</time>
      </trkpt>
      <trkpt lat="43.23967" lon="5.46152">
        <ele>301.5</ele>
        <time>2016-03-28T09:45:39Z</time>
      </trkpt>
      <trkpt lat="43.23969" lon="5.46148">
        <ele>301.7</ele>
        <time>2016-03-28T09:45:40Z</time>
      </trkpt>
      <trkpt lat="43.2397" lon="5.46145">
        <ele>301.9</ele>
        <time>2016-03-28T09:45:41Z</time>
      </trkpt>
      <trkpt lat="43.23972" lon="5.46142">
        <ele>302.2</ele>
        <time>2016-03-28T09:45:42Z</time>
      </trkpt>
      <trkpt lat="43.23973" lon="5.46139">
        <ele>302.4</ele>
        <time>2016-03-28T09:45:43Z</time>
      </trkpt>
      <trkpt lat="43.23975" lon="5.46136">
        <ele>302.6</ele>
        <time>2016-03-28T09:45:44Z</time>
      </trkpt>
      <trkpt lat="43.23977" lon="5.46133">
        <ele>302.9</ele>
        <time>2016-03-28T09:45:45Z</time>
      </trkpt>
      <trkpt lat="43.23979" lon="5.4613">
        <ele>303.1</ele>
        <time>2016-03-28T09:45:46Z</time>
      </trkpt>
      <trkpt lat="43.23983" lon="5.46125">
        <ele>303.7</ele>
        <time>2016-03-28T09:45:48Z</time>
      </trkpt>
      <trkpt lat="43.23985" lon="5.46122">
        <ele>304</ele>
        <time>2016-03-28T09:45:49Z</time>
      </trkpt>
      <trkpt lat="43.23987" lon="5.4612">
        <ele>304.4</ele>
        <time>2016-03-28T09:45:50Z</time>
      </trkpt>
      <trkpt lat="43.2399" lon="5.46117">
        <ele>304.8</ele>
        <time>2016-03-28T09:45:51Z</time>
      </trkpt>
      <trkpt lat="43.23992" lon="5.46114">
        <ele>305.2</ele>
        <time>2016-03-28T09:45:52Z</time>
      </trkpt>
      <trkpt lat="43.23996" lon="5.46112">
        <ele>305.7</ele>
        <time>2016-03-28T09:45:53Z</time>
      </trkpt>
      <trkpt lat="43.23999" lon="5.4611">
        <ele>306.3</ele>
        <time>2016-03-28T09:45:54Z</time>
      </trkpt>
      <trkpt lat="43.24002" lon="5.46108">
        <ele>306.7</ele>
        <time>2016-03-28T09:45:55Z</time>
      </trkpt>
      <trkpt lat="43.24005" lon="5.46106">
        <ele>307.2</ele>
        <time>2016-03-28T09:45:56Z</time>
      </trkpt>
      <trkpt lat="43.24008" lon="5.46105">
        <ele>307.6</ele>
        <time>2016-03-28T09:45:57Z</time>
      </trkpt>
      <trkpt lat="43.24011" lon="5.46104">
        <ele>308.1</ele>
        <time>2016-03-28T09:45:58Z</time>
      </trkpt>
      <trkpt lat="43.24014" lon="5.46103">
        <ele>308.5</ele>
        <time>2016-03-28T09:45:59Z</time>
      </trkpt>
      <trkpt lat="43.24017" lon="5.46103">
        <ele>309</ele>
        <time>2016-03-28T09:46:00Z</time>
      </trkpt>
      <trkpt lat="43.2402" lon="5.46102">
        <ele>309.5</ele>
        <time>2016-03-28T09:46:01Z</time>
      </trkpt>
      <trkpt lat="43.24023" lon="5.46102">
        <ele>310</ele>
        <time>2016-03-28T09:46:02Z</time>
      </trkpt>
      <trkpt lat="43.24026" lon="5.46103">
        <ele>310.5</ele>
        <time>2016-03-28T09:46:03Z</time>
      </trkpt>
      <trkpt lat="43.24029" lon="5.46103">
        <ele>311.1</ele>
        <time>2016-03-28T09:46:04Z</time>
      </trkpt>
      <trkpt lat="43.24034" lon="5.46103">
        <ele>312</ele>
        <time>2016-03-28T09:46:06Z</time>
      </trkpt>
      <trkpt lat="43.24039" lon="5.46103">
        <ele>312.7</ele>
        <time>2016-03-28T09:46:08Z</time>
      </trkpt>
      <trkpt lat="43.24044" lon="5.46103">
        <ele>313.4</ele>
        <time>2016-03-28T09:46:10Z</time>
      </trkpt>
      <trkpt lat="43.24049" lon="5.46102">
        <ele>314</ele>
        <time>2016-03-28T09:46:12Z</time>
      </trkpt>
      <trkpt lat="43.24054" lon="5.461">
        <ele>314.5</ele>
        <time>2016-03-28T09:46:14Z</time>
      </trkpt>
      <trkpt lat="43.24057" lon="5.46099">
        <ele>314.8</ele>
        <time>2016-03-28T09:46:15Z</time>
      </trkpt>
      <trkpt lat="43.24059" lon="5.46098">
        <ele>315</ele>
        <time>2016-03-28T09:46:16Z</time>
      </trkpt>
      <trkpt lat="43.24062" lon="5.46096">
        <ele>315.3</ele>
        <time>2016-03-28T09:46:17Z</time>
      </trkpt>
      <trkpt lat="43.24066" lon="5.46093">
        <ele>315.8</ele>
        <time>2016-03-28T09:46:19Z</time>
      </trkpt>
      <trkpt lat="43.24071" lon="5.4609">
        <ele>316.3</ele>
        <time>2016-03-28T09:46:21Z</time>
      </trkpt>
      <trkpt lat="43.24076" lon="5.46087">
        <ele>316.7</ele>
        <time>2016-03-28T09:46:23Z</time>
      </trkpt>
      <trkpt lat="43.2408" lon="5.46082">
        <ele>317.2</ele>
        <time>2016-03-28T09:46:25Z</time>
      </trkpt>
      <trkpt lat="43.24082" lon="5.4608">
        <ele>317.4</ele>
        <time>2016-03-28T09:46:26Z</time>
      </trkpt>
      <trkpt lat="43.24084" lon="5.46077">
        <ele>317.7</ele>
        <time>2016-03-28T09:46:27Z</time>
      </trkpt>
      <trkpt lat="43.24086" lon="5.46074">
        <ele>317.8</ele>
        <time>2016-03-28T09:46:28Z</time>
      </trkpt>
      <trkpt lat="43.24088" lon="5.46071">
        <ele>318</ele>
        <time>2016-03-28T09:46:29Z</time>
      </trkpt>
      <trkpt lat="43.24091" lon="5.46065">
        <ele>318.3</ele>
        <time>2016-03-28T09:46:31Z</time>
      </trkpt>
      <trkpt lat="43.24093" lon="5.46059">
        <ele>318.5</ele>
        <time>2016-03-28T09:46:33Z</time>
      </trkpt>
      <trkpt lat="43.24095" lon="5.46052">
        <ele>318.6</ele>
        <time>2016-03-28T09:46:35Z</time>
      </trkpt>
      <trkpt lat="43.24097" lon="5.46046">
        <ele>318.7</ele>
        <time>2016-03-28T09:46:37Z</time>
      </trkpt>
      <trkpt lat="43.24098" lon="5.46042">
        <ele>318.8</ele>
        <time>2016-03-28T09:46:38Z</time>
      </trkpt>
      <trkpt lat="43.24098" lon="5.46038">
        <ele>319.3</ele>
        <time>2016-03-28T09:46:39Z</time>
      </trkpt>
      <trkpt lat="43.24099" lon="5.46034">
        <ele>319.8</ele>
        <time>2016-03-28T09:46:40Z</time>
      </trkpt>
      <trkpt lat="43.24099" lon="5.46031">
        <ele>320.3</ele>
        <time>2016-03-28T09:46:41Z</time>
      </trkpt>
      <trkpt lat="43.241" lon="5.46027">
        <ele>320.8</ele>
        <time>2016-03-28T09:46:42Z</time>
      </trkpt>
      <trkpt lat="43.241" lon="5.46023">
        <ele>321.3</ele>
        <time>2016-03-28T09:46:43Z</time>
      </trkpt>
      <trkpt lat="43.241" lon="5.46018">
        <ele>321.7</ele>
        <time>2016-03-28T09:46:44Z</time>
      </trkpt>
      <trkpt lat="43.241" lon="5.46014">
        <ele>322.2</ele>
        <time>2016-03-28T09:46:45Z</time>
      </trkpt>
      <trkpt lat="43.241" lon="5.46011">
        <ele>322.5</ele>
        <time>2016-03-28T09:46:46Z</time>
      </trkpt>
      <trkpt lat="43.24099" lon="5.46007">
        <ele>322.8</ele>
        <time>2016-03-28T09:46:47Z</time>
      </trkpt>
      <trkpt lat="43.24099" lon="5.46002">
        <ele>323.2</ele>
        <time>2016-03-28T09:46:48Z</time>
      </trkpt>
      <trkpt lat="43.24098" lon="5.45998">
        <ele>323.5</ele>
        <time>2016-03-28T09:46:49Z</time>
      </trkpt>
      <trkpt lat="43.24097" lon="5.45993">
        <ele>323.9</ele>
        <time>2016-03-28T09:46:50Z</time>
      </trkpt>
      <trkpt lat="43.24096" lon="5.45988">
        <ele>324.2</ele>
        <time>2016-03-28T09:46:51Z</time>
      </trkpt>
      <trkpt lat="43.24095" lon="5.45983">
        <ele>324.4</ele>
        <time>2016-03-28T09:46:52Z</time>
      </trkpt>
      <trkpt lat="43.24094" lon="5.45978">
        <ele>324.7</ele>
        <time>2016-03-28T09:46:53Z</time>
      </trkpt>
      <trkpt lat="43.24092" lon="5.45972">
        <ele>324.9</ele>
        <time>2016-03-28T09:46:54Z</time>
      </trkpt>
      <trkpt lat="43.24091" lon="5.45967">
        <ele>325.1</ele>
        <time>2016-03-28T09:46:55Z</time>
      </trkpt>
      <trkpt lat="43.2409" lon="5.45962">
        <ele>325.3</ele>
        <time>2016-03-28T09:46:56Z</time>
      </trkpt>
      <trkpt lat="43.24088" lon="5.45956">
        <ele>325.4</ele>
        <time>2016-03-28T09:46:57Z</time>
      </trkpt>
      <trkpt lat="43.24086" lon="5.4595">
        <ele>325.5</ele>
        <time>2016-03-28T09:46:58Z</time>
      </trkpt>
      <trkpt lat="43.24084" lon="5.45945">
        <ele>325.5</ele>
        <time>2016-03-28T09:46:59Z</time>
      </trkpt>
      <trkpt lat="43.24083" lon="5.45939">
        <ele>325.6</ele>
        <time>2016-03-28T09:47:00Z</time>
      </trkpt>
      <trkpt lat="43.24079" lon="5.45931">
        <ele>325.5</ele>
        <time>2016-03-28T09:47:01Z</time>
      </trkpt>
      <trkpt lat="43.24078" lon="5.45925">
        <ele>325.5</ele>
        <time>2016-03-28T09:47:02Z</time>
      </trkpt>
      <trkpt lat="43.24075" lon="5.4592">
        <ele>325.5</ele>
        <time>2016-03-28T09:47:03Z</time>
      </trkpt>
      <trkpt lat="43.24073" lon="5.45914">
        <ele>325.5</ele>
        <time>2016-03-28T09:47:04Z</time>
      </trkpt>
      <trkpt lat="43.24072" lon="5.45908">
        <ele>325.6</ele>
        <time>2016-03-28T09:47:05Z</time>
      </trkpt>
      <trkpt lat="43.2407" lon="5.45902">
        <ele>325.9</ele>
        <time>2016-03-28T09:47:06Z</time>
      </trkpt>
      <trkpt lat="43.24069" lon="5.45896">
        <ele>326.1</ele>
        <time>2016-03-28T09:47:07Z</time>
      </trkpt>
      <trkpt lat="43.24067" lon="5.45888">
        <ele>326.4</ele>
        <time>2016-03-28T09:47:08Z</time>
      </trkpt>
      <trkpt lat="43.24065" lon="5.45883">
        <ele>326.4</ele>
        <time>2016-03-28T09:47:09Z</time>
      </trkpt>
      <trkpt lat="43.24063" lon="5.45878">
        <ele>326.6</ele>
        <time>2016-03-28T09:47:10Z</time>
      </trkpt>
      <trkpt lat="43.24061" lon="5.45872">
        <ele>326.5</ele>
        <time>2016-03-28T09:47:11Z</time>
      </trkpt>
      <trkpt lat="43.2406" lon="5.45866">
        <ele>326.4</ele>
        <time>2016-03-28T09:47:12Z</time>
      </trkpt>
      <trkpt lat="43.24058" lon="5.4586">
        <ele>326.3</ele>
        <time>2016-03-28T09:47:13Z</time>
      </trkpt>
      <trkpt lat="43.24056" lon="5.45855">
        <ele>326</ele>
        <time>2016-03-28T09:47:14Z</time>
      </trkpt>
      <trkpt lat="43.24053" lon="5.4585">
        <ele>325.5</ele>
        <time>2016-03-28T09:47:15Z</time>
      </trkpt>
      <trkpt lat="43.24052" lon="5.45843">
        <ele>325.5</ele>
        <time>2016-03-28T09:47:16Z</time>
      </trkpt>
      <trkpt lat="43.24051" lon="5.45836">
        <ele>325.6</ele>
        <time>2016-03-28T09:47:17Z</time>
      </trkpt>
      <trkpt lat="43.2405" lon="5.45829">
        <ele>325.7</ele>
        <time>2016-03-28T09:47:18Z</time>
      </trkpt>
      <trkpt lat="43.24049" lon="5.45823">
        <ele>325.7</ele>
        <time>2016-03-28T09:47:19Z</time>
      </trkpt>
      <trkpt lat="43.24047" lon="5.45817">
        <ele>325.7</ele>
        <time>2016-03-28T09:47:20Z</time>
      </trkpt>
      <trkpt lat="43.24045" lon="5.4581">
        <ele>325.7</ele>
        <time>2016-03-28T09:47:21Z</time>
      </trkpt>
      <trkpt lat="43.24043" lon="5.45804">
        <ele>325.6</ele>
        <time>2016-03-28T09:47:22Z</time>
      </trkpt>
      <trkpt lat="43.24041" lon="5.45797">
        <ele>325.7</ele>
        <time>2016-03-28T09:47:23Z</time>
      </trkpt>
      <trkpt lat="43.24039" lon="5.4579">
        <ele>325.9</ele>
        <time>2016-03-28T09:47:24Z</time>
      </trkpt>
      <trkpt lat="43.24037" lon="5.45784">
        <ele>325.8</ele>
        <time>2016-03-28T09:47:25Z</time>
      </trkpt>
      <trkpt lat="43.24035" lon="5.45775">
        <ele>325.7</ele>
        <time>2016-03-28T09:47:26Z</time>
      </trkpt>
      <trkpt lat="43.24033" lon="5.45769">
        <ele>325.6</ele>
        <time>2016-03-28T09:47:27Z</time>
      </trkpt>
      <trkpt lat="43.2403" lon="5.45761">
        <ele>325.4</ele>
        <time>2016-03-28T09:47:28Z</time>
      </trkpt>
      <trkpt lat="43.24028" lon="5.45754">
        <ele>325.2</ele>
        <time>2016-03-28T09:47:29Z</time>
      </trkpt>
      <trkpt lat="43.24025" lon="5.45747">
        <ele>325</ele>
        <time>2016-03-28T09:47:30Z</time>
      </trkpt>
      <trkpt lat="43.24023" lon="5.4574">
        <ele>324.8</ele>
        <time>2016-03-28T09:47:31Z</time>
      </trkpt>
      <trkpt lat="43.2402" lon="5.45733">
        <ele>324.5</ele>
        <time>2016-03-28T09:47:32Z</time>
      </trkpt>
      <trkpt lat="43.24018" lon="5.45725">
        <ele>324.3</ele>
        <time>2016-03-28T09:47:33Z</time>
      </trkpt>
      <trkpt lat="43.24016" lon="5.45717">
        <ele>324</ele>
        <time>2016-03-28T09:47:34Z</time>
      </trkpt>
      <trkpt lat="43.24015" lon="5.45709">
        <ele>323.8</ele>
        <time>2016-03-28T09:47:35Z</time>
      </trkpt>
      <trkpt lat="43.24012" lon="5.45702">
        <ele>323.1</ele>
        <time>2016-03-28T09:47:36Z</time>
      </trkpt>
      <trkpt lat="43.24011" lon="5.45696">
        <ele>322.5</ele>
        <time>2016-03-28T09:47:37Z</time>
      </trkpt>
      <trkpt lat="43.24009" lon="5.45691">
        <ele>321.9</ele>
        <time>2016-03-28T09:47:38Z</time>
      </trkpt>
      <trkpt lat="43.24007" lon="5.45685">
        <ele>321.2</ele>
        <time>2016-03-28T09:47:39Z</time>
      </trkpt>
      <trkpt lat="43.24006" lon="5.4568">
        <ele>320.8</ele>
        <time>2016-03-28T09:47:40Z</time>
      </trkpt>
      <trkpt lat="43.24006" lon="5.45676">
        <ele>320.3</ele>
        <time>2016-03-28T09:47:42Z</time>
      </trkpt>
      <trkpt lat="43.24003" lon="5.45674">
        <ele>319.8</ele>
        <time>2016-03-28T09:47:54Z</time>
      </trkpt>
      <trkpt lat="43.24003" lon="5.45669">
        <ele>319.3</ele>
        <time>2016-03-28T09:49:01Z</time>
      </trkpt>
      <trkpt lat="43.24" lon="5.45665">
        <ele>318.5</ele>
        <time>2016-03-28T09:49:04Z</time>
      </trkpt>
      <trkpt lat="43.23997" lon="5.45659">
        <ele>317.6</ele>
        <time>2016-03-28T09:49:06Z</time>
      </trkpt>
      <trkpt lat="43.23996" lon="5.45655">
        <ele>317.1</ele>
        <time>2016-03-28T09:49:07Z</time>
      </trkpt>
      <trkpt lat="43.23995" lon="5.45651">
        <ele>316.5</ele>
        <time>2016-03-28T09:49:08Z</time>
      </trkpt>
      <trkpt lat="43.23994" lon="5.45647">
        <ele>315.8</ele>
        <time>2016-03-28T09:49:09Z</time>
      </trkpt>
      <trkpt lat="43.23992" lon="5.45643">
        <ele>315.2</ele>
        <time>2016-03-28T09:49:10Z</time>
      </trkpt>
      <trkpt lat="43.23991" lon="5.45638">
        <ele>314.5</ele>
        <time>2016-03-28T09:49:11Z</time>
      </trkpt>
      <trkpt lat="43.2399" lon="5.45633">
        <ele>313.7</ele>
        <time>2016-03-28T09:49:12Z</time>
      </trkpt>
      <trkpt lat="43.23989" lon="5.45628">
        <ele>312.9</ele>
        <time>2016-03-28T09:49:13Z</time>
      </trkpt>
      <trkpt lat="43.23989" lon="5.45622">
        <ele>311.9</ele>
        <time>2016-03-28T09:49:14Z</time>
      </trkpt>
      <trkpt lat="43.2399" lon="5.45614">
        <ele>310.5</ele>
        <time>2016-03-28T09:49:15Z</time>
      </trkpt>
      <trkpt lat="43.2399" lon="5.45608">
        <ele>309.2</ele>
        <time>2016-03-28T09:49:16Z</time>
      </trkpt>
      <trkpt lat="43.23992" lon="5.45599">
        <ele>307.8</ele>
        <time>2016-03-28T09:49:17Z</time>
      </trkpt>
      <trkpt lat="43.23994" lon="5.45592">
        <ele>306.7</ele>
        <time>2016-03-28T09:49:18Z</time>
      </trkpt>
      <trkpt lat="43.23996" lon="5.45585">
        <ele>305.8</ele>
        <time>2016-03-28T09:49:19Z</time>
      </trkpt>
      <trkpt lat="43.23999" lon="5.45578">
        <ele>304.9</ele>
        <time>2016-03-28T09:49:20Z</time>
      </trkpt>
      <trkpt lat="43.24004" lon="5.45571">
        <ele>305.1</ele>
        <time>2016-03-28T09:49:21Z</time>
      </trkpt>
      <trkpt lat="43.24008" lon="5.45564">
        <ele>304.8</ele>
        <time>2016-03-28T09:49:22Z</time>
      </trkpt>
      <trkpt lat="43.2401" lon="5.45558">
        <ele>304.4</ele>
        <time>2016-03-28T09:49:23Z</time>
      </trkpt>
      <trkpt lat="43.24014" lon="5.45552">
        <ele>304.1</ele>
        <time>2016-03-28T09:49:24Z</time>
      </trkpt>
      <trkpt lat="43.24015" lon="5.45545">
        <ele>303.4</ele>
        <time>2016-03-28T09:49:25Z</time>
      </trkpt>
      <trkpt lat="43.24019" lon="5.45537">
        <ele>303.1</ele>
        <time>2016-03-28T09:49:26Z</time>
      </trkpt>
      <trkpt lat="43.24021" lon="5.45529">
        <ele>302.9</ele>
        <time>2016-03-28T09:49:27Z</time>
      </trkpt>
      <trkpt lat="43.24025" lon="5.45521">
        <ele>302.9</ele>
        <time>2016-03-28T09:49:28Z</time>
      </trkpt>
      <trkpt lat="43.24027" lon="5.45512">
        <ele>302.4</ele>
        <time>2016-03-28T09:49:29Z</time>
      </trkpt>
      <trkpt lat="43.24029" lon="5.45502">
        <ele>302.2</ele>
        <time>2016-03-28T09:49:30Z</time>
      </trkpt>
      <trkpt lat="43.24032" lon="5.45493">
        <ele>301.8</ele>
        <time>2016-03-28T09:49:31Z</time>
      </trkpt>
      <trkpt lat="43.24033" lon="5.45481">
        <ele>301.1</ele>
        <time>2016-03-28T09:49:32Z</time>
      </trkpt>
      <trkpt lat="43.24035" lon="5.4547">
        <ele>300.4</ele>
        <time>2016-03-28T09:49:33Z</time>
      </trkpt>
      <trkpt lat="43.24038" lon="5.45456">
        <ele>300.4</ele>
        <time>2016-03-28T09:49:34Z</time>
      </trkpt>
      <trkpt lat="43.24038" lon="5.45445">
        <ele>300.3</ele>
        <time>2016-03-28T09:49:35Z</time>
      </trkpt>
      <trkpt lat="43.2404" lon="5.45433">
        <ele>301.5</ele>
        <time>2016-03-28T09:49:36Z</time>
      </trkpt>
      <trkpt lat="43.24042" lon="5.4542">
        <ele>302</ele>
        <time>2016-03-28T09:49:37Z</time>
      </trkpt>
      <trkpt lat="43.24042" lon="5.45407">
        <ele>302.2</ele>
        <time>2016-03-28T09:49:38Z</time>
      </trkpt>
      <trkpt lat="43.24043" lon="5.45394">
        <ele>302.3</ele>
        <time>2016-03-28T09:49:39Z</time>
      </trkpt>
      <trkpt lat="43.24042" lon="5.45381">
        <ele>302</ele>
        <time>2016-03-28T09:49:40Z</time>
      </trkpt>
      <trkpt lat="43.24041" lon="5.45367">
        <ele>302.3</ele>
        <time>2016-03-28T09:49:41Z</time>
      </trkpt>
      <trkpt lat="43.2404" lon="5.45353">
        <ele>302.5</ele>
        <time>2016-03-28T09:49:42Z</time>
      </trkpt>
      <trkpt lat="43.24037" lon="5.45339">
        <ele>301.9</ele>
        <time>2016-03-28T09:49:43Z</time>
      </trkpt>
      <trkpt lat="43.24034" lon="5.45325">
        <ele>301.4</ele>
        <time>2016-03-28T09:49:44Z</time>
      </trkpt>
      <trkpt lat="43.24031" lon="5.45312">
        <ele>301.1</ele>
        <time>2016-03-28T09:49:45Z</time>
      </trkpt>
      <trkpt lat="43.24026" lon="5.45301">
        <ele>300.1</ele>
        <time>2016-03-28T09:49:46Z</time>
      </trkpt>
      <trkpt lat="43.24021" lon="5.45287">
        <ele>298.6</ele>
        <time>2016-03-28T09:49:47Z</time>
      </trkpt>
      <trkpt lat="43.24015" lon="5.45275">
        <ele>296</ele>
        <time>2016-03-28T09:49:48Z</time>
      </trkpt>
      <trkpt lat="43.24009" lon="5.45265">
        <ele>293.5</ele>
        <time>2016-03-28T09:49:49Z</time>
      </trkpt>
      <trkpt lat="43.24003" lon="5.45253">
        <ele>291.3</ele>
        <time>2016-03-28T09:49:50Z</time>
      </trkpt>
      <trkpt lat="43.23997" lon="5.45241">
        <ele>289.2</ele>
        <time>2016-03-28T09:49:51Z</time>
      </trkpt>
      <trkpt lat="43.23991" lon="5.45228">
        <ele>287.6</ele>
        <time>2016-03-28T09:49:52Z</time>
      </trkpt>
      <trkpt lat="43.23988" lon="5.45215">
        <ele>286.6</ele>
        <time>2016-03-28T09:49:53Z</time>
      </trkpt>
      <trkpt lat="43.23986" lon="5.45202">
        <ele>285.4</ele>
        <time>2016-03-28T09:49:54Z</time>
      </trkpt>
      <trkpt lat="43.23986" lon="5.45189">
        <ele>284.3</ele>
        <time>2016-03-28T09:49:55Z</time>
      </trkpt>
      <trkpt lat="43.23986" lon="5.45177">
        <ele>283.4</ele>
        <time>2016-03-28T09:49:56Z</time>
      </trkpt>
      <trkpt lat="43.23994" lon="5.45171">
        <ele>284</ele>
        <time>2016-03-28T09:49:57Z</time>
      </trkpt>
      <trkpt lat="43.24001" lon="5.45163">
        <ele>284.3</ele>
        <time>2016-03-28T09:49:58Z</time>
      </trkpt>
      <trkpt lat="43.24011" lon="5.45164">
        <ele>285.8</ele>
        <time>2016-03-28T09:49:59Z</time>
      </trkpt>
      <trkpt lat="43.2402" lon="5.45169">
        <ele>287.7</ele>
        <time>2016-03-28T09:50:00Z</time>
      </trkpt>
      <trkpt lat="43.24028" lon="5.45174">
        <ele>289.8</ele>
        <time>2016-03-28T09:50:01Z</time>
      </trkpt>
      <trkpt lat="43.24037" lon="5.45181">
        <ele>292.3</ele>
        <time>2016-03-28T09:50:02Z</time>
      </trkpt>
      <trkpt lat="43.24046" lon="5.45189">
        <ele>293.5</ele>
        <time>2016-03-28T09:50:03Z</time>
      </trkpt>
      <trkpt lat="43.24053" lon="5.45199">
        <ele>293.9</ele>
        <time>2016-03-28T09:50:04Z</time>
      </trkpt>
      <trkpt lat="43.2406" lon="5.45208">
        <ele>294</ele>
        <time>2016-03-28T09:50:05Z</time>
      </trkpt>
      <trkpt lat="43.24068" lon="5.45218">
        <ele>293.5</ele>
        <time>2016-03-28T09:50:06Z</time>
      </trkpt>
      <trkpt lat="43.24077" lon="5.45227">
        <ele>292.9</ele>
        <time>2016-03-28T09:50:07Z</time>
      </trkpt>
      <trkpt lat="43.24086" lon="5.45235">
        <ele>292.4</ele>
        <time>2016-03-28T09:50:08Z</time>
      </trkpt>
      <trkpt lat="43.24094" lon="5.45246">
        <ele>292.5</ele>
        <time>2016-03-28T09:50:09Z</time>
      </trkpt>
      <trkpt lat="43.24102" lon="5.45256">
        <ele>292.8</ele>
        <time>2016-03-28T09:50:10Z</time>
      </trkpt>
      <trkpt lat="43.2411" lon="5.45268">
        <ele>293.7</ele>
        <time>2016-03-28T09:50:11Z</time>
      </trkpt>
      <trkpt lat="43.24119" lon="5.45277">
        <ele>294</ele>
        <time>2016-03-28T09:50:12Z</time>
      </trkpt>
      <trkpt lat="43.24126" lon="5.4529">
        <ele>295.5</ele>
        <time>2016-03-28T09:50:13Z</time>
      </trkpt>
      <trkpt lat="43.24135" lon="5.45299">
        <ele>295.8</ele>
        <time>2016-03-28T09:50:14Z</time>
      </trkpt>
      <trkpt lat="43.24147" lon="5.45303">
        <ele>294.4</ele>
        <time>2016-03-28T09:50:15Z</time>
      </trkpt>
      <trkpt lat="43.24158" lon="5.45307">
        <ele>293.3</ele>
        <time>2016-03-28T09:50:16Z</time>
      </trkpt>
      <trkpt lat="43.24167" lon="5.45312">
        <ele>292.7</ele>
        <time>2016-03-28T09:50:17Z</time>
      </trkpt>
      <trkpt lat="43.24179" lon="5.45315">
        <ele>291.2</ele>
        <time>2016-03-28T09:50:18Z</time>
      </trkpt>
      <trkpt lat="43.24189" lon="5.45318">
        <ele>289.7</ele>
        <time>2016-03-28T09:50:19Z</time>
      </trkpt>
      <trkpt lat="43.24201" lon="5.45321">
        <ele>288</ele>
        <time>2016-03-28T09:50:20Z</time>
      </trkpt>
      <trkpt lat="43.24211" lon="5.45324">
        <ele>287.7</ele>
        <time>2016-03-28T09:50:21Z</time>
      </trkpt>
      <trkpt lat="43.24222" lon="5.45327">
        <ele>288.4</ele>
        <time>2016-03-28T09:50:22Z</time>
      </trkpt>
      <trkpt lat="43.24234" lon="5.45327">
        <ele>288.4</ele>
        <time>2016-03-28T09:50:23Z</time>
      </trkpt>
      <trkpt lat="43.24244" lon="5.45323">
        <ele>287.9</ele>
        <time>2016-03-28T09:50:24Z</time>
      </trkpt>
      <trkpt lat="43.24255" lon="5.45317">
        <ele>286.8</ele>
        <time>2016-03-28T09:50:25Z</time>
      </trkpt>
      <trkpt lat="43.24262" lon="5.45307">
        <ele>285</ele>
        <time>2016-03-28T09:50:26Z</time>
      </trkpt>
      <trkpt lat="43.24267" lon="5.45294">
        <ele>282.9</ele>
        <time>2016-03-28T09:50:27Z</time>
      </trkpt>
      <trkpt lat="43.2427" lon="5.45279">
        <ele>280.9</ele>
        <time>2016-03-28T09:50:28Z</time>
      </trkpt>
      <trkpt lat="43.24272" lon="5.45264">
        <ele>279.1</ele>
        <time>2016-03-28T09:50:29Z</time>
      </trkpt>
      <trkpt lat="43.24271" lon="5.45248">
        <ele>276.8</ele>
        <time>2016-03-28T09:50:30Z</time>
      </trkpt>
      <trkpt lat="43.2427" lon="5.45235">
        <ele>274.8</ele>
        <time>2016-03-28T09:50:31Z</time>
      </trkpt>
      <trkpt lat="43.2427" lon="5.4522">
        <ele>272.8</ele>
        <time>2016-03-28T09:50:32Z</time>
      </trkpt>
      <trkpt lat="43.24268" lon="5.45205">
        <ele>270.6</ele>
        <time>2016-03-28T09:50:33Z</time>
      </trkpt>
      <trkpt lat="43.24267" lon="5.4519">
        <ele>270.1</ele>
        <time>2016-03-28T09:50:34Z</time>
      </trkpt>
      <trkpt lat="43.24265" lon="5.45175">
        <ele>269.1</ele>
        <time>2016-03-28T09:50:35Z</time>
      </trkpt>
      <trkpt lat="43.24265" lon="5.45159">
        <ele>268.2</ele>
        <time>2016-03-28T09:50:36Z</time>
      </trkpt>
      <trkpt lat="43.24264" lon="5.45145">
        <ele>267.7</ele>
        <time>2016-03-28T09:50:37Z</time>
      </trkpt>
      <trkpt lat="43.24263" lon="5.45131">
        <ele>266.7</ele>
        <time>2016-03-28T09:50:38Z</time>
      </trkpt>
      <trkpt lat="43.24263" lon="5.45115">
        <ele>266.5</ele>
        <time>2016-03-28T09:50:39Z</time>
      </trkpt>
      <trkpt lat="43.24261" lon="5.451">
        <ele>265.8</ele>
        <time>2016-03-28T09:50:40Z</time>
      </trkpt>
      <trkpt lat="43.24261" lon="5.45085">
        <ele>265.9</ele>
        <time>2016-03-28T09:50:41Z</time>
      </trkpt>
      <trkpt lat="43.2426" lon="5.4507">
        <ele>265.8</ele>
        <time>2016-03-28T09:50:42Z</time>
      </trkpt>
      <trkpt lat="43.24258" lon="5.45054">
        <ele>264.8</ele>
        <time>2016-03-28T09:50:43Z</time>
      </trkpt>
      <trkpt lat="43.24257" lon="5.45038">
        <ele>264.1</ele>
        <time>2016-03-28T09:50:44Z</time>
      </trkpt>
      <trkpt lat="43.24255" lon="5.45022">
        <ele>261.5</ele>
        <time>2016-03-28T09:50:45Z</time>
      </trkpt>
      <trkpt lat="43.24252" lon="5.45007">
        <ele>258.6</ele>
        <time>2016-03-28T09:50:46Z</time>
      </trkpt>
      <trkpt lat="43.2425" lon="5.44991">
        <ele>255.8</ele>
        <time>2016-03-28T09:50:47Z</time>
      </trkpt>
      <trkpt lat="43.24245" lon="5.44976">
        <ele>251.8</ele>
        <time>2016-03-28T09:50:48Z</time>
      </trkpt>
      <trkpt lat="43.24241" lon="5.44962">
        <ele>248.3</ele>
        <time>2016-03-28T09:50:49Z</time>
      </trkpt>
      <trkpt lat="43.24236" lon="5.44946">
        <ele>244.1</ele>
        <time>2016-03-28T09:50:50Z</time>
      </trkpt>
      <trkpt lat="43.24233" lon="5.44934">
        <ele>240.7</ele>
        <time>2016-03-28T09:50:51Z</time>
      </trkpt>
      <trkpt lat="43.24231" lon="5.44923">
        <ele>238.2</ele>
        <time>2016-03-28T09:50:52Z</time>
      </trkpt>
      <trkpt lat="43.24234" lon="5.44911">
        <ele>237.9</ele>
        <time>2016-03-28T09:50:53Z</time>
      </trkpt>
      <trkpt lat="43.24243" lon="5.44899">
        <ele>240.5</ele>
        <time>2016-03-28T09:50:54Z</time>
      </trkpt>
      <trkpt lat="43.2425" lon="5.4489">
        <ele>242.9</ele>
        <time>2016-03-28T09:50:55Z</time>
      </trkpt>
      <trkpt lat="43.24256" lon="5.44881">
        <ele>245.2</ele>
        <time>2016-03-28T09:50:56Z</time>
      </trkpt>
      <trkpt lat="43.24264" lon="5.44871">
        <ele>248.3</ele>
        <time>2016-03-28T09:50:57Z</time>
      </trkpt>
      <trkpt lat="43.24269" lon="5.44861">
        <ele>251.2</ele>
        <time>2016-03-28T09:50:58Z</time>
      </trkpt>
      <trkpt lat="43.24272" lon="5.44845">
        <ele>252.9</ele>
        <time>2016-03-28T09:50:59Z</time>
      </trkpt>
      <trkpt lat="43.24273" lon="5.44829">
        <ele>253.7</ele>
        <time>2016-03-28T09:51:00Z</time>
      </trkpt>
      <trkpt lat="43.24269" lon="5.44814">
        <ele>251.6</ele>
        <time>2016-03-28T09:51:01Z</time>
      </trkpt>
      <trkpt lat="43.24263" lon="5.448">
        <ele>248</ele>
        <time>2016-03-28T09:51:02Z</time>
      </trkpt>
      <trkpt lat="43.24257" lon="5.44785">
        <ele>243.8</ele>
        <time>2016-03-28T09:51:03Z</time>
      </trkpt>
      <trkpt lat="43.24251" lon="5.44771">
        <ele>238.9</ele>
        <time>2016-03-28T09:51:04Z</time>
      </trkpt>
      <trkpt lat="43.24246" lon="5.44761">
        <ele>234.6</ele>
        <time>2016-03-28T09:51:05Z</time>
      </trkpt>
      <trkpt lat="43.2424" lon="5.44748">
        <ele>230.2</ele>
        <time>2016-03-28T09:51:06Z</time>
      </trkpt>
      <trkpt lat="43.24238" lon="5.44735">
        <ele>227.3</ele>
        <time>2016-03-28T09:51:07Z</time>
      </trkpt>
      <trkpt lat="43.24237" lon="5.4472">
        <ele>225.2</ele>
        <time>2016-03-28T09:51:08Z</time>
      </trkpt>
      <trkpt lat="43.24242" lon="5.44704">
        <ele>225.1</ele>
        <time>2016-03-28T09:51:09Z</time>
      </trkpt>
      <trkpt lat="43.24248" lon="5.44695">
        <ele>225.6</ele>
        <time>2016-03-28T09:51:10Z</time>
      </trkpt>
      <trkpt lat="43.24259" lon="5.4468">
        <ele>227.7</ele>
        <time>2016-03-28T09:51:11Z</time>
      </trkpt>
      <trkpt lat="43.24269" lon="5.44669">
        <ele>229.6</ele>
        <time>2016-03-28T09:51:12Z</time>
      </trkpt>
      <trkpt lat="43.24278" lon="5.44656">
        <ele>230.6</ele>
        <time>2016-03-28T09:51:13Z</time>
      </trkpt>
      <trkpt lat="43.24285" lon="5.44644">
        <ele>230.6</ele>
        <time>2016-03-28T09:51:14Z</time>
      </trkpt>
      <trkpt lat="43.2429" lon="5.44629">
        <ele>229.3</ele>
        <time>2016-03-28T09:51:15Z</time>
      </trkpt>
      <trkpt lat="43.24293" lon="5.44612">
        <ele>226.2</ele>
        <time>2016-03-28T09:51:16Z</time>
      </trkpt>
      <trkpt lat="43.24297" lon="5.44596">
        <ele>223.5</ele>
        <time>2016-03-28T09:51:17Z</time>
      </trkpt>
      <trkpt lat="43.243" lon="5.4458">
        <ele>220.5</ele>
        <time>2016-03-28T09:51:18Z</time>
      </trkpt>
      <trkpt lat="43.24304" lon="5.44565">
        <ele>217.8</ele>
        <time>2016-03-28T09:51:19Z</time>
      </trkpt>
      <trkpt lat="43.24307" lon="5.44555">
        <ele>216.3</ele>
        <time>2016-03-28T09:51:20Z</time>
      </trkpt>
      <trkpt lat="43.24317" lon="5.44541">
        <ele>215</ele>
        <time>2016-03-28T09:51:21Z</time>
      </trkpt>
      <trkpt lat="43.24325" lon="5.44536">
        <ele>215.8</ele>
        <time>2016-03-28T09:51:22Z</time>
      </trkpt>
      <trkpt lat="43.2434" lon="5.44532">
        <ele>218.2</ele>
        <time>2016-03-28T09:51:23Z</time>
      </trkpt>
      <trkpt lat="43.24354" lon="5.44534">
        <ele>222.2</ele>
        <time>2016-03-28T09:51:24Z</time>
      </trkpt>
      <trkpt lat="43.24366" lon="5.44537">
        <ele>226.1</ele>
        <time>2016-03-28T09:51:25Z</time>
      </trkpt>
      <trkpt lat="43.24379" lon="5.44538">
        <ele>228.4</ele>
        <time>2016-03-28T09:51:26Z</time>
      </trkpt>
      <trkpt lat="43.24393" lon="5.44541">
        <ele>228.2</ele>
        <time>2016-03-28T09:51:27Z</time>
      </trkpt>
      <trkpt lat="43.24406" lon="5.44543">
        <ele>227.8</ele>
        <time>2016-03-28T09:51:28Z</time>
      </trkpt>
      <trkpt lat="43.24419" lon="5.44547">
        <ele>227.8</ele>
        <time>2016-03-28T09:51:29Z</time>
      </trkpt>
      <trkpt lat="43.24431" lon="5.44554">
        <ele>229.1</ele>
        <time>2016-03-28T09:51:30Z</time>
      </trkpt>
      <trkpt lat="43.24442" lon="5.44564">
        <ele>231.1</ele>
        <time>2016-03-28T09:51:31Z</time>
      </trkpt>
      <trkpt lat="43.24452" lon="5.44576">
        <ele>233.7</ele>
        <time>2016-03-28T09:51:32Z</time>
      </trkpt>
      <trkpt lat="43.24461" lon="5.44589">
        <ele>236.5</ele>
        <time>2016-03-28T09:51:33Z</time>
      </trkpt>
      <trkpt lat="43.2447" lon="5.446">
        <ele>237.2</ele>
        <time>2016-03-28T09:51:34Z</time>
      </trkpt>
      <trkpt lat="43.24478" lon="5.44613">
        <ele>238.1</ele>
        <time>2016-03-28T09:51:35Z</time>
      </trkpt>
      <trkpt lat="43.24488" lon="5.44623">
        <ele>237.9</ele>
        <time>2016-03-28T09:51:36Z</time>
      </trkpt>
      <trkpt lat="43.24495" lon="5.44629">
        <ele>237.3</ele>
        <time>2016-03-28T09:51:37Z</time>
      </trkpt>
      <trkpt lat="43.24509" lon="5.44638">
        <ele>235</ele>
        <time>2016-03-28T09:51:38Z</time>
      </trkpt>
      <trkpt lat="43.24521" lon="5.44643">
        <ele>232.7</ele>
        <time>2016-03-28T09:51:39Z</time>
      </trkpt>
      <trkpt lat="43.24534" lon="5.44641">
        <ele>228.1</ele>
        <time>2016-03-28T09:51:40Z</time>
      </trkpt>
      <trkpt lat="43.24545" lon="5.4464">
        <ele>225</ele>
        <time>2016-03-28T09:51:41Z</time>
      </trkpt>
      <trkpt lat="43.24555" lon="5.44634">
        <ele>222.8</ele>
        <time>2016-03-28T09:51:42Z</time>
      </trkpt>
      <trkpt lat="43.24566" lon="5.44628">
        <ele>220.4</ele>
        <time>2016-03-28T09:51:43Z</time>
      </trkpt>
      <trkpt lat="43.24576" lon="5.44619">
        <ele>217.7</ele>
        <time>2016-03-28T09:51:44Z</time>
      </trkpt>
      <trkpt lat="43.24587" lon="5.4461">
        <ele>214.9</ele>
        <time>2016-03-28T09:51:45Z</time>
      </trkpt>
      <trkpt lat="43.24597" lon="5.44602">
        <ele>212.7</ele>
        <time>2016-03-28T09:51:46Z</time>
      </trkpt>
      <trkpt lat="43.24605" lon="5.44594">
        <ele>210.5</ele>
        <time>2016-03-28T09:51:47Z</time>
      </trkpt>
      <trkpt lat="43.24612" lon="5.44592">
        <ele>209.7</ele>
        <time>2016-03-28T09:51:48Z</time>
      </trkpt>
      <trkpt lat="43.24618" lon="5.44591">
        <ele>209.1</ele>
        <time>2016-03-28T09:51:49Z</time>
      </trkpt>
      <trkpt lat="43.24629" lon="5.44597">
        <ele>209.5</ele>
        <time>2016-03-28T09:51:50Z</time>
      </trkpt>
      <trkpt lat="43.24639" lon="5.44611">
        <ele>210.8</ele>
        <time>2016-03-28T09:51:51Z</time>
      </trkpt>
      <trkpt lat="43.24644" lon="5.4462">
        <ele>211.6</ele>
        <time>2016-03-28T09:51:52Z</time>
      </trkpt>
      <trkpt lat="43.24651" lon="5.44635">
        <ele>213.1</ele>
        <time>2016-03-28T09:51:53Z</time>
      </trkpt>
      <trkpt lat="43.24655" lon="5.44649">
        <ele>214.7</ele>
        <time>2016-03-28T09:51:54Z</time>
      </trkpt>
      <trkpt lat="43.24654" lon="5.44653">
        <ele>215.7</ele>
        <time>2016-03-28T09:51:55Z</time>
      </trkpt>
      <trkpt lat="43.24653" lon="5.44694">
        <ele>223</ele>
        <time>2016-03-28T09:51:57Z</time>
      </trkpt>
      <trkpt lat="43.24651" lon="5.44709">
        <ele>226.5</ele>
        <time>2016-03-28T09:51:58Z</time>
      </trkpt>
      <trkpt lat="43.2465" lon="5.44724">
        <ele>229.8</ele>
        <time>2016-03-28T09:51:59Z</time>
      </trkpt>
      <trkpt lat="43.24649" lon="5.44742">
        <ele>233.9</ele>
        <time>2016-03-28T09:52:00Z</time>
      </trkpt>
      <trkpt lat="43.24651" lon="5.44759">
        <ele>236.2</ele>
        <time>2016-03-28T09:52:01Z</time>
      </trkpt>
      <trkpt lat="43.24654" lon="5.44775">
        <ele>237.8</ele>
        <time>2016-03-28T09:52:02Z</time>
      </trkpt>
      <trkpt lat="43.24661" lon="5.4479">
        <ele>236.8</ele>
        <time>2016-03-28T09:52:03Z</time>
      </trkpt>
      <trkpt lat="43.24663" lon="5.44804">
        <ele>236.9</ele>
        <time>2016-03-28T09:52:04Z</time>
      </trkpt>
      <trkpt lat="43.24667" lon="5.44821">
        <ele>236.5</ele>
        <time>2016-03-28T09:52:05Z</time>
      </trkpt>
      <trkpt lat="43.24671" lon="5.44837">
        <ele>235.3</ele>
        <time>2016-03-28T09:52:06Z</time>
      </trkpt>
      <trkpt lat="43.24673" lon="5.44854">
        <ele>235.9</ele>
        <time>2016-03-28T09:52:07Z</time>
      </trkpt>
      <trkpt lat="43.24675" lon="5.44873">
        <ele>236.9</ele>
        <time>2016-03-28T09:52:08Z</time>
      </trkpt>
      <trkpt lat="43.24674" lon="5.44889">
        <ele>237.1</ele>
        <time>2016-03-28T09:52:09Z</time>
      </trkpt>
      <trkpt lat="43.24672" lon="5.44906">
        <ele>237.6</ele>
        <time>2016-03-28T09:52:10Z</time>
      </trkpt>
      <trkpt lat="43.2467" lon="5.44925">
        <ele>238.5</ele>
        <time>2016-03-28T09:52:11Z</time>
      </trkpt>
      <trkpt lat="43.24667" lon="5.44943">
        <ele>239.1</ele>
        <time>2016-03-28T09:52:12Z</time>
      </trkpt>
      <trkpt lat="43.24668" lon="5.44957">
        <ele>238.2</ele>
        <time>2016-03-28T09:52:13Z</time>
      </trkpt>
      <trkpt lat="43.24675" lon="5.44976">
        <ele>234.8</ele>
        <time>2016-03-28T09:52:14Z</time>
      </trkpt>
      <trkpt lat="43.24684" lon="5.4499">
        <ele>230.3</ele>
        <time>2016-03-28T09:52:15Z</time>
      </trkpt>
      <trkpt lat="43.24692" lon="5.45005">
        <ele>226.2</ele>
        <time>2016-03-28T09:52:16Z</time>
      </trkpt>
      <trkpt lat="43.24697" lon="5.45017">
        <ele>223.5</ele>
        <time>2016-03-28T09:52:17Z</time>
      </trkpt>
      <trkpt lat="43.24701" lon="5.45032">
        <ele>221.6</ele>
        <time>2016-03-28T09:52:18Z</time>
      </trkpt>
      <trkpt lat="43.24704" lon="5.45048">
        <ele>220</ele>
        <time>2016-03-28T09:52:19Z</time>
      </trkpt>
      <trkpt lat="43.24706" lon="5.45068">
        <ele>219.3</ele>
        <time>2016-03-28T09:52:20Z</time>
      </trkpt>
      <trkpt lat="43.24707" lon="5.45083">
        <ele>218.7</ele>
        <time>2016-03-28T09:52:21Z</time>
      </trkpt>
      <trkpt lat="43.24707" lon="5.45101">
        <ele>219</ele>
        <time>2016-03-28T09:52:22Z</time>
      </trkpt>
      <trkpt lat="43.24708" lon="5.45117">
        <ele>219.2</ele>
        <time>2016-03-28T09:52:23Z</time>
      </trkpt>
      <trkpt lat="43.24708" lon="5.45135">
        <ele>218</ele>
        <time>2016-03-28T09:52:24Z</time>
      </trkpt>
      <trkpt lat="43.2471" lon="5.4515">
        <ele>215.5</ele>
        <time>2016-03-28T09:52:25Z</time>
      </trkpt>
      <trkpt lat="43.24707" lon="5.45171">
        <ele>214.6</ele>
        <time>2016-03-28T09:52:26Z</time>
      </trkpt>
      <trkpt lat="43.24705" lon="5.45188">
        <ele>214.1</ele>
        <time>2016-03-28T09:52:27Z</time>
      </trkpt>
      <trkpt lat="43.24702" lon="5.45206">
        <ele>213.4</ele>
        <time>2016-03-28T09:52:28Z</time>
      </trkpt>
      <trkpt lat="43.247" lon="5.45225">
        <ele>212.7</ele>
        <time>2016-03-28T09:52:29Z</time>
      </trkpt>
      <trkpt lat="43.24697" lon="5.45242">
        <ele>212.3</ele>
        <time>2016-03-28T09:52:30Z</time>
      </trkpt>
      <trkpt lat="43.24694" lon="5.4526">
        <ele>211.9</ele>
        <time>2016-03-28T09:52:31Z</time>
      </trkpt>
      <trkpt lat="43.24691" lon="5.45276">
        <ele>211.6</ele>
        <time>2016-03-28T09:52:32Z</time>
      </trkpt>
      <trkpt lat="43.24689" lon="5.45293">
        <ele>211.2</ele>
        <time>2016-03-28T09:52:33Z</time>
      </trkpt>
      <trkpt lat="43.24689" lon="5.45308">
        <ele>210</ele>
        <time>2016-03-28T09:52:34Z</time>
      </trkpt>
      <trkpt lat="43.24688" lon="5.45326">
        <ele>209.3</ele>
        <time>2016-03-28T09:52:35Z</time>
      </trkpt>
      <trkpt lat="43.24688" lon="5.45342">
        <ele>208.5</ele>
        <time>2016-03-28T09:52:36Z</time>
      </trkpt>
      <trkpt lat="43.24687" lon="5.45358">
        <ele>207.7</ele>
        <time>2016-03-28T09:52:37Z</time>
      </trkpt>
      <trkpt lat="43.24687" lon="5.45373">
        <ele>206.6</ele>
        <time>2016-03-28T09:52:38Z</time>
      </trkpt>
      <trkpt lat="43.24688" lon="5.45388">
        <ele>205</ele>
        <time>2016-03-28T09:52:39Z</time>
      </trkpt>
      <trkpt lat="43.24687" lon="5.45403">
        <ele>203.9</ele>
        <time>2016-03-28T09:52:40Z</time>
      </trkpt>
      <trkpt lat="43.24682" lon="5.45423">
        <ele>204.6</ele>
        <time>2016-03-28T09:52:41Z</time>
      </trkpt>
      <trkpt lat="43.24677" lon="5.45436">
        <ele>205</ele>
        <time>2016-03-28T09:52:42Z</time>
      </trkpt>
      <trkpt lat="43.24672" lon="5.45452">
        <ele>205.6</ele>
        <time>2016-03-28T09:52:43Z</time>
      </trkpt>
      <trkpt lat="43.24666" lon="5.45468">
        <ele>205.8</ele>
        <time>2016-03-28T09:52:44Z</time>
      </trkpt>
      <trkpt lat="43.24661" lon="5.45481">
        <ele>206</ele>
        <time>2016-03-28T09:52:45Z</time>
      </trkpt>
      <trkpt lat="43.24657" lon="5.45493">
        <ele>205.7</ele>
        <time>2016-03-28T09:52:46Z</time>
      </trkpt>
      <trkpt lat="43.24652" lon="5.45508">
        <ele>205.1</ele>
        <time>2016-03-28T09:52:47Z</time>
      </trkpt>
      <trkpt lat="43.24652" lon="5.45523">
        <ele>202.9</ele>
        <time>2016-03-28T09:52:48Z</time>
      </trkpt>
      <trkpt lat="43.24651" lon="5.4554">
        <ele>200.7</ele>
        <time>2016-03-28T09:52:49Z</time>
      </trkpt>
      <trkpt lat="43.24652" lon="5.45558">
        <ele>200</ele>
        <time>2016-03-28T09:52:50Z</time>
      </trkpt>
      <trkpt lat="43.24654" lon="5.45569">
        <ele>198.9</ele>
        <time>2016-03-28T09:52:51Z</time>
      </trkpt>
      <trkpt lat="43.24657" lon="5.45584">
        <ele>197.5</ele>
        <time>2016-03-28T09:52:52Z</time>
      </trkpt>
      <trkpt lat="43.24658" lon="5.456">
        <ele>197</ele>
        <time>2016-03-28T09:52:53Z</time>
      </trkpt>
      <trkpt lat="43.24661" lon="5.45612">
        <ele>195.5</ele>
        <time>2016-03-28T09:52:54Z</time>
      </trkpt>
      <trkpt lat="43.24666" lon="5.45626">
        <ele>192.7</ele>
        <time>2016-03-28T09:52:55Z</time>
      </trkpt>
      <trkpt lat="43.2467" lon="5.45629">
        <ele>191</ele>
        <time>2016-03-28T09:52:56Z</time>
      </trkpt>
      <trkpt lat="43.24681" lon="5.45634">
        <ele>186.3</ele>
        <time>2016-03-28T09:52:57Z</time>
      </trkpt>
      <trkpt lat="43.24696" lon="5.45634">
        <ele>179.5</ele>
        <time>2016-03-28T09:52:58Z</time>
      </trkpt>
      <trkpt lat="43.24706" lon="5.45629">
        <ele>174.5</ele>
        <time>2016-03-28T09:52:59Z</time>
      </trkpt>
      <trkpt lat="43.24716" lon="5.45615">
        <ele>173.8</ele>
        <time>2016-03-28T09:53:00Z</time>
      </trkpt>
      <trkpt lat="43.24719" lon="5.45608">
        <ele>174.1</ele>
        <time>2016-03-28T09:53:01Z</time>
      </trkpt>
      <trkpt lat="43.24726" lon="5.45597">
        <ele>174.4</ele>
        <time>2016-03-28T09:53:02Z</time>
      </trkpt>
      <trkpt lat="43.24733" lon="5.45584">
        <ele>174.2</ele>
        <time>2016-03-28T09:53:03Z</time>
      </trkpt>
      <trkpt lat="43.24741" lon="5.45572">
        <ele>173.5</ele>
        <time>2016-03-28T09:53:04Z</time>
      </trkpt>
      <trkpt lat="43.24746" lon="5.4556">
        <ele>172.7</ele>
        <time>2016-03-28T09:53:05Z</time>
      </trkpt>
      <trkpt lat="43.24753" lon="5.45546">
        <ele>171.1</ele>
        <time>2016-03-28T09:53:06Z</time>
      </trkpt>
      <trkpt lat="43.2476" lon="5.45533">
        <ele>169.9</ele>
        <time>2016-03-28T09:53:07Z</time>
      </trkpt>
      <trkpt lat="43.24767" lon="5.45521">
        <ele>168.9</ele>
        <time>2016-03-28T09:53:08Z</time>
      </trkpt>
      <trkpt lat="43.24773" lon="5.45508">
        <ele>167.7</ele>
        <time>2016-03-28T09:53:09Z</time>
      </trkpt>
      <trkpt lat="43.2478" lon="5.45495">
        <ele>166</ele>
        <time>2016-03-28T09:53:10Z</time>
      </trkpt>
      <trkpt lat="43.24787" lon="5.45483">
        <ele>164.1</ele>
        <time>2016-03-28T09:53:11Z</time>
      </trkpt>
      <trkpt lat="43.24794" lon="5.4547">
        <ele>162.3</ele>
        <time>2016-03-28T09:53:12Z</time>
      </trkpt>
      <trkpt lat="43.24801" lon="5.45455">
        <ele>162</ele>
        <time>2016-03-28T09:53:13Z</time>
      </trkpt>
      <trkpt lat="43.24809" lon="5.45442">
        <ele>161.9</ele>
        <time>2016-03-28T09:53:14Z</time>
      </trkpt>
      <trkpt lat="43.24817" lon="5.45429">
        <ele>161.5</ele>
        <time>2016-03-28T09:53:15Z</time>
      </trkpt>
      <trkpt lat="43.24825" lon="5.45417">
        <ele>160.9</ele>
        <time>2016-03-28T09:53:16Z</time>
      </trkpt>
      <trkpt lat="43.24835" lon="5.45405">
        <ele>160</ele>
        <time>2016-03-28T09:53:17Z</time>
      </trkpt>
      <trkpt lat="43.24843" lon="5.45393">
        <ele>158.9</ele>
        <time>2016-03-28T09:53:18Z</time>
      </trkpt>
      <trkpt lat="43.24849" lon="5.45381">
        <ele>157.9</ele>
        <time>2016-03-28T09:53:19Z</time>
      </trkpt>
      <trkpt lat="43.24857" lon="5.45363">
        <ele>156.3</ele>
        <time>2016-03-28T09:53:20Z</time>
      </trkpt>
      <trkpt lat="43.24863" lon="5.45348">
        <ele>155</ele>
        <time>2016-03-28T09:53:21Z</time>
      </trkpt>
      <trkpt lat="43.24867" lon="5.45334">
        <ele>153.8</ele>
        <time>2016-03-28T09:53:22Z</time>
      </trkpt>
      <trkpt lat="43.24872" lon="5.45318">
        <ele>152.1</ele>
        <time>2016-03-28T09:53:23Z</time>
      </trkpt>
      <trkpt lat="43.24877" lon="5.45301">
        <ele>150.7</ele>
        <time>2016-03-28T09:53:24Z</time>
      </trkpt>
      <trkpt lat="43.2488" lon="5.45285">
        <ele>150.1</ele>
        <time>2016-03-28T09:53:25Z</time>
      </trkpt>
      <trkpt lat="43.24885" lon="5.45268">
        <ele>149.8</ele>
        <time>2016-03-28T09:53:26Z</time>
      </trkpt>
      <trkpt lat="43.2489" lon="5.45253">
        <ele>149.5</ele>
        <time>2016-03-28T09:53:27Z</time>
      </trkpt>
      <trkpt lat="43.24895" lon="5.45237">
        <ele>149.2</ele>
        <time>2016-03-28T09:53:28Z</time>
      </trkpt>
      <trkpt lat="43.24899" lon="5.45221">
        <ele>148.7</ele>
        <time>2016-03-28T09:53:29Z</time>
      </trkpt>
      <trkpt lat="43.24906" lon="5.45204">
        <ele>148.2</ele>
        <time>2016-03-28T09:53:30Z</time>
      </trkpt>
      <trkpt lat="43.2491" lon="5.45188">
        <ele>147.8</ele>
        <time>2016-03-28T09:53:31Z</time>
      </trkpt>
      <trkpt lat="43.24915" lon="5.45174">
        <ele>147.4</ele>
        <time>2016-03-28T09:53:32Z</time>
      </trkpt>
      <trkpt lat="43.2492" lon="5.45158">
        <ele>147.1</ele>
        <time>2016-03-28T09:53:33Z</time>
      </trkpt>
      <trkpt lat="43.24924" lon="5.45143">
        <ele>146.7</ele>
        <time>2016-03-28T09:53:34Z</time>
      </trkpt>
      <trkpt lat="43.24927" lon="5.45128">
        <ele>146.3</ele>
        <time>2016-03-28T09:53:35Z</time>
      </trkpt>
      <trkpt lat="43.24932" lon="5.45113">
        <ele>145.8</ele>
        <time>2016-03-28T09:53:36Z</time>
      </trkpt>
      <trkpt lat="43.24936" lon="5.45098">
        <ele>145</ele>
        <time>2016-03-28T09:53:37Z</time>
      </trkpt>
      <trkpt lat="43.24939" lon="5.45084">
        <ele>144.3</ele>
        <time>2016-03-28T09:53:38Z</time>
      </trkpt>
      <trkpt lat="43.24943" lon="5.45068">
        <ele>143.4</ele>
        <time>2016-03-28T09:53:39Z</time>
      </trkpt>
      <trkpt lat="43.24944" lon="5.45054">
        <ele>142.7</ele>
        <time>2016-03-28T09:53:40Z</time>
      </trkpt>
      <trkpt lat="43.24946" lon="5.45039">
        <ele>141.9</ele>
        <time>2016-03-28T09:53:41Z</time>
      </trkpt>
      <trkpt lat="43.24948" lon="5.45023">
        <ele>141.2</ele>
        <time>2016-03-28T09:53:42Z</time>
      </trkpt>
      <trkpt lat="43.2495" lon="5.45019">
        <ele>141</ele>
        <time>2016-03-28T09:53:43Z</time>
      </trkpt>
      <trkpt lat="43.24953" lon="5.44975">
        <ele>138.9</ele>
        <time>2016-03-28T09:53:45Z</time>
      </trkpt>
      <trkpt lat="43.24956" lon="5.44957">
        <ele>138</ele>
        <time>2016-03-28T09:53:46Z</time>
      </trkpt>
      <trkpt lat="43.24957" lon="5.44942">
        <ele>137.6</ele>
        <time>2016-03-28T09:53:47Z</time>
      </trkpt>
      <trkpt lat="43.24959" lon="5.44925">
        <ele>137.3</ele>
        <time>2016-03-28T09:53:48Z</time>
      </trkpt>
      <trkpt lat="43.24961" lon="5.44911">
        <ele>137.2</ele>
        <time>2016-03-28T09:53:49Z</time>
      </trkpt>
      <trkpt lat="43.24962" lon="5.44895">
        <ele>137</ele>
        <time>2016-03-28T09:53:50Z</time>
      </trkpt>
      <trkpt lat="43.24962" lon="5.4488">
        <ele>136.6</ele>
        <time>2016-03-28T09:53:51Z</time>
      </trkpt>
      <trkpt lat="43.24963" lon="5.44865">
        <ele>136.3</ele>
        <time>2016-03-28T09:53:52Z</time>
      </trkpt>
      <trkpt lat="43.24965" lon="5.44848">
        <ele>136.2</ele>
        <time>2016-03-28T09:53:53Z</time>
      </trkpt>
      <trkpt lat="43.24967" lon="5.44834">
        <ele>136.1</ele>
        <time>2016-03-28T09:53:54Z</time>
      </trkpt>
      <trkpt lat="43.2497" lon="5.44817">
        <ele>136</ele>
        <time>2016-03-28T09:53:55Z</time>
      </trkpt>
      <trkpt lat="43.24972" lon="5.44802">
        <ele>135.7</ele>
        <time>2016-03-28T09:53:56Z</time>
      </trkpt>
      <trkpt lat="43.24973" lon="5.44787">
        <ele>135.5</ele>
        <time>2016-03-28T09:53:57Z</time>
      </trkpt>
      <trkpt lat="43.24977" lon="5.44772">
        <ele>135.2</ele>
        <time>2016-03-28T09:53:58Z</time>
      </trkpt>
      <trkpt lat="43.24979" lon="5.44757">
        <ele>134.9</ele>
        <time>2016-03-28T09:53:59Z</time>
      </trkpt>
      <trkpt lat="43.24983" lon="5.44752">
        <ele>135.1</ele>
        <time>2016-03-28T09:54:00Z</time>
      </trkpt>
      <trkpt lat="43.24987" lon="5.44711">
        <ele>133.9</ele>
        <time>2016-03-28T09:54:02Z</time>
      </trkpt>
      <trkpt lat="43.24989" lon="5.44697">
        <ele>133.6</ele>
        <time>2016-03-28T09:54:03Z</time>
      </trkpt>
      <trkpt lat="43.24991" lon="5.4468">
        <ele>133.2</ele>
        <time>2016-03-28T09:54:04Z</time>
      </trkpt>
      <trkpt lat="43.24991" lon="5.44664">
        <ele>132.7</ele>
        <time>2016-03-28T09:54:05Z</time>
      </trkpt>
      <trkpt lat="43.24991" lon="5.44648">
        <ele>132.3</ele>
        <time>2016-03-28T09:54:06Z</time>
      </trkpt>
      <trkpt lat="43.2499" lon="5.44634">
        <ele>131.7</ele>
        <time>2016-03-28T09:54:07Z</time>
      </trkpt>
      <trkpt lat="43.24989" lon="5.44619">
        <ele>131.1</ele>
        <time>2016-03-28T09:54:08Z</time>
      </trkpt>
      <trkpt lat="43.24985" lon="5.44605">
        <ele>130.2</ele>
        <time>2016-03-28T09:54:09Z</time>
      </trkpt>
      <trkpt lat="43.24982" lon="5.4459">
        <ele>129.4</ele>
        <time>2016-03-28T09:54:10Z</time>
      </trkpt>
      <trkpt lat="43.2498" lon="5.44573">
        <ele>128.6</ele>
        <time>2016-03-28T09:54:11Z</time>
      </trkpt>
      <trkpt lat="43.24978" lon="5.44557">
        <ele>127.9</ele>
        <time>2016-03-28T09:54:12Z</time>
      </trkpt>
      <trkpt lat="43.24975" lon="5.44541">
        <ele>127</ele>
        <time>2016-03-28T09:54:13Z</time>
      </trkpt>
      <trkpt lat="43.24972" lon="5.44525">
        <ele>125.8</ele>
        <time>2016-03-28T09:54:14Z</time>
      </trkpt>
      <trkpt lat="43.2497" lon="5.44509">
        <ele>124.7</ele>
        <time>2016-03-28T09:54:15Z</time>
      </trkpt>
      <trkpt lat="43.24967" lon="5.44495">
        <ele>123.7</ele>
        <time>2016-03-28T09:54:16Z</time>
      </trkpt>
      <trkpt lat="43.24963" lon="5.44479">
        <ele>122.5</ele>
        <time>2016-03-28T09:54:17Z</time>
      </trkpt>
      <trkpt lat="43.2496" lon="5.44462">
        <ele>121.3</ele>
        <time>2016-03-28T09:54:18Z</time>
      </trkpt>
      <trkpt lat="43.24956" lon="5.44445">
        <ele>120.7</ele>
        <time>2016-03-28T09:54:19Z</time>
      </trkpt>
      <trkpt lat="43.24951" lon="5.44429">
        <ele>120.4</ele>
        <time>2016-03-28T09:54:20Z</time>
      </trkpt>
      <trkpt lat="43.24948" lon="5.44413">
        <ele>120</ele>
        <time>2016-03-28T09:54:21Z</time>
      </trkpt>
      <trkpt lat="43.24945" lon="5.44398">
        <ele>119.6</ele>
        <time>2016-03-28T09:54:22Z</time>
      </trkpt>
      <trkpt lat="43.24942" lon="5.44382">
        <ele>119.2</ele>
        <time>2016-03-28T09:54:23Z</time>
      </trkpt>
      <trkpt lat="43.24941" lon="5.44378">
        <ele>119.1</ele>
        <time>2016-03-28T09:54:24Z</time>
      </trkpt>
      <trkpt lat="43.24932" lon="5.44335">
        <ele>118.5</ele>
        <time>2016-03-28T09:54:26Z</time>
      </trkpt>
      <trkpt lat="43.24928" lon="5.44321">
        <ele>118.4</ele>
        <time>2016-03-28T09:54:27Z</time>
      </trkpt>
      <trkpt lat="43.24924" lon="5.44307">
        <ele>118.2</ele>
        <time>2016-03-28T09:54:28Z</time>
      </trkpt>
      <trkpt lat="43.2492" lon="5.44293">
        <ele>118</ele>
        <time>2016-03-28T09:54:29Z</time>
      </trkpt>
      <trkpt lat="43.24915" lon="5.44277">
        <ele>117.8</ele>
        <time>2016-03-28T09:54:30Z</time>
      </trkpt>
      <trkpt lat="43.24911" lon="5.44261">
        <ele>117.7</ele>
        <time>2016-03-28T09:54:31Z</time>
      </trkpt>
      <trkpt lat="43.24909" lon="5.4425">
        <ele>117.7</ele>
        <time>2016-03-28T09:54:32Z</time>
      </trkpt>
      <trkpt lat="43.24904" lon="5.44238">
        <ele>117.8</ele>
        <time>2016-03-28T09:54:33Z</time>
      </trkpt>
      <trkpt lat="43.249" lon="5.44224">
        <ele>117.8</ele>
        <time>2016-03-28T09:54:34Z</time>
      </trkpt>
      <trkpt lat="43.24888" lon="5.4418">
        <ele>117.4</ele>
        <time>2016-03-28T09:54:37Z</time>
      </trkpt>
      <trkpt lat="43.24885" lon="5.44166">
        <ele>117</ele>
        <time>2016-03-28T09:54:38Z</time>
      </trkpt>
      <trkpt lat="43.24884" lon="5.44151">
        <ele>116.6</ele>
        <time>2016-03-28T09:54:39Z</time>
      </trkpt>
      <trkpt lat="43.24883" lon="5.44133">
        <ele>116</ele>
        <time>2016-03-28T09:54:40Z</time>
      </trkpt>
      <trkpt lat="43.24884" lon="5.44125">
        <ele>115.7</ele>
        <time>2016-03-28T09:54:41Z</time>
      </trkpt>
      <trkpt lat="43.24887" lon="5.44106">
        <ele>115.1</ele>
        <time>2016-03-28T09:54:42Z</time>
      </trkpt>
      <trkpt lat="43.24884" lon="5.44089">
        <ele>114.7</ele>
        <time>2016-03-28T09:54:43Z</time>
      </trkpt>
      <trkpt lat="43.24884" lon="5.44073">
        <ele>114.2</ele>
        <time>2016-03-28T09:54:44Z</time>
      </trkpt>
      <trkpt lat="43.24884" lon="5.44058">
        <ele>113.8</ele>
        <time>2016-03-28T09:54:45Z</time>
      </trkpt>
      <trkpt lat="43.24884" lon="5.44042">
        <ele>113.3</ele>
        <time>2016-03-28T09:54:46Z</time>
      </trkpt>
      <trkpt lat="43.24882" lon="5.44024">
        <ele>112.9</ele>
        <time>2016-03-28T09:54:47Z</time>
      </trkpt>
      <trkpt lat="43.2488" lon="5.44011">
        <ele>112.6</ele>
        <time>2016-03-28T09:54:48Z</time>
      </trkpt>
      <trkpt lat="43.24878" lon="5.44005">
        <ele>112.3</ele>
        <time>2016-03-28T09:54:49Z</time>
      </trkpt>
      <trkpt lat="43.24876" lon="5.43966">
        <ele>111.3</ele>
        <time>2016-03-28T09:54:51Z</time>
      </trkpt>
      <trkpt lat="43.24875" lon="5.43952">
        <ele>110.6</ele>
        <time>2016-03-28T09:54:52Z</time>
      </trkpt>
      <trkpt lat="43.24874" lon="5.43938">
        <ele>110</ele>
        <time>2016-03-28T09:54:53Z</time>
      </trkpt>
      <trkpt lat="43.24873" lon="5.43923">
        <ele>109.2</ele>
        <time>2016-03-28T09:54:54Z</time>
      </trkpt>
      <trkpt lat="43.24872" lon="5.43909">
        <ele>108.5</ele>
        <time>2016-03-28T09:54:55Z</time>
      </trkpt>
      <trkpt lat="43.24869" lon="5.43895">
        <ele>108</ele>
        <time>2016-03-28T09:54:56Z</time>
      </trkpt>
      <trkpt lat="43.24867" lon="5.4388">
        <ele>107.3</ele>
        <time>2016-03-28T09:54:57Z</time>
      </trkpt>
      <trkpt lat="43.24863" lon="5.43866">
        <ele>107</ele>
        <time>2016-03-28T09:54:58Z</time>
      </trkpt>
      <trkpt lat="43.24859" lon="5.43852">
        <ele>106.7</ele>
        <time>2016-03-28T09:54:59Z</time>
      </trkpt>
      <trkpt lat="43.24856" lon="5.43845">
        <ele>106.5</ele>
        <time>2016-03-28T09:55:00Z</time>
      </trkpt>
      <trkpt lat="43.24851" lon="5.43809">
        <ele>104.7</ele>
        <time>2016-03-28T09:55:02Z</time>
      </trkpt>
      <trkpt lat="43.24849" lon="5.43795">
        <ele>103.8</ele>
        <time>2016-03-28T09:55:03Z</time>
      </trkpt>
      <trkpt lat="43.24846" lon="5.43781">
        <ele>103.3</ele>
        <time>2016-03-28T09:55:04Z</time>
      </trkpt>
      <trkpt lat="43.24844" lon="5.43768">
        <ele>102.9</ele>
        <time>2016-03-28T09:55:05Z</time>
      </trkpt>
      <trkpt lat="43.24844" lon="5.43755">
        <ele>102.5</ele>
        <time>2016-03-28T09:55:06Z</time>
      </trkpt>
      <trkpt lat="43.24841" lon="5.43741">
        <ele>102</ele>
        <time>2016-03-28T09:55:07Z</time>
      </trkpt>
      <trkpt lat="43.2484" lon="5.43728">
        <ele>101.5</ele>
        <time>2016-03-28T09:55:08Z</time>
      </trkpt>
      <trkpt lat="43.24838" lon="5.43714">
        <ele>100.9</ele>
        <time>2016-03-28T09:55:09Z</time>
      </trkpt>
      <trkpt lat="43.24836" lon="5.437">
        <ele>100.6</ele>
        <time>2016-03-28T09:55:10Z</time>
      </trkpt>
      <trkpt lat="43.24834" lon="5.43688">
        <ele>100.4</ele>
        <time>2016-03-28T09:55:11Z</time>
      </trkpt>
      <trkpt lat="43.24832" lon="5.43675">
        <ele>100.2</ele>
        <time>2016-03-28T09:55:12Z</time>
      </trkpt>
      <trkpt lat="43.24829" lon="5.4366">
        <ele>99.9</ele>
        <time>2016-03-28T09:55:13Z</time>
      </trkpt>
      <trkpt lat="43.24827" lon="5.43647">
        <ele>99.6</ele>
        <time>2016-03-28T09:55:14Z</time>
      </trkpt>
      <trkpt lat="43.24826" lon="5.43642">
        <ele>99.3</ele>
        <time>2016-03-28T09:55:15Z</time>
      </trkpt>
      <trkpt lat="43.24817" lon="5.4361">
        <ele>98.9</ele>
        <time>2016-03-28T09:55:17Z</time>
      </trkpt>
      <trkpt lat="43.24813" lon="5.43598">
        <ele>98.9</ele>
        <time>2016-03-28T09:55:18Z</time>
      </trkpt>
      <trkpt lat="43.24807" lon="5.43588">
        <ele>98.6</ele>
        <time>2016-03-28T09:55:19Z</time>
      </trkpt>
      <trkpt lat="43.24801" lon="5.43578">
        <ele>98.1</ele>
        <time>2016-03-28T09:55:20Z</time>
      </trkpt>
      <trkpt lat="43.24794" lon="5.43569">
        <ele>97.4</ele>
        <time>2016-03-28T09:55:21Z</time>
      </trkpt>
      <trkpt lat="43.24786" lon="5.43563">
        <ele>96.9</ele>
        <time>2016-03-28T09:55:22Z</time>
      </trkpt>
      <trkpt lat="43.24779" lon="5.43557">
        <ele>96.6</ele>
        <time>2016-03-28T09:55:23Z</time>
      </trkpt>
      <trkpt lat="43.2477" lon="5.43553">
        <ele>96.1</ele>
        <time>2016-03-28T09:55:24Z</time>
      </trkpt>
      <trkpt lat="43.2476" lon="5.43547">
        <ele>95.6</ele>
        <time>2016-03-28T09:55:25Z</time>
      </trkpt>
      <trkpt lat="43.2475" lon="5.43544">
        <ele>95</ele>
        <time>2016-03-28T09:55:26Z</time>
      </trkpt>
      <trkpt lat="43.24741" lon="5.4354">
        <ele>94.4</ele>
        <time>2016-03-28T09:55:27Z</time>
      </trkpt>
      <trkpt lat="43.24734" lon="5.43537">
        <ele>93.9</ele>
        <time>2016-03-28T09:55:28Z</time>
      </trkpt>
      <trkpt lat="43.24726" lon="5.43533">
        <ele>93.4</ele>
        <time>2016-03-28T09:55:29Z</time>
      </trkpt>
      <trkpt lat="43.24719" lon="5.4353">
        <ele>93.1</ele>
        <time>2016-03-28T09:55:30Z</time>
      </trkpt>
      <trkpt lat="43.24708" lon="5.43521">
        <ele>92.6</ele>
        <time>2016-03-28T09:55:31Z</time>
      </trkpt>
      <trkpt lat="43.24701" lon="5.43513">
        <ele>94.1</ele>
        <time>2016-03-28T09:55:32Z</time>
      </trkpt>
      <trkpt lat="43.24694" lon="5.43505">
        <ele>95.7</ele>
        <time>2016-03-28T09:55:33Z</time>
      </trkpt>
      <trkpt lat="43.24686" lon="5.43497">
        <ele>97</ele>
        <time>2016-03-28T09:55:34Z</time>
      </trkpt>
      <trkpt lat="43.24679" lon="5.43488">
        <ele>98.1</ele>
        <time>2016-03-28T09:55:35Z</time>
      </trkpt>
      <trkpt lat="43.24674" lon="5.43478">
        <ele>98.6</ele>
        <time>2016-03-28T09:55:36Z</time>
      </trkpt>
      <trkpt lat="43.24669" lon="5.43467">
        <ele>98.9</ele>
        <time>2016-03-28T09:55:37Z</time>
      </trkpt>
      <trkpt lat="43.24664" lon="5.43457">
        <ele>99.3</ele>
        <time>2016-03-28T09:55:38Z</time>
      </trkpt>
      <trkpt lat="43.24662" lon="5.43452">
        <ele>99.2</ele>
        <time>2016-03-28T09:55:39Z</time>
      </trkpt>
      <trkpt lat="43.24652" lon="5.4342">
        <ele>98.7</ele>
        <time>2016-03-28T09:55:41Z</time>
      </trkpt>
      <trkpt lat="43.2465" lon="5.43408">
        <ele>98.4</ele>
        <time>2016-03-28T09:55:42Z</time>
      </trkpt>
      <trkpt lat="43.24647" lon="5.43397">
        <ele>98</ele>
        <time>2016-03-28T09:55:43Z</time>
      </trkpt>
      <trkpt lat="43.24647" lon="5.43381">
        <ele>97.2</ele>
        <time>2016-03-28T09:55:44Z</time>
      </trkpt>
      <trkpt lat="43.24647" lon="5.43368">
        <ele>97.1</ele>
        <time>2016-03-28T09:55:45Z</time>
      </trkpt>
      <trkpt lat="43.24646" lon="5.43354">
        <ele>97.6</ele>
        <time>2016-03-28T09:55:46Z</time>
      </trkpt>
      <trkpt lat="43.24646" lon="5.4334">
        <ele>98</ele>
        <time>2016-03-28T09:55:47Z</time>
      </trkpt>
      <trkpt lat="43.24647" lon="5.43325">
        <ele>98.4</ele>
        <time>2016-03-28T09:55:48Z</time>
      </trkpt>
      <trkpt lat="43.24646" lon="5.43312">
        <ele>98.8</ele>
        <time>2016-03-28T09:55:49Z</time>
      </trkpt>
      <trkpt lat="43.24645" lon="5.43299">
        <ele>99.4</ele>
        <time>2016-03-28T09:55:50Z</time>
      </trkpt>
      <trkpt lat="43.24644" lon="5.43288">
        <ele>99.7</ele>
        <time>2016-03-28T09:55:51Z</time>
      </trkpt>
      <trkpt lat="43.24643" lon="5.43274">
        <ele>99.1</ele>
        <time>2016-03-28T09:55:52Z</time>
      </trkpt>
      <trkpt lat="43.24641" lon="5.4326">
        <ele>98.5</ele>
        <time>2016-03-28T09:55:53Z</time>
      </trkpt>
      <trkpt lat="43.2464" lon="5.43248">
        <ele>98</ele>
        <time>2016-03-28T09:55:54Z</time>
      </trkpt>
      <trkpt lat="43.24639" lon="5.43234">
        <ele>97.3</ele>
        <time>2016-03-28T09:55:55Z</time>
      </trkpt>
      <trkpt lat="43.24638" lon="5.43222">
        <ele>96.7</ele>
        <time>2016-03-28T09:55:56Z</time>
      </trkpt>
      <trkpt lat="43.24636" lon="5.43208">
        <ele>96</ele>
        <time>2016-03-28T09:55:57Z</time>
      </trkpt>
      <trkpt lat="43.24635" lon="5.43196">
        <ele>96</ele>
        <time>2016-03-28T09:55:58Z</time>
      </trkpt>
      <trkpt lat="43.24634" lon="5.43182">
        <ele>95.9</ele>
        <time>2016-03-28T09:55:59Z</time>
      </trkpt>
      <trkpt lat="43.24632" lon="5.4317">
        <ele>95.8</ele>
        <time>2016-03-28T09:56:00Z</time>
      </trkpt>
      <trkpt lat="43.2463" lon="5.43159">
        <ele>95.7</ele>
        <time>2016-03-28T09:56:01Z</time>
      </trkpt>
      <trkpt lat="43.24629" lon="5.43146">
        <ele>95.4</ele>
        <time>2016-03-28T09:56:02Z</time>
      </trkpt>
      <trkpt lat="43.24627" lon="5.43134">
        <ele>95.2</ele>
        <time>2016-03-28T09:56:03Z</time>
      </trkpt>
      <trkpt lat="43.24625" lon="5.43121">
        <ele>94.8</ele>
        <time>2016-03-28T09:56:04Z</time>
      </trkpt>
      <trkpt lat="43.24624" lon="5.43115">
        <ele>94.7</ele>
        <time>2016-03-28T09:56:05Z</time>
      </trkpt>
      <trkpt lat="43.24621" lon="5.43098">
        <ele>94.5</ele>
        <time>2016-03-28T09:56:06Z</time>
      </trkpt>
      <trkpt lat="43.24617" lon="5.43087">
        <ele>94.6</ele>
        <time>2016-03-28T09:56:07Z</time>
      </trkpt>
      <trkpt lat="43.24613" lon="5.43075">
        <ele>94.7</ele>
        <time>2016-03-28T09:56:08Z</time>
      </trkpt>
      <trkpt lat="43.2461" lon="5.43063">
        <ele>94.4</ele>
        <time>2016-03-28T09:56:09Z</time>
      </trkpt>
      <trkpt lat="43.24608" lon="5.43049">
        <ele>93.8</ele>
        <time>2016-03-28T09:56:10Z</time>
      </trkpt>
      <trkpt lat="43.24607" lon="5.43036">
        <ele>93.1</ele>
        <time>2016-03-28T09:56:11Z</time>
      </trkpt>
      <trkpt lat="43.24604" lon="5.43024">
        <ele>92.5</ele>
        <time>2016-03-28T09:56:12Z</time>
      </trkpt>
      <trkpt lat="43.24602" lon="5.43019">
        <ele>92.2</ele>
        <time>2016-03-28T09:56:13Z</time>
      </trkpt>
      <trkpt lat="43.24599" lon="5.43004">
        <ele>91.3</ele>
        <time>2016-03-28T09:56:14Z</time>
      </trkpt>
      <trkpt lat="43.24595" lon="5.42991">
        <ele>90.6</ele>
        <time>2016-03-28T09:56:15Z</time>
      </trkpt>
      <trkpt lat="43.24592" lon="5.42981">
        <ele>89.9</ele>
        <time>2016-03-28T09:56:16Z</time>
      </trkpt>
      <trkpt lat="43.24589" lon="5.4297">
        <ele>89.2</ele>
        <time>2016-03-28T09:56:17Z</time>
      </trkpt>
      <trkpt lat="43.24584" lon="5.42961">
        <ele>88.7</ele>
        <time>2016-03-28T09:56:18Z</time>
      </trkpt>
      <trkpt lat="43.24581" lon="5.42951">
        <ele>88.7</ele>
        <time>2016-03-28T09:56:19Z</time>
      </trkpt>
      <trkpt lat="43.24577" lon="5.42941">
        <ele>88.9</ele>
        <time>2016-03-28T09:56:20Z</time>
      </trkpt>
      <trkpt lat="43.24572" lon="5.42932">
        <ele>88.9</ele>
        <time>2016-03-28T09:56:21Z</time>
      </trkpt>
      <trkpt lat="43.24568" lon="5.42923">
        <ele>88.7</ele>
        <time>2016-03-28T09:56:22Z</time>
      </trkpt>
      <trkpt lat="43.24564" lon="5.42913">
        <ele>88.2</ele>
        <time>2016-03-28T09:56:23Z</time>
      </trkpt>
      <trkpt lat="43.2456" lon="5.42905">
        <ele>87.7</ele>
        <time>2016-03-28T09:56:24Z</time>
      </trkpt>
      <trkpt lat="43.24555" lon="5.42896">
        <ele>86.9</ele>
        <time>2016-03-28T09:56:25Z</time>
      </trkpt>
      <trkpt lat="43.24551" lon="5.42888">
        <ele>86.1</ele>
        <time>2016-03-28T09:56:26Z</time>
      </trkpt>
      <trkpt lat="43.24546" lon="5.4288">
        <ele>84.9</ele>
        <time>2016-03-28T09:56:27Z</time>
      </trkpt>
      <trkpt lat="43.24542" lon="5.42871">
        <ele>84</ele>
        <time>2016-03-28T09:56:28Z</time>
      </trkpt>
      <trkpt lat="43.24537" lon="5.42863">
        <ele>84.6</ele>
        <time>2016-03-28T09:56:29Z</time>
      </trkpt>
      <trkpt lat="43.24533" lon="5.42854">
        <ele>85.2</ele>
        <time>2016-03-28T09:56:30Z</time>
      </trkpt>
      <trkpt lat="43.24529" lon="5.42848">
        <ele>85.6</ele>
        <time>2016-03-28T09:56:31Z</time>
      </trkpt>
      <trkpt lat="43.24525" lon="5.4284">
        <ele>85.9</ele>
        <time>2016-03-28T09:56:32Z</time>
      </trkpt>
      <trkpt lat="43.24522" lon="5.42832">
        <ele>86.2</ele>
        <time>2016-03-28T09:56:33Z</time>
      </trkpt>
      <trkpt lat="43.24518" lon="5.42826">
        <ele>86.5</ele>
        <time>2016-03-28T09:56:34Z</time>
      </trkpt>
      <trkpt lat="43.24513" lon="5.42819">
        <ele>86.9</ele>
        <time>2016-03-28T09:56:35Z</time>
      </trkpt>
      <trkpt lat="43.2451" lon="5.42811">
        <ele>86.9</ele>
        <time>2016-03-28T09:56:36Z</time>
      </trkpt>
      <trkpt lat="43.24506" lon="5.42809">
        <ele>87.2</ele>
        <time>2016-03-28T09:56:37Z</time>
      </trkpt>
      <trkpt lat="43.24492" lon="5.42787">
        <ele>87.4</ele>
        <time>2016-03-28T09:56:40Z</time>
      </trkpt>
      <trkpt lat="43.24491" lon="5.42779">
        <ele>86.9</ele>
        <time>2016-03-28T09:56:41Z</time>
      </trkpt>
      <trkpt lat="43.2449" lon="5.42772">
        <ele>86.5</ele>
        <time>2016-03-28T09:56:42Z</time>
      </trkpt>
      <trkpt lat="43.24491" lon="5.42767">
        <ele>86.1</ele>
        <time>2016-03-28T09:56:43Z</time>
      </trkpt>
      <trkpt lat="43.24489" lon="5.42764">
        <ele>86</ele>
        <time>2016-03-28T09:56:49Z</time>
      </trkpt>
      <trkpt lat="43.24492" lon="5.42764">
        <ele>85.8</ele>
        <time>2016-03-28T09:56:51Z</time>
      </trkpt>
      <trkpt lat="43.24497" lon="5.42753">
        <ele>84.7</ele>
        <time>2016-03-28T09:57:57Z</time>
      </trkpt>
      <trkpt lat="43.24498" lon="5.42747">
        <ele>84.1</ele>
        <time>2016-03-28T09:57:59Z</time>
      </trkpt>
      <trkpt lat="43.245" lon="5.42743">
        <ele>83.8</ele>
        <time>2016-03-28T09:58:00Z</time>
      </trkpt>
      <trkpt lat="43.24502" lon="5.4274">
        <ele>83.5</ele>
        <time>2016-03-28T09:58:01Z</time>
      </trkpt>
      <trkpt lat="43.24503" lon="5.42736">
        <ele>83.1</ele>
        <time>2016-03-28T09:58:02Z</time>
      </trkpt>
      <trkpt lat="43.24505" lon="5.42732">
        <ele>82.8</ele>
        <time>2016-03-28T09:58:03Z</time>
      </trkpt>
      <trkpt lat="43.24508" lon="5.42728">
        <ele>82.4</ele>
        <time>2016-03-28T09:58:04Z</time>
      </trkpt>
      <trkpt lat="43.24509" lon="5.42724">
        <ele>82.1</ele>
        <time>2016-03-28T09:58:05Z</time>
      </trkpt>
      <trkpt lat="43.24511" lon="5.4272">
        <ele>81.8</ele>
        <time>2016-03-28T09:58:06Z</time>
      </trkpt>
      <trkpt lat="43.24514" lon="5.42716">
        <ele>81.4</ele>
        <time>2016-03-28T09:58:07Z</time>
      </trkpt>
      <trkpt lat="43.24517" lon="5.42712">
        <ele>81.1</ele>
        <time>2016-03-28T09:58:08Z</time>
      </trkpt>
      <trkpt lat="43.24522" lon="5.42707">
        <ele>80.7</ele>
        <time>2016-03-28T09:58:09Z</time>
      </trkpt>
      <trkpt lat="43.24525" lon="5.42703">
        <ele>80.6</ele>
        <time>2016-03-28T09:58:10Z</time>
      </trkpt>
      <trkpt lat="43.24527" lon="5.42694">
        <ele>80.5</ele>
        <time>2016-03-28T09:58:11Z</time>
      </trkpt>
      <trkpt lat="43.2453" lon="5.42687">
        <ele>80.3</ele>
        <time>2016-03-28T09:58:12Z</time>
      </trkpt>
      <trkpt lat="43.24532" lon="5.42679">
        <ele>80.1</ele>
        <time>2016-03-28T09:58:13Z</time>
      </trkpt>
      <trkpt lat="43.24535" lon="5.42673">
        <ele>79.7</ele>
        <time>2016-03-28T09:58:14Z</time>
      </trkpt>
      <trkpt lat="43.24538" lon="5.42667">
        <ele>79.4</ele>
        <time>2016-03-28T09:58:15Z</time>
      </trkpt>
      <trkpt lat="43.24541" lon="5.42659">
        <ele>78.9</ele>
        <time>2016-03-28T09:58:16Z</time>
      </trkpt>
      <trkpt lat="43.24543" lon="5.42654">
        <ele>78.8</ele>
        <time>2016-03-28T09:58:17Z</time>
      </trkpt>
      <trkpt lat="43.24547" lon="5.42646">
        <ele>78.7</ele>
        <time>2016-03-28T09:58:18Z</time>
      </trkpt>
      <trkpt lat="43.24551" lon="5.42641">
        <ele>78.7</ele>
        <time>2016-03-28T09:58:19Z</time>
      </trkpt>
      <trkpt lat="43.24555" lon="5.42633">
        <ele>78.5</ele>
        <time>2016-03-28T09:58:20Z</time>
      </trkpt>
      <trkpt lat="43.24559" lon="5.42626">
        <ele>78.2</ele>
        <time>2016-03-28T09:58:21Z</time>
      </trkpt>
      <trkpt lat="43.24562" lon="5.42617">
        <ele>78.2</ele>
        <time>2016-03-28T09:58:22Z</time>
      </trkpt>
      <trkpt lat="43.24566" lon="5.4261">
        <ele>78.2</ele>
        <time>2016-03-28T09:58:23Z</time>
      </trkpt>
      <trkpt lat="43.2457" lon="5.42603">
        <ele>78.1</ele>
        <time>2016-03-28T09:58:24Z</time>
      </trkpt>
      <trkpt lat="43.24574" lon="5.42594">
        <ele>77.9</ele>
        <time>2016-03-28T09:58:25Z</time>
      </trkpt>
      <trkpt lat="43.24581" lon="5.42586">
        <ele>77.6</ele>
        <time>2016-03-28T09:58:26Z</time>
      </trkpt>
      <trkpt lat="43.24585" lon="5.42577">
        <ele>77.3</ele>
        <time>2016-03-28T09:58:27Z</time>
      </trkpt>
      <trkpt lat="43.24588" lon="5.42571">
        <ele>77</ele>
        <time>2016-03-28T09:58:28Z</time>
      </trkpt>
      <trkpt lat="43.24593" lon="5.42565">
        <ele>76.7</ele>
        <time>2016-03-28T09:58:29Z</time>
      </trkpt>
      <trkpt lat="43.24597" lon="5.42558">
        <ele>76.3</ele>
        <time>2016-03-28T09:58:30Z</time>
      </trkpt>
      <trkpt lat="43.24602" lon="5.42549">
        <ele>75.7</ele>
        <time>2016-03-28T09:58:31Z</time>
      </trkpt>
      <trkpt lat="43.24606" lon="5.4254">
        <ele>75.2</ele>
        <time>2016-03-28T09:58:32Z</time>
      </trkpt>
      <trkpt lat="43.24611" lon="5.42531">
        <ele>75.1</ele>
        <time>2016-03-28T09:58:33Z</time>
      </trkpt>
      <trkpt lat="43.24616" lon="5.42522">
        <ele>75</ele>
        <time>2016-03-28T09:58:34Z</time>
      </trkpt>
      <trkpt lat="43.2462" lon="5.42514">
        <ele>74.7</ele>
        <time>2016-03-28T09:58:35Z</time>
      </trkpt>
      <trkpt lat="43.24625" lon="5.42507">
        <ele>74.4</ele>
        <time>2016-03-28T09:58:36Z</time>
      </trkpt>
      <trkpt lat="43.2463" lon="5.42499">
        <ele>74.9</ele>
        <time>2016-03-28T09:58:37Z</time>
      </trkpt>
      <trkpt lat="43.24635" lon="5.42493">
        <ele>75.1</ele>
        <time>2016-03-28T09:58:38Z</time>
      </trkpt>
      <trkpt lat="43.2464" lon="5.42487">
        <ele>75.4</ele>
        <time>2016-03-28T09:58:39Z</time>
      </trkpt>
      <trkpt lat="43.24646" lon="5.4248">
        <ele>75.6</ele>
        <time>2016-03-28T09:58:40Z</time>
      </trkpt>
      <trkpt lat="43.24652" lon="5.42475">
        <ele>75.7</ele>
        <time>2016-03-28T09:58:41Z</time>
      </trkpt>
      <trkpt lat="43.24659" lon="5.42469">
        <ele>75.8</ele>
        <time>2016-03-28T09:58:42Z</time>
      </trkpt>
      <trkpt lat="43.24666" lon="5.42465">
        <ele>75.8</ele>
        <time>2016-03-28T09:58:43Z</time>
      </trkpt>
      <trkpt lat="43.24672" lon="5.42463">
        <ele>75.8</ele>
        <time>2016-03-28T09:58:44Z</time>
      </trkpt>
      <trkpt lat="43.24691" lon="5.42455">
        <ele>75.8</ele>
        <time>2016-03-28T09:58:47Z</time>
      </trkpt>
      <trkpt lat="43.24696" lon="5.42452">
        <ele>75.9</ele>
        <time>2016-03-28T09:58:48Z</time>
      </trkpt>
      <trkpt lat="43.247" lon="5.42451">
        <ele>75.9</ele>
        <time>2016-03-28T09:58:50Z</time>
      </trkpt>
      <trkpt lat="43.24703" lon="5.42452">
        <ele>76</ele>
        <time>2016-03-28T09:58:53Z</time>
      </trkpt>
      <trkpt lat="43.24707" lon="5.42449">
        <ele>76</ele>
        <time>2016-03-28T09:58:55Z</time>
      </trkpt>
      <trkpt lat="43.24712" lon="5.42449">
        <ele>76.3</ele>
        <time>2016-03-28T09:58:57Z</time>
      </trkpt>
      <trkpt lat="43.24716" lon="5.42449">
        <ele>76.6</ele>
        <time>2016-03-28T09:58:58Z</time>
      </trkpt>
      <trkpt lat="43.24719" lon="5.42448">
        <ele>76.8</ele>
        <time>2016-03-28T09:58:59Z</time>
      </trkpt>
      <trkpt lat="43.24724" lon="5.42445">
        <ele>77.2</ele>
        <time>2016-03-28T09:59:01Z</time>
      </trkpt>
      <trkpt lat="43.24727" lon="5.42444">
        <ele>77.4</ele>
        <time>2016-03-28T09:59:02Z</time>
      </trkpt>
      <trkpt lat="43.24733" lon="5.42441">
        <ele>77.7</ele>
        <time>2016-03-28T09:59:04Z</time>
      </trkpt>
      <trkpt lat="43.24737" lon="5.42439">
        <ele>77.9</ele>
        <time>2016-03-28T09:59:05Z</time>
      </trkpt>
      <trkpt lat="43.2474" lon="5.42437">
        <ele>78</ele>
        <time>2016-03-28T09:59:06Z</time>
      </trkpt>
      <trkpt lat="43.24762" lon="5.42423">
        <ele>78.2</ele>
        <time>2016-03-28T09:59:11Z</time>
      </trkpt>
      <trkpt lat="43.24766" lon="5.42421">
        <ele>78.1</ele>
        <time>2016-03-28T09:59:12Z</time>
      </trkpt>
      <trkpt lat="43.24771" lon="5.42418">
        <ele>78</ele>
        <time>2016-03-28T09:59:13Z</time>
      </trkpt>
      <trkpt lat="43.24774" lon="5.42413">
        <ele>77.6</ele>
        <time>2016-03-28T09:59:14Z</time>
      </trkpt>
      <trkpt lat="43.2478" lon="5.4241">
        <ele>77.4</ele>
        <time>2016-03-28T09:59:15Z</time>
      </trkpt>
      <trkpt lat="43.24783" lon="5.42409">
        <ele>77.4</ele>
        <time>2016-03-28T09:59:16Z</time>
      </trkpt>
      <trkpt lat="43.24788" lon="5.42407">
        <ele>77.1</ele>
        <time>2016-03-28T09:59:17Z</time>
      </trkpt>
      <trkpt lat="43.24792" lon="5.42405">
        <ele>76.9</ele>
        <time>2016-03-28T09:59:18Z</time>
      </trkpt>
      <trkpt lat="43.24795" lon="5.42403">
        <ele>76.9</ele>
        <time>2016-03-28T09:59:19Z</time>
      </trkpt>
      <trkpt lat="43.24818" lon="5.42387">
        <ele>76.3</ele>
        <time>2016-03-28T09:59:24Z</time>
      </trkpt>
      <trkpt lat="43.24821" lon="5.42383">
        <ele>76</ele>
        <time>2016-03-28T09:59:25Z</time>
      </trkpt>
      <trkpt lat="43.24825" lon="5.4238">
        <ele>75.7</ele>
        <time>2016-03-28T09:59:26Z</time>
      </trkpt>
      <trkpt lat="43.2483" lon="5.42377">
        <ele>75.6</ele>
        <time>2016-03-28T09:59:27Z</time>
      </trkpt>
      <trkpt lat="43.24835" lon="5.42375">
        <ele>75.6</ele>
        <time>2016-03-28T09:59:28Z</time>
      </trkpt>
      <trkpt lat="43.2484" lon="5.42371">
        <ele>75.8</ele>
        <time>2016-03-28T09:59:29Z</time>
      </trkpt>
      <trkpt lat="43.24843" lon="5.42367">
        <ele>75.8</ele>
        <time>2016-03-28T09:59:30Z</time>
      </trkpt>
      <trkpt lat="43.24848" lon="5.42364">
        <ele>76</ele>
        <time>2016-03-28T09:59:31Z</time>
      </trkpt>
      <trkpt lat="43.24853" lon="5.42359">
        <ele>76</ele>
        <time>2016-03-28T09:59:32Z</time>
      </trkpt>
      <trkpt lat="43.24858" lon="5.42355">
        <ele>76.1</ele>
        <time>2016-03-28T09:59:33Z</time>
      </trkpt>
      <trkpt lat="43.24863" lon="5.42351">
        <ele>76.1</ele>
        <time>2016-03-28T09:59:34Z</time>
      </trkpt>
      <trkpt lat="43.24867" lon="5.42347">
        <ele>76</ele>
        <time>2016-03-28T09:59:35Z</time>
      </trkpt>
      <trkpt lat="43.24871" lon="5.42342">
        <ele>75.9</ele>
        <time>2016-03-28T09:59:36Z</time>
      </trkpt>
      <trkpt lat="43.24873" lon="5.42338">
        <ele>75.7</ele>
        <time>2016-03-28T09:59:37Z</time>
      </trkpt>
      <trkpt lat="43.24876" lon="5.42333">
        <ele>75.7</ele>
        <time>2016-03-28T09:59:38Z</time>
      </trkpt>
      <trkpt lat="43.2488" lon="5.4233">
        <ele>76.1</ele>
        <time>2016-03-28T09:59:39Z</time>
      </trkpt>
      <trkpt lat="43.24885" lon="5.42326">
        <ele>76.5</ele>
        <time>2016-03-28T09:59:40Z</time>
      </trkpt>
      <trkpt lat="43.24889" lon="5.42322">
        <ele>76.9</ele>
        <time>2016-03-28T09:59:41Z</time>
      </trkpt>
      <trkpt lat="43.24893" lon="5.42318">
        <ele>77.3</ele>
        <time>2016-03-28T09:59:42Z</time>
      </trkpt>
      <trkpt lat="43.24912" lon="5.42302">
        <ele>79</ele>
        <time>2016-03-28T09:59:46Z</time>
      </trkpt>
      <trkpt lat="43.24916" lon="5.42298">
        <ele>79.3</ele>
        <time>2016-03-28T09:59:47Z</time>
      </trkpt>
      <trkpt lat="43.2492" lon="5.42294">
        <ele>79.7</ele>
        <time>2016-03-28T09:59:48Z</time>
      </trkpt>
      <trkpt lat="43.24926" lon="5.4229">
        <ele>80.3</ele>
        <time>2016-03-28T09:59:49Z</time>
      </trkpt>
      <trkpt lat="43.24931" lon="5.42288">
        <ele>81</ele>
        <time>2016-03-28T09:59:50Z</time>
      </trkpt>
      <trkpt lat="43.24936" lon="5.42284">
        <ele>81.7</ele>
        <time>2016-03-28T09:59:51Z</time>
      </trkpt>
      <trkpt lat="43.24941" lon="5.4228">
        <ele>82.3</ele>
        <time>2016-03-28T09:59:52Z</time>
      </trkpt>
      <trkpt lat="43.24944" lon="5.42277">
        <ele>82.7</ele>
        <time>2016-03-28T09:59:53Z</time>
      </trkpt>
      <trkpt lat="43.24947" lon="5.42275">
        <ele>83.2</ele>
        <time>2016-03-28T09:59:54Z</time>
      </trkpt>
      <trkpt lat="43.24966" lon="5.4226">
        <ele>85.1</ele>
        <time>2016-03-28T09:59:58Z</time>
      </trkpt>
      <trkpt lat="43.24971" lon="5.42256">
        <ele>85.4</ele>
        <time>2016-03-28T09:59:59Z</time>
      </trkpt>
      <trkpt lat="43.24975" lon="5.42252">
        <ele>85.6</ele>
        <time>2016-03-28T10:00:00Z</time>
      </trkpt>
      <trkpt lat="43.24979" lon="5.42248">
        <ele>85.8</ele>
        <time>2016-03-28T10:00:01Z</time>
      </trkpt>
      <trkpt lat="43.24984" lon="5.42244">
        <ele>86.1</ele>
        <time>2016-03-28T10:00:02Z</time>
      </trkpt>
      <trkpt lat="43.24989" lon="5.42241">
        <ele>86.4</ele>
        <time>2016-03-28T10:00:03Z</time>
      </trkpt>
      <trkpt lat="43.24994" lon="5.42238">
        <ele>86.7</ele>
        <time>2016-03-28T10:00:04Z</time>
      </trkpt>
      <trkpt lat="43.24999" lon="5.42235">
        <ele>86.9</ele>
        <time>2016-03-28T10:00:05Z</time>
      </trkpt>
      <trkpt lat="43.25004" lon="5.42232">
        <ele>87.2</ele>
        <time>2016-03-28T10:00:06Z</time>
      </trkpt>
      <trkpt lat="43.25008" lon="5.4223">
        <ele>87.4</ele>
        <time>2016-03-28T10:00:07Z</time>
      </trkpt>
      <trkpt lat="43.25035" lon="5.42218">
        <ele>88.8</ele>
        <time>2016-03-28T10:00:11Z</time>
      </trkpt>
      <trkpt lat="43.25044" lon="5.42216">
        <ele>88.9</ele>
        <time>2016-03-28T10:00:12Z</time>
      </trkpt>
      <trkpt lat="43.25053" lon="5.42215">
        <ele>88.1</ele>
        <time>2016-03-28T10:00:13Z</time>
      </trkpt>
      <trkpt lat="43.25061" lon="5.42214">
        <ele>87.3</ele>
        <time>2016-03-28T10:00:14Z</time>
      </trkpt>
      <trkpt lat="43.25069" lon="5.42212">
        <ele>86.5</ele>
        <time>2016-03-28T10:00:15Z</time>
      </trkpt>
      <trkpt lat="43.25079" lon="5.4221">
        <ele>85.5</ele>
        <time>2016-03-28T10:00:16Z</time>
      </trkpt>
      <trkpt lat="43.25088" lon="5.42209">
        <ele>84.6</ele>
        <time>2016-03-28T10:00:17Z</time>
      </trkpt>
      <trkpt lat="43.25098" lon="5.42207">
        <ele>83.8</ele>
        <time>2016-03-28T10:00:18Z</time>
      </trkpt>
      <trkpt lat="43.25107" lon="5.42206">
        <ele>83.1</ele>
        <time>2016-03-28T10:00:19Z</time>
      </trkpt>
      <trkpt lat="43.25118" lon="5.42206">
        <ele>82.1</ele>
        <time>2016-03-28T10:00:20Z</time>
      </trkpt>
      <trkpt lat="43.25128" lon="5.42204">
        <ele>81.5</ele>
        <time>2016-03-28T10:00:21Z</time>
      </trkpt>
      <trkpt lat="43.25138" lon="5.42203">
        <ele>81.3</ele>
        <time>2016-03-28T10:00:22Z</time>
      </trkpt>
      <trkpt lat="43.25149" lon="5.42202">
        <ele>81</ele>
        <time>2016-03-28T10:00:23Z</time>
      </trkpt>
      <trkpt lat="43.2516" lon="5.422">
        <ele>80.8</ele>
        <time>2016-03-28T10:00:24Z</time>
      </trkpt>
      <trkpt lat="43.2517" lon="5.42198">
        <ele>80.4</ele>
        <time>2016-03-28T10:00:25Z</time>
      </trkpt>
      <trkpt lat="43.25181" lon="5.42197">
        <ele>80</ele>
        <time>2016-03-28T10:00:26Z</time>
      </trkpt>
      <trkpt lat="43.25191" lon="5.42196">
        <ele>79.7</ele>
        <time>2016-03-28T10:00:27Z</time>
      </trkpt>
      <trkpt lat="43.25202" lon="5.42196">
        <ele>79.1</ele>
        <time>2016-03-28T10:00:28Z</time>
      </trkpt>
      <trkpt lat="43.2521" lon="5.42195">
        <ele>78.7</ele>
        <time>2016-03-28T10:00:29Z</time>
      </trkpt>
      <trkpt lat="43.25218" lon="5.42196">
        <ele>78</ele>
        <time>2016-03-28T10:00:30Z</time>
      </trkpt>
      <trkpt lat="43.25226" lon="5.42196">
        <ele>77.4</ele>
        <time>2016-03-28T10:00:31Z</time>
      </trkpt>
      <trkpt lat="43.25231" lon="5.42196">
        <ele>77</ele>
        <time>2016-03-28T10:00:32Z</time>
      </trkpt>
      <trkpt lat="43.25236" lon="5.42197">
        <ele>76.6</ele>
        <time>2016-03-28T10:00:33Z</time>
      </trkpt>
      <trkpt lat="43.2524" lon="5.42199">
        <ele>76.1</ele>
        <time>2016-03-28T10:00:35Z</time>
      </trkpt>
      <trkpt lat="43.25243" lon="5.42201">
        <ele>75.9</ele>
        <time>2016-03-28T10:00:37Z</time>
      </trkpt>
      <trkpt lat="43.25245" lon="5.42203">
        <ele>75.6</ele>
        <time>2016-03-28T10:00:38Z</time>
      </trkpt>
      <trkpt lat="43.25247" lon="5.42205">
        <ele>75.3</ele>
        <time>2016-03-28T10:00:39Z</time>
      </trkpt>
      <trkpt lat="43.25251" lon="5.42206">
        <ele>75</ele>
        <time>2016-03-28T10:00:40Z</time>
      </trkpt>
      <trkpt lat="43.25255" lon="5.42206">
        <ele>74.8</ele>
        <time>2016-03-28T10:00:41Z</time>
      </trkpt>
      <trkpt lat="43.25258" lon="5.42205">
        <ele>74.5</ele>
        <time>2016-03-28T10:00:42Z</time>
      </trkpt>
      <trkpt lat="43.25262" lon="5.42204">
        <ele>74.3</ele>
        <time>2016-03-28T10:00:43Z</time>
      </trkpt>
      <trkpt lat="43.25267" lon="5.42201">
        <ele>74</ele>
        <time>2016-03-28T10:00:44Z</time>
      </trkpt>
      <trkpt lat="43.25272" lon="5.422">
        <ele>73.7</ele>
        <time>2016-03-28T10:00:45Z</time>
      </trkpt>
      <trkpt lat="43.25277" lon="5.42199">
        <ele>73.3</ele>
        <time>2016-03-28T10:00:46Z</time>
      </trkpt>
      <trkpt lat="43.25284" lon="5.42199">
        <ele>72.8</ele>
        <time>2016-03-28T10:00:47Z</time>
      </trkpt>
      <trkpt lat="43.25289" lon="5.42198">
        <ele>72.4</ele>
        <time>2016-03-28T10:00:48Z</time>
      </trkpt>
      <trkpt lat="43.25318" lon="5.42193">
        <ele>72.9</ele>
        <time>2016-03-28T10:00:52Z</time>
      </trkpt>
      <trkpt lat="43.25325" lon="5.42191">
        <ele>73</ele>
        <time>2016-03-28T10:00:53Z</time>
      </trkpt>
      <trkpt lat="43.2533" lon="5.42187">
        <ele>73.1</ele>
        <time>2016-03-28T10:00:54Z</time>
      </trkpt>
      <trkpt lat="43.25337" lon="5.42181">
        <ele>73</ele>
        <time>2016-03-28T10:00:55Z</time>
      </trkpt>
      <trkpt lat="43.25343" lon="5.42176">
        <ele>73</ele>
        <time>2016-03-28T10:00:56Z</time>
      </trkpt>
      <trkpt lat="43.25349" lon="5.4217">
        <ele>72.8</ele>
        <time>2016-03-28T10:00:57Z</time>
      </trkpt>
      <trkpt lat="43.25354" lon="5.42163">
        <ele>72.5</ele>
        <time>2016-03-28T10:00:58Z</time>
      </trkpt>
      <trkpt lat="43.25361" lon="5.42157">
        <ele>72.1</ele>
        <time>2016-03-28T10:00:59Z</time>
      </trkpt>
      <trkpt lat="43.25367" lon="5.42151">
        <ele>71.8</ele>
        <time>2016-03-28T10:01:00Z</time>
      </trkpt>
      <trkpt lat="43.25372" lon="5.42145">
        <ele>71.3</ele>
        <time>2016-03-28T10:01:01Z</time>
      </trkpt>
      <trkpt lat="43.25378" lon="5.42139">
        <ele>71</ele>
        <time>2016-03-28T10:01:02Z</time>
      </trkpt>
      <trkpt lat="43.25382" lon="5.42135">
        <ele>71</ele>
        <time>2016-03-28T10:01:03Z</time>
      </trkpt>
      <trkpt lat="43.25387" lon="5.42131">
        <ele>71.1</ele>
        <time>2016-03-28T10:01:04Z</time>
      </trkpt>
      <trkpt lat="43.25392" lon="5.42126">
        <ele>71.1</ele>
        <time>2016-03-28T10:01:05Z</time>
      </trkpt>
      <trkpt lat="43.25397" lon="5.42122">
        <ele>71.3</ele>
        <time>2016-03-28T10:01:06Z</time>
      </trkpt>
      <trkpt lat="43.25402" lon="5.42116">
        <ele>71.6</ele>
        <time>2016-03-28T10:01:07Z</time>
      </trkpt>
      <trkpt lat="43.25408" lon="5.42112">
        <ele>71.8</ele>
        <time>2016-03-28T10:01:08Z</time>
      </trkpt>
      <trkpt lat="43.25412" lon="5.42107">
        <ele>72</ele>
        <time>2016-03-28T10:01:09Z</time>
      </trkpt>
      <trkpt lat="43.25416" lon="5.42102">
        <ele>72.2</ele>
        <time>2016-03-28T10:01:10Z</time>
      </trkpt>
      <trkpt lat="43.25421" lon="5.42096">
        <ele>72.4</ele>
        <time>2016-03-28T10:01:11Z</time>
      </trkpt>
      <trkpt lat="43.25426" lon="5.42091">
        <ele>72.6</ele>
        <time>2016-03-28T10:01:12Z</time>
      </trkpt>
      <trkpt lat="43.25431" lon="5.42087">
        <ele>72.8</ele>
        <time>2016-03-28T10:01:13Z</time>
      </trkpt>
      <trkpt lat="43.25434" lon="5.42083">
        <ele>72.8</ele>
        <time>2016-03-28T10:01:15Z</time>
      </trkpt>
      <trkpt lat="43.2545" lon="5.42066">
        <ele>73.2</ele>
        <time>2016-03-28T10:01:18Z</time>
      </trkpt>
      <trkpt lat="43.25455" lon="5.42061">
        <ele>73.3</ele>
        <time>2016-03-28T10:01:19Z</time>
      </trkpt>
      <trkpt lat="43.25461" lon="5.42057">
        <ele>73.5</ele>
        <time>2016-03-28T10:01:20Z</time>
      </trkpt>
      <trkpt lat="43.25465" lon="5.42053">
        <ele>73.5</ele>
        <time>2016-03-28T10:01:21Z</time>
      </trkpt>
      <trkpt lat="43.2547" lon="5.4205">
        <ele>73.7</ele>
        <time>2016-03-28T10:01:22Z</time>
      </trkpt>
      <trkpt lat="43.25476" lon="5.42047">
        <ele>73.8</ele>
        <time>2016-03-28T10:01:23Z</time>
      </trkpt>
      <trkpt lat="43.25482" lon="5.42043">
        <ele>73.9</ele>
        <time>2016-03-28T10:01:24Z</time>
      </trkpt>
      <trkpt lat="43.25487" lon="5.42037">
        <ele>73.8</ele>
        <time>2016-03-28T10:01:25Z</time>
      </trkpt>
      <trkpt lat="43.25493" lon="5.42032">
        <ele>73.8</ele>
        <time>2016-03-28T10:01:26Z</time>
      </trkpt>
      <trkpt lat="43.25499" lon="5.42028">
        <ele>73.9</ele>
        <time>2016-03-28T10:01:27Z</time>
      </trkpt>
      <trkpt lat="43.2552" lon="5.42017">
        <ele>74</ele>
        <time>2016-03-28T10:01:30Z</time>
      </trkpt>
      <trkpt lat="43.25527" lon="5.42014">
        <ele>74</ele>
        <time>2016-03-28T10:01:31Z</time>
      </trkpt>
      <trkpt lat="43.25533" lon="5.42011">
        <ele>74</ele>
        <time>2016-03-28T10:01:32Z</time>
      </trkpt>
      <trkpt lat="43.25543" lon="5.4201">
        <ele>74.1</ele>
        <time>2016-03-28T10:01:33Z</time>
      </trkpt>
      <trkpt lat="43.25552" lon="5.42007">
        <ele>73.4</ele>
        <time>2016-03-28T10:01:34Z</time>
      </trkpt>
      <trkpt lat="43.25561" lon="5.42006">
        <ele>72.9</ele>
        <time>2016-03-28T10:01:35Z</time>
      </trkpt>
      <trkpt lat="43.2557" lon="5.42007">
        <ele>72.4</ele>
        <time>2016-03-28T10:01:36Z</time>
      </trkpt>
      <trkpt lat="43.2558" lon="5.42006">
        <ele>71.9</ele>
        <time>2016-03-28T10:01:37Z</time>
      </trkpt>
      <trkpt lat="43.25589" lon="5.42005">
        <ele>71.4</ele>
        <time>2016-03-28T10:01:38Z</time>
      </trkpt>
      <trkpt lat="43.25597" lon="5.42004">
        <ele>70.9</ele>
        <time>2016-03-28T10:01:39Z</time>
      </trkpt>
      <trkpt lat="43.25607" lon="5.42002">
        <ele>70.4</ele>
        <time>2016-03-28T10:01:40Z</time>
      </trkpt>
      <trkpt lat="43.25614" lon="5.41998">
        <ele>70</ele>
        <time>2016-03-28T10:01:41Z</time>
      </trkpt>
      <trkpt lat="43.25625" lon="5.41994">
        <ele>69.4</ele>
        <time>2016-03-28T10:01:42Z</time>
      </trkpt>
      <trkpt lat="43.25652" lon="5.41978">
        <ele>69.1</ele>
        <time>2016-03-28T10:01:45Z</time>
      </trkpt>
      <trkpt lat="43.25658" lon="5.41965">
        <ele>69</ele>
        <time>2016-03-28T10:01:46Z</time>
      </trkpt>
      <trkpt lat="43.25662" lon="5.41956">
        <ele>69</ele>
        <time>2016-03-28T10:01:47Z</time>
      </trkpt>
      <trkpt lat="43.25667" lon="5.41953">
        <ele>68.9</ele>
        <time>2016-03-28T10:01:48Z</time>
      </trkpt>
      <trkpt lat="43.25671" lon="5.41946">
        <ele>68.8</ele>
        <time>2016-03-28T10:01:49Z</time>
      </trkpt>
      <trkpt lat="43.25676" lon="5.41939">
        <ele>68.8</ele>
        <time>2016-03-28T10:01:50Z</time>
      </trkpt>
      <trkpt lat="43.25681" lon="5.41934">
        <ele>68.7</ele>
        <time>2016-03-28T10:01:51Z</time>
      </trkpt>
      <trkpt lat="43.25685" lon="5.41928">
        <ele>68.6</ele>
        <time>2016-03-28T10:01:52Z</time>
      </trkpt>
      <trkpt lat="43.2569" lon="5.41922">
        <ele>68.6</ele>
        <time>2016-03-28T10:01:53Z</time>
      </trkpt>
      <trkpt lat="43.257" lon="5.41918">
        <ele>68.5</ele>
        <time>2016-03-28T10:01:54Z</time>
      </trkpt>
      <trkpt lat="43.2571" lon="5.41906">
        <ele>68.3</ele>
        <time>2016-03-28T10:01:57Z</time>
      </trkpt>
      <trkpt lat="43.25719" lon="5.41899">
        <ele>68</ele>
        <time>2016-03-28T10:01:59Z</time>
      </trkpt>
      <trkpt lat="43.25723" lon="5.41893">
        <ele>67.8</ele>
        <time>2016-03-28T10:02:00Z</time>
      </trkpt>
      <trkpt lat="43.25729" lon="5.41886">
        <ele>67.5</ele>
        <time>2016-03-28T10:02:01Z</time>
      </trkpt>
      <trkpt lat="43.25733" lon="5.41878">
        <ele>67.2</ele>
        <time>2016-03-28T10:02:02Z</time>
      </trkpt>
      <trkpt lat="43.25731" lon="5.41869">
        <ele>67</ele>
        <time>2016-03-28T10:02:03Z</time>
      </trkpt>
      <trkpt lat="43.25732" lon="5.41865">
        <ele>66.8</ele>
        <time>2016-03-28T10:02:04Z</time>
      </trkpt>
      <trkpt lat="43.25735" lon="5.41874">
        <ele>67</ele>
        <time>2016-03-28T10:02:05Z</time>
      </trkpt>
      <trkpt lat="43.25727" lon="5.41868">
        <ele>67</ele>
        <time>2016-03-28T10:02:06Z</time>
      </trkpt>
      <trkpt lat="43.2574" lon="5.41849">
        <ele>66.1</ele>
        <time>2016-03-28T10:02:07Z</time>
      </trkpt>
      <trkpt lat="43.25742" lon="5.41847">
        <ele>66</ele>
        <time>2016-03-28T10:02:08Z</time>
      </trkpt>
      <trkpt lat="43.25744" lon="5.41844">
        <ele>65.8</ele>
        <time>2016-03-28T10:02:09Z</time>
      </trkpt>
      <trkpt lat="43.25764" lon="5.41827">
        <ele>65.2</ele>
        <time>2016-03-28T10:02:12Z</time>
      </trkpt>
      <trkpt lat="43.25769" lon="5.4182">
        <ele>65.1</ele>
        <time>2016-03-28T10:02:13Z</time>
      </trkpt>
      <trkpt lat="43.25772" lon="5.4182">
        <ele>65.1</ele>
        <time>2016-03-28T10:02:14Z</time>
      </trkpt>
      <trkpt lat="43.25793" lon="5.41799">
        <ele>65</ele>
        <time>2016-03-28T10:02:17Z</time>
      </trkpt>
      <trkpt lat="43.25802" lon="5.41793">
        <ele>64.6</ele>
        <time>2016-03-28T10:02:18Z</time>
      </trkpt>
      <trkpt lat="43.25809" lon="5.41787">
        <ele>64.2</ele>
        <time>2016-03-28T10:02:19Z</time>
      </trkpt>
      <trkpt lat="43.25815" lon="5.4178">
        <ele>63.8</ele>
        <time>2016-03-28T10:02:20Z</time>
      </trkpt>
      <trkpt lat="43.25823" lon="5.41774">
        <ele>63.4</ele>
        <time>2016-03-28T10:02:21Z</time>
      </trkpt>
      <trkpt lat="43.2583" lon="5.41766">
        <ele>63</ele>
        <time>2016-03-28T10:02:22Z</time>
      </trkpt>
      <trkpt lat="43.25836" lon="5.41759">
        <ele>62.6</ele>
        <time>2016-03-28T10:02:23Z</time>
      </trkpt>
      <trkpt lat="43.25843" lon="5.41752">
        <ele>62.3</ele>
        <time>2016-03-28T10:02:24Z</time>
      </trkpt>
      <trkpt lat="43.2585" lon="5.41745">
        <ele>62</ele>
        <time>2016-03-28T10:02:25Z</time>
      </trkpt>
      <trkpt lat="43.25856" lon="5.41738">
        <ele>61.7</ele>
        <time>2016-03-28T10:02:26Z</time>
      </trkpt>
      <trkpt lat="43.25862" lon="5.41731">
        <ele>61.5</ele>
        <time>2016-03-28T10:02:27Z</time>
      </trkpt>
      <trkpt lat="43.25867" lon="5.41727">
        <ele>61.4</ele>
        <time>2016-03-28T10:02:28Z</time>
      </trkpt>
      <trkpt lat="43.2587" lon="5.41722">
        <ele>61.2</ele>
        <time>2016-03-28T10:02:29Z</time>
      </trkpt>
      <trkpt lat="43.25894" lon="5.41696">
        <ele>61</ele>
        <time>2016-03-28T10:02:34Z</time>
      </trkpt>
      <trkpt lat="43.259" lon="5.4169">
        <ele>61</ele>
        <time>2016-03-28T10:02:35Z</time>
      </trkpt>
      <trkpt lat="43.25907" lon="5.41685">
        <ele>61</ele>
        <time>2016-03-28T10:02:36Z</time>
      </trkpt>
      <trkpt lat="43.25914" lon="5.41678">
        <ele>60.9</ele>
        <time>2016-03-28T10:02:37Z</time>
      </trkpt>
      <trkpt lat="43.25922" lon="5.41671">
        <ele>60.7</ele>
        <time>2016-03-28T10:02:38Z</time>
      </trkpt>
      <trkpt lat="43.25929" lon="5.41665">
        <ele>60.5</ele>
        <time>2016-03-28T10:02:39Z</time>
      </trkpt>
      <trkpt lat="43.25937" lon="5.41658">
        <ele>60.3</ele>
        <time>2016-03-28T10:02:40Z</time>
      </trkpt>
      <trkpt lat="43.25943" lon="5.41651">
        <ele>60</ele>
        <time>2016-03-28T10:02:41Z</time>
      </trkpt>
      <trkpt lat="43.2595" lon="5.41645">
        <ele>59.7</ele>
        <time>2016-03-28T10:02:42Z</time>
      </trkpt>
      <trkpt lat="43.25958" lon="5.4164">
        <ele>59.4</ele>
        <time>2016-03-28T10:02:43Z</time>
      </trkpt>
      <trkpt lat="43.25965" lon="5.41632">
        <ele>58.8</ele>
        <time>2016-03-28T10:02:44Z</time>
      </trkpt>
      <trkpt lat="43.25972" lon="5.41624">
        <ele>58.1</ele>
        <time>2016-03-28T10:02:45Z</time>
      </trkpt>
      <trkpt lat="43.2598" lon="5.41617">
        <ele>57.3</ele>
        <time>2016-03-28T10:02:46Z</time>
      </trkpt>
      <trkpt lat="43.25988" lon="5.4161">
        <ele>56.5</ele>
        <time>2016-03-28T10:02:47Z</time>
      </trkpt>
      <trkpt lat="43.25998" lon="5.41604">
        <ele>55.7</ele>
        <time>2016-03-28T10:02:48Z</time>
      </trkpt>
      <trkpt lat="43.26005" lon="5.41598">
        <ele>55.1</ele>
        <time>2016-03-28T10:02:49Z</time>
      </trkpt>
      <trkpt lat="43.26014" lon="5.41591">
        <ele>54.6</ele>
        <time>2016-03-28T10:02:50Z</time>
      </trkpt>
      <trkpt lat="43.2602" lon="5.41586">
        <ele>54.2</ele>
        <time>2016-03-28T10:02:51Z</time>
      </trkpt>
      <trkpt lat="43.26027" lon="5.41576">
        <ele>53.8</ele>
        <time>2016-03-28T10:02:52Z</time>
      </trkpt>
      <trkpt lat="43.26039" lon="5.41569">
        <ele>53.4</ele>
        <time>2016-03-28T10:02:53Z</time>
      </trkpt>
      <trkpt lat="43.26048" lon="5.41562">
        <ele>53.3</ele>
        <time>2016-03-28T10:02:54Z</time>
      </trkpt>
      <trkpt lat="43.26057" lon="5.41554">
        <ele>53.2</ele>
        <time>2016-03-28T10:02:55Z</time>
      </trkpt>
      <trkpt lat="43.26066" lon="5.41548">
        <ele>53.1</ele>
        <time>2016-03-28T10:02:56Z</time>
      </trkpt>
      <trkpt lat="43.26073" lon="5.41541">
        <ele>53</ele>
        <time>2016-03-28T10:02:57Z</time>
      </trkpt>
      <trkpt lat="43.26083" lon="5.41534">
        <ele>53</ele>
        <time>2016-03-28T10:02:58Z</time>
      </trkpt>
      <trkpt lat="43.26092" lon="5.41526">
        <ele>52.9</ele>
        <time>2016-03-28T10:02:59Z</time>
      </trkpt>
      <trkpt lat="43.261" lon="5.4152">
        <ele>52.8</ele>
        <time>2016-03-28T10:03:00Z</time>
      </trkpt>
      <trkpt lat="43.26107" lon="5.41512">
        <ele>52.7</ele>
        <time>2016-03-28T10:03:01Z</time>
      </trkpt>
      <trkpt lat="43.26115" lon="5.41504">
        <ele>52.6</ele>
        <time>2016-03-28T10:03:02Z</time>
      </trkpt>
      <trkpt lat="43.26124" lon="5.41495">
        <ele>52.4</ele>
        <time>2016-03-28T10:03:03Z</time>
      </trkpt>
      <trkpt lat="43.26132" lon="5.41487">
        <ele>52.1</ele>
        <time>2016-03-28T10:03:04Z</time>
      </trkpt>
      <trkpt lat="43.2614" lon="5.41481">
        <ele>51.6</ele>
        <time>2016-03-28T10:03:05Z</time>
      </trkpt>
      <trkpt lat="43.26148" lon="5.41473">
        <ele>51.1</ele>
        <time>2016-03-28T10:03:06Z</time>
      </trkpt>
      <trkpt lat="43.26154" lon="5.41468">
        <ele>50.6</ele>
        <time>2016-03-28T10:03:07Z</time>
      </trkpt>
      <trkpt lat="43.26159" lon="5.41462">
        <ele>50.1</ele>
        <time>2016-03-28T10:03:08Z</time>
      </trkpt>
      <trkpt lat="43.26163" lon="5.41461">
        <ele>49.8</ele>
        <time>2016-03-28T10:03:09Z</time>
      </trkpt>
      <trkpt lat="43.26165" lon="5.4146">
        <ele>49.7</ele>
        <time>2016-03-28T10:03:15Z</time>
      </trkpt>
      <trkpt lat="43.26164" lon="5.41456">
        <ele>49.6</ele>
        <time>2016-03-28T10:03:31Z</time>
      </trkpt>
      <trkpt lat="43.26162" lon="5.41453">
        <ele>49.6</ele>
        <time>2016-03-28T10:03:32Z</time>
      </trkpt>
      <trkpt lat="43.26169" lon="5.41463">
        <ele>49.6</ele>
        <time>2016-03-28T10:03:35Z</time>
      </trkpt>
      <trkpt lat="43.26161" lon="5.41448">
        <ele>49.5</ele>
        <time>2016-03-28T10:03:41Z</time>
      </trkpt>
      <trkpt lat="43.26164" lon="5.41448">
        <ele>49.3</ele>
        <time>2016-03-28T10:03:42Z</time>
      </trkpt>
      <trkpt lat="43.2617" lon="5.41448">
        <ele>49</ele>
        <time>2016-03-28T10:03:44Z</time>
      </trkpt>
      <trkpt lat="43.26173" lon="5.41447">
        <ele>48.8</ele>
        <time>2016-03-28T10:03:45Z</time>
      </trkpt>
      <trkpt lat="43.26177" lon="5.41446">
        <ele>48.5</ele>
        <time>2016-03-28T10:03:46Z</time>
      </trkpt>
      <trkpt lat="43.2618" lon="5.41449">
        <ele>48.5</ele>
        <time>2016-03-28T10:03:48Z</time>
      </trkpt>
      <trkpt lat="43.26188" lon="5.41432">
        <ele>47.5</ele>
        <time>2016-03-28T10:03:50Z</time>
      </trkpt>
      <trkpt lat="43.26196" lon="5.41423">
        <ele>46.8</ele>
        <time>2016-03-28T10:03:51Z</time>
      </trkpt>
      <trkpt lat="43.26201" lon="5.41419">
        <ele>46.4</ele>
        <time>2016-03-28T10:03:52Z</time>
      </trkpt>
      <trkpt lat="43.26204" lon="5.41412">
        <ele>46.1</ele>
        <time>2016-03-28T10:03:53Z</time>
      </trkpt>
      <trkpt lat="43.26208" lon="5.41404">
        <ele>45.7</ele>
        <time>2016-03-28T10:03:54Z</time>
      </trkpt>
      <trkpt lat="43.26211" lon="5.41397">
        <ele>45.5</ele>
        <time>2016-03-28T10:03:55Z</time>
      </trkpt>
      <trkpt lat="43.26215" lon="5.41391">
        <ele>45.3</ele>
        <time>2016-03-28T10:03:56Z</time>
      </trkpt>
      <trkpt lat="43.2622" lon="5.41383">
        <ele>45</ele>
        <time>2016-03-28T10:03:57Z</time>
      </trkpt>
      <trkpt lat="43.26224" lon="5.41374">
        <ele>44.8</ele>
        <time>2016-03-28T10:03:58Z</time>
      </trkpt>
      <trkpt lat="43.26228" lon="5.41366">
        <ele>44.6</ele>
        <time>2016-03-28T10:03:59Z</time>
      </trkpt>
      <trkpt lat="43.26232" lon="5.41359">
        <ele>44.5</ele>
        <time>2016-03-28T10:04:00Z</time>
      </trkpt>
      <trkpt lat="43.26237" lon="5.4135">
        <ele>44.3</ele>
        <time>2016-03-28T10:04:01Z</time>
      </trkpt>
      <trkpt lat="43.2624" lon="5.41343">
        <ele>44.1</ele>
        <time>2016-03-28T10:04:02Z</time>
      </trkpt>
      <trkpt lat="43.26244" lon="5.41333">
        <ele>43.9</ele>
        <time>2016-03-28T10:04:03Z</time>
      </trkpt>
      <trkpt lat="43.26248" lon="5.41323">
        <ele>43.6</ele>
        <time>2016-03-28T10:04:04Z</time>
      </trkpt>
      <trkpt lat="43.26252" lon="5.41312">
        <ele>43.3</ele>
        <time>2016-03-28T10:04:05Z</time>
      </trkpt>
      <trkpt lat="43.26255" lon="5.41303">
        <ele>43.1</ele>
        <time>2016-03-28T10:04:06Z</time>
      </trkpt>
      <trkpt lat="43.26259" lon="5.41293">
        <ele>42.8</ele>
        <time>2016-03-28T10:04:07Z</time>
      </trkpt>
      <trkpt lat="43.26263" lon="5.41282">
        <ele>42.6</ele>
        <time>2016-03-28T10:04:08Z</time>
      </trkpt>
      <trkpt lat="43.26266" lon="5.41271">
        <ele>42.5</ele>
        <time>2016-03-28T10:04:09Z</time>
      </trkpt>
      <trkpt lat="43.2627" lon="5.41262">
        <ele>42.3</ele>
        <time>2016-03-28T10:04:10Z</time>
      </trkpt>
      <trkpt lat="43.26273" lon="5.41255">
        <ele>42.3</ele>
        <time>2016-03-28T10:04:11Z</time>
      </trkpt>
      <trkpt lat="43.26276" lon="5.41247">
        <ele>42.2</ele>
        <time>2016-03-28T10:04:12Z</time>
      </trkpt>
      <trkpt lat="43.26279" lon="5.41238">
        <ele>42.1</ele>
        <time>2016-03-28T10:04:13Z</time>
      </trkpt>
      <trkpt lat="43.26283" lon="5.41227">
        <ele>42</ele>
        <time>2016-03-28T10:04:14Z</time>
      </trkpt>
      <trkpt lat="43.26287" lon="5.41217">
        <ele>42</ele>
        <time>2016-03-28T10:04:15Z</time>
      </trkpt>
      <trkpt lat="43.26291" lon="5.41205">
        <ele>42</ele>
        <time>2016-03-28T10:04:16Z</time>
      </trkpt>
      <trkpt lat="43.26294" lon="5.41196">
        <ele>42</ele>
        <time>2016-03-28T10:04:17Z</time>
      </trkpt>
      <trkpt lat="43.26298" lon="5.41185">
        <ele>41.9</ele>
        <time>2016-03-28T10:04:18Z</time>
      </trkpt>
      <trkpt lat="43.26302" lon="5.41174">
        <ele>41.6</ele>
        <time>2016-03-28T10:04:19Z</time>
      </trkpt>
      <trkpt lat="43.26307" lon="5.41164">
        <ele>41.3</ele>
        <time>2016-03-28T10:04:20Z</time>
      </trkpt>
      <trkpt lat="43.26311" lon="5.41153">
        <ele>40.9</ele>
        <time>2016-03-28T10:04:21Z</time>
      </trkpt>
      <trkpt lat="43.26316" lon="5.41144">
        <ele>40.5</ele>
        <time>2016-03-28T10:04:22Z</time>
      </trkpt>
      <trkpt lat="43.26321" lon="5.41132">
        <ele>39.9</ele>
        <time>2016-03-28T10:04:23Z</time>
      </trkpt>
      <trkpt lat="43.26327" lon="5.41123">
        <ele>39.2</ele>
        <time>2016-03-28T10:04:24Z</time>
      </trkpt>
      <trkpt lat="43.26334" lon="5.41114">
        <ele>38.5</ele>
        <time>2016-03-28T10:04:25Z</time>
      </trkpt>
      <trkpt lat="43.26337" lon="5.41111">
        <ele>38.1</ele>
        <time>2016-03-28T10:04:26Z</time>
      </trkpt>
      <trkpt lat="43.26355" lon="5.41089">
        <ele>36.4</ele>
        <time>2016-03-28T10:04:28Z</time>
      </trkpt>
      <trkpt lat="43.26362" lon="5.4108">
        <ele>35.8</ele>
        <time>2016-03-28T10:04:29Z</time>
      </trkpt>
      <trkpt lat="43.26382" lon="5.41054">
        <ele>34.5</ele>
        <time>2016-03-28T10:04:32Z</time>
      </trkpt>
      <trkpt lat="43.2639" lon="5.41045">
        <ele>34.3</ele>
        <time>2016-03-28T10:04:33Z</time>
      </trkpt>
      <trkpt lat="43.26398" lon="5.41035">
        <ele>33.8</ele>
        <time>2016-03-28T10:04:34Z</time>
      </trkpt>
      <trkpt lat="43.26406" lon="5.41028">
        <ele>33.3</ele>
        <time>2016-03-28T10:04:35Z</time>
      </trkpt>
      <trkpt lat="43.26413" lon="5.41019">
        <ele>32.8</ele>
        <time>2016-03-28T10:04:36Z</time>
      </trkpt>
      <trkpt lat="43.2642" lon="5.4101">
        <ele>32.3</ele>
        <time>2016-03-28T10:04:37Z</time>
      </trkpt>
      <trkpt lat="43.26427" lon="5.41">
        <ele>31.8</ele>
        <time>2016-03-28T10:04:38Z</time>
      </trkpt>
      <trkpt lat="43.26433" lon="5.40995">
        <ele>31.5</ele>
        <time>2016-03-28T10:04:39Z</time>
      </trkpt>
      <trkpt lat="43.26437" lon="5.4099">
        <ele>31.2</ele>
        <time>2016-03-28T10:04:40Z</time>
      </trkpt>
      <trkpt lat="43.26441" lon="5.40987">
        <ele>31</ele>
        <time>2016-03-28T10:04:41Z</time>
      </trkpt>
      <trkpt lat="43.26443" lon="5.40984">
        <ele>30.9</ele>
        <time>2016-03-28T10:04:42Z</time>
      </trkpt>
      <trkpt lat="43.26442" lon="5.40981">
        <ele>30.9</ele>
        <time>2016-03-28T10:04:45Z</time>
      </trkpt>
      <trkpt lat="43.26446" lon="5.4098">
        <ele>30.8</ele>
        <time>2016-03-28T10:05:12Z</time>
      </trkpt>
      <trkpt lat="43.2645" lon="5.4098">
        <ele>30.6</ele>
        <time>2016-03-28T10:05:14Z</time>
      </trkpt>
      <trkpt lat="43.26452" lon="5.40978">
        <ele>30.5</ele>
        <time>2016-03-28T10:05:15Z</time>
      </trkpt>
      <trkpt lat="43.26455" lon="5.40975">
        <ele>30.3</ele>
        <time>2016-03-28T10:05:16Z</time>
      </trkpt>
      <trkpt lat="43.26458" lon="5.40972">
        <ele>30.2</ele>
        <time>2016-03-28T10:05:17Z</time>
      </trkpt>
      <trkpt lat="43.26462" lon="5.40968">
        <ele>30.1</ele>
        <time>2016-03-28T10:05:18Z</time>
      </trkpt>
      <trkpt lat="43.26466" lon="5.40965">
        <ele>30.1</ele>
        <time>2016-03-28T10:05:19Z</time>
      </trkpt>
      <trkpt lat="43.26469" lon="5.4096">
        <ele>30</ele>
        <time>2016-03-28T10:05:20Z</time>
      </trkpt>
      <trkpt lat="43.26473" lon="5.40957">
        <ele>30</ele>
        <time>2016-03-28T10:05:21Z</time>
      </trkpt>
      <trkpt lat="43.26476" lon="5.40953">
        <ele>29.9</ele>
        <time>2016-03-28T10:05:22Z</time>
      </trkpt>
      <trkpt lat="43.2648" lon="5.40951">
        <ele>29.9</ele>
        <time>2016-03-28T10:05:25Z</time>
      </trkpt>
      <trkpt lat="43.26487" lon="5.40945">
        <ele>29.9</ele>
        <time>2016-03-28T10:06:01Z</time>
      </trkpt>
      <trkpt lat="43.26489" lon="5.40942">
        <ele>29.9</ele>
        <time>2016-03-28T10:06:02Z</time>
      </trkpt>
      <trkpt lat="43.26492" lon="5.40939">
        <ele>29.9</ele>
        <time>2016-03-28T10:06:03Z</time>
      </trkpt>
      <trkpt lat="43.26495" lon="5.40935">
        <ele>29.8</ele>
        <time>2016-03-28T10:06:04Z</time>
      </trkpt>
      <trkpt lat="43.26498" lon="5.40931">
        <ele>29.8</ele>
        <time>2016-03-28T10:06:05Z</time>
      </trkpt>
      <trkpt lat="43.26502" lon="5.40927">
        <ele>29.8</ele>
        <time>2016-03-28T10:06:06Z</time>
      </trkpt>
      <trkpt lat="43.26505" lon="5.40922">
        <ele>29.8</ele>
        <time>2016-03-28T10:06:07Z</time>
      </trkpt>
      <trkpt lat="43.26508" lon="5.40919">
        <ele>29.8</ele>
        <time>2016-03-28T10:06:08Z</time>
      </trkpt>
      <trkpt lat="43.26511" lon="5.40915">
        <ele>29.8</ele>
        <time>2016-03-28T10:06:09Z</time>
      </trkpt>
      <trkpt lat="43.26514" lon="5.40911">
        <ele>29.8</ele>
        <time>2016-03-28T10:06:10Z</time>
      </trkpt>
      <trkpt lat="43.26518" lon="5.40909">
        <ele>29.8</ele>
        <time>2016-03-28T10:06:11Z</time>
      </trkpt>
      <trkpt lat="43.26522" lon="5.40906">
        <ele>29.8</ele>
        <time>2016-03-28T10:06:12Z</time>
      </trkpt>
      <trkpt lat="43.26525" lon="5.40906">
        <ele>29.9</ele>
        <time>2016-03-28T10:06:13Z</time>
      </trkpt>
      <trkpt lat="43.26541" lon="5.40895">
        <ele>30</ele>
        <time>2016-03-28T10:06:16Z</time>
      </trkpt>
      <trkpt lat="43.26546" lon="5.40892">
        <ele>30</ele>
        <time>2016-03-28T10:06:17Z</time>
      </trkpt>
      <trkpt lat="43.26552" lon="5.40889">
        <ele>30</ele>
        <time>2016-03-28T10:06:18Z</time>
      </trkpt>
      <trkpt lat="43.26557" lon="5.40885">
        <ele>30</ele>
        <time>2016-03-28T10:06:19Z</time>
      </trkpt>
      <trkpt lat="43.26564" lon="5.40883">
        <ele>30</ele>
        <time>2016-03-28T10:06:20Z</time>
      </trkpt>
      <trkpt lat="43.26571" lon="5.40879">
        <ele>30</ele>
        <time>2016-03-28T10:06:21Z</time>
      </trkpt>
      <trkpt lat="43.26577" lon="5.40876">
        <ele>30</ele>
        <time>2016-03-28T10:06:22Z</time>
      </trkpt>
      <trkpt lat="43.26585" lon="5.4087">
        <ele>29.9</ele>
        <time>2016-03-28T10:06:23Z</time>
      </trkpt>
      <trkpt lat="43.2659" lon="5.40867">
        <ele>29.8</ele>
        <time>2016-03-28T10:06:24Z</time>
      </trkpt>
      <trkpt lat="43.26596" lon="5.40864">
        <ele>29.7</ele>
        <time>2016-03-28T10:06:25Z</time>
      </trkpt>
      <trkpt lat="43.26602" lon="5.40861">
        <ele>29.6</ele>
        <time>2016-03-28T10:06:26Z</time>
      </trkpt>
      <trkpt lat="43.26609" lon="5.40859">
        <ele>29.5</ele>
        <time>2016-03-28T10:06:27Z</time>
      </trkpt>
      <trkpt lat="43.26615" lon="5.40856">
        <ele>29.4</ele>
        <time>2016-03-28T10:06:28Z</time>
      </trkpt>
      <trkpt lat="43.26622" lon="5.40853">
        <ele>29.2</ele>
        <time>2016-03-28T10:06:29Z</time>
      </trkpt>
      <trkpt lat="43.26629" lon="5.40848">
        <ele>28.9</ele>
        <time>2016-03-28T10:06:30Z</time>
      </trkpt>
      <trkpt lat="43.26635" lon="5.40846">
        <ele>28.7</ele>
        <time>2016-03-28T10:06:31Z</time>
      </trkpt>
      <trkpt lat="43.26639" lon="5.40846">
        <ele>28.7</ele>
        <time>2016-03-28T10:06:32Z</time>
      </trkpt>
      <trkpt lat="43.26646" lon="5.40844">
        <ele>28.5</ele>
        <time>2016-03-28T10:06:33Z</time>
      </trkpt>
      <trkpt lat="43.26654" lon="5.40838">
        <ele>28.1</ele>
        <time>2016-03-28T10:06:34Z</time>
      </trkpt>
      <trkpt lat="43.26661" lon="5.40836">
        <ele>27.9</ele>
        <time>2016-03-28T10:06:35Z</time>
      </trkpt>
      <trkpt lat="43.26667" lon="5.40833">
        <ele>27.7</ele>
        <time>2016-03-28T10:06:36Z</time>
      </trkpt>
      <trkpt lat="43.26687" lon="5.40822">
        <ele>27.1</ele>
        <time>2016-03-28T10:06:39Z</time>
      </trkpt>
      <trkpt lat="43.26694" lon="5.40818">
        <ele>26.9</ele>
        <time>2016-03-28T10:06:40Z</time>
      </trkpt>
      <trkpt lat="43.26702" lon="5.40816">
        <ele>26.7</ele>
        <time>2016-03-28T10:06:41Z</time>
      </trkpt>
      <trkpt lat="43.26709" lon="5.4081">
        <ele>26.5</ele>
        <time>2016-03-28T10:06:42Z</time>
      </trkpt>
      <trkpt lat="43.26726" lon="5.40801">
        <ele>26.8</ele>
        <time>2016-03-28T10:06:45Z</time>
      </trkpt>
      <trkpt lat="43.26733" lon="5.40798">
        <ele>27</ele>
        <time>2016-03-28T10:06:46Z</time>
      </trkpt>
      <trkpt lat="43.2674" lon="5.40794">
        <ele>27.2</ele>
        <time>2016-03-28T10:06:47Z</time>
      </trkpt>
      <trkpt lat="43.26747" lon="5.40793">
        <ele>27.4</ele>
        <time>2016-03-28T10:06:48Z</time>
      </trkpt>
      <trkpt lat="43.26753" lon="5.4079">
        <ele>27.5</ele>
        <time>2016-03-28T10:06:49Z</time>
      </trkpt>
      <trkpt lat="43.2676" lon="5.40785">
        <ele>27.5</ele>
        <time>2016-03-28T10:06:50Z</time>
      </trkpt>
      <trkpt lat="43.26766" lon="5.4078">
        <ele>27.5</ele>
        <time>2016-03-28T10:06:51Z</time>
      </trkpt>
      <trkpt lat="43.26771" lon="5.40775">
        <ele>27.4</ele>
        <time>2016-03-28T10:06:52Z</time>
      </trkpt>
      <trkpt lat="43.26777" lon="5.40769">
        <ele>27.4</ele>
        <time>2016-03-28T10:06:53Z</time>
      </trkpt>
      <trkpt lat="43.26783" lon="5.40761">
        <ele>27.2</ele>
        <time>2016-03-28T10:06:54Z</time>
      </trkpt>
      <trkpt lat="43.26793" lon="5.40749">
        <ele>27</ele>
        <time>2016-03-28T10:06:56Z</time>
      </trkpt>
      <trkpt lat="43.26799" lon="5.40746">
        <ele>26.9</ele>
        <time>2016-03-28T10:06:57Z</time>
      </trkpt>
      <trkpt lat="43.26804" lon="5.40743">
        <ele>26.8</ele>
        <time>2016-03-28T10:06:58Z</time>
      </trkpt>
      <trkpt lat="43.2681" lon="5.40741">
        <ele>26.7</ele>
        <time>2016-03-28T10:06:59Z</time>
      </trkpt>
      <trkpt lat="43.26814" lon="5.40737">
        <ele>26.6</ele>
        <time>2016-03-28T10:07:00Z</time>
      </trkpt>
      <trkpt lat="43.26815" lon="5.40688">
        <ele>24.8</ele>
        <time>2016-03-28T10:07:02Z</time>
      </trkpt>
      <trkpt lat="43.26817" lon="5.40678">
        <ele>24.5</ele>
        <time>2016-03-28T10:07:03Z</time>
      </trkpt>
      <trkpt lat="43.26819" lon="5.40664">
        <ele>24.1</ele>
        <time>2016-03-28T10:07:04Z</time>
      </trkpt>
      <trkpt lat="43.2682" lon="5.40654">
        <ele>23.7</ele>
        <time>2016-03-28T10:07:05Z</time>
      </trkpt>
      <trkpt lat="43.26822" lon="5.40644">
        <ele>23.4</ele>
        <time>2016-03-28T10:07:06Z</time>
      </trkpt>
      <trkpt lat="43.26826" lon="5.40631">
        <ele>23</ele>
        <time>2016-03-28T10:07:07Z</time>
      </trkpt>
      <trkpt lat="43.26827" lon="5.40621">
        <ele>22.7</ele>
        <time>2016-03-28T10:07:08Z</time>
      </trkpt>
      <trkpt lat="43.26829" lon="5.40606">
        <ele>22.4</ele>
        <time>2016-03-28T10:07:09Z</time>
      </trkpt>
      <trkpt lat="43.26833" lon="5.40595">
        <ele>22.1</ele>
        <time>2016-03-28T10:07:10Z</time>
      </trkpt>
      <trkpt lat="43.26835" lon="5.40585">
        <ele>21.8</ele>
        <time>2016-03-28T10:07:11Z</time>
      </trkpt>
      <trkpt lat="43.26838" lon="5.40572">
        <ele>21.4</ele>
        <time>2016-03-28T10:07:12Z</time>
      </trkpt>
      <trkpt lat="43.2684" lon="5.40561">
        <ele>21</ele>
        <time>2016-03-28T10:07:13Z</time>
      </trkpt>
      <trkpt lat="43.26843" lon="5.40548">
        <ele>20.6</ele>
        <time>2016-03-28T10:07:14Z</time>
      </trkpt>
      <trkpt lat="43.26845" lon="5.40539">
        <ele>20.3</ele>
        <time>2016-03-28T10:07:15Z</time>
      </trkpt>
      <trkpt lat="43.26848" lon="5.40529">
        <ele>20</ele>
        <time>2016-03-28T10:07:16Z</time>
      </trkpt>
      <trkpt lat="43.2685" lon="5.40518">
        <ele>19.7</ele>
        <time>2016-03-28T10:07:17Z</time>
      </trkpt>
      <trkpt lat="43.26853" lon="5.4051">
        <ele>19.4</ele>
        <time>2016-03-28T10:07:18Z</time>
      </trkpt>
      <trkpt lat="43.26855" lon="5.40505">
        <ele>19.2</ele>
        <time>2016-03-28T10:07:19Z</time>
      </trkpt>
      <trkpt lat="43.26857" lon="5.40497">
        <ele>19</ele>
        <time>2016-03-28T10:07:20Z</time>
      </trkpt>
      <trkpt lat="43.26858" lon="5.40492">
        <ele>18.9</ele>
        <time>2016-03-28T10:07:21Z</time>
      </trkpt>
      <trkpt lat="43.26859" lon="5.40487">
        <ele>18.7</ele>
        <time>2016-03-28T10:07:22Z</time>
      </trkpt>
      <trkpt lat="43.26859" lon="5.4048">
        <ele>18.6</ele>
        <time>2016-03-28T10:07:23Z</time>
      </trkpt>
      <trkpt lat="43.26863" lon="5.40453">
        <ele>17.9</ele>
        <time>2016-03-28T10:07:28Z</time>
      </trkpt>
      <trkpt lat="43.26865" lon="5.40442">
        <ele>17.8</ele>
        <time>2016-03-28T10:07:29Z</time>
      </trkpt>
      <trkpt lat="43.26866" lon="5.40435">
        <ele>17.7</ele>
        <time>2016-03-28T10:07:30Z</time>
      </trkpt>
      <trkpt lat="43.26871" lon="5.40426">
        <ele>17.6</ele>
        <time>2016-03-28T10:07:31Z</time>
      </trkpt>
      <trkpt lat="43.26872" lon="5.40419">
        <ele>17.5</ele>
        <time>2016-03-28T10:07:32Z</time>
      </trkpt>
      <trkpt lat="43.26873" lon="5.40415">
        <ele>17.5</ele>
        <time>2016-03-28T10:07:33Z</time>
      </trkpt>
      <trkpt lat="43.26871" lon="5.40422">
        <ele>17.5</ele>
        <time>2016-03-28T10:07:34Z</time>
      </trkpt>
      <trkpt lat="43.26888" lon="5.40416">
        <ele>17.1</ele>
        <time>2016-03-28T10:07:37Z</time>
      </trkpt>
      <trkpt lat="43.26891" lon="5.40418">
        <ele>17</ele>
        <time>2016-03-28T10:07:38Z</time>
      </trkpt>
      <trkpt lat="43.26894" lon="5.40422">
        <ele>17</ele>
        <time>2016-03-28T10:07:39Z</time>
      </trkpt>
      <trkpt lat="43.26897" lon="5.40425">
        <ele>17</ele>
        <time>2016-03-28T10:07:40Z</time>
      </trkpt>
      <trkpt lat="43.26899" lon="5.40429">
        <ele>17</ele>
        <time>2016-03-28T10:07:41Z</time>
      </trkpt>
      <trkpt lat="43.26902" lon="5.40432">
        <ele>17</ele>
        <time>2016-03-28T10:07:42Z</time>
      </trkpt>
      <trkpt lat="43.26904" lon="5.40436">
        <ele>17</ele>
        <time>2016-03-28T10:07:43Z</time>
      </trkpt>
      <trkpt lat="43.26906" lon="5.4044">
        <ele>17</ele>
        <time>2016-03-28T10:07:44Z</time>
      </trkpt>
      <trkpt lat="43.26908" lon="5.40445">
        <ele>17</ele>
        <time>2016-03-28T10:07:45Z</time>
      </trkpt>
      <trkpt lat="43.26911" lon="5.40449">
        <ele>17</ele>
        <time>2016-03-28T10:07:46Z</time>
      </trkpt>
      <trkpt lat="43.26914" lon="5.40454">
        <ele>17</ele>
        <time>2016-03-28T10:07:47Z</time>
      </trkpt>
      <trkpt lat="43.26916" lon="5.40459">
        <ele>17</ele>
        <time>2016-03-28T10:07:48Z</time>
      </trkpt>
      <trkpt lat="43.26919" lon="5.40464">
        <ele>17.1</ele>
        <time>2016-03-28T10:07:49Z</time>
      </trkpt>
      <trkpt lat="43.26922" lon="5.40468">
        <ele>17.2</ele>
        <time>2016-03-28T10:07:50Z</time>
      </trkpt>
      <trkpt lat="43.26925" lon="5.40472">
        <ele>17.2</ele>
        <time>2016-03-28T10:07:51Z</time>
      </trkpt>
      <trkpt lat="43.26927" lon="5.40477">
        <ele>17.3</ele>
        <time>2016-03-28T10:07:52Z</time>
      </trkpt>
      <trkpt lat="43.2693" lon="5.40482">
        <ele>17.4</ele>
        <time>2016-03-28T10:07:53Z</time>
      </trkpt>
      <trkpt lat="43.26932" lon="5.40487">
        <ele>17.6</ele>
        <time>2016-03-28T10:07:54Z</time>
      </trkpt>
      <trkpt lat="43.26934" lon="5.40491">
        <ele>17.6</ele>
        <time>2016-03-28T10:07:55Z</time>
      </trkpt>
      <trkpt lat="43.26935" lon="5.40495">
        <ele>17.7</ele>
        <time>2016-03-28T10:07:57Z</time>
      </trkpt>
      <trkpt lat="43.26937" lon="5.40498">
        <ele>17.8</ele>
        <time>2016-03-28T10:08:18Z</time>
      </trkpt>
      <trkpt lat="43.26938" lon="5.40503">
        <ele>18</ele>
        <time>2016-03-28T10:08:26Z</time>
      </trkpt>
      <trkpt lat="43.26939" lon="5.40507">
        <ele>18.1</ele>
        <time>2016-03-28T10:08:28Z</time>
      </trkpt>
      <trkpt lat="43.26942" lon="5.40513">
        <ele>18.2</ele>
        <time>2016-03-28T10:08:30Z</time>
      </trkpt>
      <trkpt lat="43.26943" lon="5.40516">
        <ele>18.3</ele>
        <time>2016-03-28T10:08:31Z</time>
      </trkpt>
      <trkpt lat="43.26945" lon="5.4052">
        <ele>18.4</ele>
        <time>2016-03-28T10:08:32Z</time>
      </trkpt>
      <trkpt lat="43.26947" lon="5.40524">
        <ele>18.5</ele>
        <time>2016-03-28T10:08:33Z</time>
      </trkpt>
      <trkpt lat="43.26948" lon="5.40527">
        <ele>18.6</ele>
        <time>2016-03-28T10:08:34Z</time>
      </trkpt>
      <trkpt lat="43.2695" lon="5.40532">
        <ele>18.8</ele>
        <time>2016-03-28T10:08:35Z</time>
      </trkpt>
      <trkpt lat="43.26952" lon="5.40537">
        <ele>18.9</ele>
        <time>2016-03-28T10:08:36Z</time>
      </trkpt>
      <trkpt lat="43.26954" lon="5.40542">
        <ele>19.1</ele>
        <time>2016-03-28T10:08:37Z</time>
      </trkpt>
      <trkpt lat="43.26956" lon="5.40546">
        <ele>19</ele>
        <time>2016-03-28T10:08:38Z</time>
      </trkpt>
      <trkpt lat="43.26959" lon="5.40552">
        <ele>19</ele>
        <time>2016-03-28T10:08:39Z</time>
      </trkpt>
      <trkpt lat="43.26961" lon="5.40557">
        <ele>19</ele>
        <time>2016-03-28T10:08:40Z</time>
      </trkpt>
      <trkpt lat="43.26962" lon="5.40565">
        <ele>19.1</ele>
        <time>2016-03-28T10:08:41Z</time>
      </trkpt>
      <trkpt lat="43.26965" lon="5.40569">
        <ele>19.1</ele>
        <time>2016-03-28T10:08:42Z</time>
      </trkpt>
      <trkpt lat="43.26968" lon="5.40573">
        <ele>19.1</ele>
        <time>2016-03-28T10:08:43Z</time>
      </trkpt>
      <trkpt lat="43.26972" lon="5.40579">
        <ele>19.2</ele>
        <time>2016-03-28T10:08:44Z</time>
      </trkpt>
      <trkpt lat="43.26975" lon="5.40584">
        <ele>19.2</ele>
        <time>2016-03-28T10:08:45Z</time>
      </trkpt>
      <trkpt lat="43.26977" lon="5.4059">
        <ele>19.2</ele>
        <time>2016-03-28T10:08:46Z</time>
      </trkpt>
      <trkpt lat="43.26981" lon="5.40596">
        <ele>19.2</ele>
        <time>2016-03-28T10:08:47Z</time>
      </trkpt>
      <trkpt lat="43.26986" lon="5.40602">
        <ele>19.2</ele>
        <time>2016-03-28T10:08:48Z</time>
      </trkpt>
      <trkpt lat="43.2699" lon="5.40607">
        <ele>19.2</ele>
        <time>2016-03-28T10:08:49Z</time>
      </trkpt>
      <trkpt lat="43.26993" lon="5.40613">
        <ele>19.1</ele>
        <time>2016-03-28T10:08:50Z</time>
      </trkpt>
      <trkpt lat="43.26997" lon="5.4062">
        <ele>19.1</ele>
        <time>2016-03-28T10:08:51Z</time>
      </trkpt>
      <trkpt lat="43.26999" lon="5.40626">
        <ele>19</ele>
        <time>2016-03-28T10:08:52Z</time>
      </trkpt>
      <trkpt lat="43.27002" lon="5.40632">
        <ele>19.2</ele>
        <time>2016-03-28T10:08:53Z</time>
      </trkpt>
      <trkpt lat="43.27006" lon="5.40639">
        <ele>19.4</ele>
        <time>2016-03-28T10:08:54Z</time>
      </trkpt>
      <trkpt lat="43.27009" lon="5.40646">
        <ele>19.5</ele>
        <time>2016-03-28T10:08:55Z</time>
      </trkpt>
      <trkpt lat="43.27012" lon="5.40647">
        <ele>19.5</ele>
        <time>2016-03-28T10:08:57Z</time>
      </trkpt>
      <trkpt lat="43.27027" lon="5.40669">
        <ele>19.8</ele>
        <time>2016-03-28T10:09:00Z</time>
      </trkpt>
      <trkpt lat="43.27029" lon="5.40675">
        <ele>19.9</ele>
        <time>2016-03-28T10:09:01Z</time>
      </trkpt>
      <trkpt lat="43.27032" lon="5.4068">
        <ele>19.9</ele>
        <time>2016-03-28T10:09:02Z</time>
      </trkpt>
      <trkpt lat="43.27037" lon="5.40685">
        <ele>19.9</ele>
        <time>2016-03-28T10:09:03Z</time>
      </trkpt>
      <trkpt lat="43.27038" lon="5.40694">
        <ele>19.9</ele>
        <time>2016-03-28T10:09:04Z</time>
      </trkpt>
      <trkpt lat="43.27041" lon="5.407">
        <ele>19.9</ele>
        <time>2016-03-28T10:09:05Z</time>
      </trkpt>
      <trkpt lat="43.27044" lon="5.40707">
        <ele>19.9</ele>
        <time>2016-03-28T10:09:06Z</time>
      </trkpt>
      <trkpt lat="43.27049" lon="5.40713">
        <ele>19.9</ele>
        <time>2016-03-28T10:09:07Z</time>
      </trkpt>
      <trkpt lat="43.27053" lon="5.40718">
        <ele>20</ele>
        <time>2016-03-28T10:09:08Z</time>
      </trkpt>
      <trkpt lat="43.27054" lon="5.40725">
        <ele>20.1</ele>
        <time>2016-03-28T10:09:09Z</time>
      </trkpt>
      <trkpt lat="43.27056" lon="5.4073">
        <ele>20.2</ele>
        <time>2016-03-28T10:09:10Z</time>
      </trkpt>
      <trkpt lat="43.27059" lon="5.40737">
        <ele>20.3</ele>
        <time>2016-03-28T10:09:12Z</time>
      </trkpt>
      <trkpt lat="43.27061" lon="5.40744">
        <ele>20.5</ele>
        <time>2016-03-28T10:09:14Z</time>
      </trkpt>
      <trkpt lat="43.2706" lon="5.40748">
        <ele>20.6</ele>
        <time>2016-03-28T10:09:17Z</time>
      </trkpt>
      <trkpt lat="43.27065" lon="5.40765">
        <ele>21</ele>
        <time>2016-03-28T10:09:21Z</time>
      </trkpt>
      <trkpt lat="43.27075" lon="5.40791">
        <ele>21.6</ele>
        <time>2016-03-28T10:09:23Z</time>
      </trkpt>
      <trkpt lat="43.2708" lon="5.40804">
        <ele>21.8</ele>
        <time>2016-03-28T10:09:25Z</time>
      </trkpt>
      <trkpt lat="43.27082" lon="5.40811">
        <ele>21.9</ele>
        <time>2016-03-28T10:09:26Z</time>
      </trkpt>
      <trkpt lat="43.27084" lon="5.40817">
        <ele>22</ele>
        <time>2016-03-28T10:09:27Z</time>
      </trkpt>
      <trkpt lat="43.27087" lon="5.40823">
        <ele>22</ele>
        <time>2016-03-28T10:09:28Z</time>
      </trkpt>
      <trkpt lat="43.27088" lon="5.4083">
        <ele>22.1</ele>
        <time>2016-03-28T10:09:29Z</time>
      </trkpt>
      <trkpt lat="43.27091" lon="5.40836">
        <ele>22.2</ele>
        <time>2016-03-28T10:09:30Z</time>
      </trkpt>
      <trkpt lat="43.27093" lon="5.40843">
        <ele>22.2</ele>
        <time>2016-03-28T10:09:31Z</time>
      </trkpt>
      <trkpt lat="43.27096" lon="5.4085">
        <ele>22.3</ele>
        <time>2016-03-28T10:09:32Z</time>
      </trkpt>
      <trkpt lat="43.27099" lon="5.40855">
        <ele>22.3</ele>
        <time>2016-03-28T10:09:33Z</time>
      </trkpt>
      <trkpt lat="43.27102" lon="5.40861">
        <ele>22.3</ele>
        <time>2016-03-28T10:09:34Z</time>
      </trkpt>
      <trkpt lat="43.27104" lon="5.40868">
        <ele>22.4</ele>
        <time>2016-03-28T10:09:35Z</time>
      </trkpt>
      <trkpt lat="43.27106" lon="5.40873">
        <ele>22.4</ele>
        <time>2016-03-28T10:09:36Z</time>
      </trkpt>
      <trkpt lat="43.27109" lon="5.40878">
        <ele>22.4</ele>
        <time>2016-03-28T10:09:37Z</time>
      </trkpt>
      <trkpt lat="43.2711" lon="5.40882">
        <ele>22.5</ele>
        <time>2016-03-28T10:09:38Z</time>
      </trkpt>
      <trkpt lat="43.27112" lon="5.40886">
        <ele>22.5</ele>
        <time>2016-03-28T10:09:40Z</time>
      </trkpt>
      <trkpt lat="43.27112" lon="5.40891">
        <ele>22.5</ele>
        <time>2016-03-28T10:09:44Z</time>
      </trkpt>
      <trkpt lat="43.27122" lon="5.4091">
        <ele>22.5</ele>
        <time>2016-03-28T10:09:53Z</time>
      </trkpt>
      <trkpt lat="43.27125" lon="5.40915">
        <ele>22.5</ele>
        <time>2016-03-28T10:09:54Z</time>
      </trkpt>
      <trkpt lat="43.27143" lon="5.40941">
        <ele>22.4</ele>
        <time>2016-03-28T10:09:59Z</time>
      </trkpt>
      <trkpt lat="43.27146" lon="5.40944">
        <ele>22.3</ele>
        <time>2016-03-28T10:10:00Z</time>
      </trkpt>
      <trkpt lat="43.27149" lon="5.4095">
        <ele>22.3</ele>
        <time>2016-03-28T10:10:01Z</time>
      </trkpt>
      <trkpt lat="43.27151" lon="5.40955">
        <ele>22.3</ele>
        <time>2016-03-28T10:10:02Z</time>
      </trkpt>
      <trkpt lat="43.27155" lon="5.40961">
        <ele>22.3</ele>
        <time>2016-03-28T10:10:03Z</time>
      </trkpt>
      <trkpt lat="43.27159" lon="5.40965">
        <ele>22.3</ele>
        <time>2016-03-28T10:10:04Z</time>
      </trkpt>
      <trkpt lat="43.27161" lon="5.40972">
        <ele>22.4</ele>
        <time>2016-03-28T10:10:05Z</time>
      </trkpt>
      <trkpt lat="43.27165" lon="5.40979">
        <ele>22.4</ele>
        <time>2016-03-28T10:10:06Z</time>
      </trkpt>
      <trkpt lat="43.27168" lon="5.40985">
        <ele>22.4</ele>
        <time>2016-03-28T10:10:07Z</time>
      </trkpt>
      <trkpt lat="43.27173" lon="5.4099">
        <ele>22.5</ele>
        <time>2016-03-28T10:10:08Z</time>
      </trkpt>
      <trkpt lat="43.27176" lon="5.40996">
        <ele>22.5</ele>
        <time>2016-03-28T10:10:09Z</time>
      </trkpt>
      <trkpt lat="43.27179" lon="5.41003">
        <ele>22.6</ele>
        <time>2016-03-28T10:10:10Z</time>
      </trkpt>
      <trkpt lat="43.27184" lon="5.41008">
        <ele>22.6</ele>
        <time>2016-03-28T10:10:11Z</time>
      </trkpt>
      <trkpt lat="43.27187" lon="5.41014">
        <ele>22.7</ele>
        <time>2016-03-28T10:10:12Z</time>
      </trkpt>
      <trkpt lat="43.27191" lon="5.4102">
        <ele>22.7</ele>
        <time>2016-03-28T10:10:13Z</time>
      </trkpt>
      <trkpt lat="43.27194" lon="5.41028">
        <ele>22.9</ele>
        <time>2016-03-28T10:10:14Z</time>
      </trkpt>
      <trkpt lat="43.27198" lon="5.41036">
        <ele>23</ele>
        <time>2016-03-28T10:10:15Z</time>
      </trkpt>
      <trkpt lat="43.27201" lon="5.41043">
        <ele>23.1</ele>
        <time>2016-03-28T10:10:16Z</time>
      </trkpt>
      <trkpt lat="43.27204" lon="5.4105">
        <ele>23.4</ele>
        <time>2016-03-28T10:10:17Z</time>
      </trkpt>
      <trkpt lat="43.27208" lon="5.41056">
        <ele>23.5</ele>
        <time>2016-03-28T10:10:18Z</time>
      </trkpt>
      <trkpt lat="43.2721" lon="5.41062">
        <ele>23.7</ele>
        <time>2016-03-28T10:10:19Z</time>
      </trkpt>
      <trkpt lat="43.27214" lon="5.41069">
        <ele>23.9</ele>
        <time>2016-03-28T10:10:20Z</time>
      </trkpt>
      <trkpt lat="43.27217" lon="5.41076">
        <ele>24</ele>
        <time>2016-03-28T10:10:21Z</time>
      </trkpt>
      <trkpt lat="43.27232" lon="5.41097">
        <ele>24.3</ele>
        <time>2016-03-28T10:10:25Z</time>
      </trkpt>
      <trkpt lat="43.27236" lon="5.41103">
        <ele>24.4</ele>
        <time>2016-03-28T10:10:26Z</time>
      </trkpt>
      <trkpt lat="43.27239" lon="5.4111">
        <ele>24.5</ele>
        <time>2016-03-28T10:10:27Z</time>
      </trkpt>
      <trkpt lat="43.27243" lon="5.41117">
        <ele>24.6</ele>
        <time>2016-03-28T10:10:28Z</time>
      </trkpt>
      <trkpt lat="43.27247" lon="5.41125">
        <ele>24.6</ele>
        <time>2016-03-28T10:10:29Z</time>
      </trkpt>
      <trkpt lat="43.2725" lon="5.41127">
        <ele>24.6</ele>
        <time>2016-03-28T10:10:30Z</time>
      </trkpt>
      <trkpt lat="43.27263" lon="5.41153">
        <ele>24.8</ele>
        <time>2016-03-28T10:10:33Z</time>
      </trkpt>
      <trkpt lat="43.27267" lon="5.41161">
        <ele>24.9</ele>
        <time>2016-03-28T10:10:34Z</time>
      </trkpt>
      <trkpt lat="43.27271" lon="5.41169">
        <ele>25.1</ele>
        <time>2016-03-28T10:10:35Z</time>
      </trkpt>
      <trkpt lat="43.27275" lon="5.41177">
        <ele>25.2</ele>
        <time>2016-03-28T10:10:36Z</time>
      </trkpt>
      <trkpt lat="43.27279" lon="5.41184">
        <ele>25.4</ele>
        <time>2016-03-28T10:10:37Z</time>
      </trkpt>
      <trkpt lat="43.27282" lon="5.41189">
        <ele>25.5</ele>
        <time>2016-03-28T10:10:38Z</time>
      </trkpt>
      <trkpt lat="43.27295" lon="5.41213">
        <ele>26</ele>
        <time>2016-03-28T10:10:41Z</time>
      </trkpt>
      <trkpt lat="43.27299" lon="5.41222">
        <ele>26</ele>
        <time>2016-03-28T10:10:42Z</time>
      </trkpt>
      <trkpt lat="43.27304" lon="5.41228">
        <ele>25.9</ele>
        <time>2016-03-28T10:10:43Z</time>
      </trkpt>
      <trkpt lat="43.27307" lon="5.41237">
        <ele>26</ele>
        <time>2016-03-28T10:10:44Z</time>
      </trkpt>
      <trkpt lat="43.2731" lon="5.41245">
        <ele>26</ele>
        <time>2016-03-28T10:10:45Z</time>
      </trkpt>
      <trkpt lat="43.27314" lon="5.41253">
        <ele>26</ele>
        <time>2016-03-28T10:10:46Z</time>
      </trkpt>
      <trkpt lat="43.27319" lon="5.4126">
        <ele>25.8</ele>
        <time>2016-03-28T10:10:47Z</time>
      </trkpt>
      <trkpt lat="43.27322" lon="5.41268">
        <ele>25.8</ele>
        <time>2016-03-28T10:10:48Z</time>
      </trkpt>
      <trkpt lat="43.27323" lon="5.41275">
        <ele>25.9</ele>
        <time>2016-03-28T10:10:49Z</time>
      </trkpt>
      <trkpt lat="43.27341" lon="5.41308">
        <ele>25.3</ele>
        <time>2016-03-28T10:10:53Z</time>
      </trkpt>
      <trkpt lat="43.27344" lon="5.41314">
        <ele>25.2</ele>
        <time>2016-03-28T10:10:54Z</time>
      </trkpt>
      <trkpt lat="43.27348" lon="5.41321">
        <ele>25.1</ele>
        <time>2016-03-28T10:10:55Z</time>
      </trkpt>
      <trkpt lat="43.27352" lon="5.41327">
        <ele>25</ele>
        <time>2016-03-28T10:10:56Z</time>
      </trkpt>
      <trkpt lat="43.27355" lon="5.41334">
        <ele>24.9</ele>
        <time>2016-03-28T10:10:57Z</time>
      </trkpt>
      <trkpt lat="43.27358" lon="5.41342">
        <ele>25</ele>
        <time>2016-03-28T10:10:58Z</time>
      </trkpt>
      <trkpt lat="43.27362" lon="5.41348">
        <ele>24.9</ele>
        <time>2016-03-28T10:10:59Z</time>
      </trkpt>
      <trkpt lat="43.27365" lon="5.41355">
        <ele>25</ele>
        <time>2016-03-28T10:11:00Z</time>
      </trkpt>
      <trkpt lat="43.27368" lon="5.41361">
        <ele>25</ele>
        <time>2016-03-28T10:11:01Z</time>
      </trkpt>
      <trkpt lat="43.2737" lon="5.41367">
        <ele>25</ele>
        <time>2016-03-28T10:11:02Z</time>
      </trkpt>
      <trkpt lat="43.27375" lon="5.41388">
        <ele>25.6</ele>
        <time>2016-03-28T10:11:05Z</time>
      </trkpt>
      <trkpt lat="43.27385" lon="5.41413">
        <ele>26.4</ele>
        <time>2016-03-28T10:11:08Z</time>
      </trkpt>
      <trkpt lat="43.27387" lon="5.41419">
        <ele>26.5</ele>
        <time>2016-03-28T10:11:09Z</time>
      </trkpt>
      <trkpt lat="43.27392" lon="5.41426">
        <ele>26.5</ele>
        <time>2016-03-28T10:11:10Z</time>
      </trkpt>
      <trkpt lat="43.27395" lon="5.41432">
        <ele>26.6</ele>
        <time>2016-03-28T10:11:11Z</time>
      </trkpt>
      <trkpt lat="43.27399" lon="5.4144">
        <ele>26.6</ele>
        <time>2016-03-28T10:11:12Z</time>
      </trkpt>
      <trkpt lat="43.27405" lon="5.41448">
        <ele>26.5</ele>
        <time>2016-03-28T10:11:13Z</time>
      </trkpt>
      <trkpt lat="43.27421" lon="5.41471">
        <ele>26.5</ele>
        <time>2016-03-28T10:11:17Z</time>
      </trkpt>
      <trkpt lat="43.27424" lon="5.41477">
        <ele>26.6</ele>
        <time>2016-03-28T10:11:18Z</time>
      </trkpt>
      <trkpt lat="43.27428" lon="5.41483">
        <ele>26.7</ele>
        <time>2016-03-28T10:11:19Z</time>
      </trkpt>
      <trkpt lat="43.27432" lon="5.41489">
        <ele>26.8</ele>
        <time>2016-03-28T10:11:20Z</time>
      </trkpt>
      <trkpt lat="43.27433" lon="5.41496">
        <ele>27</ele>
        <time>2016-03-28T10:11:21Z</time>
      </trkpt>
      <trkpt lat="43.27437" lon="5.41502">
        <ele>27.1</ele>
        <time>2016-03-28T10:11:22Z</time>
      </trkpt>
      <trkpt lat="43.27442" lon="5.41508">
        <ele>26.8</ele>
        <time>2016-03-28T10:11:23Z</time>
      </trkpt>
      <trkpt lat="43.27445" lon="5.41514">
        <ele>27</ele>
        <time>2016-03-28T10:11:24Z</time>
      </trkpt>
      <trkpt lat="43.27449" lon="5.4152">
        <ele>26.8</ele>
        <time>2016-03-28T10:11:25Z</time>
      </trkpt>
      <trkpt lat="43.27453" lon="5.41525">
        <ele>26.7</ele>
        <time>2016-03-28T10:11:26Z</time>
      </trkpt>
      <trkpt lat="43.27465" lon="5.41539">
        <ele>26.5</ele>
        <time>2016-03-28T10:11:29Z</time>
      </trkpt>
      <trkpt lat="43.27473" lon="5.41552">
        <ele>26.7</ele>
        <time>2016-03-28T10:11:31Z</time>
      </trkpt>
      <trkpt lat="43.27477" lon="5.41558">
        <ele>26.9</ele>
        <time>2016-03-28T10:11:32Z</time>
      </trkpt>
      <trkpt lat="43.27481" lon="5.41564">
        <ele>27.2</ele>
        <time>2016-03-28T10:11:33Z</time>
      </trkpt>
      <trkpt lat="43.27485" lon="5.41569">
        <ele>27.2</ele>
        <time>2016-03-28T10:11:34Z</time>
      </trkpt>
      <trkpt lat="43.27489" lon="5.41575">
        <ele>27.4</ele>
        <time>2016-03-28T10:11:35Z</time>
      </trkpt>
      <trkpt lat="43.27493" lon="5.4158">
        <ele>27.6</ele>
        <time>2016-03-28T10:11:36Z</time>
      </trkpt>
      <trkpt lat="43.27508" lon="5.41604">
        <ele>28.6</ele>
        <time>2016-03-28T10:11:40Z</time>
      </trkpt>
      <trkpt lat="43.27512" lon="5.41611">
        <ele>29</ele>
        <time>2016-03-28T10:11:41Z</time>
      </trkpt>
      <trkpt lat="43.27513" lon="5.41614">
        <ele>29.2</ele>
        <time>2016-03-28T10:11:42Z</time>
      </trkpt>
      <trkpt lat="43.27526" lon="5.41638">
        <ele>29.9</ele>
        <time>2016-03-28T10:11:45Z</time>
      </trkpt>
      <trkpt lat="43.27528" lon="5.41642">
        <ele>29.9</ele>
        <time>2016-03-28T10:11:46Z</time>
      </trkpt>
      <trkpt lat="43.27531" lon="5.41645">
        <ele>29.9</ele>
        <time>2016-03-28T10:11:48Z</time>
      </trkpt>
      <trkpt lat="43.27534" lon="5.4165">
        <ele>29.8</ele>
        <time>2016-03-28T10:11:51Z</time>
      </trkpt>
      <trkpt lat="43.27537" lon="5.41656">
        <ele>29.7</ele>
        <time>2016-03-28T10:11:53Z</time>
      </trkpt>
      <trkpt lat="43.27539" lon="5.41659">
        <ele>29.6</ele>
        <time>2016-03-28T10:11:54Z</time>
      </trkpt>
      <trkpt lat="43.27542" lon="5.41663">
        <ele>29.4</ele>
        <time>2016-03-28T10:11:55Z</time>
      </trkpt>
      <trkpt lat="43.27544" lon="5.41666">
        <ele>29.4</ele>
        <time>2016-03-28T10:11:56Z</time>
      </trkpt>
      <trkpt lat="43.27547" lon="5.41671">
        <ele>29.3</ele>
        <time>2016-03-28T10:11:57Z</time>
      </trkpt>
      <trkpt lat="43.27549" lon="5.41675">
        <ele>29.2</ele>
        <time>2016-03-28T10:11:58Z</time>
      </trkpt>
      <trkpt lat="43.27553" lon="5.41681">
        <ele>29.1</ele>
        <time>2016-03-28T10:11:59Z</time>
      </trkpt>
      <trkpt lat="43.27555" lon="5.41686">
        <ele>29.1</ele>
        <time>2016-03-28T10:12:00Z</time>
      </trkpt>
      <trkpt lat="43.27558" lon="5.41694">
        <ele>29</ele>
        <time>2016-03-28T10:12:01Z</time>
      </trkpt>
      <trkpt lat="43.27562" lon="5.41699">
        <ele>28.9</ele>
        <time>2016-03-28T10:12:02Z</time>
      </trkpt>
      <trkpt lat="43.27565" lon="5.41704">
        <ele>28.8</ele>
        <time>2016-03-28T10:12:03Z</time>
      </trkpt>
      <trkpt lat="43.27568" lon="5.41707">
        <ele>28.7</ele>
        <time>2016-03-28T10:12:04Z</time>
      </trkpt>
      <trkpt lat="43.27571" lon="5.41711">
        <ele>28.6</ele>
        <time>2016-03-28T10:12:05Z</time>
      </trkpt>
      <trkpt lat="43.27575" lon="5.41716">
        <ele>28.4</ele>
        <time>2016-03-28T10:12:06Z</time>
      </trkpt>
      <trkpt lat="43.27579" lon="5.41722">
        <ele>28.3</ele>
        <time>2016-03-28T10:12:07Z</time>
      </trkpt>
      <trkpt lat="43.27581" lon="5.41728">
        <ele>28.2</ele>
        <time>2016-03-28T10:12:08Z</time>
      </trkpt>
      <trkpt lat="43.27583" lon="5.41734">
        <ele>28.2</ele>
        <time>2016-03-28T10:12:09Z</time>
      </trkpt>
      <trkpt lat="43.27587" lon="5.41739">
        <ele>28</ele>
        <time>2016-03-28T10:12:10Z</time>
      </trkpt>
      <trkpt lat="43.2759" lon="5.41745">
        <ele>27.9</ele>
        <time>2016-03-28T10:12:11Z</time>
      </trkpt>
      <trkpt lat="43.27603" lon="5.4177">
        <ele>27.6</ele>
        <time>2016-03-28T10:12:15Z</time>
      </trkpt>
      <trkpt lat="43.27606" lon="5.41775">
        <ele>27.5</ele>
        <time>2016-03-28T10:12:16Z</time>
      </trkpt>
      <trkpt lat="43.2761" lon="5.4178">
        <ele>27.4</ele>
        <time>2016-03-28T10:12:17Z</time>
      </trkpt>
      <trkpt lat="43.27613" lon="5.41786">
        <ele>27.4</ele>
        <time>2016-03-28T10:12:18Z</time>
      </trkpt>
      <trkpt lat="43.27618" lon="5.41792">
        <ele>27.3</ele>
        <time>2016-03-28T10:12:19Z</time>
      </trkpt>
      <trkpt lat="43.27621" lon="5.41797">
        <ele>27.2</ele>
        <time>2016-03-28T10:12:20Z</time>
      </trkpt>
      <trkpt lat="43.27631" lon="5.41812">
        <ele>27.2</ele>
        <time>2016-03-28T10:12:23Z</time>
      </trkpt>
      <trkpt lat="43.27638" lon="5.41825">
        <ele>27.3</ele>
        <time>2016-03-28T10:12:25Z</time>
      </trkpt>
      <trkpt lat="43.2764" lon="5.4183">
        <ele>27.3</ele>
        <time>2016-03-28T10:12:26Z</time>
      </trkpt>
      <trkpt lat="43.27645" lon="5.41837">
        <ele>27.3</ele>
        <time>2016-03-28T10:12:27Z</time>
      </trkpt>
      <trkpt lat="43.27648" lon="5.41843">
        <ele>27.3</ele>
        <time>2016-03-28T10:12:28Z</time>
      </trkpt>
      <trkpt lat="43.27651" lon="5.41849">
        <ele>27.3</ele>
        <time>2016-03-28T10:12:29Z</time>
      </trkpt>
      <trkpt lat="43.27655" lon="5.41853">
        <ele>27.2</ele>
        <time>2016-03-28T10:12:30Z</time>
      </trkpt>
      <trkpt lat="43.27657" lon="5.4186">
        <ele>27.2</ele>
        <time>2016-03-28T10:12:31Z</time>
      </trkpt>
      <trkpt lat="43.2766" lon="5.41865">
        <ele>27.1</ele>
        <time>2016-03-28T10:12:32Z</time>
      </trkpt>
      <trkpt lat="43.27665" lon="5.41869">
        <ele>27</ele>
        <time>2016-03-28T10:12:33Z</time>
      </trkpt>
      <trkpt lat="43.27676" lon="5.41895">
        <ele>27.2</ele>
        <time>2016-03-28T10:12:37Z</time>
      </trkpt>
      <trkpt lat="43.27678" lon="5.41901">
        <ele>27.2</ele>
        <time>2016-03-28T10:12:38Z</time>
      </trkpt>
      <trkpt lat="43.2768" lon="5.41908">
        <ele>27.3</ele>
        <time>2016-03-28T10:12:39Z</time>
      </trkpt>
      <trkpt lat="43.27683" lon="5.41914">
        <ele>27.4</ele>
        <time>2016-03-28T10:12:40Z</time>
      </trkpt>
      <trkpt lat="43.27686" lon="5.4192">
        <ele>27.5</ele>
        <time>2016-03-28T10:12:41Z</time>
      </trkpt>
      <trkpt lat="43.27688" lon="5.41927">
        <ele>27.6</ele>
        <time>2016-03-28T10:12:42Z</time>
      </trkpt>
      <trkpt lat="43.2769" lon="5.41933">
        <ele>27.7</ele>
        <time>2016-03-28T10:12:43Z</time>
      </trkpt>
      <trkpt lat="43.27691" lon="5.4194">
        <ele>27.8</ele>
        <time>2016-03-28T10:12:44Z</time>
      </trkpt>
      <trkpt lat="43.27694" lon="5.41946">
        <ele>27.9</ele>
        <time>2016-03-28T10:12:45Z</time>
      </trkpt>
      <trkpt lat="43.27697" lon="5.41952">
        <ele>28</ele>
        <time>2016-03-28T10:12:46Z</time>
      </trkpt>
      <trkpt lat="43.27701" lon="5.41959">
        <ele>28.1</ele>
        <time>2016-03-28T10:12:47Z</time>
      </trkpt>
      <trkpt lat="43.27704" lon="5.41965">
        <ele>28.2</ele>
        <time>2016-03-28T10:12:48Z</time>
      </trkpt>
      <trkpt lat="43.27707" lon="5.41972">
        <ele>28.3</ele>
        <time>2016-03-28T10:12:49Z</time>
      </trkpt>
      <trkpt lat="43.27709" lon="5.41977">
        <ele>28.5</ele>
        <time>2016-03-28T10:12:50Z</time>
      </trkpt>
      <trkpt lat="43.27726" lon="5.42005">
        <ele>28.8</ele>
        <time>2016-03-28T10:12:55Z</time>
      </trkpt>
      <trkpt lat="43.27729" lon="5.4201">
        <ele>28.9</ele>
        <time>2016-03-28T10:12:56Z</time>
      </trkpt>
      <trkpt lat="43.27732" lon="5.42015">
        <ele>29</ele>
        <time>2016-03-28T10:12:57Z</time>
      </trkpt>
      <trkpt lat="43.27745" lon="5.4203">
        <ele>29.2</ele>
        <time>2016-03-28T10:13:01Z</time>
      </trkpt>
      <trkpt lat="43.27752" lon="5.42039">
        <ele>29.4</ele>
        <time>2016-03-28T10:13:02Z</time>
      </trkpt>
      <trkpt lat="43.27758" lon="5.42043">
        <ele>29.4</ele>
        <time>2016-03-28T10:13:03Z</time>
      </trkpt>
      <trkpt lat="43.27763" lon="5.42047">
        <ele>29.5</ele>
        <time>2016-03-28T10:13:04Z</time>
      </trkpt>
      <trkpt lat="43.27766" lon="5.42054">
        <ele>29.6</ele>
        <time>2016-03-28T10:13:05Z</time>
      </trkpt>
      <trkpt lat="43.27769" lon="5.42061">
        <ele>29.7</ele>
        <time>2016-03-28T10:13:06Z</time>
      </trkpt>
      <trkpt lat="43.27773" lon="5.42066">
        <ele>29.7</ele>
        <time>2016-03-28T10:13:07Z</time>
      </trkpt>
      <trkpt lat="43.27775" lon="5.42074">
        <ele>29.8</ele>
        <time>2016-03-28T10:13:08Z</time>
      </trkpt>
      <trkpt lat="43.27779" lon="5.42078">
        <ele>29.8</ele>
        <time>2016-03-28T10:13:09Z</time>
      </trkpt>
      <trkpt lat="43.27783" lon="5.42085">
        <ele>29.8</ele>
        <time>2016-03-28T10:13:10Z</time>
      </trkpt>
      <trkpt lat="43.27786" lon="5.42091">
        <ele>29.8</ele>
        <time>2016-03-28T10:13:11Z</time>
      </trkpt>
      <trkpt lat="43.27789" lon="5.42097">
        <ele>29.8</ele>
        <time>2016-03-28T10:13:12Z</time>
      </trkpt>
      <trkpt lat="43.27794" lon="5.42104">
        <ele>29.7</ele>
        <time>2016-03-28T10:13:13Z</time>
      </trkpt>
      <trkpt lat="43.27797" lon="5.42111">
        <ele>29.7</ele>
        <time>2016-03-28T10:13:14Z</time>
      </trkpt>
      <trkpt lat="43.278" lon="5.42117">
        <ele>29.7</ele>
        <time>2016-03-28T10:13:15Z</time>
      </trkpt>
      <trkpt lat="43.27802" lon="5.42124">
        <ele>29.7</ele>
        <time>2016-03-28T10:13:16Z</time>
      </trkpt>
      <trkpt lat="43.27805" lon="5.4213">
        <ele>29.9</ele>
        <time>2016-03-28T10:13:17Z</time>
      </trkpt>
      <trkpt lat="43.27809" lon="5.42134">
        <ele>30</ele>
        <time>2016-03-28T10:13:18Z</time>
      </trkpt>
      <trkpt lat="43.27813" lon="5.42139">
        <ele>30</ele>
        <time>2016-03-28T10:13:19Z</time>
      </trkpt>
      <trkpt lat="43.27818" lon="5.42144">
        <ele>30.1</ele>
        <time>2016-03-28T10:13:20Z</time>
      </trkpt>
      <trkpt lat="43.27822" lon="5.4215">
        <ele>30.1</ele>
        <time>2016-03-28T10:13:21Z</time>
      </trkpt>
      <trkpt lat="43.27827" lon="5.42156">
        <ele>30.2</ele>
        <time>2016-03-28T10:13:22Z</time>
      </trkpt>
      <trkpt lat="43.27831" lon="5.42162">
        <ele>30.2</ele>
        <time>2016-03-28T10:13:23Z</time>
      </trkpt>
      <trkpt lat="43.27835" lon="5.42167">
        <ele>30.2</ele>
        <time>2016-03-28T10:13:24Z</time>
      </trkpt>
      <trkpt lat="43.27839" lon="5.42173">
        <ele>30.2</ele>
        <time>2016-03-28T10:13:25Z</time>
      </trkpt>
      <trkpt lat="43.27843" lon="5.42177">
        <ele>30.1</ele>
        <time>2016-03-28T10:13:26Z</time>
      </trkpt>
      <trkpt lat="43.27847" lon="5.42184">
        <ele>30.1</ele>
        <time>2016-03-28T10:13:27Z</time>
      </trkpt>
      <trkpt lat="43.27852" lon="5.42191">
        <ele>30</ele>
        <time>2016-03-28T10:13:28Z</time>
      </trkpt>
      <trkpt lat="43.27856" lon="5.42196">
        <ele>29.9</ele>
        <time>2016-03-28T10:13:29Z</time>
      </trkpt>
      <trkpt lat="43.2786" lon="5.422">
        <ele>29.7</ele>
        <time>2016-03-28T10:13:30Z</time>
      </trkpt>
      <trkpt lat="43.27866" lon="5.42205">
        <ele>29.5</ele>
        <time>2016-03-28T10:13:31Z</time>
      </trkpt>
      <trkpt lat="43.2787" lon="5.42212">
        <ele>29.4</ele>
        <time>2016-03-28T10:13:32Z</time>
      </trkpt>
      <trkpt lat="43.27875" lon="5.42219">
        <ele>29.3</ele>
        <time>2016-03-28T10:13:33Z</time>
      </trkpt>
      <trkpt lat="43.27879" lon="5.42225">
        <ele>29.4</ele>
        <time>2016-03-28T10:13:34Z</time>
      </trkpt>
      <trkpt lat="43.27883" lon="5.42233">
        <ele>29.6</ele>
        <time>2016-03-28T10:13:35Z</time>
      </trkpt>
      <trkpt lat="43.27887" lon="5.42239">
        <ele>29.7</ele>
        <time>2016-03-28T10:13:36Z</time>
      </trkpt>
      <trkpt lat="43.27891" lon="5.42244">
        <ele>29.9</ele>
        <time>2016-03-28T10:13:37Z</time>
      </trkpt>
      <trkpt lat="43.27894" lon="5.4225">
        <ele>30</ele>
        <time>2016-03-28T10:13:38Z</time>
      </trkpt>
      <trkpt lat="43.27898" lon="5.42256">
        <ele>30.2</ele>
        <time>2016-03-28T10:13:39Z</time>
      </trkpt>
      <trkpt lat="43.27901" lon="5.42264">
        <ele>30.3</ele>
        <time>2016-03-28T10:13:40Z</time>
      </trkpt>
      <trkpt lat="43.27905" lon="5.42271">
        <ele>30.5</ele>
        <time>2016-03-28T10:13:41Z</time>
      </trkpt>
      <trkpt lat="43.27908" lon="5.42277">
        <ele>30.6</ele>
        <time>2016-03-28T10:13:42Z</time>
      </trkpt>
      <trkpt lat="43.27921" lon="5.42299">
        <ele>31.2</ele>
        <time>2016-03-28T10:13:46Z</time>
      </trkpt>
      <trkpt lat="43.27923" lon="5.42303">
        <ele>31.2</ele>
        <time>2016-03-28T10:13:47Z</time>
      </trkpt>
      <trkpt lat="43.27926" lon="5.42308">
        <ele>31.3</ele>
        <time>2016-03-28T10:13:48Z</time>
      </trkpt>
      <trkpt lat="43.27931" lon="5.42314">
        <ele>31.5</ele>
        <time>2016-03-28T10:13:49Z</time>
      </trkpt>
      <trkpt lat="43.27941" lon="5.42333">
        <ele>31.7</ele>
        <time>2016-03-28T10:13:52Z</time>
      </trkpt>
      <trkpt lat="43.27943" lon="5.4234">
        <ele>31.8</ele>
        <time>2016-03-28T10:13:53Z</time>
      </trkpt>
      <trkpt lat="43.27946" lon="5.42345">
        <ele>31.8</ele>
        <time>2016-03-28T10:13:54Z</time>
      </trkpt>
      <trkpt lat="43.27947" lon="5.4235">
        <ele>31.9</ele>
        <time>2016-03-28T10:13:55Z</time>
      </trkpt>
      <trkpt lat="43.27948" lon="5.42355">
        <ele>31.9</ele>
        <time>2016-03-28T10:13:56Z</time>
      </trkpt>
      <trkpt lat="43.27957" lon="5.42372">
        <ele>32</ele>
        <time>2016-03-28T10:14:00Z</time>
      </trkpt>
      <trkpt lat="43.27958" lon="5.42379">
        <ele>32.1</ele>
        <time>2016-03-28T10:14:01Z</time>
      </trkpt>
      <trkpt lat="43.2796" lon="5.42385">
        <ele>32.3</ele>
        <time>2016-03-28T10:14:02Z</time>
      </trkpt>
      <trkpt lat="43.2796" lon="5.42391">
        <ele>32.4</ele>
        <time>2016-03-28T10:14:03Z</time>
      </trkpt>
      <trkpt lat="43.27961" lon="5.42397">
        <ele>32.6</ele>
        <time>2016-03-28T10:14:04Z</time>
      </trkpt>
      <trkpt lat="43.27963" lon="5.42403">
        <ele>32.7</ele>
        <time>2016-03-28T10:14:05Z</time>
      </trkpt>
      <trkpt lat="43.27965" lon="5.42408">
        <ele>32.9</ele>
        <time>2016-03-28T10:14:06Z</time>
      </trkpt>
      <trkpt lat="43.27967" lon="5.42414">
        <ele>33</ele>
        <time>2016-03-28T10:14:07Z</time>
      </trkpt>
      <trkpt lat="43.27969" lon="5.42419">
        <ele>33.2</ele>
        <time>2016-03-28T10:14:08Z</time>
      </trkpt>
      <trkpt lat="43.27971" lon="5.42423">
        <ele>33.3</ele>
        <time>2016-03-28T10:14:09Z</time>
      </trkpt>
      <trkpt lat="43.27978" lon="5.42457">
        <ele>34</ele>
        <time>2016-03-28T10:14:14Z</time>
      </trkpt>
      <trkpt lat="43.27981" lon="5.42464">
        <ele>34.1</ele>
        <time>2016-03-28T10:14:15Z</time>
      </trkpt>
      <trkpt lat="43.27984" lon="5.4247">
        <ele>34.2</ele>
        <time>2016-03-28T10:14:16Z</time>
      </trkpt>
      <trkpt lat="43.27987" lon="5.42477">
        <ele>34.3</ele>
        <time>2016-03-28T10:14:17Z</time>
      </trkpt>
      <trkpt lat="43.27988" lon="5.42482">
        <ele>34.4</ele>
        <time>2016-03-28T10:14:18Z</time>
      </trkpt>
      <trkpt lat="43.27991" lon="5.42488">
        <ele>34.4</ele>
        <time>2016-03-28T10:14:19Z</time>
      </trkpt>
      <trkpt lat="43.27993" lon="5.42495">
        <ele>34.5</ele>
        <time>2016-03-28T10:14:20Z</time>
      </trkpt>
      <trkpt lat="43.27996" lon="5.42503">
        <ele>34.6</ele>
        <time>2016-03-28T10:14:21Z</time>
      </trkpt>
      <trkpt lat="43.27998" lon="5.42512">
        <ele>34.7</ele>
        <time>2016-03-28T10:14:22Z</time>
      </trkpt>
      <trkpt lat="43.28001" lon="5.42517">
        <ele>34.7</ele>
        <time>2016-03-28T10:14:23Z</time>
      </trkpt>
      <trkpt lat="43.28003" lon="5.42524">
        <ele>34.7</ele>
        <time>2016-03-28T10:14:24Z</time>
      </trkpt>
      <trkpt lat="43.28004" lon="5.42531">
        <ele>34.8</ele>
        <time>2016-03-28T10:14:25Z</time>
      </trkpt>
      <trkpt lat="43.28005" lon="5.42538">
        <ele>34.8</ele>
        <time>2016-03-28T10:14:26Z</time>
      </trkpt>
      <trkpt lat="43.28008" lon="5.42542">
        <ele>34.8</ele>
        <time>2016-03-28T10:14:27Z</time>
      </trkpt>
      <trkpt lat="43.2801" lon="5.42544">
        <ele>34.7</ele>
        <time>2016-03-28T10:14:29Z</time>
      </trkpt>
      <trkpt lat="43.28023" lon="5.4258">
        <ele>34.3</ele>
        <time>2016-03-28T10:14:33Z</time>
      </trkpt>
      <trkpt lat="43.28024" lon="5.42588">
        <ele>34.3</ele>
        <time>2016-03-28T10:14:34Z</time>
      </trkpt>
      <trkpt lat="43.28026" lon="5.42595">
        <ele>34.3</ele>
        <time>2016-03-28T10:14:35Z</time>
      </trkpt>
      <trkpt lat="43.28029" lon="5.42602">
        <ele>34.2</ele>
        <time>2016-03-28T10:14:36Z</time>
      </trkpt>
      <trkpt lat="43.28032" lon="5.42611">
        <ele>34.1</ele>
        <time>2016-03-28T10:14:37Z</time>
      </trkpt>
      <trkpt lat="43.28033" lon="5.42617">
        <ele>34.1</ele>
        <time>2016-03-28T10:14:38Z</time>
      </trkpt>
      <trkpt lat="43.28045" lon="5.42634">
        <ele>34.3</ele>
        <time>2016-03-28T10:14:41Z</time>
      </trkpt>
      <trkpt lat="43.28048" lon="5.4264">
        <ele>34.4</ele>
        <time>2016-03-28T10:14:42Z</time>
      </trkpt>
      <trkpt lat="43.28054" lon="5.42644">
        <ele>34.5</ele>
        <time>2016-03-28T10:14:43Z</time>
      </trkpt>
      <trkpt lat="43.28058" lon="5.42646">
        <ele>34.5</ele>
        <time>2016-03-28T10:14:44Z</time>
      </trkpt>
      <trkpt lat="43.28062" lon="5.4265">
        <ele>34.5</ele>
        <time>2016-03-28T10:14:45Z</time>
      </trkpt>
      <trkpt lat="43.28065" lon="5.42655">
        <ele>34.6</ele>
        <time>2016-03-28T10:14:46Z</time>
      </trkpt>
      <trkpt lat="43.28069" lon="5.4266">
        <ele>34.7</ele>
        <time>2016-03-28T10:14:47Z</time>
      </trkpt>
      <trkpt lat="43.28073" lon="5.42666">
        <ele>34.7</ele>
        <time>2016-03-28T10:14:48Z</time>
      </trkpt>
      <trkpt lat="43.28075" lon="5.4267">
        <ele>34.8</ele>
        <time>2016-03-28T10:14:49Z</time>
      </trkpt>
      <trkpt lat="43.28077" lon="5.42677">
        <ele>34.9</ele>
        <time>2016-03-28T10:14:50Z</time>
      </trkpt>
      <trkpt lat="43.2808" lon="5.42684">
        <ele>35</ele>
        <time>2016-03-28T10:14:51Z</time>
      </trkpt>
      <trkpt lat="43.28082" lon="5.42687">
        <ele>35</ele>
        <time>2016-03-28T10:14:52Z</time>
      </trkpt>
      <trkpt lat="43.28084" lon="5.42691">
        <ele>35.1</ele>
        <time>2016-03-28T10:14:53Z</time>
      </trkpt>
      <trkpt lat="43.28087" lon="5.42696">
        <ele>35.1</ele>
        <time>2016-03-28T10:14:54Z</time>
      </trkpt>
      <trkpt lat="43.28103" lon="5.42716">
        <ele>35</ele>
        <time>2016-03-28T10:14:57Z</time>
      </trkpt>
      <trkpt lat="43.28114" lon="5.42723">
        <ele>34.9</ele>
        <time>2016-03-28T10:14:58Z</time>
      </trkpt>
      <trkpt lat="43.28105" lon="5.42714">
        <ele>34.9</ele>
        <time>2016-03-28T10:14:59Z</time>
      </trkpt>
      <trkpt lat="43.28107" lon="5.42712">
        <ele>34.7</ele>
        <time>2016-03-28T10:15:03Z</time>
      </trkpt>
      <trkpt lat="43.28111" lon="5.42713">
        <ele>34.7</ele>
        <time>2016-03-28T10:15:04Z</time>
      </trkpt>
      <trkpt lat="43.28114" lon="5.42715">
        <ele>34.6</ele>
        <time>2016-03-28T10:15:05Z</time>
      </trkpt>
      <trkpt lat="43.28117" lon="5.42718">
        <ele>34.6</ele>
        <time>2016-03-28T10:15:06Z</time>
      </trkpt>
      <trkpt lat="43.28129" lon="5.42736">
        <ele>34.8</ele>
        <time>2016-03-28T10:15:10Z</time>
      </trkpt>
      <trkpt lat="43.28133" lon="5.42741">
        <ele>34.9</ele>
        <time>2016-03-28T10:15:12Z</time>
      </trkpt>
      <trkpt lat="43.28136" lon="5.42744">
        <ele>34.8</ele>
        <time>2016-03-28T10:15:13Z</time>
      </trkpt>
      <trkpt lat="43.28139" lon="5.42747">
        <ele>34.8</ele>
        <time>2016-03-28T10:15:14Z</time>
      </trkpt>
      <trkpt lat="43.28143" lon="5.42749">
        <ele>34.7</ele>
        <time>2016-03-28T10:15:15Z</time>
      </trkpt>
      <trkpt lat="43.28146" lon="5.42751">
        <ele>34.6</ele>
        <time>2016-03-28T10:15:16Z</time>
      </trkpt>
      <trkpt lat="43.2815" lon="5.42752">
        <ele>34.5</ele>
        <time>2016-03-28T10:15:17Z</time>
      </trkpt>
      <trkpt lat="43.28153" lon="5.42753">
        <ele>34.4</ele>
        <time>2016-03-28T10:15:18Z</time>
      </trkpt>
      <trkpt lat="43.28156" lon="5.42754">
        <ele>34.3</ele>
        <time>2016-03-28T10:15:19Z</time>
      </trkpt>
      <trkpt lat="43.28153" lon="5.42746">
        <ele>34.2</ele>
        <time>2016-03-28T10:15:34Z</time>
      </trkpt>
      <trkpt lat="43.28157" lon="5.42742">
        <ele>33.9</ele>
        <time>2016-03-28T10:15:45Z</time>
      </trkpt>
      <trkpt lat="43.2816" lon="5.42742">
        <ele>33.8</ele>
        <time>2016-03-28T10:15:47Z</time>
      </trkpt>
      <trkpt lat="43.28163" lon="5.42744">
        <ele>33.7</ele>
        <time>2016-03-28T10:15:48Z</time>
      </trkpt>
      <trkpt lat="43.28166" lon="5.42748">
        <ele>33.7</ele>
        <time>2016-03-28T10:15:49Z</time>
      </trkpt>
      <trkpt lat="43.28168" lon="5.42751">
        <ele>33.7</ele>
        <time>2016-03-28T10:15:50Z</time>
      </trkpt>
      <trkpt lat="43.28169" lon="5.42757">
        <ele>33.9</ele>
        <time>2016-03-28T10:15:52Z</time>
      </trkpt>
      <trkpt lat="43.28169" lon="5.42763">
        <ele>34</ele>
        <time>2016-03-28T10:15:54Z</time>
      </trkpt>
      <trkpt lat="43.28169" lon="5.42767">
        <ele>34.2</ele>
        <time>2016-03-28T10:15:55Z</time>
      </trkpt>
      <trkpt lat="43.28169" lon="5.42771">
        <ele>34.3</ele>
        <time>2016-03-28T10:15:56Z</time>
      </trkpt>
      <trkpt lat="43.28168" lon="5.42775">
        <ele>34.4</ele>
        <time>2016-03-28T10:15:57Z</time>
      </trkpt>
      <trkpt lat="43.28168" lon="5.42778">
        <ele>34.5</ele>
        <time>2016-03-28T10:15:58Z</time>
      </trkpt>
      <trkpt lat="43.28168" lon="5.42783">
        <ele>34.7</ele>
        <time>2016-03-28T10:15:59Z</time>
      </trkpt>
      <trkpt lat="43.28168" lon="5.42787">
        <ele>34.8</ele>
        <time>2016-03-28T10:16:00Z</time>
      </trkpt>
      <trkpt lat="43.28168" lon="5.42791">
        <ele>34.9</ele>
        <time>2016-03-28T10:16:01Z</time>
      </trkpt>
      <trkpt lat="43.28168" lon="5.42798">
        <ele>35.2</ele>
        <time>2016-03-28T10:16:03Z</time>
      </trkpt>
      <trkpt lat="43.28168" lon="5.42802">
        <ele>35.3</ele>
        <time>2016-03-28T10:16:04Z</time>
      </trkpt>
      <trkpt lat="43.28168" lon="5.42807">
        <ele>35.5</ele>
        <time>2016-03-28T10:16:05Z</time>
      </trkpt>
      <trkpt lat="43.28168" lon="5.42814">
        <ele>35.7</ele>
        <time>2016-03-28T10:16:07Z</time>
      </trkpt>
      <trkpt lat="43.28169" lon="5.42818">
        <ele>35.8</ele>
        <time>2016-03-28T10:16:10Z</time>
      </trkpt>
      <trkpt lat="43.28172" lon="5.42823">
        <ele>35.9</ele>
        <time>2016-03-28T10:18:11Z</time>
      </trkpt>
      <trkpt lat="43.28172" lon="5.42833">
        <ele>36.2</ele>
        <time>2016-03-28T10:18:13Z</time>
      </trkpt>
      <trkpt lat="43.28172" lon="5.42838">
        <ele>36.4</ele>
        <time>2016-03-28T10:18:14Z</time>
      </trkpt>
      <trkpt lat="43.28173" lon="5.42843">
        <ele>36.5</ele>
        <time>2016-03-28T10:18:15Z</time>
      </trkpt>
      <trkpt lat="43.28174" lon="5.42847">
        <ele>36.7</ele>
        <time>2016-03-28T10:18:16Z</time>
      </trkpt>
      <trkpt lat="43.28175" lon="5.42852">
        <ele>36.8</ele>
        <time>2016-03-28T10:18:17Z</time>
      </trkpt>
      <trkpt lat="43.28176" lon="5.42858">
        <ele>36.9</ele>
        <time>2016-03-28T10:18:18Z</time>
      </trkpt>
      <trkpt lat="43.28177" lon="5.42863">
        <ele>37.1</ele>
        <time>2016-03-28T10:18:19Z</time>
      </trkpt>
      <trkpt lat="43.28179" lon="5.42869">
        <ele>37.2</ele>
        <time>2016-03-28T10:18:20Z</time>
      </trkpt>
      <trkpt lat="43.28181" lon="5.42874">
        <ele>37.3</ele>
        <time>2016-03-28T10:18:21Z</time>
      </trkpt>
      <trkpt lat="43.28182" lon="5.4288">
        <ele>37.4</ele>
        <time>2016-03-28T10:18:22Z</time>
      </trkpt>
      <trkpt lat="43.28183" lon="5.42886">
        <ele>37.4</ele>
        <time>2016-03-28T10:18:23Z</time>
      </trkpt>
      <trkpt lat="43.28189" lon="5.42911">
        <ele>37.8</ele>
        <time>2016-03-28T10:18:26Z</time>
      </trkpt>
      <trkpt lat="43.28192" lon="5.42915">
        <ele>37.8</ele>
        <time>2016-03-28T10:18:27Z</time>
      </trkpt>
      <trkpt lat="43.28195" lon="5.4292">
        <ele>37.9</ele>
        <time>2016-03-28T10:18:28Z</time>
      </trkpt>
      <trkpt lat="43.28197" lon="5.42926">
        <ele>38.1</ele>
        <time>2016-03-28T10:18:29Z</time>
      </trkpt>
      <trkpt lat="43.28199" lon="5.42932">
        <ele>38.2</ele>
        <time>2016-03-28T10:18:30Z</time>
      </trkpt>
      <trkpt lat="43.28201" lon="5.42938">
        <ele>38.3</ele>
        <time>2016-03-28T10:18:31Z</time>
      </trkpt>
      <trkpt lat="43.28202" lon="5.42944">
        <ele>38.5</ele>
        <time>2016-03-28T10:18:32Z</time>
      </trkpt>
      <trkpt lat="43.28204" lon="5.42951">
        <ele>38.7</ele>
        <time>2016-03-28T10:18:33Z</time>
      </trkpt>
      <trkpt lat="43.28206" lon="5.42956">
        <ele>38.9</ele>
        <time>2016-03-28T10:18:34Z</time>
      </trkpt>
      <trkpt lat="43.28206" lon="5.42963">
        <ele>39.1</ele>
        <time>2016-03-28T10:18:35Z</time>
      </trkpt>
      <trkpt lat="43.28207" lon="5.4297">
        <ele>39.1</ele>
        <time>2016-03-28T10:18:36Z</time>
      </trkpt>
      <trkpt lat="43.28209" lon="5.42977">
        <ele>39.2</ele>
        <time>2016-03-28T10:18:37Z</time>
      </trkpt>
      <trkpt lat="43.28211" lon="5.42986">
        <ele>39.3</ele>
        <time>2016-03-28T10:18:38Z</time>
      </trkpt>
      <trkpt lat="43.28216" lon="5.42991">
        <ele>39.2</ele>
        <time>2016-03-28T10:18:39Z</time>
      </trkpt>
      <trkpt lat="43.28218" lon="5.42995">
        <ele>39.2</ele>
        <time>2016-03-28T10:18:40Z</time>
      </trkpt>
      <trkpt lat="43.28226" lon="5.43004">
        <ele>39.1</ele>
        <time>2016-03-28T10:18:42Z</time>
      </trkpt>
      <trkpt lat="43.2823" lon="5.43008">
        <ele>39.1</ele>
        <time>2016-03-28T10:18:43Z</time>
      </trkpt>
      <trkpt lat="43.28237" lon="5.43019">
        <ele>39</ele>
        <time>2016-03-28T10:18:45Z</time>
      </trkpt>
      <trkpt lat="43.2824" lon="5.43026">
        <ele>39</ele>
        <time>2016-03-28T10:18:46Z</time>
      </trkpt>
      <trkpt lat="43.28244" lon="5.43029">
        <ele>39</ele>
        <time>2016-03-28T10:18:47Z</time>
      </trkpt>
      <trkpt lat="43.28247" lon="5.43036">
        <ele>39</ele>
        <time>2016-03-28T10:18:48Z</time>
      </trkpt>
      <trkpt lat="43.28248" lon="5.43043">
        <ele>39.1</ele>
        <time>2016-03-28T10:18:49Z</time>
      </trkpt>
      <trkpt lat="43.2825" lon="5.43049">
        <ele>39.1</ele>
        <time>2016-03-28T10:18:50Z</time>
      </trkpt>
      <trkpt lat="43.28251" lon="5.43056">
        <ele>39.1</ele>
        <time>2016-03-28T10:18:51Z</time>
      </trkpt>
      <trkpt lat="43.28253" lon="5.43065">
        <ele>39.2</ele>
        <time>2016-03-28T10:18:52Z</time>
      </trkpt>
      <trkpt lat="43.28255" lon="5.43071">
        <ele>39.3</ele>
        <time>2016-03-28T10:18:53Z</time>
      </trkpt>
      <trkpt lat="43.2826" lon="5.43095">
        <ele>39.6</ele>
        <time>2016-03-28T10:18:58Z</time>
      </trkpt>
      <trkpt lat="43.28264" lon="5.43115">
        <ele>39.8</ele>
        <time>2016-03-28T10:18:59Z</time>
      </trkpt>
      <trkpt lat="43.28265" lon="5.43124">
        <ele>40</ele>
        <time>2016-03-28T10:19:00Z</time>
      </trkpt>
      <trkpt lat="43.28267" lon="5.4313">
        <ele>40.1</ele>
        <time>2016-03-28T10:19:01Z</time>
      </trkpt>
      <trkpt lat="43.28271" lon="5.43168">
        <ele>40.6</ele>
        <time>2016-03-28T10:19:05Z</time>
      </trkpt>
      <trkpt lat="43.28274" lon="5.43176">
        <ele>40.7</ele>
        <time>2016-03-28T10:19:06Z</time>
      </trkpt>
      <trkpt lat="43.28277" lon="5.43183">
        <ele>40.8</ele>
        <time>2016-03-28T10:19:07Z</time>
      </trkpt>
      <trkpt lat="43.28278" lon="5.43192">
        <ele>40.9</ele>
        <time>2016-03-28T10:19:08Z</time>
      </trkpt>
      <trkpt lat="43.28282" lon="5.432">
        <ele>41</ele>
        <time>2016-03-28T10:19:09Z</time>
      </trkpt>
      <trkpt lat="43.28284" lon="5.43212">
        <ele>41</ele>
        <time>2016-03-28T10:19:10Z</time>
      </trkpt>
      <trkpt lat="43.28288" lon="5.43217">
        <ele>40.9</ele>
        <time>2016-03-28T10:19:11Z</time>
      </trkpt>
      <trkpt lat="43.28291" lon="5.43224">
        <ele>40.8</ele>
        <time>2016-03-28T10:19:12Z</time>
      </trkpt>
      <trkpt lat="43.28293" lon="5.43231">
        <ele>40.6</ele>
        <time>2016-03-28T10:19:13Z</time>
      </trkpt>
      <trkpt lat="43.28285" lon="5.43249">
        <ele>40.6</ele>
        <time>2016-03-28T10:19:14Z</time>
      </trkpt>
      <trkpt lat="43.28298" lon="5.43244">
        <ele>40.3</ele>
        <time>2016-03-28T10:19:15Z</time>
      </trkpt>
      <trkpt lat="43.2829" lon="5.43262">
        <ele>40.4</ele>
        <time>2016-03-28T10:19:16Z</time>
      </trkpt>
      <trkpt lat="43.28303" lon="5.43257">
        <ele>40</ele>
        <time>2016-03-28T10:19:17Z</time>
      </trkpt>
      <trkpt lat="43.28302" lon="5.43265">
        <ele>39.9</ele>
        <time>2016-03-28T10:19:18Z</time>
      </trkpt>
      <trkpt lat="43.28303" lon="5.43276">
        <ele>39.7</ele>
        <time>2016-03-28T10:19:19Z</time>
      </trkpt>
      <trkpt lat="43.28301" lon="5.43269">
        <ele>39.9</ele>
        <time>2016-03-28T10:19:20Z</time>
      </trkpt>
      <trkpt lat="43.28306" lon="5.43281">
        <ele>39.6</ele>
        <time>2016-03-28T10:19:21Z</time>
      </trkpt>
      <trkpt lat="43.28316" lon="5.43311">
        <ele>39.4</ele>
        <time>2016-03-28T10:19:25Z</time>
      </trkpt>
      <trkpt lat="43.28318" lon="5.43316">
        <ele>39.4</ele>
        <time>2016-03-28T10:19:26Z</time>
      </trkpt>
      <trkpt lat="43.2832" lon="5.43321">
        <ele>39.4</ele>
        <time>2016-03-28T10:19:27Z</time>
      </trkpt>
      <trkpt lat="43.28331" lon="5.43349">
        <ele>39.6</ele>
        <time>2016-03-28T10:19:31Z</time>
      </trkpt>
      <trkpt lat="43.28334" lon="5.43357">
        <ele>39.7</ele>
        <time>2016-03-28T10:19:32Z</time>
      </trkpt>
      <trkpt lat="43.28336" lon="5.43361">
        <ele>39.7</ele>
        <time>2016-03-28T10:19:33Z</time>
      </trkpt>
      <trkpt lat="43.28349" lon="5.43389">
        <ele>40.2</ele>
        <time>2016-03-28T10:19:36Z</time>
      </trkpt>
      <trkpt lat="43.28351" lon="5.43396">
        <ele>40.5</ele>
        <time>2016-03-28T10:19:37Z</time>
      </trkpt>
      <trkpt lat="43.28353" lon="5.43404">
        <ele>40.8</ele>
        <time>2016-03-28T10:19:38Z</time>
      </trkpt>
      <trkpt lat="43.28355" lon="5.43414">
        <ele>41.2</ele>
        <time>2016-03-28T10:19:39Z</time>
      </trkpt>
      <trkpt lat="43.28358" lon="5.43421">
        <ele>41.5</ele>
        <time>2016-03-28T10:19:40Z</time>
      </trkpt>
      <trkpt lat="43.28361" lon="5.43428">
        <ele>41.8</ele>
        <time>2016-03-28T10:19:41Z</time>
      </trkpt>
      <trkpt lat="43.28366" lon="5.43436">
        <ele>42</ele>
        <time>2016-03-28T10:19:42Z</time>
      </trkpt>
      <trkpt lat="43.28377" lon="5.43462">
        <ele>43</ele>
        <time>2016-03-28T10:19:46Z</time>
      </trkpt>
      <trkpt lat="43.28378" lon="5.4347">
        <ele>43.1</ele>
        <time>2016-03-28T10:19:47Z</time>
      </trkpt>
      <trkpt lat="43.28381" lon="5.43479">
        <ele>43.1</ele>
        <time>2016-03-28T10:19:48Z</time>
      </trkpt>
      <trkpt lat="43.28383" lon="5.43488">
        <ele>43.1</ele>
        <time>2016-03-28T10:19:49Z</time>
      </trkpt>
      <trkpt lat="43.28386" lon="5.43494">
        <ele>43.1</ele>
        <time>2016-03-28T10:19:50Z</time>
      </trkpt>
      <trkpt lat="43.28399" lon="5.43528">
        <ele>43.2</ele>
        <time>2016-03-28T10:19:55Z</time>
      </trkpt>
      <trkpt lat="43.28403" lon="5.43534">
        <ele>43.1</ele>
        <time>2016-03-28T10:19:56Z</time>
      </trkpt>
      <trkpt lat="43.28407" lon="5.43539">
        <ele>43</ele>
        <time>2016-03-28T10:19:57Z</time>
      </trkpt>
      <trkpt lat="43.28409" lon="5.43546">
        <ele>42.9</ele>
        <time>2016-03-28T10:19:58Z</time>
      </trkpt>
      <trkpt lat="43.28411" lon="5.43554">
        <ele>42.8</ele>
        <time>2016-03-28T10:19:59Z</time>
      </trkpt>
      <trkpt lat="43.28414" lon="5.43562">
        <ele>42.5</ele>
        <time>2016-03-28T10:20:00Z</time>
      </trkpt>
      <trkpt lat="43.28417" lon="5.43569">
        <ele>42.3</ele>
        <time>2016-03-28T10:20:01Z</time>
      </trkpt>
      <trkpt lat="43.28431" lon="5.436">
        <ele>41.7</ele>
        <time>2016-03-28T10:20:05Z</time>
      </trkpt>
      <trkpt lat="43.28433" lon="5.43609">
        <ele>41.6</ele>
        <time>2016-03-28T10:20:06Z</time>
      </trkpt>
      <trkpt lat="43.28436" lon="5.43616">
        <ele>41.5</ele>
        <time>2016-03-28T10:20:07Z</time>
      </trkpt>
      <trkpt lat="43.28439" lon="5.43622">
        <ele>41.5</ele>
        <time>2016-03-28T10:20:08Z</time>
      </trkpt>
      <trkpt lat="43.2844" lon="5.43629">
        <ele>41.5</ele>
        <time>2016-03-28T10:20:09Z</time>
      </trkpt>
      <trkpt lat="43.28442" lon="5.43635">
        <ele>41.4</ele>
        <time>2016-03-28T10:20:10Z</time>
      </trkpt>
      <trkpt lat="43.28446" lon="5.43642">
        <ele>41.4</ele>
        <time>2016-03-28T10:20:11Z</time>
      </trkpt>
      <trkpt lat="43.28449" lon="5.4365">
        <ele>41.3</ele>
        <time>2016-03-28T10:20:12Z</time>
      </trkpt>
      <trkpt lat="43.28452" lon="5.43659">
        <ele>41.2</ele>
        <time>2016-03-28T10:20:13Z</time>
      </trkpt>
      <trkpt lat="43.28456" lon="5.43665">
        <ele>41.1</ele>
        <time>2016-03-28T10:20:14Z</time>
      </trkpt>
      <trkpt lat="43.28459" lon="5.43672">
        <ele>41</ele>
        <time>2016-03-28T10:20:15Z</time>
      </trkpt>
      <trkpt lat="43.2846" lon="5.4368">
        <ele>40.9</ele>
        <time>2016-03-28T10:20:16Z</time>
      </trkpt>
      <trkpt lat="43.28463" lon="5.43687">
        <ele>40.8</ele>
        <time>2016-03-28T10:20:17Z</time>
      </trkpt>
      <trkpt lat="43.28463" lon="5.43694">
        <ele>40.8</ele>
        <time>2016-03-28T10:20:18Z</time>
      </trkpt>
      <trkpt lat="43.28465" lon="5.43703">
        <ele>40.7</ele>
        <time>2016-03-28T10:20:19Z</time>
      </trkpt>
      <trkpt lat="43.28467" lon="5.43712">
        <ele>40.7</ele>
        <time>2016-03-28T10:20:20Z</time>
      </trkpt>
      <trkpt lat="43.28477" lon="5.43743">
        <ele>41</ele>
        <time>2016-03-28T10:20:24Z</time>
      </trkpt>
      <trkpt lat="43.28476" lon="5.43751">
        <ele>41.3</ele>
        <time>2016-03-28T10:20:25Z</time>
      </trkpt>
      <trkpt lat="43.28482" lon="5.43787">
        <ele>42</ele>
        <time>2016-03-28T10:20:29Z</time>
      </trkpt>
      <trkpt lat="43.28481" lon="5.43796">
        <ele>42.4</ele>
        <time>2016-03-28T10:20:30Z</time>
      </trkpt>
      <trkpt lat="43.28482" lon="5.43806">
        <ele>42.9</ele>
        <time>2016-03-28T10:20:31Z</time>
      </trkpt>
      <trkpt lat="43.28482" lon="5.43817">
        <ele>43.5</ele>
        <time>2016-03-28T10:20:32Z</time>
      </trkpt>
      <trkpt lat="43.28484" lon="5.43826">
        <ele>43.9</ele>
        <time>2016-03-28T10:20:33Z</time>
      </trkpt>
      <trkpt lat="43.28485" lon="5.43833">
        <ele>44.2</ele>
        <time>2016-03-28T10:20:34Z</time>
      </trkpt>
      <trkpt lat="43.28485" lon="5.43843">
        <ele>44.7</ele>
        <time>2016-03-28T10:20:35Z</time>
      </trkpt>
      <trkpt lat="43.28486" lon="5.43852">
        <ele>45.2</ele>
        <time>2016-03-28T10:20:36Z</time>
      </trkpt>
      <trkpt lat="43.28487" lon="5.4386">
        <ele>45.5</ele>
        <time>2016-03-28T10:20:37Z</time>
      </trkpt>
      <trkpt lat="43.28488" lon="5.43869">
        <ele>45.9</ele>
        <time>2016-03-28T10:20:38Z</time>
      </trkpt>
      <trkpt lat="43.28489" lon="5.43879">
        <ele>46.2</ele>
        <time>2016-03-28T10:20:39Z</time>
      </trkpt>
      <trkpt lat="43.2849" lon="5.43888">
        <ele>46.5</ele>
        <time>2016-03-28T10:20:40Z</time>
      </trkpt>
      <trkpt lat="43.28493" lon="5.43896">
        <ele>46.5</ele>
        <time>2016-03-28T10:20:41Z</time>
      </trkpt>
      <trkpt lat="43.28493" lon="5.43905">
        <ele>46.8</ele>
        <time>2016-03-28T10:20:42Z</time>
      </trkpt>
      <trkpt lat="43.28495" lon="5.43913">
        <ele>46.9</ele>
        <time>2016-03-28T10:20:43Z</time>
      </trkpt>
      <trkpt lat="43.28496" lon="5.43923">
        <ele>47.1</ele>
        <time>2016-03-28T10:20:44Z</time>
      </trkpt>
      <trkpt lat="43.28497" lon="5.43931">
        <ele>47.4</ele>
        <time>2016-03-28T10:20:45Z</time>
      </trkpt>
      <trkpt lat="43.28499" lon="5.43938">
        <ele>47.4</ele>
        <time>2016-03-28T10:20:46Z</time>
      </trkpt>
      <trkpt lat="43.285" lon="5.43949">
        <ele>47.7</ele>
        <time>2016-03-28T10:20:47Z</time>
      </trkpt>
      <trkpt lat="43.285" lon="5.43958">
        <ele>48</ele>
        <time>2016-03-28T10:20:48Z</time>
      </trkpt>
      <trkpt lat="43.28501" lon="5.43966">
        <ele>47.9</ele>
        <time>2016-03-28T10:20:49Z</time>
      </trkpt>
      <trkpt lat="43.28503" lon="5.43974">
        <ele>47.7</ele>
        <time>2016-03-28T10:20:50Z</time>
      </trkpt>
      <trkpt lat="43.28505" lon="5.43982">
        <ele>47.6</ele>
        <time>2016-03-28T10:20:51Z</time>
      </trkpt>
      <trkpt lat="43.28507" lon="5.43988">
        <ele>47.4</ele>
        <time>2016-03-28T10:20:52Z</time>
      </trkpt>
      <trkpt lat="43.28507" lon="5.43996">
        <ele>47.3</ele>
        <time>2016-03-28T10:20:53Z</time>
      </trkpt>
      <trkpt lat="43.28509" lon="5.44005">
        <ele>47.1</ele>
        <time>2016-03-28T10:20:54Z</time>
      </trkpt>
      <trkpt lat="43.28512" lon="5.44017">
        <ele>46.8</ele>
        <time>2016-03-28T10:20:55Z</time>
      </trkpt>
      <trkpt lat="43.28515" lon="5.44025">
        <ele>46.5</ele>
        <time>2016-03-28T10:20:56Z</time>
      </trkpt>
      <trkpt lat="43.28516" lon="5.44034">
        <ele>46.4</ele>
        <time>2016-03-28T10:20:57Z</time>
      </trkpt>
      <trkpt lat="43.28519" lon="5.44043">
        <ele>46.1</ele>
        <time>2016-03-28T10:20:58Z</time>
      </trkpt>
      <trkpt lat="43.2852" lon="5.44052">
        <ele>46.1</ele>
        <time>2016-03-28T10:20:59Z</time>
      </trkpt>
      <trkpt lat="43.28524" lon="5.4406">
        <ele>45.9</ele>
        <time>2016-03-28T10:21:00Z</time>
      </trkpt>
      <trkpt lat="43.28527" lon="5.44068">
        <ele>45.6</ele>
        <time>2016-03-28T10:21:01Z</time>
      </trkpt>
      <trkpt lat="43.28529" lon="5.44076">
        <ele>45.6</ele>
        <time>2016-03-28T10:21:02Z</time>
      </trkpt>
      <trkpt lat="43.2853" lon="5.44083">
        <ele>45.6</ele>
        <time>2016-03-28T10:21:03Z</time>
      </trkpt>
      <trkpt lat="43.28533" lon="5.44091">
        <ele>45.4</ele>
        <time>2016-03-28T10:21:04Z</time>
      </trkpt>
      <trkpt lat="43.28535" lon="5.441">
        <ele>45.4</ele>
        <time>2016-03-28T10:21:05Z</time>
      </trkpt>
      <trkpt lat="43.28537" lon="5.44109">
        <ele>45.3</ele>
        <time>2016-03-28T10:21:06Z</time>
      </trkpt>
      <trkpt lat="43.2854" lon="5.44117">
        <ele>45.1</ele>
        <time>2016-03-28T10:21:07Z</time>
      </trkpt>
      <trkpt lat="43.28543" lon="5.44125">
        <ele>44.9</ele>
        <time>2016-03-28T10:21:08Z</time>
      </trkpt>
      <trkpt lat="43.28547" lon="5.44134">
        <ele>44.9</ele>
        <time>2016-03-28T10:21:09Z</time>
      </trkpt>
      <trkpt lat="43.28549" lon="5.44142">
        <ele>44.9</ele>
        <time>2016-03-28T10:21:10Z</time>
      </trkpt>
      <trkpt lat="43.28552" lon="5.44149">
        <ele>44.8</ele>
        <time>2016-03-28T10:21:11Z</time>
      </trkpt>
      <trkpt lat="43.28554" lon="5.44158">
        <ele>44.9</ele>
        <time>2016-03-28T10:21:12Z</time>
      </trkpt>
      <trkpt lat="43.28556" lon="5.44165">
        <ele>44.9</ele>
        <time>2016-03-28T10:21:13Z</time>
      </trkpt>
      <trkpt lat="43.28567" lon="5.44198">
        <ele>44.9</ele>
        <time>2016-03-28T10:21:17Z</time>
      </trkpt>
      <trkpt lat="43.28568" lon="5.44202">
        <ele>44.9</ele>
        <time>2016-03-28T10:21:18Z</time>
      </trkpt>
      <trkpt lat="43.28575" lon="5.44229">
        <ele>44.5</ele>
        <time>2016-03-28T10:21:21Z</time>
      </trkpt>
      <trkpt lat="43.28578" lon="5.44238">
        <ele>44.3</ele>
        <time>2016-03-28T10:21:22Z</time>
      </trkpt>
      <trkpt lat="43.28583" lon="5.44245">
        <ele>44</ele>
        <time>2016-03-28T10:21:23Z</time>
      </trkpt>
      <trkpt lat="43.28587" lon="5.44252">
        <ele>43.8</ele>
        <time>2016-03-28T10:21:24Z</time>
      </trkpt>
      <trkpt lat="43.28598" lon="5.44277">
        <ele>43.2</ele>
        <time>2016-03-28T10:21:28Z</time>
      </trkpt>
      <trkpt lat="43.28599" lon="5.44287">
        <ele>43.2</ele>
        <time>2016-03-28T10:21:29Z</time>
      </trkpt>
      <trkpt lat="43.286" lon="5.44295">
        <ele>43.3</ele>
        <time>2016-03-28T10:21:30Z</time>
      </trkpt>
      <trkpt lat="43.28604" lon="5.44302">
        <ele>43.2</ele>
        <time>2016-03-28T10:21:31Z</time>
      </trkpt>
      <trkpt lat="43.28606" lon="5.4431">
        <ele>43.3</ele>
        <time>2016-03-28T10:21:32Z</time>
      </trkpt>
      <trkpt lat="43.28609" lon="5.44318">
        <ele>43.3</ele>
        <time>2016-03-28T10:21:33Z</time>
      </trkpt>
      <trkpt lat="43.28611" lon="5.44326">
        <ele>43.4</ele>
        <time>2016-03-28T10:21:34Z</time>
      </trkpt>
      <trkpt lat="43.28615" lon="5.44332">
        <ele>43.4</ele>
        <time>2016-03-28T10:21:35Z</time>
      </trkpt>
      <trkpt lat="43.28618" lon="5.44339">
        <ele>43.4</ele>
        <time>2016-03-28T10:21:36Z</time>
      </trkpt>
      <trkpt lat="43.2862" lon="5.44347">
        <ele>43.5</ele>
        <time>2016-03-28T10:21:37Z</time>
      </trkpt>
      <trkpt lat="43.28623" lon="5.44355">
        <ele>43.6</ele>
        <time>2016-03-28T10:21:38Z</time>
      </trkpt>
      <trkpt lat="43.28626" lon="5.44363">
        <ele>43.7</ele>
        <time>2016-03-28T10:21:39Z</time>
      </trkpt>
      <trkpt lat="43.28628" lon="5.44371">
        <ele>43.9</ele>
        <time>2016-03-28T10:21:40Z</time>
      </trkpt>
      <trkpt lat="43.28631" lon="5.44379">
        <ele>44.1</ele>
        <time>2016-03-28T10:21:41Z</time>
      </trkpt>
      <trkpt lat="43.28634" lon="5.44387">
        <ele>44.2</ele>
        <time>2016-03-28T10:21:42Z</time>
      </trkpt>
      <trkpt lat="43.28636" lon="5.44396">
        <ele>44.4</ele>
        <time>2016-03-28T10:21:43Z</time>
      </trkpt>
      <trkpt lat="43.28637" lon="5.44404">
        <ele>44.5</ele>
        <time>2016-03-28T10:21:44Z</time>
      </trkpt>
      <trkpt lat="43.2864" lon="5.44412">
        <ele>44.6</ele>
        <time>2016-03-28T10:21:45Z</time>
      </trkpt>
      <trkpt lat="43.28642" lon="5.44419">
        <ele>44.6</ele>
        <time>2016-03-28T10:21:46Z</time>
      </trkpt>
      <trkpt lat="43.28645" lon="5.44429">
        <ele>44.7</ele>
        <time>2016-03-28T10:21:47Z</time>
      </trkpt>
      <trkpt lat="43.28647" lon="5.44435">
        <ele>44.7</ele>
        <time>2016-03-28T10:21:48Z</time>
      </trkpt>
      <trkpt lat="43.2865" lon="5.44441">
        <ele>44.6</ele>
        <time>2016-03-28T10:21:49Z</time>
      </trkpt>
      <trkpt lat="43.28652" lon="5.44448">
        <ele>44.6</ele>
        <time>2016-03-28T10:21:50Z</time>
      </trkpt>
      <trkpt lat="43.28655" lon="5.44457">
        <ele>44.5</ele>
        <time>2016-03-28T10:21:51Z</time>
      </trkpt>
      <trkpt lat="43.28658" lon="5.44465">
        <ele>44.6</ele>
        <time>2016-03-28T10:21:52Z</time>
      </trkpt>
      <trkpt lat="43.2866" lon="5.44471">
        <ele>44.6</ele>
        <time>2016-03-28T10:21:53Z</time>
      </trkpt>
      <trkpt lat="43.28663" lon="5.4448">
        <ele>44.7</ele>
        <time>2016-03-28T10:21:54Z</time>
      </trkpt>
      <trkpt lat="43.28666" lon="5.44486">
        <ele>44.7</ele>
        <time>2016-03-28T10:21:55Z</time>
      </trkpt>
      <trkpt lat="43.2867" lon="5.44492">
        <ele>44.7</ele>
        <time>2016-03-28T10:21:56Z</time>
      </trkpt>
      <trkpt lat="43.28671" lon="5.44499">
        <ele>44.8</ele>
        <time>2016-03-28T10:21:57Z</time>
      </trkpt>
      <trkpt lat="43.28674" lon="5.44506">
        <ele>44.8</ele>
        <time>2016-03-28T10:21:58Z</time>
      </trkpt>
      <trkpt lat="43.28677" lon="5.44515">
        <ele>44.9</ele>
        <time>2016-03-28T10:21:59Z</time>
      </trkpt>
      <trkpt lat="43.2868" lon="5.44523">
        <ele>44.9</ele>
        <time>2016-03-28T10:22:00Z</time>
      </trkpt>
      <trkpt lat="43.28681" lon="5.44532">
        <ele>45.1</ele>
        <time>2016-03-28T10:22:01Z</time>
      </trkpt>
      <trkpt lat="43.28683" lon="5.4454">
        <ele>45.2</ele>
        <time>2016-03-28T10:22:02Z</time>
      </trkpt>
      <trkpt lat="43.28685" lon="5.44546">
        <ele>45.2</ele>
        <time>2016-03-28T10:22:03Z</time>
      </trkpt>
      <trkpt lat="43.28686" lon="5.44553">
        <ele>45.3</ele>
        <time>2016-03-28T10:22:04Z</time>
      </trkpt>
      <trkpt lat="43.2869" lon="5.44559">
        <ele>45.3</ele>
        <time>2016-03-28T10:22:05Z</time>
      </trkpt>
      <trkpt lat="43.28694" lon="5.44567">
        <ele>45.3</ele>
        <time>2016-03-28T10:22:06Z</time>
      </trkpt>
      <trkpt lat="43.2869" lon="5.44572">
        <ele>45.6</ele>
        <time>2016-03-28T10:22:07Z</time>
      </trkpt>
      <trkpt lat="43.28696" lon="5.44579">
        <ele>45.5</ele>
        <time>2016-03-28T10:22:08Z</time>
      </trkpt>
      <trkpt lat="43.28698" lon="5.4458">
        <ele>45.4</ele>
        <time>2016-03-28T10:22:09Z</time>
      </trkpt>
      <trkpt lat="43.28699" lon="5.44591">
        <ele>45.6</ele>
        <time>2016-03-28T10:22:10Z</time>
      </trkpt>
      <trkpt lat="43.28713" lon="5.44626">
        <ele>45.9</ele>
        <time>2016-03-28T10:22:15Z</time>
      </trkpt>
      <trkpt lat="43.28714" lon="5.44632">
        <ele>45.9</ele>
        <time>2016-03-28T10:22:16Z</time>
      </trkpt>
      <trkpt lat="43.28717" lon="5.44639">
        <ele>45.9</ele>
        <time>2016-03-28T10:22:17Z</time>
      </trkpt>
      <trkpt lat="43.28719" lon="5.44645">
        <ele>45.9</ele>
        <time>2016-03-28T10:22:18Z</time>
      </trkpt>
      <trkpt lat="43.2872" lon="5.44652">
        <ele>46</ele>
        <time>2016-03-28T10:22:19Z</time>
      </trkpt>
      <trkpt lat="43.28721" lon="5.4466">
        <ele>46</ele>
        <time>2016-03-28T10:22:20Z</time>
      </trkpt>
      <trkpt lat="43.28721" lon="5.44669">
        <ele>46.1</ele>
        <time>2016-03-28T10:22:21Z</time>
      </trkpt>
      <trkpt lat="43.28721" lon="5.44681">
        <ele>46.2</ele>
        <time>2016-03-28T10:22:22Z</time>
      </trkpt>
      <trkpt lat="43.28724" lon="5.44687">
        <ele>46.1</ele>
        <time>2016-03-28T10:22:23Z</time>
      </trkpt>
      <trkpt lat="43.28726" lon="5.44696">
        <ele>46.1</ele>
        <time>2016-03-28T10:22:24Z</time>
      </trkpt>
      <trkpt lat="43.28728" lon="5.44704">
        <ele>46</ele>
        <time>2016-03-28T10:22:25Z</time>
      </trkpt>
      <trkpt lat="43.2873" lon="5.44712">
        <ele>46.1</ele>
        <time>2016-03-28T10:22:26Z</time>
      </trkpt>
      <trkpt lat="43.28731" lon="5.44719">
        <ele>46.5</ele>
        <time>2016-03-28T10:22:27Z</time>
      </trkpt>
      <trkpt lat="43.28732" lon="5.44724">
        <ele>46.7</ele>
        <time>2016-03-28T10:22:28Z</time>
      </trkpt>
      <trkpt lat="43.28733" lon="5.4473">
        <ele>46.9</ele>
        <time>2016-03-28T10:22:29Z</time>
      </trkpt>
      <trkpt lat="43.28734" lon="5.44735">
        <ele>47.1</ele>
        <time>2016-03-28T10:22:30Z</time>
      </trkpt>
      <trkpt lat="43.28735" lon="5.44744">
        <ele>47.5</ele>
        <time>2016-03-28T10:22:31Z</time>
      </trkpt>
      <trkpt lat="43.28737" lon="5.4475">
        <ele>47.8</ele>
        <time>2016-03-28T10:22:32Z</time>
      </trkpt>
      <trkpt lat="43.28738" lon="5.44756">
        <ele>48.1</ele>
        <time>2016-03-28T10:22:33Z</time>
      </trkpt>
      <trkpt lat="43.2874" lon="5.44763">
        <ele>48.3</ele>
        <time>2016-03-28T10:22:34Z</time>
      </trkpt>
      <trkpt lat="43.28742" lon="5.44769">
        <ele>48.6</ele>
        <time>2016-03-28T10:22:35Z</time>
      </trkpt>
      <trkpt lat="43.28744" lon="5.44778">
        <ele>49</ele>
        <time>2016-03-28T10:22:36Z</time>
      </trkpt>
      <trkpt lat="43.28745" lon="5.44786">
        <ele>49.4</ele>
        <time>2016-03-28T10:22:37Z</time>
      </trkpt>
      <trkpt lat="43.28746" lon="5.44793">
        <ele>49.7</ele>
        <time>2016-03-28T10:22:38Z</time>
      </trkpt>
      <trkpt lat="43.28746" lon="5.44799">
        <ele>50</ele>
        <time>2016-03-28T10:22:39Z</time>
      </trkpt>
      <trkpt lat="43.28753" lon="5.44828">
        <ele>51.3</ele>
        <time>2016-03-28T10:22:43Z</time>
      </trkpt>
      <trkpt lat="43.28754" lon="5.44836">
        <ele>51.7</ele>
        <time>2016-03-28T10:22:44Z</time>
      </trkpt>
      <trkpt lat="43.28757" lon="5.44851">
        <ele>52.4</ele>
        <time>2016-03-28T10:22:46Z</time>
      </trkpt>
      <trkpt lat="43.28765" lon="5.44858">
        <ele>52.4</ele>
        <time>2016-03-28T10:22:48Z</time>
      </trkpt>
      <trkpt lat="43.28765" lon="5.44865">
        <ele>52.7</ele>
        <time>2016-03-28T10:22:49Z</time>
      </trkpt>
      <trkpt lat="43.28766" lon="5.4487">
        <ele>53</ele>
        <time>2016-03-28T10:22:50Z</time>
      </trkpt>
      <trkpt lat="43.28768" lon="5.44875">
        <ele>53.2</ele>
        <time>2016-03-28T10:22:51Z</time>
      </trkpt>
      <trkpt lat="43.28773" lon="5.44895">
        <ele>52.6</ele>
        <time>2016-03-28T10:22:55Z</time>
      </trkpt>
      <trkpt lat="43.28772" lon="5.44899">
        <ele>52.7</ele>
        <time>2016-03-28T10:22:57Z</time>
      </trkpt>
      <trkpt lat="43.28783" lon="5.44927">
        <ele>51.4</ele>
        <time>2016-03-28T10:23:00Z</time>
      </trkpt>
      <trkpt lat="43.28786" lon="5.44932">
        <ele>51.1</ele>
        <time>2016-03-28T10:23:01Z</time>
      </trkpt>
      <trkpt lat="43.28789" lon="5.44938">
        <ele>50.7</ele>
        <time>2016-03-28T10:23:02Z</time>
      </trkpt>
      <trkpt lat="43.28791" lon="5.44943">
        <ele>50.4</ele>
        <time>2016-03-28T10:23:03Z</time>
      </trkpt>
      <trkpt lat="43.28792" lon="5.44951">
        <ele>50.2</ele>
        <time>2016-03-28T10:23:04Z</time>
      </trkpt>
      <trkpt lat="43.28793" lon="5.44956">
        <ele>50</ele>
        <time>2016-03-28T10:23:05Z</time>
      </trkpt>
      <trkpt lat="43.28794" lon="5.44962">
        <ele>50</ele>
        <time>2016-03-28T10:23:06Z</time>
      </trkpt>
      <trkpt lat="43.28795" lon="5.44968">
        <ele>50.2</ele>
        <time>2016-03-28T10:23:07Z</time>
      </trkpt>
      <trkpt lat="43.28798" lon="5.44974">
        <ele>50.2</ele>
        <time>2016-03-28T10:23:08Z</time>
      </trkpt>
      <trkpt lat="43.28799" lon="5.44979">
        <ele>50.3</ele>
        <time>2016-03-28T10:23:09Z</time>
      </trkpt>
      <trkpt lat="43.28801" lon="5.44986">
        <ele>50.4</ele>
        <time>2016-03-28T10:23:10Z</time>
      </trkpt>
      <trkpt lat="43.28803" lon="5.44992">
        <ele>50.5</ele>
        <time>2016-03-28T10:23:11Z</time>
      </trkpt>
      <trkpt lat="43.28803" lon="5.44998">
        <ele>50.7</ele>
        <time>2016-03-28T10:23:12Z</time>
      </trkpt>
      <trkpt lat="43.28806" lon="5.45005">
        <ele>50.7</ele>
        <time>2016-03-28T10:23:13Z</time>
      </trkpt>
      <trkpt lat="43.28809" lon="5.45009">
        <ele>50.6</ele>
        <time>2016-03-28T10:23:14Z</time>
      </trkpt>
      <trkpt lat="43.28811" lon="5.45015">
        <ele>50.7</ele>
        <time>2016-03-28T10:23:15Z</time>
      </trkpt>
      <trkpt lat="43.28812" lon="5.4502">
        <ele>50.7</ele>
        <time>2016-03-28T10:23:16Z</time>
      </trkpt>
      <trkpt lat="43.28814" lon="5.45027">
        <ele>50.8</ele>
        <time>2016-03-28T10:23:17Z</time>
      </trkpt>
      <trkpt lat="43.28815" lon="5.45034">
        <ele>50.9</ele>
        <time>2016-03-28T10:23:18Z</time>
      </trkpt>
      <trkpt lat="43.28816" lon="5.4504">
        <ele>50.9</ele>
        <time>2016-03-28T10:23:19Z</time>
      </trkpt>
      <trkpt lat="43.28817" lon="5.45046">
        <ele>51</ele>
        <time>2016-03-28T10:23:20Z</time>
      </trkpt>
      <trkpt lat="43.28818" lon="5.45051">
        <ele>51</ele>
        <time>2016-03-28T10:23:21Z</time>
      </trkpt>
      <trkpt lat="43.28819" lon="5.45056">
        <ele>51.1</ele>
        <time>2016-03-28T10:23:22Z</time>
      </trkpt>
      <trkpt lat="43.28827" lon="5.4508">
        <ele>50.9</ele>
        <time>2016-03-28T10:23:26Z</time>
      </trkpt>
      <trkpt lat="43.28829" lon="5.45087">
        <ele>50.9</ele>
        <time>2016-03-28T10:23:27Z</time>
      </trkpt>
      <trkpt lat="43.28831" lon="5.45095">
        <ele>51</ele>
        <time>2016-03-28T10:23:28Z</time>
      </trkpt>
      <trkpt lat="43.28832" lon="5.451">
        <ele>51</ele>
        <time>2016-03-28T10:23:29Z</time>
      </trkpt>
      <trkpt lat="43.28833" lon="5.45107">
        <ele>51.1</ele>
        <time>2016-03-28T10:23:30Z</time>
      </trkpt>
      <trkpt lat="43.28834" lon="5.45115">
        <ele>51.2</ele>
        <time>2016-03-28T10:23:31Z</time>
      </trkpt>
      <trkpt lat="43.28834" lon="5.45122">
        <ele>51.4</ele>
        <time>2016-03-28T10:23:32Z</time>
      </trkpt>
      <trkpt lat="43.28834" lon="5.4513">
        <ele>51.5</ele>
        <time>2016-03-28T10:23:33Z</time>
      </trkpt>
      <trkpt lat="43.28836" lon="5.45138">
        <ele>51.4</ele>
        <time>2016-03-28T10:23:34Z</time>
      </trkpt>
      <trkpt lat="43.28836" lon="5.45144">
        <ele>51.4</ele>
        <time>2016-03-28T10:23:35Z</time>
      </trkpt>
      <trkpt lat="43.28838" lon="5.45152">
        <ele>51.4</ele>
        <time>2016-03-28T10:23:36Z</time>
      </trkpt>
      <trkpt lat="43.28839" lon="5.45161">
        <ele>51.3</ele>
        <time>2016-03-28T10:23:37Z</time>
      </trkpt>
      <trkpt lat="43.28848" lon="5.45184">
        <ele>51</ele>
        <time>2016-03-28T10:23:41Z</time>
      </trkpt>
      <trkpt lat="43.2885" lon="5.45191">
        <ele>51</ele>
        <time>2016-03-28T10:23:42Z</time>
      </trkpt>
      <trkpt lat="43.28851" lon="5.45197">
        <ele>51</ele>
        <time>2016-03-28T10:23:43Z</time>
      </trkpt>
      <trkpt lat="43.28853" lon="5.45204">
        <ele>51</ele>
        <time>2016-03-28T10:23:44Z</time>
      </trkpt>
      <trkpt lat="43.28853" lon="5.45212">
        <ele>51.1</ele>
        <time>2016-03-28T10:23:45Z</time>
      </trkpt>
      <trkpt lat="43.28855" lon="5.45219">
        <ele>51.2</ele>
        <time>2016-03-28T10:23:46Z</time>
      </trkpt>
      <trkpt lat="43.28857" lon="5.45225">
        <ele>51.2</ele>
        <time>2016-03-28T10:23:47Z</time>
      </trkpt>
      <trkpt lat="43.28858" lon="5.45231">
        <ele>51.3</ele>
        <time>2016-03-28T10:23:48Z</time>
      </trkpt>
      <trkpt lat="43.28858" lon="5.4524">
        <ele>51.4</ele>
        <time>2016-03-28T10:23:49Z</time>
      </trkpt>
      <trkpt lat="43.28859" lon="5.45247">
        <ele>51.5</ele>
        <time>2016-03-28T10:23:50Z</time>
      </trkpt>
      <trkpt lat="43.2886" lon="5.45254">
        <ele>51.6</ele>
        <time>2016-03-28T10:23:51Z</time>
      </trkpt>
      <trkpt lat="43.2886" lon="5.45261">
        <ele>51.8</ele>
        <time>2016-03-28T10:23:52Z</time>
      </trkpt>
      <trkpt lat="43.28859" lon="5.45268">
        <ele>51.9</ele>
        <time>2016-03-28T10:23:53Z</time>
      </trkpt>
      <trkpt lat="43.28859" lon="5.45275">
        <ele>52.1</ele>
        <time>2016-03-28T10:23:54Z</time>
      </trkpt>
      <trkpt lat="43.28859" lon="5.45283">
        <ele>52.2</ele>
        <time>2016-03-28T10:23:55Z</time>
      </trkpt>
      <trkpt lat="43.2886" lon="5.4529">
        <ele>52.3</ele>
        <time>2016-03-28T10:23:56Z</time>
      </trkpt>
      <trkpt lat="43.28859" lon="5.45298">
        <ele>52.5</ele>
        <time>2016-03-28T10:23:57Z</time>
      </trkpt>
      <trkpt lat="43.28858" lon="5.45306">
        <ele>52.6</ele>
        <time>2016-03-28T10:23:58Z</time>
      </trkpt>
      <trkpt lat="43.28858" lon="5.45316">
        <ele>52.8</ele>
        <time>2016-03-28T10:23:59Z</time>
      </trkpt>
      <trkpt lat="43.28858" lon="5.45324">
        <ele>52.9</ele>
        <time>2016-03-28T10:24:00Z</time>
      </trkpt>
      <trkpt lat="43.28859" lon="5.45332">
        <ele>53</ele>
        <time>2016-03-28T10:24:01Z</time>
      </trkpt>
      <trkpt lat="43.2886" lon="5.45341">
        <ele>53.1</ele>
        <time>2016-03-28T10:24:02Z</time>
      </trkpt>
      <trkpt lat="43.2886" lon="5.45349">
        <ele>53.2</ele>
        <time>2016-03-28T10:24:03Z</time>
      </trkpt>
      <trkpt lat="43.28861" lon="5.45355">
        <ele>53.2</ele>
        <time>2016-03-28T10:24:04Z</time>
      </trkpt>
      <trkpt lat="43.2886" lon="5.45363">
        <ele>53.4</ele>
        <time>2016-03-28T10:24:05Z</time>
      </trkpt>
      <trkpt lat="43.28862" lon="5.45371">
        <ele>53.4</ele>
        <time>2016-03-28T10:24:06Z</time>
      </trkpt>
      <trkpt lat="43.28864" lon="5.45376">
        <ele>53.4</ele>
        <time>2016-03-28T10:24:07Z</time>
      </trkpt>
      <trkpt lat="43.28861" lon="5.45405">
        <ele>53.8</ele>
        <time>2016-03-28T10:24:10Z</time>
      </trkpt>
      <trkpt lat="43.28859" lon="5.45412">
        <ele>53.9</ele>
        <time>2016-03-28T10:24:11Z</time>
      </trkpt>
      <trkpt lat="43.28861" lon="5.45419">
        <ele>54</ele>
        <time>2016-03-28T10:24:12Z</time>
      </trkpt>
      <trkpt lat="43.28861" lon="5.45423">
        <ele>54</ele>
        <time>2016-03-28T10:24:13Z</time>
      </trkpt>
      <trkpt lat="43.2886" lon="5.45434">
        <ele>54.1</ele>
        <time>2016-03-28T10:24:14Z</time>
      </trkpt>
      <trkpt lat="43.28862" lon="5.45441">
        <ele>54.1</ele>
        <time>2016-03-28T10:24:15Z</time>
      </trkpt>
      <trkpt lat="43.28862" lon="5.4545">
        <ele>54.2</ele>
        <time>2016-03-28T10:24:16Z</time>
      </trkpt>
      <trkpt lat="43.28861" lon="5.45458">
        <ele>54.3</ele>
        <time>2016-03-28T10:24:17Z</time>
      </trkpt>
      <trkpt lat="43.28861" lon="5.45466">
        <ele>54.1</ele>
        <time>2016-03-28T10:24:18Z</time>
      </trkpt>
      <trkpt lat="43.28861" lon="5.45474">
        <ele>53.9</ele>
        <time>2016-03-28T10:24:19Z</time>
      </trkpt>
      <trkpt lat="43.2886" lon="5.45479">
        <ele>53.8</ele>
        <time>2016-03-28T10:24:20Z</time>
      </trkpt>
      <trkpt lat="43.28864" lon="5.45504">
        <ele>52.8</ele>
        <time>2016-03-28T10:24:24Z</time>
      </trkpt>
      <trkpt lat="43.28863" lon="5.45508">
        <ele>52.8</ele>
        <time>2016-03-28T10:24:25Z</time>
      </trkpt>
      <trkpt lat="43.28863" lon="5.45513">
        <ele>52.6</ele>
        <time>2016-03-28T10:24:26Z</time>
      </trkpt>
      <trkpt lat="43.28865" lon="5.45525">
        <ele>52.1</ele>
        <time>2016-03-28T10:24:27Z</time>
      </trkpt>
      <trkpt lat="43.28866" lon="5.45548">
        <ele>51.5</ele>
        <time>2016-03-28T10:24:30Z</time>
      </trkpt>
      <trkpt lat="43.28865" lon="5.45555">
        <ele>51.5</ele>
        <time>2016-03-28T10:24:31Z</time>
      </trkpt>
      <trkpt lat="43.2887" lon="5.45594">
        <ele>50.7</ele>
        <time>2016-03-28T10:24:36Z</time>
      </trkpt>
      <trkpt lat="43.28869" lon="5.45602">
        <ele>50.7</ele>
        <time>2016-03-28T10:24:37Z</time>
      </trkpt>
      <trkpt lat="43.28869" lon="5.45609">
        <ele>50.6</ele>
        <time>2016-03-28T10:24:38Z</time>
      </trkpt>
      <trkpt lat="43.28869" lon="5.45613">
        <ele>50.6</ele>
        <time>2016-03-28T10:24:39Z</time>
      </trkpt>
      <trkpt lat="43.28868" lon="5.45621">
        <ele>50.5</ele>
        <time>2016-03-28T10:24:40Z</time>
      </trkpt>
      <trkpt lat="43.28867" lon="5.4563">
        <ele>50.7</ele>
        <time>2016-03-28T10:24:41Z</time>
      </trkpt>
      <trkpt lat="43.28867" lon="5.45637">
        <ele>51</ele>
        <time>2016-03-28T10:24:42Z</time>
      </trkpt>
      <trkpt lat="43.28868" lon="5.45645">
        <ele>51.1</ele>
        <time>2016-03-28T10:24:43Z</time>
      </trkpt>
      <trkpt lat="43.28868" lon="5.45652">
        <ele>51.4</ele>
        <time>2016-03-28T10:24:44Z</time>
      </trkpt>
      <trkpt lat="43.28869" lon="5.45662">
        <ele>51.7</ele>
        <time>2016-03-28T10:24:45Z</time>
      </trkpt>
      <trkpt lat="43.2887" lon="5.45668">
        <ele>51.8</ele>
        <time>2016-03-28T10:24:46Z</time>
      </trkpt>
      <trkpt lat="43.28871" lon="5.45676">
        <ele>52</ele>
        <time>2016-03-28T10:24:47Z</time>
      </trkpt>
      <trkpt lat="43.28871" lon="5.45683">
        <ele>52.3</ele>
        <time>2016-03-28T10:24:48Z</time>
      </trkpt>
      <trkpt lat="43.2887" lon="5.45691">
        <ele>52.6</ele>
        <time>2016-03-28T10:24:49Z</time>
      </trkpt>
      <trkpt lat="43.28871" lon="5.45698">
        <ele>52.8</ele>
        <time>2016-03-28T10:24:50Z</time>
      </trkpt>
      <trkpt lat="43.2887" lon="5.45707">
        <ele>53.1</ele>
        <time>2016-03-28T10:24:51Z</time>
      </trkpt>
      <trkpt lat="43.2887" lon="5.45714">
        <ele>53.3</ele>
        <time>2016-03-28T10:24:52Z</time>
      </trkpt>
      <trkpt lat="43.2887" lon="5.45721">
        <ele>53.3</ele>
        <time>2016-03-28T10:24:53Z</time>
      </trkpt>
      <trkpt lat="43.2887" lon="5.45728">
        <ele>53.4</ele>
        <time>2016-03-28T10:24:54Z</time>
      </trkpt>
      <trkpt lat="43.2887" lon="5.45735">
        <ele>53.5</ele>
        <time>2016-03-28T10:24:55Z</time>
      </trkpt>
      <trkpt lat="43.2887" lon="5.45742">
        <ele>53.6</ele>
        <time>2016-03-28T10:24:56Z</time>
      </trkpt>
      <trkpt lat="43.28871" lon="5.45748">
        <ele>53.7</ele>
        <time>2016-03-28T10:24:57Z</time>
      </trkpt>
      <trkpt lat="43.28872" lon="5.45755">
        <ele>53.7</ele>
        <time>2016-03-28T10:24:58Z</time>
      </trkpt>
      <trkpt lat="43.28872" lon="5.45762">
        <ele>53.8</ele>
        <time>2016-03-28T10:24:59Z</time>
      </trkpt>
      <trkpt lat="43.28873" lon="5.45768">
        <ele>53.8</ele>
        <time>2016-03-28T10:25:00Z</time>
      </trkpt>
      <trkpt lat="43.28874" lon="5.45775">
        <ele>53.9</ele>
        <time>2016-03-28T10:25:01Z</time>
      </trkpt>
      <trkpt lat="43.28874" lon="5.45782">
        <ele>54</ele>
        <time>2016-03-28T10:25:02Z</time>
      </trkpt>
      <trkpt lat="43.28873" lon="5.45786">
        <ele>54.1</ele>
        <time>2016-03-28T10:25:03Z</time>
      </trkpt>
      <trkpt lat="43.28873" lon="5.45795">
        <ele>54.1</ele>
        <time>2016-03-28T10:25:04Z</time>
      </trkpt>
      <trkpt lat="43.28874" lon="5.45806">
        <ele>54.1</ele>
        <time>2016-03-28T10:25:05Z</time>
      </trkpt>
      <trkpt lat="43.28874" lon="5.45815">
        <ele>54.1</ele>
        <time>2016-03-28T10:25:06Z</time>
      </trkpt>
      <trkpt lat="43.28874" lon="5.45822">
        <ele>54</ele>
        <time>2016-03-28T10:25:07Z</time>
      </trkpt>
      <trkpt lat="43.28875" lon="5.45832">
        <ele>54</ele>
        <time>2016-03-28T10:25:08Z</time>
      </trkpt>
      <trkpt lat="43.28876" lon="5.45866">
        <ele>53.9</ele>
        <time>2016-03-28T10:25:13Z</time>
      </trkpt>
      <trkpt lat="43.2888" lon="5.45873">
        <ele>53.5</ele>
        <time>2016-03-28T10:25:14Z</time>
      </trkpt>
      <trkpt lat="43.28882" lon="5.45882">
        <ele>53.5</ele>
        <time>2016-03-28T10:25:15Z</time>
      </trkpt>
      <trkpt lat="43.28883" lon="5.45888">
        <ele>53.6</ele>
        <time>2016-03-28T10:25:16Z</time>
      </trkpt>
      <trkpt lat="43.28884" lon="5.45894">
        <ele>53.6</ele>
        <time>2016-03-28T10:25:17Z</time>
      </trkpt>
      <trkpt lat="43.28884" lon="5.45898">
        <ele>53.8</ele>
        <time>2016-03-28T10:25:18Z</time>
      </trkpt>
      <trkpt lat="43.28884" lon="5.45904">
        <ele>54</ele>
        <time>2016-03-28T10:25:19Z</time>
      </trkpt>
      <trkpt lat="43.28885" lon="5.4591">
        <ele>54.1</ele>
        <time>2016-03-28T10:25:20Z</time>
      </trkpt>
      <trkpt lat="43.28885" lon="5.45919">
        <ele>54.3</ele>
        <time>2016-03-28T10:25:21Z</time>
      </trkpt>
      <trkpt lat="43.28885" lon="5.45927">
        <ele>54.5</ele>
        <time>2016-03-28T10:25:22Z</time>
      </trkpt>
      <trkpt lat="43.28885" lon="5.45933">
        <ele>54.7</ele>
        <time>2016-03-28T10:25:23Z</time>
      </trkpt>
      <trkpt lat="43.28885" lon="5.45941">
        <ele>54.9</ele>
        <time>2016-03-28T10:25:24Z</time>
      </trkpt>
      <trkpt lat="43.28886" lon="5.45947">
        <ele>55</ele>
        <time>2016-03-28T10:25:25Z</time>
      </trkpt>
      <trkpt lat="43.28881" lon="5.45987">
        <ele>56.4</ele>
        <time>2016-03-28T10:25:31Z</time>
      </trkpt>
      <trkpt lat="43.28879" lon="5.45992">
        <ele>56.6</ele>
        <time>2016-03-28T10:25:32Z</time>
      </trkpt>
      <trkpt lat="43.28879" lon="5.46001">
        <ele>56.8</ele>
        <time>2016-03-28T10:25:33Z</time>
      </trkpt>
      <trkpt lat="43.28879" lon="5.46009">
        <ele>57</ele>
        <time>2016-03-28T10:25:34Z</time>
      </trkpt>
      <trkpt lat="43.28879" lon="5.46014">
        <ele>57.1</ele>
        <time>2016-03-28T10:25:35Z</time>
      </trkpt>
      <trkpt lat="43.28879" lon="5.46023">
        <ele>57.3</ele>
        <time>2016-03-28T10:25:36Z</time>
      </trkpt>
      <trkpt lat="43.28881" lon="5.46031">
        <ele>57.4</ele>
        <time>2016-03-28T10:25:37Z</time>
      </trkpt>
      <trkpt lat="43.2888" lon="5.46038">
        <ele>57.6</ele>
        <time>2016-03-28T10:25:38Z</time>
      </trkpt>
      <trkpt lat="43.28878" lon="5.46048">
        <ele>57.9</ele>
        <time>2016-03-28T10:25:39Z</time>
      </trkpt>
      <trkpt lat="43.28877" lon="5.46055">
        <ele>58.1</ele>
        <time>2016-03-28T10:25:40Z</time>
      </trkpt>
      <trkpt lat="43.28876" lon="5.46059">
        <ele>58.2</ele>
        <time>2016-03-28T10:25:41Z</time>
      </trkpt>
      <trkpt lat="43.28876" lon="5.46067">
        <ele>58.3</ele>
        <time>2016-03-28T10:25:42Z</time>
      </trkpt>
      <trkpt lat="43.28877" lon="5.46074">
        <ele>58.3</ele>
        <time>2016-03-28T10:25:43Z</time>
      </trkpt>
      <trkpt lat="43.28878" lon="5.46079">
        <ele>58.3</ele>
        <time>2016-03-28T10:25:44Z</time>
      </trkpt>
      <trkpt lat="43.28879" lon="5.46088">
        <ele>58.4</ele>
        <time>2016-03-28T10:25:45Z</time>
      </trkpt>
      <trkpt lat="43.28878" lon="5.46091">
        <ele>58.5</ele>
        <time>2016-03-28T10:25:46Z</time>
      </trkpt>
      <trkpt lat="43.28877" lon="5.46097">
        <ele>58.6</ele>
        <time>2016-03-28T10:25:47Z</time>
      </trkpt>
      <trkpt lat="43.28879" lon="5.461">
        <ele>58.5</ele>
        <time>2016-03-28T10:25:48Z</time>
      </trkpt>
      <trkpt lat="43.28877" lon="5.46107">
        <ele>58.7</ele>
        <time>2016-03-28T10:25:49Z</time>
      </trkpt>
      <trkpt lat="43.28876" lon="5.46113">
        <ele>58.8</ele>
        <time>2016-03-28T10:25:50Z</time>
      </trkpt>
      <trkpt lat="43.28876" lon="5.46123">
        <ele>58.9</ele>
        <time>2016-03-28T10:25:51Z</time>
      </trkpt>
      <trkpt lat="43.28878" lon="5.46127">
        <ele>58.9</ele>
        <time>2016-03-28T10:25:52Z</time>
      </trkpt>
      <trkpt lat="43.28879" lon="5.46131">
        <ele>58.9</ele>
        <time>2016-03-28T10:25:53Z</time>
      </trkpt>
      <trkpt lat="43.28877" lon="5.46136">
        <ele>59</ele>
        <time>2016-03-28T10:25:54Z</time>
      </trkpt>
      <trkpt lat="43.28888" lon="5.46164">
        <ele>58.9</ele>
        <time>2016-03-28T10:25:58Z</time>
      </trkpt>
      <trkpt lat="43.28869" lon="5.46172">
        <ele>59.9</ele>
        <time>2016-03-28T10:25:59Z</time>
      </trkpt>
      <trkpt lat="43.28867" lon="5.46176">
        <ele>60.1</ele>
        <time>2016-03-28T10:26:00Z</time>
      </trkpt>
      <trkpt lat="43.28865" lon="5.4618">
        <ele>60.3</ele>
        <time>2016-03-28T10:26:01Z</time>
      </trkpt>
      <trkpt lat="43.28863" lon="5.46184">
        <ele>60.4</ele>
        <time>2016-03-28T10:26:02Z</time>
      </trkpt>
      <trkpt lat="43.28862" lon="5.46191">
        <ele>60.6</ele>
        <time>2016-03-28T10:26:03Z</time>
      </trkpt>
      <trkpt lat="43.28861" lon="5.46195">
        <ele>60.7</ele>
        <time>2016-03-28T10:26:04Z</time>
      </trkpt>
      <trkpt lat="43.28858" lon="5.462">
        <ele>60.9</ele>
        <time>2016-03-28T10:26:05Z</time>
      </trkpt>
      <trkpt lat="43.28856" lon="5.46206">
        <ele>61.1</ele>
        <time>2016-03-28T10:26:06Z</time>
      </trkpt>
      <trkpt lat="43.28856" lon="5.46213">
        <ele>61.1</ele>
        <time>2016-03-28T10:26:07Z</time>
      </trkpt>
      <trkpt lat="43.28854" lon="5.46218">
        <ele>61.1</ele>
        <time>2016-03-28T10:26:08Z</time>
      </trkpt>
      <trkpt lat="43.28853" lon="5.46223">
        <ele>61.1</ele>
        <time>2016-03-28T10:26:09Z</time>
      </trkpt>
      <trkpt lat="43.28851" lon="5.46228">
        <ele>61</ele>
        <time>2016-03-28T10:26:10Z</time>
      </trkpt>
      <trkpt lat="43.2885" lon="5.46233">
        <ele>61</ele>
        <time>2016-03-28T10:26:11Z</time>
      </trkpt>
      <trkpt lat="43.28849" lon="5.46237">
        <ele>61</ele>
        <time>2016-03-28T10:26:12Z</time>
      </trkpt>
      <trkpt lat="43.28846" lon="5.46249">
        <ele>60.9</ele>
        <time>2016-03-28T10:26:14Z</time>
      </trkpt>
      <trkpt lat="43.28844" lon="5.46254">
        <ele>60.9</ele>
        <time>2016-03-28T10:26:15Z</time>
      </trkpt>
      <trkpt lat="43.28842" lon="5.4626">
        <ele>60.9</ele>
        <time>2016-03-28T10:26:16Z</time>
      </trkpt>
      <trkpt lat="43.2884" lon="5.46265">
        <ele>60.8</ele>
        <time>2016-03-28T10:26:17Z</time>
      </trkpt>
      <trkpt lat="43.28837" lon="5.46271">
        <ele>60.9</ele>
        <time>2016-03-28T10:26:18Z</time>
      </trkpt>
      <trkpt lat="43.28833" lon="5.46277">
        <ele>60.8</ele>
        <time>2016-03-28T10:26:19Z</time>
      </trkpt>
      <trkpt lat="43.28833" lon="5.46282">
        <ele>60.7</ele>
        <time>2016-03-28T10:26:20Z</time>
      </trkpt>
      <trkpt lat="43.28832" lon="5.46287">
        <ele>60.7</ele>
        <time>2016-03-28T10:26:21Z</time>
      </trkpt>
      <trkpt lat="43.2883" lon="5.46292">
        <ele>60.6</ele>
        <time>2016-03-28T10:26:22Z</time>
      </trkpt>
      <trkpt lat="43.28828" lon="5.46297">
        <ele>60.8</ele>
        <time>2016-03-28T10:26:23Z</time>
      </trkpt>
      <trkpt lat="43.28826" lon="5.46301">
        <ele>60.9</ele>
        <time>2016-03-28T10:26:24Z</time>
      </trkpt>
      <trkpt lat="43.28825" lon="5.46306">
        <ele>61</ele>
        <time>2016-03-28T10:26:25Z</time>
      </trkpt>
      <trkpt lat="43.28821" lon="5.46318">
        <ele>61.4</ele>
        <time>2016-03-28T10:26:27Z</time>
      </trkpt>
      <trkpt lat="43.28819" lon="5.46323">
        <ele>61.6</ele>
        <time>2016-03-28T10:26:28Z</time>
      </trkpt>
      <trkpt lat="43.28818" lon="5.46329">
        <ele>61.8</ele>
        <time>2016-03-28T10:26:29Z</time>
      </trkpt>
      <trkpt lat="43.28817" lon="5.46334">
        <ele>62</ele>
        <time>2016-03-28T10:26:30Z</time>
      </trkpt>
      <trkpt lat="43.28815" lon="5.46339">
        <ele>62.2</ele>
        <time>2016-03-28T10:26:31Z</time>
      </trkpt>
      <trkpt lat="43.28813" lon="5.46345">
        <ele>62.5</ele>
        <time>2016-03-28T10:26:32Z</time>
      </trkpt>
      <trkpt lat="43.2881" lon="5.4635">
        <ele>62.8</ele>
        <time>2016-03-28T10:26:33Z</time>
      </trkpt>
      <trkpt lat="43.28808" lon="5.46355">
        <ele>63.1</ele>
        <time>2016-03-28T10:26:34Z</time>
      </trkpt>
      <trkpt lat="43.28806" lon="5.4636">
        <ele>63.4</ele>
        <time>2016-03-28T10:26:35Z</time>
      </trkpt>
      <trkpt lat="43.28804" lon="5.46365">
        <ele>63.7</ele>
        <time>2016-03-28T10:26:36Z</time>
      </trkpt>
      <trkpt lat="43.28802" lon="5.46371">
        <ele>64</ele>
        <time>2016-03-28T10:26:37Z</time>
      </trkpt>
      <trkpt lat="43.28801" lon="5.46375">
        <ele>64.2</ele>
        <time>2016-03-28T10:26:38Z</time>
      </trkpt>
      <trkpt lat="43.28791" lon="5.46403">
        <ele>65.4</ele>
        <time>2016-03-28T10:26:43Z</time>
      </trkpt>
      <trkpt lat="43.28789" lon="5.46409">
        <ele>65.5</ele>
        <time>2016-03-28T10:26:44Z</time>
      </trkpt>
      <trkpt lat="43.28787" lon="5.46414">
        <ele>65.6</ele>
        <time>2016-03-28T10:26:45Z</time>
      </trkpt>
      <trkpt lat="43.28787" lon="5.46421">
        <ele>65.7</ele>
        <time>2016-03-28T10:26:46Z</time>
      </trkpt>
      <trkpt lat="43.28784" lon="5.46427">
        <ele>65.8</ele>
        <time>2016-03-28T10:26:47Z</time>
      </trkpt>
      <trkpt lat="43.28783" lon="5.46432">
        <ele>65.9</ele>
        <time>2016-03-28T10:26:48Z</time>
      </trkpt>
      <trkpt lat="43.28781" lon="5.46437">
        <ele>66.1</ele>
        <time>2016-03-28T10:26:49Z</time>
      </trkpt>
      <trkpt lat="43.28778" lon="5.46443">
        <ele>66.2</ele>
        <time>2016-03-28T10:26:50Z</time>
      </trkpt>
      <trkpt lat="43.28775" lon="5.46453">
        <ele>66.5</ele>
        <time>2016-03-28T10:26:51Z</time>
      </trkpt>
      <trkpt lat="43.2877" lon="5.46464">
        <ele>66.6</ele>
        <time>2016-03-28T10:26:53Z</time>
      </trkpt>
      <trkpt lat="43.28767" lon="5.46469">
        <ele>66.6</ele>
        <time>2016-03-28T10:26:54Z</time>
      </trkpt>
      <trkpt lat="43.28766" lon="5.46475">
        <ele>66.4</ele>
        <time>2016-03-28T10:26:55Z</time>
      </trkpt>
      <trkpt lat="43.28766" lon="5.46482">
        <ele>66.3</ele>
        <time>2016-03-28T10:26:56Z</time>
      </trkpt>
      <trkpt lat="43.28756" lon="5.46508">
        <ele>66</ele>
        <time>2016-03-28T10:27:01Z</time>
      </trkpt>
      <trkpt lat="43.28753" lon="5.46515">
        <ele>66</ele>
        <time>2016-03-28T10:27:02Z</time>
      </trkpt>
      <trkpt lat="43.28751" lon="5.4652">
        <ele>66</ele>
        <time>2016-03-28T10:27:03Z</time>
      </trkpt>
      <trkpt lat="43.2875" lon="5.46525">
        <ele>65.9</ele>
        <time>2016-03-28T10:27:04Z</time>
      </trkpt>
      <trkpt lat="43.28748" lon="5.4653">
        <ele>65.9</ele>
        <time>2016-03-28T10:27:05Z</time>
      </trkpt>
      <trkpt lat="43.28745" lon="5.46538">
        <ele>65.9</ele>
        <time>2016-03-28T10:27:07Z</time>
      </trkpt>
      <trkpt lat="43.28743" lon="5.46543">
        <ele>65.9</ele>
        <time>2016-03-28T10:27:08Z</time>
      </trkpt>
      <trkpt lat="43.28742" lon="5.46548">
        <ele>65.8</ele>
        <time>2016-03-28T10:27:09Z</time>
      </trkpt>
      <trkpt lat="43.28739" lon="5.46552">
        <ele>65.9</ele>
        <time>2016-03-28T10:27:10Z</time>
      </trkpt>
      <trkpt lat="43.28737" lon="5.46557">
        <ele>65.9</ele>
        <time>2016-03-28T10:27:11Z</time>
      </trkpt>
      <trkpt lat="43.28735" lon="5.46562">
        <ele>65.9</ele>
        <time>2016-03-28T10:27:12Z</time>
      </trkpt>
      <trkpt lat="43.28732" lon="5.46567">
        <ele>65.9</ele>
        <time>2016-03-28T10:27:13Z</time>
      </trkpt>
      <trkpt lat="43.28731" lon="5.46576">
        <ele>65.7</ele>
        <time>2016-03-28T10:27:14Z</time>
      </trkpt>
      <trkpt lat="43.28731" lon="5.46582">
        <ele>65.6</ele>
        <time>2016-03-28T10:27:15Z</time>
      </trkpt>
      <trkpt lat="43.28729" lon="5.46589">
        <ele>65.5</ele>
        <time>2016-03-28T10:27:16Z</time>
      </trkpt>
      <trkpt lat="43.28723" lon="5.46609">
        <ele>65.1</ele>
        <time>2016-03-28T10:27:20Z</time>
      </trkpt>
      <trkpt lat="43.28723" lon="5.46616">
        <ele>64.9</ele>
        <time>2016-03-28T10:27:21Z</time>
      </trkpt>
      <trkpt lat="43.28721" lon="5.46623">
        <ele>64.8</ele>
        <time>2016-03-28T10:27:22Z</time>
      </trkpt>
      <trkpt lat="43.28717" lon="5.46628">
        <ele>64.8</ele>
        <time>2016-03-28T10:27:23Z</time>
      </trkpt>
      <trkpt lat="43.28715" lon="5.46631">
        <ele>64.8</ele>
        <time>2016-03-28T10:27:24Z</time>
      </trkpt>
      <trkpt lat="43.28713" lon="5.46635">
        <ele>64.9</ele>
        <time>2016-03-28T10:27:25Z</time>
      </trkpt>
      <trkpt lat="43.2871" lon="5.4664">
        <ele>65</ele>
        <time>2016-03-28T10:27:26Z</time>
      </trkpt>
      <trkpt lat="43.28706" lon="5.46645">
        <ele>65.1</ele>
        <time>2016-03-28T10:27:27Z</time>
      </trkpt>
      <trkpt lat="43.28705" lon="5.4665">
        <ele>65.2</ele>
        <time>2016-03-28T10:27:28Z</time>
      </trkpt>
      <trkpt lat="43.28703" lon="5.46655">
        <ele>65.3</ele>
        <time>2016-03-28T10:27:29Z</time>
      </trkpt>
      <trkpt lat="43.287" lon="5.46662">
        <ele>65.5</ele>
        <time>2016-03-28T10:27:30Z</time>
      </trkpt>
      <trkpt lat="43.28691" lon="5.46697">
        <ele>66.2</ele>
        <time>2016-03-28T10:27:36Z</time>
      </trkpt>
      <trkpt lat="43.28688" lon="5.46704">
        <ele>66.5</ele>
        <time>2016-03-28T10:27:37Z</time>
      </trkpt>
      <trkpt lat="43.28678" lon="5.4673">
        <ele>67.6</ele>
        <time>2016-03-28T10:27:42Z</time>
      </trkpt>
      <trkpt lat="43.28674" lon="5.46735">
        <ele>68.1</ele>
        <time>2016-03-28T10:27:43Z</time>
      </trkpt>
      <trkpt lat="43.28672" lon="5.46742">
        <ele>68.5</ele>
        <time>2016-03-28T10:27:44Z</time>
      </trkpt>
      <trkpt lat="43.28669" lon="5.46748">
        <ele>69</ele>
        <time>2016-03-28T10:27:45Z</time>
      </trkpt>
      <trkpt lat="43.28664" lon="5.46755">
        <ele>69.6</ele>
        <time>2016-03-28T10:27:46Z</time>
      </trkpt>
      <trkpt lat="43.2866" lon="5.46763">
        <ele>70.4</ele>
        <time>2016-03-28T10:27:47Z</time>
      </trkpt>
      <trkpt lat="43.28655" lon="5.46769">
        <ele>71.1</ele>
        <time>2016-03-28T10:27:48Z</time>
      </trkpt>
      <trkpt lat="43.28652" lon="5.46774">
        <ele>71.7</ele>
        <time>2016-03-28T10:27:49Z</time>
      </trkpt>
      <trkpt lat="43.28652" lon="5.46781">
        <ele>72</ele>
        <time>2016-03-28T10:27:50Z</time>
      </trkpt>
      <trkpt lat="43.2865" lon="5.4679">
        <ele>72.6</ele>
        <time>2016-03-28T10:27:51Z</time>
      </trkpt>
      <trkpt lat="43.28648" lon="5.46796">
        <ele>72.7</ele>
        <time>2016-03-28T10:27:52Z</time>
      </trkpt>
      <trkpt lat="43.28647" lon="5.46803">
        <ele>72.4</ele>
        <time>2016-03-28T10:27:53Z</time>
      </trkpt>
      <trkpt lat="43.28646" lon="5.46809">
        <ele>72.2</ele>
        <time>2016-03-28T10:27:54Z</time>
      </trkpt>
      <trkpt lat="43.28644" lon="5.46819">
        <ele>71.9</ele>
        <time>2016-03-28T10:27:55Z</time>
      </trkpt>
      <trkpt lat="43.28641" lon="5.46825">
        <ele>71.8</ele>
        <time>2016-03-28T10:27:56Z</time>
      </trkpt>
      <trkpt lat="43.2864" lon="5.46833">
        <ele>71.5</ele>
        <time>2016-03-28T10:27:57Z</time>
      </trkpt>
      <trkpt lat="43.28639" lon="5.46841">
        <ele>71.3</ele>
        <time>2016-03-28T10:27:58Z</time>
      </trkpt>
      <trkpt lat="43.28638" lon="5.4685">
        <ele>70.8</ele>
        <time>2016-03-28T10:27:59Z</time>
      </trkpt>
      <trkpt lat="43.28637" lon="5.46858">
        <ele>70.5</ele>
        <time>2016-03-28T10:28:00Z</time>
      </trkpt>
      <trkpt lat="43.28635" lon="5.46867">
        <ele>70.2</ele>
        <time>2016-03-28T10:28:01Z</time>
      </trkpt>
      <trkpt lat="43.28635" lon="5.46877">
        <ele>69.6</ele>
        <time>2016-03-28T10:28:02Z</time>
      </trkpt>
      <trkpt lat="43.28635" lon="5.46886">
        <ele>69.1</ele>
        <time>2016-03-28T10:28:03Z</time>
      </trkpt>
      <trkpt lat="43.28634" lon="5.46894">
        <ele>68.7</ele>
        <time>2016-03-28T10:28:04Z</time>
      </trkpt>
      <trkpt lat="43.28633" lon="5.46903">
        <ele>68.4</ele>
        <time>2016-03-28T10:28:05Z</time>
      </trkpt>
      <trkpt lat="43.28633" lon="5.46912">
        <ele>67.9</ele>
        <time>2016-03-28T10:28:06Z</time>
      </trkpt>
      <trkpt lat="43.28633" lon="5.4692">
        <ele>67.4</ele>
        <time>2016-03-28T10:28:07Z</time>
      </trkpt>
      <trkpt lat="43.28634" lon="5.46928">
        <ele>66.9</ele>
        <time>2016-03-28T10:28:08Z</time>
      </trkpt>
      <trkpt lat="43.28634" lon="5.46937">
        <ele>66.3</ele>
        <time>2016-03-28T10:28:09Z</time>
      </trkpt>
      <trkpt lat="43.28633" lon="5.46946">
        <ele>65.9</ele>
        <time>2016-03-28T10:28:10Z</time>
      </trkpt>
      <trkpt lat="43.28633" lon="5.46953">
        <ele>65.5</ele>
        <time>2016-03-28T10:28:11Z</time>
      </trkpt>
      <trkpt lat="43.28633" lon="5.46962">
        <ele>65.2</ele>
        <time>2016-03-28T10:28:12Z</time>
      </trkpt>
      <trkpt lat="43.28633" lon="5.4697">
        <ele>65</ele>
        <time>2016-03-28T10:28:13Z</time>
      </trkpt>
      <trkpt lat="43.28632" lon="5.46979">
        <ele>64.8</ele>
        <time>2016-03-28T10:28:14Z</time>
      </trkpt>
      <trkpt lat="43.28632" lon="5.46988">
        <ele>64.7</ele>
        <time>2016-03-28T10:28:15Z</time>
      </trkpt>
      <trkpt lat="43.28632" lon="5.46996">
        <ele>64.5</ele>
        <time>2016-03-28T10:28:16Z</time>
      </trkpt>
      <trkpt lat="43.28632" lon="5.47005">
        <ele>64.3</ele>
        <time>2016-03-28T10:28:17Z</time>
      </trkpt>
      <trkpt lat="43.28633" lon="5.47015">
        <ele>64</ele>
        <time>2016-03-28T10:28:18Z</time>
      </trkpt>
      <trkpt lat="43.28632" lon="5.47021">
        <ele>63.9</ele>
        <time>2016-03-28T10:28:19Z</time>
      </trkpt>
      <trkpt lat="43.28632" lon="5.47031">
        <ele>63.7</ele>
        <time>2016-03-28T10:28:20Z</time>
      </trkpt>
      <trkpt lat="43.28632" lon="5.4704">
        <ele>63.4</ele>
        <time>2016-03-28T10:28:21Z</time>
      </trkpt>
      <trkpt lat="43.28632" lon="5.4705">
        <ele>63.3</ele>
        <time>2016-03-28T10:28:22Z</time>
      </trkpt>
      <trkpt lat="43.28633" lon="5.47059">
        <ele>63.1</ele>
        <time>2016-03-28T10:28:23Z</time>
      </trkpt>
      <trkpt lat="43.28633" lon="5.47067">
        <ele>63.1</ele>
        <time>2016-03-28T10:28:24Z</time>
      </trkpt>
      <trkpt lat="43.28632" lon="5.47077">
        <ele>63</ele>
        <time>2016-03-28T10:28:25Z</time>
      </trkpt>
      <trkpt lat="43.28631" lon="5.47086">
        <ele>63</ele>
        <time>2016-03-28T10:28:26Z</time>
      </trkpt>
      <trkpt lat="43.28631" lon="5.47095">
        <ele>62.9</ele>
        <time>2016-03-28T10:28:27Z</time>
      </trkpt>
      <trkpt lat="43.28632" lon="5.47104">
        <ele>62.7</ele>
        <time>2016-03-28T10:28:28Z</time>
      </trkpt>
      <trkpt lat="43.28634" lon="5.47113">
        <ele>62.5</ele>
        <time>2016-03-28T10:28:29Z</time>
      </trkpt>
      <trkpt lat="43.28635" lon="5.47121">
        <ele>62.3</ele>
        <time>2016-03-28T10:28:30Z</time>
      </trkpt>
      <trkpt lat="43.28636" lon="5.4713">
        <ele>62.1</ele>
        <time>2016-03-28T10:28:31Z</time>
      </trkpt>
      <trkpt lat="43.28636" lon="5.47137">
        <ele>61.9</ele>
        <time>2016-03-28T10:28:32Z</time>
      </trkpt>
      <trkpt lat="43.28636" lon="5.47145">
        <ele>61.8</ele>
        <time>2016-03-28T10:28:33Z</time>
      </trkpt>
      <trkpt lat="43.28636" lon="5.47153">
        <ele>61.6</ele>
        <time>2016-03-28T10:28:34Z</time>
      </trkpt>
      <trkpt lat="43.28635" lon="5.47161">
        <ele>61.5</ele>
        <time>2016-03-28T10:28:35Z</time>
      </trkpt>
      <trkpt lat="43.28635" lon="5.47169">
        <ele>61.3</ele>
        <time>2016-03-28T10:28:36Z</time>
      </trkpt>
      <trkpt lat="43.28632" lon="5.472">
        <ele>60.8</ele>
        <time>2016-03-28T10:28:40Z</time>
      </trkpt>
      <trkpt lat="43.28632" lon="5.47207">
        <ele>60.6</ele>
        <time>2016-03-28T10:28:41Z</time>
      </trkpt>
      <trkpt lat="43.28631" lon="5.47214">
        <ele>60.8</ele>
        <time>2016-03-28T10:28:42Z</time>
      </trkpt>
      <trkpt lat="43.2863" lon="5.47222">
        <ele>61</ele>
        <time>2016-03-28T10:28:43Z</time>
      </trkpt>
      <trkpt lat="43.2863" lon="5.47231">
        <ele>61.2</ele>
        <time>2016-03-28T10:28:44Z</time>
      </trkpt>
      <trkpt lat="43.2863" lon="5.47237">
        <ele>61.3</ele>
        <time>2016-03-28T10:28:45Z</time>
      </trkpt>
      <trkpt lat="43.28629" lon="5.47246">
        <ele>61.6</ele>
        <time>2016-03-28T10:28:46Z</time>
      </trkpt>
      <trkpt lat="43.28629" lon="5.47255">
        <ele>61.8</ele>
        <time>2016-03-28T10:28:47Z</time>
      </trkpt>
      <trkpt lat="43.28628" lon="5.47262">
        <ele>62</ele>
        <time>2016-03-28T10:28:48Z</time>
      </trkpt>
      <trkpt lat="43.28628" lon="5.47268">
        <ele>62.2</ele>
        <time>2016-03-28T10:28:49Z</time>
      </trkpt>
      <trkpt lat="43.28628" lon="5.47274">
        <ele>62.3</ele>
        <time>2016-03-28T10:28:50Z</time>
      </trkpt>
      <trkpt lat="43.28628" lon="5.4728">
        <ele>62.5</ele>
        <time>2016-03-28T10:28:51Z</time>
      </trkpt>
      <trkpt lat="43.28629" lon="5.47288">
        <ele>62.5</ele>
        <time>2016-03-28T10:28:52Z</time>
      </trkpt>
      <trkpt lat="43.2863" lon="5.47295">
        <ele>62.4</ele>
        <time>2016-03-28T10:28:53Z</time>
      </trkpt>
      <trkpt lat="43.28631" lon="5.47302">
        <ele>62.1</ele>
        <time>2016-03-28T10:28:54Z</time>
      </trkpt>
      <trkpt lat="43.28629" lon="5.4733">
        <ele>61.3</ele>
        <time>2016-03-28T10:28:58Z</time>
      </trkpt>
      <trkpt lat="43.28629" lon="5.47334">
        <ele>61.2</ele>
        <time>2016-03-28T10:28:59Z</time>
      </trkpt>
      <trkpt lat="43.28628" lon="5.47342">
        <ele>61</ele>
        <time>2016-03-28T10:29:00Z</time>
      </trkpt>
      <trkpt lat="43.28629" lon="5.47346">
        <ele>60.8</ele>
        <time>2016-03-28T10:29:01Z</time>
      </trkpt>
      <trkpt lat="43.28627" lon="5.47383">
        <ele>59.9</ele>
        <time>2016-03-28T10:29:06Z</time>
      </trkpt>
      <trkpt lat="43.28628" lon="5.47389">
        <ele>59.9</ele>
        <time>2016-03-28T10:29:07Z</time>
      </trkpt>
      <trkpt lat="43.2863" lon="5.47396">
        <ele>59.8</ele>
        <time>2016-03-28T10:29:08Z</time>
      </trkpt>
      <trkpt lat="43.2863" lon="5.47402">
        <ele>59.8</ele>
        <time>2016-03-28T10:29:09Z</time>
      </trkpt>
      <trkpt lat="43.2863" lon="5.47408">
        <ele>59.8</ele>
        <time>2016-03-28T10:29:10Z</time>
      </trkpt>
      <trkpt lat="43.2863" lon="5.47412">
        <ele>59.8</ele>
        <time>2016-03-28T10:29:11Z</time>
      </trkpt>
      <trkpt lat="43.28626" lon="5.47428">
        <ele>59.9</ele>
        <time>2016-03-28T10:29:14Z</time>
      </trkpt>
      <trkpt lat="43.28626" lon="5.47442">
        <ele>60</ele>
        <time>2016-03-28T10:29:16Z</time>
      </trkpt>
      <trkpt lat="43.28625" lon="5.47448">
        <ele>60</ele>
        <time>2016-03-28T10:29:17Z</time>
      </trkpt>
      <trkpt lat="43.28625" lon="5.47481">
        <ele>60.6</ele>
        <time>2016-03-28T10:29:22Z</time>
      </trkpt>
      <trkpt lat="43.28626" lon="5.4749">
        <ele>60.7</ele>
        <time>2016-03-28T10:29:24Z</time>
      </trkpt>
      <trkpt lat="43.28626" lon="5.47495">
        <ele>60.8</ele>
        <time>2016-03-28T10:29:25Z</time>
      </trkpt>
      <trkpt lat="43.28627" lon="5.47502">
        <ele>61</ele>
        <time>2016-03-28T10:29:27Z</time>
      </trkpt>
      <trkpt lat="43.28627" lon="5.47507">
        <ele>61.1</ele>
        <time>2016-03-28T10:29:28Z</time>
      </trkpt>
      <trkpt lat="43.28627" lon="5.47512">
        <ele>61.2</ele>
        <time>2016-03-28T10:29:29Z</time>
      </trkpt>
      <trkpt lat="43.28629" lon="5.47515">
        <ele>61.2</ele>
        <time>2016-03-28T10:29:30Z</time>
      </trkpt>
      <trkpt lat="43.28628" lon="5.47519">
        <ele>61.4</ele>
        <time>2016-03-28T10:29:31Z</time>
      </trkpt>
      <trkpt lat="43.28629" lon="5.47524">
        <ele>61.4</ele>
        <time>2016-03-28T10:29:32Z</time>
      </trkpt>
      <trkpt lat="43.28628" lon="5.47529">
        <ele>61.6</ele>
        <time>2016-03-28T10:29:33Z</time>
      </trkpt>
      <trkpt lat="43.28628" lon="5.47535">
        <ele>61.7</ele>
        <time>2016-03-28T10:29:34Z</time>
      </trkpt>
      <trkpt lat="43.28628" lon="5.47542">
        <ele>61.9</ele>
        <time>2016-03-28T10:29:35Z</time>
      </trkpt>
      <trkpt lat="43.28628" lon="5.47566">
        <ele>61.6</ele>
        <time>2016-03-28T10:29:39Z</time>
      </trkpt>
      <trkpt lat="43.28629" lon="5.47572">
        <ele>61.5</ele>
        <time>2016-03-28T10:29:40Z</time>
      </trkpt>
      <trkpt lat="43.28629" lon="5.47578">
        <ele>61.5</ele>
        <time>2016-03-28T10:29:41Z</time>
      </trkpt>
      <trkpt lat="43.28629" lon="5.47583">
        <ele>61.4</ele>
        <time>2016-03-28T10:29:42Z</time>
      </trkpt>
      <trkpt lat="43.28629" lon="5.47589">
        <ele>61.3</ele>
        <time>2016-03-28T10:29:43Z</time>
      </trkpt>
      <trkpt lat="43.28629" lon="5.47597">
        <ele>61.3</ele>
        <time>2016-03-28T10:29:44Z</time>
      </trkpt>
      <trkpt lat="43.28628" lon="5.47603">
        <ele>61.2</ele>
        <time>2016-03-28T10:29:45Z</time>
      </trkpt>
      <trkpt lat="43.28628" lon="5.4761">
        <ele>61.1</ele>
        <time>2016-03-28T10:29:46Z</time>
      </trkpt>
      <trkpt lat="43.28628" lon="5.47617">
        <ele>61.1</ele>
        <time>2016-03-28T10:29:47Z</time>
      </trkpt>
      <trkpt lat="43.28627" lon="5.47642">
        <ele>61.4</ele>
        <time>2016-03-28T10:29:51Z</time>
      </trkpt>
      <trkpt lat="43.28627" lon="5.47649">
        <ele>61.5</ele>
        <time>2016-03-28T10:29:52Z</time>
      </trkpt>
      <trkpt lat="43.28627" lon="5.47656">
        <ele>61.7</ele>
        <time>2016-03-28T10:29:53Z</time>
      </trkpt>
      <trkpt lat="43.28627" lon="5.47662">
        <ele>61.8</ele>
        <time>2016-03-28T10:29:54Z</time>
      </trkpt>
      <trkpt lat="43.28628" lon="5.47668">
        <ele>62</ele>
        <time>2016-03-28T10:29:55Z</time>
      </trkpt>
      <trkpt lat="43.28628" lon="5.47674">
        <ele>62.1</ele>
        <time>2016-03-28T10:29:56Z</time>
      </trkpt>
      <trkpt lat="43.28628" lon="5.47679">
        <ele>62.2</ele>
        <time>2016-03-28T10:29:57Z</time>
      </trkpt>
      <trkpt lat="43.28628" lon="5.47684">
        <ele>62.3</ele>
        <time>2016-03-28T10:29:58Z</time>
      </trkpt>
      <trkpt lat="43.28627" lon="5.4769">
        <ele>62.5</ele>
        <time>2016-03-28T10:29:59Z</time>
      </trkpt>
      <trkpt lat="43.28627" lon="5.47695">
        <ele>62.6</ele>
        <time>2016-03-28T10:30:00Z</time>
      </trkpt>
      <trkpt lat="43.28622" lon="5.47709">
        <ele>63.1</ele>
        <time>2016-03-28T10:30:04Z</time>
      </trkpt>
      <trkpt lat="43.28621" lon="5.47722">
        <ele>63.3</ele>
        <time>2016-03-28T10:30:06Z</time>
      </trkpt>
      <trkpt lat="43.2862" lon="5.47727">
        <ele>63.4</ele>
        <time>2016-03-28T10:30:07Z</time>
      </trkpt>
      <trkpt lat="43.2862" lon="5.47732">
        <ele>63.5</ele>
        <time>2016-03-28T10:30:08Z</time>
      </trkpt>
      <trkpt lat="43.2862" lon="5.47737">
        <ele>63.6</ele>
        <time>2016-03-28T10:30:09Z</time>
      </trkpt>
      <trkpt lat="43.28619" lon="5.47741">
        <ele>63.7</ele>
        <time>2016-03-28T10:30:10Z</time>
      </trkpt>
      <trkpt lat="43.28619" lon="5.47746">
        <ele>63.8</ele>
        <time>2016-03-28T10:30:11Z</time>
      </trkpt>
      <trkpt lat="43.28618" lon="5.47751">
        <ele>63.9</ele>
        <time>2016-03-28T10:30:12Z</time>
      </trkpt>
      <trkpt lat="43.28617" lon="5.47756">
        <ele>64</ele>
        <time>2016-03-28T10:30:13Z</time>
      </trkpt>
      <trkpt lat="43.28616" lon="5.47762">
        <ele>64.1</ele>
        <time>2016-03-28T10:30:14Z</time>
      </trkpt>
      <trkpt lat="43.28616" lon="5.47768">
        <ele>64.3</ele>
        <time>2016-03-28T10:30:15Z</time>
      </trkpt>
      <trkpt lat="43.28615" lon="5.47774">
        <ele>64.4</ele>
        <time>2016-03-28T10:30:16Z</time>
      </trkpt>
      <trkpt lat="43.28614" lon="5.47779">
        <ele>64.6</ele>
        <time>2016-03-28T10:30:17Z</time>
      </trkpt>
      <trkpt lat="43.28611" lon="5.47781">
        <ele>64.8</ele>
        <time>2016-03-28T10:30:20Z</time>
      </trkpt>
      <trkpt lat="43.28605" lon="5.47812">
        <ele>65.5</ele>
        <time>2016-03-28T10:30:24Z</time>
      </trkpt>
      <trkpt lat="43.28605" lon="5.47817">
        <ele>65.6</ele>
        <time>2016-03-28T10:30:25Z</time>
      </trkpt>
      <trkpt lat="43.28604" lon="5.47822">
        <ele>65.7</ele>
        <time>2016-03-28T10:30:26Z</time>
      </trkpt>
      <trkpt lat="43.28603" lon="5.47827">
        <ele>65.8</ele>
        <time>2016-03-28T10:30:27Z</time>
      </trkpt>
      <trkpt lat="43.28602" lon="5.47831">
        <ele>65.8</ele>
        <time>2016-03-28T10:30:28Z</time>
      </trkpt>
      <trkpt lat="43.28602" lon="5.47836">
        <ele>65.9</ele>
        <time>2016-03-28T10:30:29Z</time>
      </trkpt>
      <trkpt lat="43.28601" lon="5.47842">
        <ele>66</ele>
        <time>2016-03-28T10:30:30Z</time>
      </trkpt>
      <trkpt lat="43.286" lon="5.47848">
        <ele>66.1</ele>
        <time>2016-03-28T10:30:31Z</time>
      </trkpt>
      <trkpt lat="43.28599" lon="5.47854">
        <ele>66.2</ele>
        <time>2016-03-28T10:30:32Z</time>
      </trkpt>
      <trkpt lat="43.28598" lon="5.47859">
        <ele>66.2</ele>
        <time>2016-03-28T10:30:33Z</time>
      </trkpt>
      <trkpt lat="43.28598" lon="5.47863">
        <ele>66.3</ele>
        <time>2016-03-28T10:30:34Z</time>
      </trkpt>
      <trkpt lat="43.28597" lon="5.47868">
        <ele>66.3</ele>
        <time>2016-03-28T10:30:36Z</time>
      </trkpt>
      <trkpt lat="43.28597" lon="5.47872">
        <ele>66.3</ele>
        <time>2016-03-28T10:31:23Z</time>
      </trkpt>
      <trkpt lat="43.28594" lon="5.47887">
        <ele>66.5</ele>
        <time>2016-03-28T10:31:28Z</time>
      </trkpt>
      <trkpt lat="43.28593" lon="5.47891">
        <ele>66.5</ele>
        <time>2016-03-28T10:31:29Z</time>
      </trkpt>
      <trkpt lat="43.28591" lon="5.47898">
        <ele>66.7</ele>
        <time>2016-03-28T10:31:31Z</time>
      </trkpt>
      <trkpt lat="43.2859" lon="5.47904">
        <ele>66.7</ele>
        <time>2016-03-28T10:31:33Z</time>
      </trkpt>
      <trkpt lat="43.28589" lon="5.47911">
        <ele>66.7</ele>
        <time>2016-03-28T10:31:35Z</time>
      </trkpt>
      <trkpt lat="43.28588" lon="5.47915">
        <ele>66.8</ele>
        <time>2016-03-28T10:31:36Z</time>
      </trkpt>
      <trkpt lat="43.28587" lon="5.47918">
        <ele>66.8</ele>
        <time>2016-03-28T10:31:37Z</time>
      </trkpt>
      <trkpt lat="43.28586" lon="5.47923">
        <ele>66.9</ele>
        <time>2016-03-28T10:31:38Z</time>
      </trkpt>
      <trkpt lat="43.28585" lon="5.47927">
        <ele>66.9</ele>
        <time>2016-03-28T10:31:39Z</time>
      </trkpt>
      <trkpt lat="43.28585" lon="5.47932">
        <ele>66.9</ele>
        <time>2016-03-28T10:31:40Z</time>
      </trkpt>
      <trkpt lat="43.28584" lon="5.47937">
        <ele>67</ele>
        <time>2016-03-28T10:31:41Z</time>
      </trkpt>
      <trkpt lat="43.28584" lon="5.47941">
        <ele>67</ele>
        <time>2016-03-28T10:31:42Z</time>
      </trkpt>
      <trkpt lat="43.28583" lon="5.47946">
        <ele>67</ele>
        <time>2016-03-28T10:31:43Z</time>
      </trkpt>
      <trkpt lat="43.28583" lon="5.4795">
        <ele>67</ele>
        <time>2016-03-28T10:31:44Z</time>
      </trkpt>
      <trkpt lat="43.28581" lon="5.47954">
        <ele>67.1</ele>
        <time>2016-03-28T10:31:47Z</time>
      </trkpt>
      <trkpt lat="43.28577" lon="5.47954">
        <ele>67.3</ele>
        <time>2016-03-28T10:31:49Z</time>
      </trkpt>
      <trkpt lat="43.28582" lon="5.47971">
        <ele>67.1</ele>
        <time>2016-03-28T10:31:51Z</time>
      </trkpt>
      <trkpt lat="43.28575" lon="5.47996">
        <ele>67.3</ele>
        <time>2016-03-28T10:31:54Z</time>
      </trkpt>
      <trkpt lat="43.28574" lon="5.48">
        <ele>67.3</ele>
        <time>2016-03-28T10:31:55Z</time>
      </trkpt>
      <trkpt lat="43.28573" lon="5.48004">
        <ele>67.4</ele>
        <time>2016-03-28T10:31:56Z</time>
      </trkpt>
      <trkpt lat="43.28572" lon="5.48007">
        <ele>67.4</ele>
        <time>2016-03-28T10:31:57Z</time>
      </trkpt>
      <trkpt lat="43.28562" lon="5.4801">
        <ele>67.7</ele>
        <time>2016-03-28T10:32:01Z</time>
      </trkpt>
      <trkpt lat="43.28554" lon="5.48011">
        <ele>68</ele>
        <time>2016-03-28T10:32:05Z</time>
      </trkpt>
      <trkpt lat="43.28546" lon="5.48013">
        <ele>68.2</ele>
        <time>2016-03-28T10:32:07Z</time>
      </trkpt>
      <trkpt lat="43.28542" lon="5.48012">
        <ele>68.4</ele>
        <time>2016-03-28T10:32:08Z</time>
      </trkpt>
      <trkpt lat="43.28538" lon="5.48011">
        <ele>68.6</ele>
        <time>2016-03-28T10:32:09Z</time>
      </trkpt>
      <trkpt lat="43.28534" lon="5.48011">
        <ele>68.9</ele>
        <time>2016-03-28T10:32:10Z</time>
      </trkpt>
      <trkpt lat="43.2853" lon="5.48011">
        <ele>69.3</ele>
        <time>2016-03-28T10:32:11Z</time>
      </trkpt>
      <trkpt lat="43.28525" lon="5.48011">
        <ele>69.6</ele>
        <time>2016-03-28T10:32:12Z</time>
      </trkpt>
      <trkpt lat="43.28522" lon="5.48011">
        <ele>69.9</ele>
        <time>2016-03-28T10:32:13Z</time>
      </trkpt>
      <trkpt lat="43.28517" lon="5.48012">
        <ele>70.2</ele>
        <time>2016-03-28T10:32:14Z</time>
      </trkpt>
      <trkpt lat="43.28512" lon="5.48013">
        <ele>70.6</ele>
        <time>2016-03-28T10:32:15Z</time>
      </trkpt>
      <trkpt lat="43.28507" lon="5.48015">
        <ele>71</ele>
        <time>2016-03-28T10:32:16Z</time>
      </trkpt>
      <trkpt lat="43.28498" lon="5.48017">
        <ele>71.6</ele>
        <time>2016-03-28T10:32:17Z</time>
      </trkpt>
      <trkpt lat="43.28494" lon="5.48018">
        <ele>71.9</ele>
        <time>2016-03-28T10:32:18Z</time>
      </trkpt>
      <trkpt lat="43.2847" lon="5.48023">
        <ele>73.6</ele>
        <time>2016-03-28T10:32:23Z</time>
      </trkpt>
      <trkpt lat="43.28465" lon="5.48024">
        <ele>73.9</ele>
        <time>2016-03-28T10:32:24Z</time>
      </trkpt>
      <trkpt lat="43.2846" lon="5.48026">
        <ele>74.2</ele>
        <time>2016-03-28T10:32:25Z</time>
      </trkpt>
      <trkpt lat="43.28457" lon="5.48028">
        <ele>74.5</ele>
        <time>2016-03-28T10:32:26Z</time>
      </trkpt>
      <trkpt lat="43.28454" lon="5.4803">
        <ele>75.2</ele>
        <time>2016-03-28T10:32:27Z</time>
      </trkpt>
      <trkpt lat="43.2845" lon="5.48032">
        <ele>75.8</ele>
        <time>2016-03-28T10:32:28Z</time>
      </trkpt>
      <trkpt lat="43.28447" lon="5.48034">
        <ele>76.4</ele>
        <time>2016-03-28T10:32:29Z</time>
      </trkpt>
      <trkpt lat="43.28442" lon="5.48036">
        <ele>77.2</ele>
        <time>2016-03-28T10:32:30Z</time>
      </trkpt>
      <trkpt lat="43.28438" lon="5.48039">
        <ele>78.1</ele>
        <time>2016-03-28T10:32:31Z</time>
      </trkpt>
      <trkpt lat="43.28433" lon="5.48042">
        <ele>78.8</ele>
        <time>2016-03-28T10:32:32Z</time>
      </trkpt>
      <trkpt lat="43.28429" lon="5.48045">
        <ele>79.3</ele>
        <time>2016-03-28T10:32:33Z</time>
      </trkpt>
      <trkpt lat="43.28425" lon="5.48048">
        <ele>79.8</ele>
        <time>2016-03-28T10:32:34Z</time>
      </trkpt>
      <trkpt lat="43.28421" lon="5.48051">
        <ele>80.1</ele>
        <time>2016-03-28T10:32:35Z</time>
      </trkpt>
      <trkpt lat="43.28417" lon="5.48055">
        <ele>80.4</ele>
        <time>2016-03-28T10:32:36Z</time>
      </trkpt>
      <trkpt lat="43.28412" lon="5.48058">
        <ele>80.7</ele>
        <time>2016-03-28T10:32:37Z</time>
      </trkpt>
      <trkpt lat="43.28408" lon="5.48062">
        <ele>81</ele>
        <time>2016-03-28T10:32:38Z</time>
      </trkpt>
      <trkpt lat="43.28404" lon="5.48065">
        <ele>81.2</ele>
        <time>2016-03-28T10:32:39Z</time>
      </trkpt>
      <trkpt lat="43.28394" lon="5.4807">
        <ele>82.1</ele>
        <time>2016-03-28T10:32:40Z</time>
      </trkpt>
      <trkpt lat="43.28386" lon="5.4807">
        <ele>83.2</ele>
        <time>2016-03-28T10:32:43Z</time>
      </trkpt>
      <trkpt lat="43.2838" lon="5.48071">
        <ele>84</ele>
        <time>2016-03-28T10:32:44Z</time>
      </trkpt>
      <trkpt lat="43.28375" lon="5.48071">
        <ele>84.8</ele>
        <time>2016-03-28T10:32:45Z</time>
      </trkpt>
      <trkpt lat="43.28369" lon="5.48071">
        <ele>85</ele>
        <time>2016-03-28T10:32:46Z</time>
      </trkpt>
      <trkpt lat="43.28364" lon="5.48071">
        <ele>85.1</ele>
        <time>2016-03-28T10:32:47Z</time>
      </trkpt>
      <trkpt lat="43.28358" lon="5.48073">
        <ele>85</ele>
        <time>2016-03-28T10:32:48Z</time>
      </trkpt>
      <trkpt lat="43.28354" lon="5.48075">
        <ele>84.8</ele>
        <time>2016-03-28T10:32:49Z</time>
      </trkpt>
      <trkpt lat="43.28349" lon="5.48079">
        <ele>84.3</ele>
        <time>2016-03-28T10:32:50Z</time>
      </trkpt>
      <trkpt lat="43.28343" lon="5.48084">
        <ele>83.8</ele>
        <time>2016-03-28T10:32:51Z</time>
      </trkpt>
      <trkpt lat="43.28339" lon="5.48086">
        <ele>83.6</ele>
        <time>2016-03-28T10:32:52Z</time>
      </trkpt>
      <trkpt lat="43.28335" lon="5.4809">
        <ele>83.2</ele>
        <time>2016-03-28T10:32:53Z</time>
      </trkpt>
      <trkpt lat="43.28331" lon="5.48093">
        <ele>82.9</ele>
        <time>2016-03-28T10:32:54Z</time>
      </trkpt>
      <trkpt lat="43.28327" lon="5.48096">
        <ele>82.6</ele>
        <time>2016-03-28T10:32:55Z</time>
      </trkpt>
      <trkpt lat="43.28324" lon="5.48099">
        <ele>82.3</ele>
        <time>2016-03-28T10:32:56Z</time>
      </trkpt>
      <trkpt lat="43.28315" lon="5.48106">
        <ele>81.6</ele>
        <time>2016-03-28T10:32:57Z</time>
      </trkpt>
      <trkpt lat="43.2831" lon="5.48108">
        <ele>81.4</ele>
        <time>2016-03-28T10:32:59Z</time>
      </trkpt>
      <trkpt lat="43.28305" lon="5.48111">
        <ele>81.3</ele>
        <time>2016-03-28T10:33:00Z</time>
      </trkpt>
      <trkpt lat="43.28301" lon="5.48114">
        <ele>81.1</ele>
        <time>2016-03-28T10:33:01Z</time>
      </trkpt>
      <trkpt lat="43.28297" lon="5.48116">
        <ele>81</ele>
        <time>2016-03-28T10:33:02Z</time>
      </trkpt>
      <trkpt lat="43.28293" lon="5.48118">
        <ele>80.9</ele>
        <time>2016-03-28T10:33:03Z</time>
      </trkpt>
      <trkpt lat="43.28285" lon="5.48121">
        <ele>80.6</ele>
        <time>2016-03-28T10:33:04Z</time>
      </trkpt>
      <trkpt lat="43.28282" lon="5.48119">
        <ele>81.1</ele>
        <time>2016-03-28T10:33:05Z</time>
      </trkpt>
      <trkpt lat="43.28278" lon="5.48115">
        <ele>81.8</ele>
        <time>2016-03-28T10:33:06Z</time>
      </trkpt>
      <trkpt lat="43.28274" lon="5.48113">
        <ele>82.3</ele>
        <time>2016-03-28T10:33:07Z</time>
      </trkpt>
      <trkpt lat="43.2827" lon="5.48109">
        <ele>82.9</ele>
        <time>2016-03-28T10:33:08Z</time>
      </trkpt>
      <trkpt lat="43.28268" lon="5.48107">
        <ele>83.4</ele>
        <time>2016-03-28T10:33:09Z</time>
      </trkpt>
      <trkpt lat="43.28264" lon="5.48104">
        <ele>84.1</ele>
        <time>2016-03-28T10:33:10Z</time>
      </trkpt>
      <trkpt lat="43.28261" lon="5.48102">
        <ele>84.6</ele>
        <time>2016-03-28T10:33:11Z</time>
      </trkpt>
      <trkpt lat="43.28256" lon="5.48098">
        <ele>85.6</ele>
        <time>2016-03-28T10:33:13Z</time>
      </trkpt>
      <trkpt lat="43.28253" lon="5.48095">
        <ele>86.3</ele>
        <time>2016-03-28T10:33:14Z</time>
      </trkpt>
      <trkpt lat="43.2825" lon="5.48094">
        <ele>86.7</ele>
        <time>2016-03-28T10:33:15Z</time>
      </trkpt>
      <trkpt lat="43.28248" lon="5.48092">
        <ele>87.2</ele>
        <time>2016-03-28T10:33:16Z</time>
      </trkpt>
      <trkpt lat="43.28242" lon="5.48088">
        <ele>88.3</ele>
        <time>2016-03-28T10:33:18Z</time>
      </trkpt>
      <trkpt lat="43.28239" lon="5.48087">
        <ele>88.8</ele>
        <time>2016-03-28T10:33:19Z</time>
      </trkpt>
      <trkpt lat="43.28235" lon="5.48085">
        <ele>89.4</ele>
        <time>2016-03-28T10:33:20Z</time>
      </trkpt>
      <trkpt lat="43.28232" lon="5.48084">
        <ele>89.8</ele>
        <time>2016-03-28T10:33:21Z</time>
      </trkpt>
      <trkpt lat="43.28229" lon="5.48082">
        <ele>90.4</ele>
        <time>2016-03-28T10:33:22Z</time>
      </trkpt>
      <trkpt lat="43.28225" lon="5.48081">
        <ele>90.8</ele>
        <time>2016-03-28T10:33:23Z</time>
      </trkpt>
      <trkpt lat="43.28222" lon="5.48081">
        <ele>91.3</ele>
        <time>2016-03-28T10:33:24Z</time>
      </trkpt>
      <trkpt lat="43.28219" lon="5.4808">
        <ele>91.7</ele>
        <time>2016-03-28T10:33:25Z</time>
      </trkpt>
      <trkpt lat="43.28215" lon="5.48079">
        <ele>92</ele>
        <time>2016-03-28T10:33:26Z</time>
      </trkpt>
      <trkpt lat="43.28212" lon="5.48079">
        <ele>92.4</ele>
        <time>2016-03-28T10:33:27Z</time>
      </trkpt>
      <trkpt lat="43.28209" lon="5.48078">
        <ele>92.8</ele>
        <time>2016-03-28T10:33:28Z</time>
      </trkpt>
      <trkpt lat="43.28206" lon="5.48078">
        <ele>93.5</ele>
        <time>2016-03-28T10:33:29Z</time>
      </trkpt>
      <trkpt lat="43.28203" lon="5.48077">
        <ele>94.1</ele>
        <time>2016-03-28T10:33:30Z</time>
      </trkpt>
      <trkpt lat="43.28198" lon="5.48077">
        <ele>95.1</ele>
        <time>2016-03-28T10:33:32Z</time>
      </trkpt>
      <trkpt lat="43.28195" lon="5.48077">
        <ele>95.7</ele>
        <time>2016-03-28T10:33:33Z</time>
      </trkpt>
      <trkpt lat="43.28191" lon="5.48078">
        <ele>96.5</ele>
        <time>2016-03-28T10:33:35Z</time>
      </trkpt>
      <trkpt lat="43.28187" lon="5.48078">
        <ele>97.1</ele>
        <time>2016-03-28T10:33:36Z</time>
      </trkpt>
      <trkpt lat="43.28184" lon="5.48078">
        <ele>97.6</ele>
        <time>2016-03-28T10:33:37Z</time>
      </trkpt>
      <trkpt lat="43.28181" lon="5.48079">
        <ele>98.1</ele>
        <time>2016-03-28T10:33:38Z</time>
      </trkpt>
      <trkpt lat="43.28178" lon="5.48079">
        <ele>98.6</ele>
        <time>2016-03-28T10:33:39Z</time>
      </trkpt>
      <trkpt lat="43.28175" lon="5.4808">
        <ele>99.1</ele>
        <time>2016-03-28T10:33:40Z</time>
      </trkpt>
      <trkpt lat="43.28172" lon="5.4808">
        <ele>99.5</ele>
        <time>2016-03-28T10:33:41Z</time>
      </trkpt>
      <trkpt lat="43.28166" lon="5.48081">
        <ele>100.5</ele>
        <time>2016-03-28T10:33:43Z</time>
      </trkpt>
      <trkpt lat="43.28161" lon="5.48082">
        <ele>101.4</ele>
        <time>2016-03-28T10:33:45Z</time>
      </trkpt>
      <trkpt lat="43.28158" lon="5.48082">
        <ele>101.8</ele>
        <time>2016-03-28T10:33:46Z</time>
      </trkpt>
      <trkpt lat="43.28155" lon="5.48082">
        <ele>102.3</ele>
        <time>2016-03-28T10:33:47Z</time>
      </trkpt>
      <trkpt lat="43.2815" lon="5.48083">
        <ele>103.2</ele>
        <time>2016-03-28T10:33:49Z</time>
      </trkpt>
      <trkpt lat="43.28147" lon="5.48084">
        <ele>103.6</ele>
        <time>2016-03-28T10:33:50Z</time>
      </trkpt>
      <trkpt lat="43.28144" lon="5.48084">
        <ele>104.1</ele>
        <time>2016-03-28T10:33:51Z</time>
      </trkpt>
      <trkpt lat="43.28139" lon="5.48085">
        <ele>104.8</ele>
        <time>2016-03-28T10:33:53Z</time>
      </trkpt>
      <trkpt lat="43.28133" lon="5.48086">
        <ele>105.5</ele>
        <time>2016-03-28T10:33:55Z</time>
      </trkpt>
      <trkpt lat="43.28128" lon="5.48088">
        <ele>106.1</ele>
        <time>2016-03-28T10:33:57Z</time>
      </trkpt>
      <trkpt lat="43.28125" lon="5.48089">
        <ele>106.5</ele>
        <time>2016-03-28T10:33:58Z</time>
      </trkpt>
      <trkpt lat="43.28122" lon="5.4809">
        <ele>107.1</ele>
        <time>2016-03-28T10:33:59Z</time>
      </trkpt>
      <trkpt lat="43.28117" lon="5.48091">
        <ele>108.1</ele>
        <time>2016-03-28T10:34:01Z</time>
      </trkpt>
      <trkpt lat="43.28113" lon="5.48092">
        <ele>109.2</ele>
        <time>2016-03-28T10:34:03Z</time>
      </trkpt>
      <trkpt lat="43.28109" lon="5.48095">
        <ele>109.8</ele>
        <time>2016-03-28T10:34:05Z</time>
      </trkpt>
      <trkpt lat="43.28104" lon="5.48099">
        <ele>109.9</ele>
        <time>2016-03-28T10:34:07Z</time>
      </trkpt>
      <trkpt lat="43.28102" lon="5.48102">
        <ele>109.6</ele>
        <time>2016-03-28T10:34:08Z</time>
      </trkpt>
      <trkpt lat="43.28101" lon="5.48106">
        <ele>109.1</ele>
        <time>2016-03-28T10:34:09Z</time>
      </trkpt>
      <trkpt lat="43.28098" lon="5.48111">
        <ele>108.6</ele>
        <time>2016-03-28T10:34:11Z</time>
      </trkpt>
      <trkpt lat="43.28095" lon="5.48116">
        <ele>108</ele>
        <time>2016-03-28T10:34:13Z</time>
      </trkpt>
      <trkpt lat="43.28091" lon="5.48121">
        <ele>107.6</ele>
        <time>2016-03-28T10:34:15Z</time>
      </trkpt>
      <trkpt lat="43.2809" lon="5.48125">
        <ele>107.1</ele>
        <time>2016-03-28T10:34:16Z</time>
      </trkpt>
      <trkpt lat="43.28089" lon="5.48128">
        <ele>106.7</ele>
        <time>2016-03-28T10:34:17Z</time>
      </trkpt>
      <trkpt lat="43.28088" lon="5.48132">
        <ele>106.1</ele>
        <time>2016-03-28T10:34:18Z</time>
      </trkpt>
      <trkpt lat="43.28088" lon="5.48136">
        <ele>105.3</ele>
        <time>2016-03-28T10:34:19Z</time>
      </trkpt>
      <trkpt lat="43.28088" lon="5.4814">
        <ele>104.6</ele>
        <time>2016-03-28T10:34:20Z</time>
      </trkpt>
      <trkpt lat="43.28088" lon="5.48144">
        <ele>103.9</ele>
        <time>2016-03-28T10:34:21Z</time>
      </trkpt>
      <trkpt lat="43.28088" lon="5.48148">
        <ele>103.1</ele>
        <time>2016-03-28T10:34:22Z</time>
      </trkpt>
      <trkpt lat="43.28088" lon="5.48152">
        <ele>102.4</ele>
        <time>2016-03-28T10:34:23Z</time>
      </trkpt>
      <trkpt lat="43.28088" lon="5.48156">
        <ele>101.6</ele>
        <time>2016-03-28T10:34:24Z</time>
      </trkpt>
      <trkpt lat="43.28088" lon="5.4816">
        <ele>100.8</ele>
        <time>2016-03-28T10:34:25Z</time>
      </trkpt>
      <trkpt lat="43.28088" lon="5.48165">
        <ele>100</ele>
        <time>2016-03-28T10:34:26Z</time>
      </trkpt>
      <trkpt lat="43.28087" lon="5.48169">
        <ele>99.1</ele>
        <time>2016-03-28T10:34:27Z</time>
      </trkpt>
      <trkpt lat="43.28087" lon="5.48174">
        <ele>98.4</ele>
        <time>2016-03-28T10:34:28Z</time>
      </trkpt>
      <trkpt lat="43.28086" lon="5.48178">
        <ele>97.6</ele>
        <time>2016-03-28T10:34:29Z</time>
      </trkpt>
      <trkpt lat="43.28086" lon="5.48183">
        <ele>96.7</ele>
        <time>2016-03-28T10:34:30Z</time>
      </trkpt>
      <trkpt lat="43.28085" lon="5.48188">
        <ele>95.9</ele>
        <time>2016-03-28T10:34:31Z</time>
      </trkpt>
      <trkpt lat="43.28084" lon="5.48193">
        <ele>95.1</ele>
        <time>2016-03-28T10:34:32Z</time>
      </trkpt>
      <trkpt lat="43.28083" lon="5.48198">
        <ele>94.3</ele>
        <time>2016-03-28T10:34:33Z</time>
      </trkpt>
      <trkpt lat="43.28081" lon="5.48202">
        <ele>93.5</ele>
        <time>2016-03-28T10:34:34Z</time>
      </trkpt>
      <trkpt lat="43.28079" lon="5.48207">
        <ele>92.9</ele>
        <time>2016-03-28T10:34:35Z</time>
      </trkpt>
      <trkpt lat="43.28077" lon="5.4821">
        <ele>92.9</ele>
        <time>2016-03-28T10:34:36Z</time>
      </trkpt>
      <trkpt lat="43.28074" lon="5.48213">
        <ele>93.4</ele>
        <time>2016-03-28T10:34:37Z</time>
      </trkpt>
      <trkpt lat="43.28071" lon="5.48215">
        <ele>93.7</ele>
        <time>2016-03-28T10:34:38Z</time>
      </trkpt>
      <trkpt lat="43.28068" lon="5.48216">
        <ele>94.1</ele>
        <time>2016-03-28T10:34:39Z</time>
      </trkpt>
      <trkpt lat="43.28065" lon="5.48216">
        <ele>94.3</ele>
        <time>2016-03-28T10:34:40Z</time>
      </trkpt>
      <trkpt lat="43.2806" lon="5.48214">
        <ele>94.8</ele>
        <time>2016-03-28T10:34:42Z</time>
      </trkpt>
      <trkpt lat="43.28057" lon="5.48212">
        <ele>95.1</ele>
        <time>2016-03-28T10:34:43Z</time>
      </trkpt>
      <trkpt lat="43.28055" lon="5.4821">
        <ele>95.4</ele>
        <time>2016-03-28T10:34:44Z</time>
      </trkpt>
      <trkpt lat="43.28052" lon="5.48209">
        <ele>95.8</ele>
        <time>2016-03-28T10:34:45Z</time>
      </trkpt>
      <trkpt lat="43.2805" lon="5.48207">
        <ele>96.5</ele>
        <time>2016-03-28T10:34:46Z</time>
      </trkpt>
      <trkpt lat="43.28046" lon="5.48204">
        <ele>97.9</ele>
        <time>2016-03-28T10:34:48Z</time>
      </trkpt>
      <trkpt lat="43.28043" lon="5.48201">
        <ele>99.2</ele>
        <time>2016-03-28T10:34:50Z</time>
      </trkpt>
      <trkpt lat="43.2804" lon="5.48198">
        <ele>100.4</ele>
        <time>2016-03-28T10:34:52Z</time>
      </trkpt>
      <trkpt lat="43.28036" lon="5.48199">
        <ele>101</ele>
        <time>2016-03-28T10:36:26Z</time>
      </trkpt>
      <trkpt lat="43.28032" lon="5.48196">
        <ele>102.7</ele>
        <time>2016-03-28T10:36:28Z</time>
      </trkpt>
      <trkpt lat="43.28029" lon="5.48194">
        <ele>103.8</ele>
        <time>2016-03-28T10:36:29Z</time>
      </trkpt>
      <trkpt lat="43.28027" lon="5.48192">
        <ele>104.8</ele>
        <time>2016-03-28T10:36:30Z</time>
      </trkpt>
      <trkpt lat="43.28024" lon="5.4819">
        <ele>105.9</ele>
        <time>2016-03-28T10:36:31Z</time>
      </trkpt>
      <trkpt lat="43.28022" lon="5.48188">
        <ele>106.8</ele>
        <time>2016-03-28T10:36:32Z</time>
      </trkpt>
      <trkpt lat="43.28019" lon="5.48187">
        <ele>107.9</ele>
        <time>2016-03-28T10:36:33Z</time>
      </trkpt>
      <trkpt lat="43.28017" lon="5.48185">
        <ele>108.8</ele>
        <time>2016-03-28T10:36:34Z</time>
      </trkpt>
      <trkpt lat="43.28014" lon="5.48184">
        <ele>109.7</ele>
        <time>2016-03-28T10:36:35Z</time>
      </trkpt>
      <trkpt lat="43.28011" lon="5.48183">
        <ele>110.6</ele>
        <time>2016-03-28T10:36:36Z</time>
      </trkpt>
      <trkpt lat="43.28008" lon="5.48182">
        <ele>111.3</ele>
        <time>2016-03-28T10:36:37Z</time>
      </trkpt>
      <trkpt lat="43.28005" lon="5.48182">
        <ele>112</ele>
        <time>2016-03-28T10:36:38Z</time>
      </trkpt>
      <trkpt lat="43.28002" lon="5.48181">
        <ele>112.8</ele>
        <time>2016-03-28T10:36:39Z</time>
      </trkpt>
      <trkpt lat="43.27999" lon="5.48181">
        <ele>113.5</ele>
        <time>2016-03-28T10:36:40Z</time>
      </trkpt>
      <trkpt lat="43.27996" lon="5.4818">
        <ele>114.1</ele>
        <time>2016-03-28T10:36:41Z</time>
      </trkpt>
      <trkpt lat="43.27994" lon="5.4818">
        <ele>114.8</ele>
        <time>2016-03-28T10:36:42Z</time>
      </trkpt>
      <trkpt lat="43.27989" lon="5.4818">
        <ele>115.7</ele>
        <time>2016-03-28T10:36:44Z</time>
      </trkpt>
      <trkpt lat="43.27984" lon="5.4818">
        <ele>116.6</ele>
        <time>2016-03-28T10:36:46Z</time>
      </trkpt>
      <trkpt lat="43.27981" lon="5.48181">
        <ele>116.9</ele>
        <time>2016-03-28T10:36:47Z</time>
      </trkpt>
      <trkpt lat="43.27978" lon="5.48182">
        <ele>117.1</ele>
        <time>2016-03-28T10:36:48Z</time>
      </trkpt>
      <trkpt lat="43.27975" lon="5.48183">
        <ele>117.4</ele>
        <time>2016-03-28T10:36:49Z</time>
      </trkpt>
      <trkpt lat="43.27972" lon="5.48185">
        <ele>117.7</ele>
        <time>2016-03-28T10:36:50Z</time>
      </trkpt>
      <trkpt lat="43.27969" lon="5.48186">
        <ele>117.8</ele>
        <time>2016-03-28T10:36:51Z</time>
      </trkpt>
      <trkpt lat="43.27966" lon="5.48188">
        <ele>117.8</ele>
        <time>2016-03-28T10:36:52Z</time>
      </trkpt>
      <trkpt lat="43.27963" lon="5.48191">
        <ele>117.8</ele>
        <time>2016-03-28T10:36:53Z</time>
      </trkpt>
      <trkpt lat="43.2796" lon="5.48193">
        <ele>117.8</ele>
        <time>2016-03-28T10:36:54Z</time>
      </trkpt>
      <trkpt lat="43.27957" lon="5.48196">
        <ele>117.7</ele>
        <time>2016-03-28T10:36:55Z</time>
      </trkpt>
      <trkpt lat="43.27954" lon="5.48198">
        <ele>117.7</ele>
        <time>2016-03-28T10:36:56Z</time>
      </trkpt>
      <trkpt lat="43.27952" lon="5.482">
        <ele>117.7</ele>
        <time>2016-03-28T10:36:57Z</time>
      </trkpt>
      <trkpt lat="43.27949" lon="5.48202">
        <ele>117.6</ele>
        <time>2016-03-28T10:36:58Z</time>
      </trkpt>
      <trkpt lat="43.27947" lon="5.48205">
        <ele>117.6</ele>
        <time>2016-03-28T10:36:59Z</time>
      </trkpt>
      <trkpt lat="43.27945" lon="5.48207">
        <ele>117.6</ele>
        <time>2016-03-28T10:37:00Z</time>
      </trkpt>
      <trkpt lat="43.27943" lon="5.48209">
        <ele>117.6</ele>
        <time>2016-03-28T10:37:01Z</time>
      </trkpt>
      <trkpt lat="43.2794" lon="5.48211">
        <ele>117.7</ele>
        <time>2016-03-28T10:37:02Z</time>
      </trkpt>
      <trkpt lat="43.27938" lon="5.48214">
        <ele>117.8</ele>
        <time>2016-03-28T10:37:03Z</time>
      </trkpt>
      <trkpt lat="43.27934" lon="5.48218">
        <ele>118.1</ele>
        <time>2016-03-28T10:37:05Z</time>
      </trkpt>
      <trkpt lat="43.2793" lon="5.48222">
        <ele>118.1</ele>
        <time>2016-03-28T10:37:07Z</time>
      </trkpt>
      <trkpt lat="43.27927" lon="5.48226">
        <ele>118.1</ele>
        <time>2016-03-28T10:37:09Z</time>
      </trkpt>
      <trkpt lat="43.27923" lon="5.48231">
        <ele>118</ele>
        <time>2016-03-28T10:37:11Z</time>
      </trkpt>
      <trkpt lat="43.27919" lon="5.48235">
        <ele>118</ele>
        <time>2016-03-28T10:37:13Z</time>
      </trkpt>
      <trkpt lat="43.27915" lon="5.4824">
        <ele>118</ele>
        <time>2016-03-28T10:37:15Z</time>
      </trkpt>
      <trkpt lat="43.27912" lon="5.48244">
        <ele>117.9</ele>
        <time>2016-03-28T10:37:17Z</time>
      </trkpt>
      <trkpt lat="43.27908" lon="5.48249">
        <ele>117.6</ele>
        <time>2016-03-28T10:37:19Z</time>
      </trkpt>
      <trkpt lat="43.27905" lon="5.48254">
        <ele>117.3</ele>
        <time>2016-03-28T10:37:21Z</time>
      </trkpt>
      <trkpt lat="43.27902" lon="5.48258">
        <ele>117.2</ele>
        <time>2016-03-28T10:37:23Z</time>
      </trkpt>
      <trkpt lat="43.27898" lon="5.48262">
        <ele>117.2</ele>
        <time>2016-03-28T10:37:25Z</time>
      </trkpt>
      <trkpt lat="43.27894" lon="5.48267">
        <ele>117.1</ele>
        <time>2016-03-28T10:37:27Z</time>
      </trkpt>
      <trkpt lat="43.27893" lon="5.4827">
        <ele>116.9</ele>
        <time>2016-03-28T10:37:28Z</time>
      </trkpt>
      <trkpt lat="43.2789" lon="5.48275">
        <ele>116.5</ele>
        <time>2016-03-28T10:37:30Z</time>
      </trkpt>
      <trkpt lat="43.27886" lon="5.4828">
        <ele>116.1</ele>
        <time>2016-03-28T10:37:32Z</time>
      </trkpt>
      <trkpt lat="43.27883" lon="5.48284">
        <ele>116</ele>
        <time>2016-03-28T10:37:34Z</time>
      </trkpt>
      <trkpt lat="43.27879" lon="5.48288">
        <ele>115.9</ele>
        <time>2016-03-28T10:37:36Z</time>
      </trkpt>
      <trkpt lat="43.27876" lon="5.48292">
        <ele>115.7</ele>
        <time>2016-03-28T10:37:38Z</time>
      </trkpt>
      <trkpt lat="43.27872" lon="5.48295">
        <ele>115.9</ele>
        <time>2016-03-28T10:37:40Z</time>
      </trkpt>
      <trkpt lat="43.27868" lon="5.48297">
        <ele>116.5</ele>
        <time>2016-03-28T10:37:42Z</time>
      </trkpt>
      <trkpt lat="43.27863" lon="5.48298">
        <ele>117.2</ele>
        <time>2016-03-28T10:37:44Z</time>
      </trkpt>
      <trkpt lat="43.27859" lon="5.48299">
        <ele>118</ele>
        <time>2016-03-28T10:37:46Z</time>
      </trkpt>
      <trkpt lat="43.27854" lon="5.48298">
        <ele>119</ele>
        <time>2016-03-28T10:37:48Z</time>
      </trkpt>
      <trkpt lat="43.27849" lon="5.48298">
        <ele>120.1</ele>
        <time>2016-03-28T10:37:50Z</time>
      </trkpt>
      <trkpt lat="43.27844" lon="5.48297">
        <ele>121.2</ele>
        <time>2016-03-28T10:37:52Z</time>
      </trkpt>
      <trkpt lat="43.27839" lon="5.48297">
        <ele>122.2</ele>
        <time>2016-03-28T10:37:54Z</time>
      </trkpt>
      <trkpt lat="43.27834" lon="5.48297">
        <ele>123.2</ele>
        <time>2016-03-28T10:37:56Z</time>
      </trkpt>
      <trkpt lat="43.2783" lon="5.48297">
        <ele>124.1</ele>
        <time>2016-03-28T10:37:58Z</time>
      </trkpt>
      <trkpt lat="43.27825" lon="5.48298">
        <ele>124.9</ele>
        <time>2016-03-28T10:38:00Z</time>
      </trkpt>
      <trkpt lat="43.27822" lon="5.48299">
        <ele>125.2</ele>
        <time>2016-03-28T10:38:01Z</time>
      </trkpt>
      <trkpt lat="43.2782" lon="5.48301">
        <ele>125.5</ele>
        <time>2016-03-28T10:38:02Z</time>
      </trkpt>
      <trkpt lat="43.27817" lon="5.48303">
        <ele>125.9</ele>
        <time>2016-03-28T10:38:03Z</time>
      </trkpt>
      <trkpt lat="43.27814" lon="5.48304">
        <ele>126.2</ele>
        <time>2016-03-28T10:38:04Z</time>
      </trkpt>
      <trkpt lat="43.27812" lon="5.48306">
        <ele>126.5</ele>
        <time>2016-03-28T10:38:05Z</time>
      </trkpt>
      <trkpt lat="43.27809" lon="5.48309">
        <ele>126.7</ele>
        <time>2016-03-28T10:38:06Z</time>
      </trkpt>
      <trkpt lat="43.27807" lon="5.48312">
        <ele>126.8</ele>
        <time>2016-03-28T10:38:07Z</time>
      </trkpt>
      <trkpt lat="43.27805" lon="5.48315">
        <ele>126.9</ele>
        <time>2016-03-28T10:38:08Z</time>
      </trkpt>
      <trkpt lat="43.27803" lon="5.48318">
        <ele>127</ele>
        <time>2016-03-28T10:38:09Z</time>
      </trkpt>
      <trkpt lat="43.27802" lon="5.48321">
        <ele>127</ele>
        <time>2016-03-28T10:38:10Z</time>
      </trkpt>
      <trkpt lat="43.278" lon="5.48325">
        <ele>127.1</ele>
        <time>2016-03-28T10:38:11Z</time>
      </trkpt>
      <trkpt lat="43.27798" lon="5.48328">
        <ele>127.1</ele>
        <time>2016-03-28T10:38:12Z</time>
      </trkpt>
      <trkpt lat="43.27797" lon="5.48331">
        <ele>127.1</ele>
        <time>2016-03-28T10:38:13Z</time>
      </trkpt>
      <trkpt lat="43.27795" lon="5.48335">
        <ele>127</ele>
        <time>2016-03-28T10:38:14Z</time>
      </trkpt>
      <trkpt lat="43.27794" lon="5.48339">
        <ele>126.9</ele>
        <time>2016-03-28T10:38:15Z</time>
      </trkpt>
      <trkpt lat="43.27793" lon="5.48343">
        <ele>126.8</ele>
        <time>2016-03-28T10:38:16Z</time>
      </trkpt>
      <trkpt lat="43.27792" lon="5.48346">
        <ele>126.7</ele>
        <time>2016-03-28T10:38:17Z</time>
      </trkpt>
      <trkpt lat="43.27791" lon="5.4835">
        <ele>126.6</ele>
        <time>2016-03-28T10:38:18Z</time>
      </trkpt>
      <trkpt lat="43.27789" lon="5.48357">
        <ele>126.4</ele>
        <time>2016-03-28T10:38:20Z</time>
      </trkpt>
      <trkpt lat="43.27787" lon="5.48363">
        <ele>126.3</ele>
        <time>2016-03-28T10:38:22Z</time>
      </trkpt>
      <trkpt lat="43.27784" lon="5.48368">
        <ele>126.3</ele>
        <time>2016-03-28T10:38:24Z</time>
      </trkpt>
      <trkpt lat="43.27781" lon="5.48374">
        <ele>126.4</ele>
        <time>2016-03-28T10:38:26Z</time>
      </trkpt>
      <trkpt lat="43.27778" lon="5.4838">
        <ele>126.8</ele>
        <time>2016-03-28T10:38:28Z</time>
      </trkpt>
      <trkpt lat="43.27776" lon="5.48383">
        <ele>127</ele>
        <time>2016-03-28T10:38:29Z</time>
      </trkpt>
      <trkpt lat="43.27774" lon="5.48386">
        <ele>127.4</ele>
        <time>2016-03-28T10:38:30Z</time>
      </trkpt>
      <trkpt lat="43.27772" lon="5.48389">
        <ele>127.7</ele>
        <time>2016-03-28T10:38:31Z</time>
      </trkpt>
      <trkpt lat="43.27769" lon="5.48393">
        <ele>128.4</ele>
        <time>2016-03-28T10:38:33Z</time>
      </trkpt>
      <trkpt lat="43.27764" lon="5.48397">
        <ele>129.4</ele>
        <time>2016-03-28T10:38:35Z</time>
      </trkpt>
      <trkpt lat="43.2776" lon="5.48399">
        <ele>130.4</ele>
        <time>2016-03-28T10:38:37Z</time>
      </trkpt>
      <trkpt lat="43.27756" lon="5.48402">
        <ele>131.3</ele>
        <time>2016-03-28T10:38:39Z</time>
      </trkpt>
      <trkpt lat="43.27752" lon="5.48406">
        <ele>132.3</ele>
        <time>2016-03-28T10:38:41Z</time>
      </trkpt>
      <trkpt lat="43.27748" lon="5.48411">
        <ele>133.4</ele>
        <time>2016-03-28T10:38:43Z</time>
      </trkpt>
      <trkpt lat="43.27746" lon="5.48413">
        <ele>133.9</ele>
        <time>2016-03-28T10:38:44Z</time>
      </trkpt>
      <trkpt lat="43.27744" lon="5.48416">
        <ele>134.5</ele>
        <time>2016-03-28T10:38:45Z</time>
      </trkpt>
      <trkpt lat="43.27742" lon="5.48418">
        <ele>135.2</ele>
        <time>2016-03-28T10:38:46Z</time>
      </trkpt>
      <trkpt lat="43.27737" lon="5.4842">
        <ele>136.5</ele>
        <time>2016-03-28T10:38:48Z</time>
      </trkpt>
      <trkpt lat="43.27734" lon="5.48422">
        <ele>137.6</ele>
        <time>2016-03-28T10:38:50Z</time>
      </trkpt>
      <trkpt lat="43.2773" lon="5.48423">
        <ele>138.8</ele>
        <time>2016-03-28T10:38:52Z</time>
      </trkpt>
      <trkpt lat="43.27726" lon="5.48422">
        <ele>140</ele>
        <time>2016-03-28T10:38:54Z</time>
      </trkpt>
      <trkpt lat="43.27722" lon="5.48419">
        <ele>141.1</ele>
        <time>2016-03-28T10:38:56Z</time>
      </trkpt>
      <trkpt lat="43.27718" lon="5.48415">
        <ele>142</ele>
        <time>2016-03-28T10:38:58Z</time>
      </trkpt>
      <trkpt lat="43.27716" lon="5.48409">
        <ele>142.6</ele>
        <time>2016-03-28T10:39:00Z</time>
      </trkpt>
      <trkpt lat="43.27714" lon="5.48405">
        <ele>143</ele>
        <time>2016-03-28T10:39:02Z</time>
      </trkpt>
      <trkpt lat="43.27712" lon="5.484">
        <ele>143.2</ele>
        <time>2016-03-28T10:39:04Z</time>
      </trkpt>
      <trkpt lat="43.27712" lon="5.48395">
        <ele>143</ele>
        <time>2016-03-28T10:39:06Z</time>
      </trkpt>
      <trkpt lat="43.27711" lon="5.48389">
        <ele>142.9</ele>
        <time>2016-03-28T10:39:08Z</time>
      </trkpt>
      <trkpt lat="43.27711" lon="5.48383">
        <ele>142.7</ele>
        <time>2016-03-28T10:39:10Z</time>
      </trkpt>
      <trkpt lat="43.27711" lon="5.48377">
        <ele>142.4</ele>
        <time>2016-03-28T10:39:12Z</time>
      </trkpt>
      <trkpt lat="43.27712" lon="5.48371">
        <ele>142.5</ele>
        <time>2016-03-28T10:39:14Z</time>
      </trkpt>
      <trkpt lat="43.27712" lon="5.48365">
        <ele>142.7</ele>
        <time>2016-03-28T10:39:16Z</time>
      </trkpt>
      <trkpt lat="43.27711" lon="5.48361">
        <ele>143.1</ele>
        <time>2016-03-28T10:39:18Z</time>
      </trkpt>
      <trkpt lat="43.27711" lon="5.48356">
        <ele>143.4</ele>
        <time>2016-03-28T10:39:20Z</time>
      </trkpt>
      <trkpt lat="43.2771" lon="5.48351">
        <ele>143.7</ele>
        <time>2016-03-28T10:39:22Z</time>
      </trkpt>
      <trkpt lat="43.27709" lon="5.48347">
        <ele>144.2</ele>
        <time>2016-03-28T10:39:25Z</time>
      </trkpt>
    </trkseg>
  </trk>
</gpx>